<?xml version='1.0' encoding='UTF-8'?><gpx version="1.1" creator="JPX - https://github.com/jenetics/jpx" xmlns="http://www.topografix.com/GPX/1/1"><trk><trkseg><trkpt lat="40.7529422" lon="-3.7840059"><ele>921.0</ele><time>2026-03-23T08:33:29.719Z</time></trkpt><trkpt lat="40.7528772" lon="-3.7840312"><ele>920.9999999999999</ele><time>2026-03-23T08:33:34.71Z</time></trkpt><trkpt lat="40.7528164" lon="-3.784077"><ele>920.9999999999999</ele><time>2026-03-23T08:33:40.711Z</time></trkpt><trkpt lat="40.7527488" lon="-3.7840839"><ele>921.0</ele><time>2026-03-23T08:39:18.74Z</time></trkpt><trkpt lat="40.7527061" lon="-3.7838667"><ele>921.0</ele><time>2026-03-23T08:39:22.716Z</time></trkpt><trkpt lat="40.7526834" lon="-3.7837559"><ele>920.5999999999999</ele><time>2026-03-23T08:39:23.717Z</time></trkpt><trkpt lat="40.7526665" lon="-3.7836725"><ele>920.1999999999999</ele><time>2026-03-23T08:39:24.704Z</time></trkpt><trkpt lat="40.7526395" lon="-3.7835312"><ele>919.8000000000001</ele><time>2026-03-23T08:39:26.709Z</time></trkpt><trkpt lat="40.7526136" lon="-3.7833887"><ele>919.4000000000001</ele><time>2026-03-23T08:39:28.72Z</time></trkpt><trkpt lat="40.7525847" lon="-3.7832534"><ele>919.0</ele><time>2026-03-23T08:39:30.72Z</time></trkpt><trkpt lat="40.7525923" lon="-3.7831532"><ele>919.0</ele><time>2026-03-23T08:39:32.719Z</time></trkpt><trkpt lat="40.752674" lon="-3.7830521"><ele>919.0000000000001</ele><time>2026-03-23T08:39:34.707Z</time></trkpt><trkpt lat="40.7527274" lon="-3.7830063"><ele>919.0000000000001</ele><time>2026-03-23T08:39:35.693Z</time></trkpt><trkpt lat="40.7528423" lon="-3.7829557"><ele>919.0</ele><time>2026-03-23T08:39:37.697Z</time></trkpt><trkpt lat="40.752951" lon="-3.7829181"><ele>919.0</ele><time>2026-03-23T08:39:39.703Z</time></trkpt><trkpt lat="40.7530397" lon="-3.7829408"><ele>919.1666666666666</ele><time>2026-03-23T08:39:41.724Z</time></trkpt><trkpt lat="40.7530801" lon="-3.783028"><ele>919.3333333333333</ele><time>2026-03-23T08:39:43.723Z</time></trkpt><trkpt lat="40.7530886" lon="-3.7831442"><ele>919.5</ele><time>2026-03-23T08:39:45.711Z</time></trkpt><trkpt lat="40.7531014" lon="-3.7832888"><ele>919.6666666666667</ele><time>2026-03-23T08:39:47.707Z</time></trkpt><trkpt lat="40.7531164" lon="-3.7833696"><ele>919.8333333333334</ele><time>2026-03-23T08:39:48.709Z</time></trkpt><trkpt lat="40.7531269" lon="-3.7834664"><ele>920.0</ele><time>2026-03-23T08:39:49.72Z</time></trkpt><trkpt lat="40.7531538" lon="-3.7835582"><ele>920.1666666666667</ele><time>2026-03-23T08:39:50.709Z</time></trkpt><trkpt lat="40.7531777" lon="-3.7836463"><ele>920.3333333333334</ele><time>2026-03-23T08:39:51.717Z</time></trkpt><trkpt lat="40.7532036" lon="-3.783729"><ele>920.5</ele><time>2026-03-23T08:39:52.725Z</time></trkpt><trkpt lat="40.753231" lon="-3.7838096"><ele>920.6666666666667</ele><time>2026-03-23T08:39:53.703Z</time></trkpt><trkpt lat="40.7532589" lon="-3.7838866"><ele>920.8333333333334</ele><time>2026-03-23T08:39:54.73Z</time></trkpt><trkpt lat="40.7533106" lon="-3.7840332"><ele>921.0</ele><time>2026-03-23T08:39:56.714Z</time></trkpt><trkpt lat="40.7533338" lon="-3.784111"><ele>921.0</ele><time>2026-03-23T08:39:57.729Z</time></trkpt><trkpt lat="40.7533821" lon="-3.7842466"><ele>920.9999999999999</ele><time>2026-03-23T08:39:59.722Z</time></trkpt><trkpt lat="40.7534272" lon="-3.7843764"><ele>920.9999999999999</ele><time>2026-03-23T08:40:01.718Z</time></trkpt><trkpt lat="40.7534907" lon="-3.7844657"><ele>921.0</ele><time>2026-03-23T08:40:03.714Z</time></trkpt><trkpt lat="40.7535527" lon="-3.7845073"><ele>921.0</ele><time>2026-03-23T08:40:06.723Z</time></trkpt><trkpt lat="40.7536166" lon="-3.7844629"><ele>921.1666666666666</ele><time>2026-03-23T08:40:18.701Z</time></trkpt><trkpt lat="40.7536779" lon="-3.7843653"><ele>921.3333333333333</ele><time>2026-03-23T08:40:20.709Z</time></trkpt><trkpt lat="40.7537546" lon="-3.784238"><ele>921.5</ele><time>2026-03-23T08:40:22.705Z</time></trkpt><trkpt lat="40.7537939" lon="-3.7841698"><ele>921.6666666666666</ele><time>2026-03-23T08:40:23.721Z</time></trkpt><trkpt lat="40.7538337" lon="-3.7841033"><ele>921.8333333333333</ele><time>2026-03-23T08:40:24.717Z</time></trkpt><trkpt lat="40.7538773" lon="-3.7840349"><ele>922.0</ele><time>2026-03-23T08:40:25.704Z</time></trkpt><trkpt lat="40.7539211" lon="-3.7839565"><ele>921.9999999999999</ele><time>2026-03-23T08:40:26.703Z</time></trkpt><trkpt lat="40.7539614" lon="-3.7838772"><ele>922.0</ele><time>2026-03-23T08:40:27.724Z</time></trkpt><trkpt lat="40.7540266" lon="-3.7837451"><ele>922.0</ele><time>2026-03-23T08:40:29.711Z</time></trkpt><trkpt lat="40.7540817" lon="-3.7836404"><ele>922.0</ele><time>2026-03-23T08:40:31.719Z</time></trkpt><trkpt lat="40.7541197" lon="-3.7835573"><ele>921.9999999999999</ele><time>2026-03-23T08:40:34.705Z</time></trkpt><trkpt lat="40.7541474" lon="-3.7834798"><ele>922.0</ele><time>2026-03-23T08:40:41.722Z</time></trkpt><trkpt lat="40.7541786" lon="-3.7834008"><ele>922.0</ele><time>2026-03-23T08:40:44.71Z</time></trkpt><trkpt lat="40.7542182" lon="-3.7832779"><ele>922.0</ele><time>2026-03-23T08:40:46.715Z</time></trkpt><trkpt lat="40.7542873" lon="-3.783161"><ele>922.0</ele><time>2026-03-23T08:40:48.707Z</time></trkpt><trkpt lat="40.754339" lon="-3.7830945"><ele>922.0</ele><time>2026-03-23T08:40:49.729Z</time></trkpt><trkpt lat="40.7543942" lon="-3.7830126"><ele>922.0</ele><time>2026-03-23T08:40:50.722Z</time></trkpt><trkpt lat="40.7544576" lon="-3.7829192"><ele>922.6</ele><time>2026-03-23T08:40:51.729Z</time></trkpt><trkpt lat="40.7545158" lon="-3.7828226"><ele>923.2</ele><time>2026-03-23T08:40:52.742Z</time></trkpt><trkpt lat="40.7545659" lon="-3.7827244"><ele>923.8</ele><time>2026-03-23T08:40:53.705Z</time></trkpt><trkpt lat="40.7546193" lon="-3.7826187"><ele>924.4</ele><time>2026-03-23T08:40:54.707Z</time></trkpt><trkpt lat="40.7546748" lon="-3.7825061"><ele>925.0</ele><time>2026-03-23T08:40:55.723Z</time></trkpt><trkpt lat="40.7547326" lon="-3.782394"><ele>925.0</ele><time>2026-03-23T08:40:56.721Z</time></trkpt><trkpt lat="40.7547903" lon="-3.7822761"><ele>925.0</ele><time>2026-03-23T08:40:57.718Z</time></trkpt><trkpt lat="40.7548513" lon="-3.7821525"><ele>925.0</ele><time>2026-03-23T08:40:58.703Z</time></trkpt><trkpt lat="40.7549118" lon="-3.7820315"><ele>925.0</ele><time>2026-03-23T08:40:59.733Z</time></trkpt><trkpt lat="40.75497" lon="-3.7819118"><ele>925.0</ele><time>2026-03-23T08:41:00.709Z</time></trkpt><trkpt lat="40.7550354" lon="-3.7817839"><ele>924.6</ele><time>2026-03-23T08:41:01.723Z</time></trkpt><trkpt lat="40.7550905" lon="-3.7816647"><ele>924.2</ele><time>2026-03-23T08:41:02.72Z</time></trkpt><trkpt lat="40.7551465" lon="-3.78155"><ele>923.8</ele><time>2026-03-23T08:41:03.718Z</time></trkpt><trkpt lat="40.7551975" lon="-3.7814421"><ele>923.4</ele><time>2026-03-23T08:41:04.728Z</time></trkpt><trkpt lat="40.7552422" lon="-3.7813584"><ele>923.0</ele><time>2026-03-23T08:41:05.736Z</time></trkpt><trkpt lat="40.7552799" lon="-3.7812845"><ele>923.0</ele><time>2026-03-23T08:41:06.725Z</time></trkpt><trkpt lat="40.7553288" lon="-3.7811616"><ele>923.0</ele><time>2026-03-23T08:41:08.716Z</time></trkpt><trkpt lat="40.7553656" lon="-3.7810676"><ele>923.0</ele><time>2026-03-23T08:41:10.714Z</time></trkpt><trkpt lat="40.7553866" lon="-3.7809708"><ele>923.0</ele><time>2026-03-23T08:41:12.719Z</time></trkpt><trkpt lat="40.7554346" lon="-3.7808676"><ele>923.0</ele><time>2026-03-23T08:41:14.711Z</time></trkpt><trkpt lat="40.7555299" lon="-3.7807482"><ele>923.5999999999999</ele><time>2026-03-23T08:41:16.713Z</time></trkpt><trkpt lat="40.7555784" lon="-3.7806718"><ele>924.1999999999999</ele><time>2026-03-23T08:41:17.714Z</time></trkpt><trkpt lat="40.7556292" lon="-3.7805704"><ele>924.8</ele><time>2026-03-23T08:41:18.729Z</time></trkpt><trkpt lat="40.7556872" lon="-3.7804567"><ele>925.4</ele><time>2026-03-23T08:41:19.706Z</time></trkpt><trkpt lat="40.7557451" lon="-3.7803376"><ele>926.0</ele><time>2026-03-23T08:41:20.715Z</time></trkpt><trkpt lat="40.7558077" lon="-3.7802195"><ele>926.5</ele><time>2026-03-23T08:41:21.71Z</time></trkpt><trkpt lat="40.7558724" lon="-3.7800977"><ele>927.0</ele><time>2026-03-23T08:41:22.715Z</time></trkpt><trkpt lat="40.755941" lon="-3.7799671"><ele>927.5</ele><time>2026-03-23T08:41:23.711Z</time></trkpt><trkpt lat="40.75601" lon="-3.7798327"><ele>928.0</ele><time>2026-03-23T08:41:24.711Z</time></trkpt><trkpt lat="40.7560871" lon="-3.7796849"><ele>928.0</ele><time>2026-03-23T08:41:25.716Z</time></trkpt><trkpt lat="40.756163" lon="-3.779535"><ele>928.0</ele><time>2026-03-23T08:41:26.713Z</time></trkpt><trkpt lat="40.7562386" lon="-3.779376"><ele>928.0</ele><time>2026-03-23T08:41:27.706Z</time></trkpt><trkpt lat="40.7563147" lon="-3.7792227"><ele>928.0</ele><time>2026-03-23T08:41:28.718Z</time></trkpt><trkpt lat="40.7563866" lon="-3.7790645"><ele>929.3333333333333</ele><time>2026-03-23T08:41:29.714Z</time></trkpt><trkpt lat="40.7564586" lon="-3.7788973"><ele>930.6666666666667</ele><time>2026-03-23T08:41:30.713Z</time></trkpt><trkpt lat="40.7565286" lon="-3.7787156"><ele>932.0</ele><time>2026-03-23T08:41:31.716Z</time></trkpt><trkpt lat="40.7565926" lon="-3.7785266"><ele>932.6666666666667</ele><time>2026-03-23T08:41:32.72Z</time></trkpt><trkpt lat="40.7566519" lon="-3.7783325"><ele>933.3333333333333</ele><time>2026-03-23T08:41:33.701Z</time></trkpt><trkpt lat="40.7567063" lon="-3.778131"><ele>934.0</ele><time>2026-03-23T08:41:34.718Z</time></trkpt><trkpt lat="40.7567563" lon="-3.7779189"><ele>934.0</ele><time>2026-03-23T08:41:35.711Z</time></trkpt><trkpt lat="40.7568066" lon="-3.7777091"><ele>934.0</ele><time>2026-03-23T08:41:36.71Z</time></trkpt><trkpt lat="40.7568556" lon="-3.7774967"><ele>934.0</ele><time>2026-03-23T08:41:37.713Z</time></trkpt><trkpt lat="40.7569022" lon="-3.7772812"><ele>934.3333333333333</ele><time>2026-03-23T08:41:38.71Z</time></trkpt><trkpt lat="40.7569479" lon="-3.777069"><ele>934.6666666666667</ele><time>2026-03-23T08:41:39.704Z</time></trkpt><trkpt lat="40.7569911" lon="-3.7768566"><ele>935.0</ele><time>2026-03-23T08:41:40.711Z</time></trkpt><trkpt lat="40.7570303" lon="-3.7766542"><ele>935.0</ele><time>2026-03-23T08:41:41.713Z</time></trkpt><trkpt lat="40.7570668" lon="-3.7764764"><ele>935.0</ele><time>2026-03-23T08:41:42.719Z</time></trkpt><trkpt lat="40.7571033" lon="-3.7763069"><ele>935.0</ele><time>2026-03-23T08:41:43.716Z</time></trkpt><trkpt lat="40.7571421" lon="-3.7761374"><ele>935.0</ele><time>2026-03-23T08:41:44.712Z</time></trkpt><trkpt lat="40.7571737" lon="-3.7759801"><ele>935.6</ele><time>2026-03-23T08:41:45.702Z</time></trkpt><trkpt lat="40.7572065" lon="-3.7758318"><ele>936.2</ele><time>2026-03-23T08:41:46.724Z</time></trkpt><trkpt lat="40.7572376" lon="-3.7756885"><ele>936.8</ele><time>2026-03-23T08:41:47.709Z</time></trkpt><trkpt lat="40.7572648" lon="-3.7755595"><ele>937.4</ele><time>2026-03-23T08:41:48.716Z</time></trkpt><trkpt lat="40.757288" lon="-3.775439"><ele>938.0</ele><time>2026-03-23T08:41:49.721Z</time></trkpt><trkpt lat="40.7572985" lon="-3.7753279"><ele>938.0000000000001</ele><time>2026-03-23T08:41:50.721Z</time></trkpt><trkpt lat="40.7573015" lon="-3.7752204"><ele>938.0</ele><time>2026-03-23T08:41:51.707Z</time></trkpt><trkpt lat="40.7572949" lon="-3.7751068"><ele>938.0</ele><time>2026-03-23T08:41:52.726Z</time></trkpt><trkpt lat="40.7572855" lon="-3.7750006"><ele>938.0</ele><time>2026-03-23T08:41:53.712Z</time></trkpt><trkpt lat="40.7572852" lon="-3.774902"><ele>938.0000000000001</ele><time>2026-03-23T08:41:54.714Z</time></trkpt><trkpt lat="40.7573128" lon="-3.7747955"><ele>938.0</ele><time>2026-03-23T08:41:55.727Z</time></trkpt><trkpt lat="40.7573555" lon="-3.7747111"><ele>937.8</ele><time>2026-03-23T08:41:56.713Z</time></trkpt><trkpt lat="40.7574036" lon="-3.7746246"><ele>937.5999999999999</ele><time>2026-03-23T08:41:57.714Z</time></trkpt><trkpt lat="40.7574452" lon="-3.7745189"><ele>937.4000000000001</ele><time>2026-03-23T08:41:58.715Z</time></trkpt><trkpt lat="40.7574889" lon="-3.774409"><ele>937.2</ele><time>2026-03-23T08:41:59.711Z</time></trkpt><trkpt lat="40.7575305" lon="-3.7742827"><ele>937.0</ele><time>2026-03-23T08:42:00.72Z</time></trkpt><trkpt lat="40.7575616" lon="-3.7741607"><ele>936.8</ele><time>2026-03-23T08:42:01.718Z</time></trkpt><trkpt lat="40.757588" lon="-3.7740361"><ele>936.6</ele><time>2026-03-23T08:42:02.724Z</time></trkpt><trkpt lat="40.7576189" lon="-3.7739159"><ele>936.3999999999999</ele><time>2026-03-23T08:42:03.706Z</time></trkpt><trkpt lat="40.7576588" lon="-3.7738128"><ele>936.1999999999999</ele><time>2026-03-23T08:42:04.714Z</time></trkpt><trkpt lat="40.757716" lon="-3.7737282"><ele>936.0</ele><time>2026-03-23T08:42:05.717Z</time></trkpt><trkpt lat="40.7577836" lon="-3.7736612"><ele>936.0</ele><time>2026-03-23T08:42:06.712Z</time></trkpt><trkpt lat="40.7578544" lon="-3.7735865"><ele>935.9999999999999</ele><time>2026-03-23T08:42:07.714Z</time></trkpt><trkpt lat="40.7579266" lon="-3.7734979"><ele>935.9999999999999</ele><time>2026-03-23T08:42:08.709Z</time></trkpt><trkpt lat="40.7579912" lon="-3.7734084"><ele>936.0</ele><time>2026-03-23T08:42:09.701Z</time></trkpt><trkpt lat="40.7580478" lon="-3.7733136"><ele>936.0</ele><time>2026-03-23T08:42:10.724Z</time></trkpt><trkpt lat="40.7580992" lon="-3.7732217"><ele>936.4</ele><time>2026-03-23T08:42:11.715Z</time></trkpt><trkpt lat="40.7581499" lon="-3.7731185"><ele>936.8</ele><time>2026-03-23T08:42:12.718Z</time></trkpt><trkpt lat="40.7582027" lon="-3.773011"><ele>937.1999999999999</ele><time>2026-03-23T08:42:13.709Z</time></trkpt><trkpt lat="40.7582599" lon="-3.7728991"><ele>937.5999999999999</ele><time>2026-03-23T08:42:14.702Z</time></trkpt><trkpt lat="40.7583113" lon="-3.7727646"><ele>938.0</ele><time>2026-03-23T08:42:15.716Z</time></trkpt><trkpt lat="40.7583614" lon="-3.7726176"><ele>938.75</ele><time>2026-03-23T08:42:16.715Z</time></trkpt><trkpt lat="40.758405" lon="-3.772467"><ele>939.5</ele><time>2026-03-23T08:42:17.709Z</time></trkpt><trkpt lat="40.7584394" lon="-3.7723137"><ele>940.25</ele><time>2026-03-23T08:42:18.698Z</time></trkpt><trkpt lat="40.7584737" lon="-3.7721677"><ele>941.0</ele><time>2026-03-23T08:42:19.711Z</time></trkpt><trkpt lat="40.7585068" lon="-3.772026"><ele>941.5</ele><time>2026-03-23T08:42:20.698Z</time></trkpt><trkpt lat="40.7585432" lon="-3.7718902"><ele>942.0</ele><time>2026-03-23T08:42:21.727Z</time></trkpt><trkpt lat="40.758592" lon="-3.7717515"><ele>942.5</ele><time>2026-03-23T08:42:22.715Z</time></trkpt><trkpt lat="40.7586442" lon="-3.7716114"><ele>943.0</ele><time>2026-03-23T08:42:23.713Z</time></trkpt><trkpt lat="40.7586925" lon="-3.7714729"><ele>943.0</ele><time>2026-03-23T08:42:24.709Z</time></trkpt><trkpt lat="40.7587319" lon="-3.7713325"><ele>943.0</ele><time>2026-03-23T08:42:25.714Z</time></trkpt><trkpt lat="40.7587681" lon="-3.7711934"><ele>943.0</ele><time>2026-03-23T08:42:26.712Z</time></trkpt><trkpt lat="40.7587995" lon="-3.771054"><ele>943.0</ele><time>2026-03-23T08:42:27.717Z</time></trkpt><trkpt lat="40.7588339" lon="-3.7709057"><ele>943.0</ele><time>2026-03-23T08:42:28.714Z</time></trkpt><trkpt lat="40.7588674" lon="-3.7707531"><ele>943.0</ele><time>2026-03-23T08:42:29.692Z</time></trkpt><trkpt lat="40.758901" lon="-3.7706051"><ele>943.0</ele><time>2026-03-23T08:42:30.716Z</time></trkpt><trkpt lat="40.7589417" lon="-3.7704536"><ele>943.0</ele><time>2026-03-23T08:42:31.719Z</time></trkpt><trkpt lat="40.7589883" lon="-3.7702999"><ele>943.0</ele><time>2026-03-23T08:42:32.717Z</time></trkpt><trkpt lat="40.759045" lon="-3.7701608"><ele>943.0</ele><time>2026-03-23T08:42:33.712Z</time></trkpt><trkpt lat="40.7591288" lon="-3.7700464"><ele>943.0</ele><time>2026-03-23T08:42:34.704Z</time></trkpt><trkpt lat="40.7592302" lon="-3.7699479"><ele>943.0</ele><time>2026-03-23T08:42:35.73Z</time></trkpt><trkpt lat="40.7593331" lon="-3.7698485"><ele>945.0</ele><time>2026-03-23T08:42:36.718Z</time></trkpt><trkpt lat="40.7594395" lon="-3.7697487"><ele>947.0</ele><time>2026-03-23T08:42:37.704Z</time></trkpt><trkpt lat="40.7595387" lon="-3.7696382"><ele>949.0</ele><time>2026-03-23T08:42:38.709Z</time></trkpt><trkpt lat="40.7596343" lon="-3.769531"><ele>951.0</ele><time>2026-03-23T08:42:39.718Z</time></trkpt><trkpt lat="40.759732" lon="-3.7694313"><ele>951.25</ele><time>2026-03-23T08:42:40.7Z</time></trkpt><trkpt lat="40.75983" lon="-3.7693323"><ele>951.5</ele><time>2026-03-23T08:42:41.711Z</time></trkpt><trkpt lat="40.759934" lon="-3.7692491"><ele>951.75</ele><time>2026-03-23T08:42:42.708Z</time></trkpt><trkpt lat="40.7600434" lon="-3.7691699"><ele>952.0</ele><time>2026-03-23T08:42:43.708Z</time></trkpt><trkpt lat="40.7601453" lon="-3.7690777"><ele>954.25</ele><time>2026-03-23T08:42:44.72Z</time></trkpt><trkpt lat="40.7602283" lon="-3.7689608"><ele>956.5</ele><time>2026-03-23T08:42:45.713Z</time></trkpt><trkpt lat="40.7602986" lon="-3.7688173"><ele>958.75</ele><time>2026-03-23T08:42:46.702Z</time></trkpt><trkpt lat="40.7603703" lon="-3.7686729"><ele>961.0</ele><time>2026-03-23T08:42:47.709Z</time></trkpt><trkpt lat="40.7604335" lon="-3.7685208"><ele>961.0</ele><time>2026-03-23T08:42:48.709Z</time></trkpt><trkpt lat="40.7604854" lon="-3.7683558"><ele>961.0</ele><time>2026-03-23T08:42:49.712Z</time></trkpt><trkpt lat="40.7605184" lon="-3.7681889"><ele>961.0</ele><time>2026-03-23T08:42:50.711Z</time></trkpt><trkpt lat="40.7605493" lon="-3.7680113"><ele>961.0</ele><time>2026-03-23T08:42:51.71Z</time></trkpt><trkpt lat="40.760594" lon="-3.7678454"><ele>961.0</ele><time>2026-03-23T08:42:52.708Z</time></trkpt><trkpt lat="40.7606437" lon="-3.7676799"><ele>961.0</ele><time>2026-03-23T08:42:53.716Z</time></trkpt><trkpt lat="40.7607014" lon="-3.767511"><ele>961.0</ele><time>2026-03-23T08:42:54.716Z</time></trkpt><trkpt lat="40.7607523" lon="-3.7673435"><ele>961.0</ele><time>2026-03-23T08:42:55.718Z</time></trkpt><trkpt lat="40.7608018" lon="-3.7671811"><ele>961.0</ele><time>2026-03-23T08:42:56.711Z</time></trkpt><trkpt lat="40.7608482" lon="-3.7670313"><ele>960.9999999999999</ele><time>2026-03-23T08:42:57.706Z</time></trkpt><trkpt lat="40.7608881" lon="-3.766896"><ele>960.9999999999999</ele><time>2026-03-23T08:42:58.73Z</time></trkpt><trkpt lat="40.7609269" lon="-3.7667767"><ele>961.0</ele><time>2026-03-23T08:42:59.693Z</time></trkpt><trkpt lat="40.7609402" lon="-3.7666824"><ele>961.0</ele><time>2026-03-23T08:43:00.702Z</time></trkpt><trkpt lat="40.7609251" lon="-3.7665908"><ele>961.1666666666666</ele><time>2026-03-23T08:43:01.706Z</time></trkpt><trkpt lat="40.7608713" lon="-3.7665116"><ele>961.3333333333333</ele><time>2026-03-23T08:43:02.695Z</time></trkpt><trkpt lat="40.7608103" lon="-3.7664216"><ele>961.5</ele><time>2026-03-23T08:43:03.713Z</time></trkpt><trkpt lat="40.7607576" lon="-3.7663303"><ele>961.6666666666667</ele><time>2026-03-23T08:43:04.716Z</time></trkpt><trkpt lat="40.7607147" lon="-3.7662282"><ele>961.8333333333334</ele><time>2026-03-23T08:43:05.721Z</time></trkpt><trkpt lat="40.7606731" lon="-3.766131"><ele>962.0</ele><time>2026-03-23T08:43:06.716Z</time></trkpt><trkpt lat="40.7606635" lon="-3.7660416"><ele>961.6666666666667</ele><time>2026-03-23T08:43:07.708Z</time></trkpt><trkpt lat="40.7606832" lon="-3.7659535"><ele>961.3333333333334</ele><time>2026-03-23T08:43:08.711Z</time></trkpt><trkpt lat="40.7607217" lon="-3.7658805"><ele>961.0</ele><time>2026-03-23T08:43:09.708Z</time></trkpt><trkpt lat="40.7607847" lon="-3.7658117"><ele>960.6666666666667</ele><time>2026-03-23T08:43:10.705Z</time></trkpt><trkpt lat="40.7608517" lon="-3.7657485"><ele>960.3333333333334</ele><time>2026-03-23T08:43:11.705Z</time></trkpt><trkpt lat="40.7609179" lon="-3.7657086"><ele>960.0</ele><time>2026-03-23T08:43:12.712Z</time></trkpt><trkpt lat="40.7609918" lon="-3.7656537"><ele>961.1666666666666</ele><time>2026-03-23T08:43:13.701Z</time></trkpt><trkpt lat="40.7610642" lon="-3.7656003"><ele>962.3333333333333</ele><time>2026-03-23T08:43:14.7Z</time></trkpt><trkpt lat="40.7611272" lon="-3.7655444"><ele>963.5</ele><time>2026-03-23T08:43:15.706Z</time></trkpt><trkpt lat="40.7611648" lon="-3.7654454"><ele>964.6666666666666</ele><time>2026-03-23T08:43:16.705Z</time></trkpt><trkpt lat="40.7611795" lon="-3.7653372"><ele>965.8333333333333</ele><time>2026-03-23T08:43:17.711Z</time></trkpt><trkpt lat="40.7611997" lon="-3.765208"><ele>967.0</ele><time>2026-03-23T08:43:18.701Z</time></trkpt><trkpt lat="40.7612248" lon="-3.7650689"><ele>967.0</ele><time>2026-03-23T08:43:19.709Z</time></trkpt><trkpt lat="40.7612428" lon="-3.7649366"><ele>967.0</ele><time>2026-03-23T08:43:20.706Z</time></trkpt><trkpt lat="40.7612569" lon="-3.764785"><ele>967.0</ele><time>2026-03-23T08:43:21.711Z</time></trkpt><trkpt lat="40.7612775" lon="-3.7646412"><ele>967.0</ele><time>2026-03-23T08:43:22.698Z</time></trkpt><trkpt lat="40.761307" lon="-3.7645151"><ele>967.0</ele><time>2026-03-23T08:43:23.707Z</time></trkpt><trkpt lat="40.7613364" lon="-3.7643972"><ele>966.4000000000001</ele><time>2026-03-23T08:43:24.706Z</time></trkpt><trkpt lat="40.7613688" lon="-3.764282"><ele>965.8000000000001</ele><time>2026-03-23T08:43:25.709Z</time></trkpt><trkpt lat="40.761409" lon="-3.7641646"><ele>965.2</ele><time>2026-03-23T08:43:26.704Z</time></trkpt><trkpt lat="40.7614467" lon="-3.7640508"><ele>964.6</ele><time>2026-03-23T08:43:27.715Z</time></trkpt><trkpt lat="40.7614773" lon="-3.7639508"><ele>964.0</ele><time>2026-03-23T08:43:28.714Z</time></trkpt><trkpt lat="40.7615129" lon="-3.7638155"><ele>964.0</ele><time>2026-03-23T08:43:30.712Z</time></trkpt><trkpt lat="40.7614865" lon="-3.7636712"><ele>964.0000000000001</ele><time>2026-03-23T08:43:32.714Z</time></trkpt><trkpt lat="40.7614689" lon="-3.7635837"><ele>964.0000000000001</ele><time>2026-03-23T08:43:33.716Z</time></trkpt><trkpt lat="40.7614402" lon="-3.763476"><ele>964.0</ele><time>2026-03-23T08:43:34.707Z</time></trkpt><trkpt lat="40.7614233" lon="-3.763353"><ele>964.0</ele><time>2026-03-23T08:43:35.708Z</time></trkpt><trkpt lat="40.7614144" lon="-3.7632248"><ele>963.75</ele><time>2026-03-23T08:43:36.709Z</time></trkpt><trkpt lat="40.7614166" lon="-3.7630841"><ele>963.5</ele><time>2026-03-23T08:43:37.706Z</time></trkpt><trkpt lat="40.7614221" lon="-3.7629319"><ele>963.25</ele><time>2026-03-23T08:43:38.707Z</time></trkpt><trkpt lat="40.7614329" lon="-3.7627737"><ele>963.0</ele><time>2026-03-23T08:43:39.711Z</time></trkpt><trkpt lat="40.7614492" lon="-3.7626125"><ele>963.5</ele><time>2026-03-23T08:43:40.709Z</time></trkpt><trkpt lat="40.7614673" lon="-3.7624491"><ele>964.0</ele><time>2026-03-23T08:43:41.713Z</time></trkpt><trkpt lat="40.7614888" lon="-3.7622787"><ele>964.5</ele><time>2026-03-23T08:43:42.698Z</time></trkpt><trkpt lat="40.7615146" lon="-3.7621258"><ele>965.0</ele><time>2026-03-23T08:43:43.712Z</time></trkpt><trkpt lat="40.7615361" lon="-3.7619748"><ele>965.75</ele><time>2026-03-23T08:43:44.711Z</time></trkpt><trkpt lat="40.7615632" lon="-3.761819"><ele>966.5</ele><time>2026-03-23T08:43:45.711Z</time></trkpt><trkpt lat="40.7615866" lon="-3.7616562"><ele>967.25</ele><time>2026-03-23T08:43:46.711Z</time></trkpt><trkpt lat="40.7616117" lon="-3.761493"><ele>968.0</ele><time>2026-03-23T08:43:47.715Z</time></trkpt><trkpt lat="40.7616333" lon="-3.7613288"><ele>968.0</ele><time>2026-03-23T08:43:48.713Z</time></trkpt><trkpt lat="40.7616568" lon="-3.7611592"><ele>968.0</ele><time>2026-03-23T08:43:49.718Z</time></trkpt><trkpt lat="40.7616843" lon="-3.761011"><ele>968.0</ele><time>2026-03-23T08:43:50.706Z</time></trkpt><trkpt lat="40.7617097" lon="-3.7608789"><ele>968.0</ele><time>2026-03-23T08:43:51.712Z</time></trkpt><trkpt lat="40.7617373" lon="-3.7607638"><ele>968.0</ele><time>2026-03-23T08:43:52.718Z</time></trkpt><trkpt lat="40.7617525" lon="-3.760666"><ele>968.0000000000001</ele><time>2026-03-23T08:43:53.709Z</time></trkpt><trkpt lat="40.7617596" lon="-3.7605811"><ele>968.0</ele><time>2026-03-23T08:43:54.708Z</time></trkpt><trkpt lat="40.7617413" lon="-3.7604995"><ele>968.0</ele><time>2026-03-23T08:43:55.724Z</time></trkpt><trkpt lat="40.7617091" lon="-3.7604186"><ele>968.0</ele><time>2026-03-23T08:43:56.695Z</time></trkpt><trkpt lat="40.7616776" lon="-3.7603289"><ele>968.0000000000001</ele><time>2026-03-23T08:43:57.712Z</time></trkpt><trkpt lat="40.7616398" lon="-3.7602157"><ele>968.0</ele><time>2026-03-23T08:43:58.71Z</time></trkpt><trkpt lat="40.7616099" lon="-3.7600766"><ele>968.8</ele><time>2026-03-23T08:43:59.705Z</time></trkpt><trkpt lat="40.7615864" lon="-3.7599402"><ele>969.5999999999999</ele><time>2026-03-23T08:44:00.735Z</time></trkpt><trkpt lat="40.76158" lon="-3.7598099"><ele>970.4000000000001</ele><time>2026-03-23T08:44:01.707Z</time></trkpt><trkpt lat="40.7615914" lon="-3.7596727"><ele>971.2</ele><time>2026-03-23T08:44:02.713Z</time></trkpt><trkpt lat="40.7616109" lon="-3.7595383"><ele>972.0</ele><time>2026-03-23T08:44:03.718Z</time></trkpt><trkpt lat="40.7616485" lon="-3.7593915"><ele>973.5</ele><time>2026-03-23T08:44:04.718Z</time></trkpt><trkpt lat="40.7616984" lon="-3.7592511"><ele>975.0</ele><time>2026-03-23T08:44:05.696Z</time></trkpt><trkpt lat="40.7617519" lon="-3.759112"><ele>976.5</ele><time>2026-03-23T08:44:06.714Z</time></trkpt><trkpt lat="40.7618036" lon="-3.758979"><ele>978.0</ele><time>2026-03-23T08:44:07.715Z</time></trkpt><trkpt lat="40.7618466" lon="-3.7588431"><ele>977.8</ele><time>2026-03-23T08:44:08.703Z</time></trkpt><trkpt lat="40.7618751" lon="-3.7587009"><ele>977.5999999999999</ele><time>2026-03-23T08:44:09.711Z</time></trkpt><trkpt lat="40.7618992" lon="-3.7585615"><ele>977.4000000000001</ele><time>2026-03-23T08:44:10.71Z</time></trkpt><trkpt lat="40.7619124" lon="-3.7584279"><ele>977.2</ele><time>2026-03-23T08:44:11.715Z</time></trkpt><trkpt lat="40.7619109" lon="-3.7583006"><ele>977.0</ele><time>2026-03-23T08:44:12.7Z</time></trkpt><trkpt lat="40.7619026" lon="-3.7581669"><ele>977.5000000000001</ele><time>2026-03-23T08:44:13.71Z</time></trkpt><trkpt lat="40.7618856" lon="-3.7580482"><ele>978.0</ele><time>2026-03-23T08:44:14.725Z</time></trkpt><trkpt lat="40.7618728" lon="-3.7579541"><ele>978.5</ele><time>2026-03-23T08:44:15.699Z</time></trkpt><trkpt lat="40.7618611" lon="-3.7578455"><ele>979.0</ele><time>2026-03-23T08:44:17.723Z</time></trkpt><trkpt lat="40.7618719" lon="-3.7577273"><ele>979.5000000000001</ele><time>2026-03-23T08:44:19.699Z</time></trkpt><trkpt lat="40.7618795" lon="-3.75764"><ele>980.0</ele><time>2026-03-23T08:44:20.712Z</time></trkpt><trkpt lat="40.7618958" lon="-3.7575297"><ele>980.0</ele><time>2026-03-23T08:44:21.703Z</time></trkpt><trkpt lat="40.7619203" lon="-3.7574043"><ele>980.0</ele><time>2026-03-23T08:44:22.696Z</time></trkpt><trkpt lat="40.761942" lon="-3.757278"><ele>980.0</ele><time>2026-03-23T08:44:23.704Z</time></trkpt><trkpt lat="40.7619739" lon="-3.7571557"><ele>980.0</ele><time>2026-03-23T08:44:24.713Z</time></trkpt><trkpt lat="40.7620054" lon="-3.7570307"><ele>980.0</ele><time>2026-03-23T08:44:25.712Z</time></trkpt><trkpt lat="40.7620341" lon="-3.7568906"><ele>980.25</ele><time>2026-03-23T08:44:26.708Z</time></trkpt><trkpt lat="40.762076" lon="-3.7567452"><ele>980.5</ele><time>2026-03-23T08:44:27.719Z</time></trkpt><trkpt lat="40.7621115" lon="-3.7565889"><ele>980.75</ele><time>2026-03-23T08:44:28.721Z</time></trkpt><trkpt lat="40.7621635" lon="-3.7564196"><ele>981.0</ele><time>2026-03-23T08:44:29.72Z</time></trkpt><trkpt lat="40.7622116" lon="-3.7562609"><ele>981.0</ele><time>2026-03-23T08:44:30.719Z</time></trkpt><trkpt lat="40.7622633" lon="-3.7560884"><ele>981.0</ele><time>2026-03-23T08:44:31.715Z</time></trkpt><trkpt lat="40.7623059" lon="-3.7559199"><ele>981.0</ele><time>2026-03-23T08:44:32.719Z</time></trkpt><trkpt lat="40.7623474" lon="-3.7557559"><ele>981.0</ele><time>2026-03-23T08:44:33.712Z</time></trkpt><trkpt lat="40.7623847" lon="-3.755596"><ele>981.8</ele><time>2026-03-23T08:44:34.702Z</time></trkpt><trkpt lat="40.7624162" lon="-3.7554385"><ele>982.5999999999999</ele><time>2026-03-23T08:44:35.715Z</time></trkpt><trkpt lat="40.7624421" lon="-3.7553063"><ele>983.4</ele><time>2026-03-23T08:44:36.71Z</time></trkpt><trkpt lat="40.7624582" lon="-3.7551977"><ele>984.2</ele><time>2026-03-23T08:44:37.729Z</time></trkpt><trkpt lat="40.7624934" lon="-3.7551134"><ele>985.0</ele><time>2026-03-23T08:44:38.702Z</time></trkpt><trkpt lat="40.7625381" lon="-3.7550402"><ele>985.8333333333333</ele><time>2026-03-23T08:44:39.731Z</time></trkpt><trkpt lat="40.7625861" lon="-3.754964"><ele>986.6666666666666</ele><time>2026-03-23T08:44:40.802Z</time></trkpt><trkpt lat="40.7626196" lon="-3.754892"><ele>987.5</ele><time>2026-03-23T08:44:41.716Z</time></trkpt><trkpt lat="40.7626594" lon="-3.7547609"><ele>988.3333333333333</ele><time>2026-03-23T08:44:43.792Z</time></trkpt><trkpt lat="40.7626744" lon="-3.7546698"><ele>989.1666666666666</ele><time>2026-03-23T08:44:44.723Z</time></trkpt><trkpt lat="40.7626937" lon="-3.7545686"><ele>990.0</ele><time>2026-03-23T08:44:45.719Z</time></trkpt><trkpt lat="40.7627258" lon="-3.7544608"><ele>990.4</ele><time>2026-03-23T08:44:46.726Z</time></trkpt><trkpt lat="40.7627568" lon="-3.7543452"><ele>990.8</ele><time>2026-03-23T08:44:47.741Z</time></trkpt><trkpt lat="40.7627922" lon="-3.7542156"><ele>991.2</ele><time>2026-03-23T08:44:48.709Z</time></trkpt><trkpt lat="40.7628296" lon="-3.7540818"><ele>991.6</ele><time>2026-03-23T08:44:49.743Z</time></trkpt><trkpt lat="40.7628693" lon="-3.7539299"><ele>992.0</ele><time>2026-03-23T08:44:50.718Z</time></trkpt><trkpt lat="40.7629088" lon="-3.7537734"><ele>992.0</ele><time>2026-03-23T08:44:51.733Z</time></trkpt><trkpt lat="40.7629496" lon="-3.7536208"><ele>992.0</ele><time>2026-03-23T08:44:52.699Z</time></trkpt><trkpt lat="40.7629872" lon="-3.7534705"><ele>992.0</ele><time>2026-03-23T08:44:53.723Z</time></trkpt><trkpt lat="40.763028" lon="-3.7533204"><ele>992.0</ele><time>2026-03-23T08:44:54.711Z</time></trkpt><trkpt lat="40.7630658" lon="-3.7531751"><ele>993.25</ele><time>2026-03-23T08:44:55.718Z</time></trkpt><trkpt lat="40.7631105" lon="-3.7530168"><ele>994.5</ele><time>2026-03-23T08:44:56.813Z</time></trkpt><trkpt lat="40.7631614" lon="-3.7528531"><ele>995.75</ele><time>2026-03-23T08:44:57.722Z</time></trkpt><trkpt lat="40.7632122" lon="-3.7526899"><ele>997.0</ele><time>2026-03-23T08:44:58.715Z</time></trkpt><trkpt lat="40.7632612" lon="-3.7525299"><ele>997.4000000000001</ele><time>2026-03-23T08:44:59.712Z</time></trkpt><trkpt lat="40.7632992" lon="-3.7523963"><ele>997.8000000000001</ele><time>2026-03-23T08:45:00.702Z</time></trkpt><trkpt lat="40.7633361" lon="-3.7522849"><ele>998.2</ele><time>2026-03-23T08:45:01.7Z</time></trkpt><trkpt lat="40.7633724" lon="-3.7521944"><ele>998.6</ele><time>2026-03-23T08:45:02.727Z</time></trkpt><trkpt lat="40.7634115" lon="-3.752116"><ele>999.0</ele><time>2026-03-23T08:45:03.736Z</time></trkpt><trkpt lat="40.7635014" lon="-3.7520367"><ele>999.8000000000001</ele><time>2026-03-23T08:45:05.71Z</time></trkpt><trkpt lat="40.7636274" lon="-3.7520246"><ele>1000.6000000000001</ele><time>2026-03-23T08:45:07.723Z</time></trkpt><trkpt lat="40.7636976" lon="-3.7520216"><ele>1001.4</ele><time>2026-03-23T08:45:08.709Z</time></trkpt><trkpt lat="40.7637831" lon="-3.7520186"><ele>1002.2</ele><time>2026-03-23T08:45:09.722Z</time></trkpt><trkpt lat="40.7638735" lon="-3.7520141"><ele>1003.0</ele><time>2026-03-23T08:45:10.829Z</time></trkpt><trkpt lat="40.7640589" lon="-3.7520067"><ele>1003.0</ele><time>2026-03-23T08:45:12.728Z</time></trkpt><trkpt lat="40.7641563" lon="-3.7519921"><ele>1003.0</ele><time>2026-03-23T08:45:13.722Z</time></trkpt><trkpt lat="40.7642495" lon="-3.7519795"><ele>1003.0</ele><time>2026-03-23T08:45:14.712Z</time></trkpt><trkpt lat="40.7643463" lon="-3.7519844"><ele>1003.0</ele><time>2026-03-23T08:45:15.732Z</time></trkpt><trkpt lat="40.7644495" lon="-3.752"><ele>1003.0</ele><time>2026-03-23T08:45:16.722Z</time></trkpt><trkpt lat="40.7645616" lon="-3.7520148"><ele>1003.8</ele><time>2026-03-23T08:45:17.729Z</time></trkpt><trkpt lat="40.7646747" lon="-3.7520267"><ele>1004.5999999999999</ele><time>2026-03-23T08:45:18.734Z</time></trkpt><trkpt lat="40.7647854" lon="-3.7520395"><ele>1005.4000000000001</ele><time>2026-03-23T08:45:19.731Z</time></trkpt><trkpt lat="40.7648948" lon="-3.7520334"><ele>1006.2</ele><time>2026-03-23T08:45:20.719Z</time></trkpt><trkpt lat="40.764997" lon="-3.752017"><ele>1007.0</ele><time>2026-03-23T08:45:21.717Z</time></trkpt><trkpt lat="40.7650993" lon="-3.7520158"><ele>1007.8333333333334</ele><time>2026-03-23T08:45:22.725Z</time></trkpt><trkpt lat="40.7651959" lon="-3.7520227"><ele>1008.6666666666667</ele><time>2026-03-23T08:45:23.731Z</time></trkpt><trkpt lat="40.7652796" lon="-3.7520321"><ele>1009.5</ele><time>2026-03-23T08:45:24.73Z</time></trkpt><trkpt lat="40.7653663" lon="-3.7520438"><ele>1010.3333333333333</ele><time>2026-03-23T08:45:25.723Z</time></trkpt><trkpt lat="40.7654421" lon="-3.7520494"><ele>1011.1666666666666</ele><time>2026-03-23T08:45:26.725Z</time></trkpt><trkpt lat="40.7655068" lon="-3.7520454"><ele>1012.0</ele><time>2026-03-23T08:45:27.708Z</time></trkpt><trkpt lat="40.7656145" lon="-3.751958"><ele>1011.9999999999999</ele><time>2026-03-23T08:45:29.721Z</time></trkpt><trkpt lat="40.7656741" lon="-3.7518785"><ele>1012.0</ele><time>2026-03-23T08:45:30.722Z</time></trkpt><trkpt lat="40.7657386" lon="-3.7518051"><ele>1012.0</ele><time>2026-03-23T08:45:31.714Z</time></trkpt><trkpt lat="40.7658229" lon="-3.751747"><ele>1012.0</ele><time>2026-03-23T08:45:32.729Z</time></trkpt><trkpt lat="40.7659045" lon="-3.7517108"><ele>1011.9999999999999</ele><time>2026-03-23T08:45:33.705Z</time></trkpt><trkpt lat="40.765993" lon="-3.7516775"><ele>1012.0</ele><time>2026-03-23T08:45:34.713Z</time></trkpt><trkpt lat="40.7660789" lon="-3.7516397"><ele>1012.6666666666666</ele><time>2026-03-23T08:45:35.696Z</time></trkpt><trkpt lat="40.766171" lon="-3.7516011"><ele>1013.3333333333333</ele><time>2026-03-23T08:45:36.713Z</time></trkpt><trkpt lat="40.7662512" lon="-3.7515526"><ele>1014.0</ele><time>2026-03-23T08:45:37.714Z</time></trkpt><trkpt lat="40.7663286" lon="-3.7514944"><ele>1014.6666666666667</ele><time>2026-03-23T08:45:38.71Z</time></trkpt><trkpt lat="40.7664014" lon="-3.7514453"><ele>1015.3333333333334</ele><time>2026-03-23T08:45:39.7Z</time></trkpt><trkpt lat="40.7664831" lon="-3.7514005"><ele>1016.0</ele><time>2026-03-23T08:45:40.724Z</time></trkpt><trkpt lat="40.766574" lon="-3.7513632"><ele>1016.0000000000001</ele><time>2026-03-23T08:45:41.718Z</time></trkpt><trkpt lat="40.7666615" lon="-3.7513311"><ele>1016.0</ele><time>2026-03-23T08:45:42.72Z</time></trkpt><trkpt lat="40.7667482" lon="-3.7513045"><ele>1016.0</ele><time>2026-03-23T08:45:43.712Z</time></trkpt><trkpt lat="40.7668286" lon="-3.7512518"><ele>1016.0</ele><time>2026-03-23T08:45:44.734Z</time></trkpt><trkpt lat="40.7669074" lon="-3.7512064"><ele>1016.0000000000001</ele><time>2026-03-23T08:45:45.716Z</time></trkpt><trkpt lat="40.7669861" lon="-3.7511748"><ele>1016.0</ele><time>2026-03-23T08:45:46.718Z</time></trkpt><trkpt lat="40.7670693" lon="-3.7511692"><ele>1016.5999999999999</ele><time>2026-03-23T08:45:47.72Z</time></trkpt><trkpt lat="40.7671588" lon="-3.751183"><ele>1017.1999999999999</ele><time>2026-03-23T08:45:48.741Z</time></trkpt><trkpt lat="40.7672514" lon="-3.7512042"><ele>1017.8000000000001</ele><time>2026-03-23T08:45:49.735Z</time></trkpt><trkpt lat="40.7673277" lon="-3.7512256"><ele>1018.4000000000001</ele><time>2026-03-23T08:45:50.728Z</time></trkpt><trkpt lat="40.7673961" lon="-3.7512278"><ele>1019.0</ele><time>2026-03-23T08:45:51.732Z</time></trkpt><trkpt lat="40.7675137" lon="-3.7511985"><ele>1019.0</ele><time>2026-03-23T08:45:53.725Z</time></trkpt><trkpt lat="40.7676164" lon="-3.7511453"><ele>1019.0000000000001</ele><time>2026-03-23T08:45:55.711Z</time></trkpt><trkpt lat="40.767714" lon="-3.7511432"><ele>1019.0000000000001</ele><time>2026-03-23T08:45:57.726Z</time></trkpt><trkpt lat="40.7678157" lon="-3.7511985"><ele>1019.0</ele><time>2026-03-23T08:45:59.72Z</time></trkpt><trkpt lat="40.7679255" lon="-3.7512414"><ele>1019.0</ele><time>2026-03-23T08:46:01.719Z</time></trkpt><trkpt lat="40.7679915" lon="-3.751252"><ele>1019.8333333333334</ele><time>2026-03-23T08:46:02.707Z</time></trkpt><trkpt lat="40.7680719" lon="-3.751269"><ele>1020.6666666666667</ele><time>2026-03-23T08:46:03.732Z</time></trkpt><trkpt lat="40.7681477" lon="-3.7512872"><ele>1021.5</ele><time>2026-03-23T08:46:04.701Z</time></trkpt><trkpt lat="40.7682205" lon="-3.7512903"><ele>1022.3333333333333</ele><time>2026-03-23T08:46:05.727Z</time></trkpt><trkpt lat="40.768294" lon="-3.7512685"><ele>1023.1666666666666</ele><time>2026-03-23T08:46:06.726Z</time></trkpt><trkpt lat="40.768372" lon="-3.7512348"><ele>1024.0</ele><time>2026-03-23T08:46:07.716Z</time></trkpt><trkpt lat="40.7684593" lon="-3.7512098"><ele>1024.3333333333333</ele><time>2026-03-23T08:46:08.719Z</time></trkpt><trkpt lat="40.7685371" lon="-3.7511981"><ele>1024.6666666666665</ele><time>2026-03-23T08:46:09.726Z</time></trkpt><trkpt lat="40.7686168" lon="-3.7512095"><ele>1025.0</ele><time>2026-03-23T08:46:10.735Z</time></trkpt><trkpt lat="40.7686937" lon="-3.7512224"><ele>1025.3333333333333</ele><time>2026-03-23T08:46:11.73Z</time></trkpt><trkpt lat="40.7687804" lon="-3.7512434"><ele>1025.6666666666667</ele><time>2026-03-23T08:46:12.732Z</time></trkpt><trkpt lat="40.7688642" lon="-3.7512797"><ele>1026.0</ele><time>2026-03-23T08:46:13.724Z</time></trkpt><trkpt lat="40.7689407" lon="-3.7513181"><ele>1026.0</ele><time>2026-03-23T08:46:14.7Z</time></trkpt><trkpt lat="40.7690198" lon="-3.751359"><ele>1026.0</ele><time>2026-03-23T08:46:15.717Z</time></trkpt><trkpt lat="40.7690943" lon="-3.7514115"><ele>1026.0</ele><time>2026-03-23T08:46:16.71Z</time></trkpt><trkpt lat="40.7691671" lon="-3.7514348"><ele>1026.0</ele><time>2026-03-23T08:46:17.728Z</time></trkpt><trkpt lat="40.7692493" lon="-3.7514246"><ele>1026.0</ele><time>2026-03-23T08:46:18.716Z</time></trkpt><trkpt lat="40.7693422" lon="-3.751412"><ele>1026.0</ele><time>2026-03-23T08:46:19.722Z</time></trkpt><trkpt lat="40.7694317" lon="-3.7513849"><ele>1026.3333333333333</ele><time>2026-03-23T08:46:20.718Z</time></trkpt><trkpt lat="40.7695052" lon="-3.751327"><ele>1026.6666666666667</ele><time>2026-03-23T08:46:21.726Z</time></trkpt><trkpt lat="40.7695694" lon="-3.7512453"><ele>1027.0</ele><time>2026-03-23T08:46:22.727Z</time></trkpt><trkpt lat="40.7696237" lon="-3.7511557"><ele>1027.3333333333335</ele><time>2026-03-23T08:46:23.736Z</time></trkpt><trkpt lat="40.7696673" lon="-3.7510654"><ele>1027.6666666666667</ele><time>2026-03-23T08:46:24.727Z</time></trkpt><trkpt lat="40.7697276" lon="-3.7509743"><ele>1028.0</ele><time>2026-03-23T08:46:25.712Z</time></trkpt><trkpt lat="40.7698093" lon="-3.7508945"><ele>1028.0</ele><time>2026-03-23T08:46:26.715Z</time></trkpt><trkpt lat="40.7698906" lon="-3.7508088"><ele>1028.0</ele><time>2026-03-23T08:46:27.724Z</time></trkpt><trkpt lat="40.7699669" lon="-3.7507155"><ele>1028.0</ele><time>2026-03-23T08:46:28.726Z</time></trkpt><trkpt lat="40.7700364" lon="-3.7506224"><ele>1028.0</ele><time>2026-03-23T08:46:29.729Z</time></trkpt><trkpt lat="40.7701028" lon="-3.7505404"><ele>1028.0</ele><time>2026-03-23T08:46:30.711Z</time></trkpt><trkpt lat="40.7701593" lon="-3.7504688"><ele>1028.1666666666667</ele><time>2026-03-23T08:46:31.722Z</time></trkpt><trkpt lat="40.7702084" lon="-3.7504068"><ele>1028.3333333333335</ele><time>2026-03-23T08:46:32.728Z</time></trkpt><trkpt lat="40.7702588" lon="-3.7503462"><ele>1028.5</ele><time>2026-03-23T08:46:33.72Z</time></trkpt><trkpt lat="40.7703143" lon="-3.7502975"><ele>1028.6666666666667</ele><time>2026-03-23T08:46:34.727Z</time></trkpt><trkpt lat="40.7703891" lon="-3.7501725"><ele>1028.8333333333333</ele><time>2026-03-23T08:46:36.721Z</time></trkpt><trkpt lat="40.7704249" lon="-3.7500978"><ele>1029.0</ele><time>2026-03-23T08:46:37.719Z</time></trkpt><trkpt lat="40.770471" lon="-3.750014"><ele>1029.0</ele><time>2026-03-23T08:46:38.721Z</time></trkpt><trkpt lat="40.7705261" lon="-3.749923"><ele>1029.0</ele><time>2026-03-23T08:46:39.72Z</time></trkpt><trkpt lat="40.7705714" lon="-3.749829"><ele>1029.0</ele><time>2026-03-23T08:46:40.725Z</time></trkpt><trkpt lat="40.7706029" lon="-3.7497324"><ele>1029.0</ele><time>2026-03-23T08:46:41.725Z</time></trkpt><trkpt lat="40.7706687" lon="-3.7496027"><ele>1029.0</ele><time>2026-03-23T08:46:43.705Z</time></trkpt><trkpt lat="40.7707863" lon="-3.7495557"><ele>1029.0</ele><time>2026-03-23T08:46:45.733Z</time></trkpt><trkpt lat="40.7708817" lon="-3.7495246"><ele>1029.0</ele><time>2026-03-23T08:46:47.714Z</time></trkpt><trkpt lat="40.7709693" lon="-3.7494528"><ele>1029.0</ele><time>2026-03-23T08:46:49.696Z</time></trkpt><trkpt lat="40.7710289" lon="-3.749401"><ele>1029.0</ele><time>2026-03-23T08:46:50.701Z</time></trkpt><trkpt lat="40.7710844" lon="-3.7493299"><ele>1029.0</ele><time>2026-03-23T08:46:51.718Z</time></trkpt><trkpt lat="40.7711341" lon="-3.7492406"><ele>1029.0</ele><time>2026-03-23T08:46:52.715Z</time></trkpt><trkpt lat="40.7711693" lon="-3.749134"><ele>1028.8333333333333</ele><time>2026-03-23T08:46:53.699Z</time></trkpt><trkpt lat="40.7712089" lon="-3.7490403"><ele>1028.6666666666667</ele><time>2026-03-23T08:46:54.699Z</time></trkpt><trkpt lat="40.7712672" lon="-3.7489762"><ele>1028.5</ele><time>2026-03-23T08:46:55.704Z</time></trkpt><trkpt lat="40.7713533" lon="-3.7489209"><ele>1028.3333333333335</ele><time>2026-03-23T08:46:56.708Z</time></trkpt><trkpt lat="40.7714356" lon="-3.7488608"><ele>1028.1666666666667</ele><time>2026-03-23T08:46:57.709Z</time></trkpt><trkpt lat="40.7715065" lon="-3.7487888"><ele>1028.0</ele><time>2026-03-23T08:46:58.725Z</time></trkpt><trkpt lat="40.7715686" lon="-3.7486942"><ele>1028.0</ele><time>2026-03-23T08:46:59.707Z</time></trkpt><trkpt lat="40.7716292" lon="-3.748589"><ele>1028.0</ele><time>2026-03-23T08:47:00.708Z</time></trkpt><trkpt lat="40.771693" lon="-3.748495"><ele>1028.0</ele><time>2026-03-23T08:47:01.713Z</time></trkpt><trkpt lat="40.7717655" lon="-3.7484251"><ele>1028.0</ele><time>2026-03-23T08:47:02.73Z</time></trkpt><trkpt lat="40.7718556" lon="-3.7483516"><ele>1028.0</ele><time>2026-03-23T08:47:03.711Z</time></trkpt><trkpt lat="40.7719427" lon="-3.7482897"><ele>1027.8333333333335</ele><time>2026-03-23T08:47:04.711Z</time></trkpt><trkpt lat="40.7720171" lon="-3.748236"><ele>1027.6666666666667</ele><time>2026-03-23T08:47:05.731Z</time></trkpt><trkpt lat="40.7720786" lon="-3.7482011"><ele>1027.5</ele><time>2026-03-23T08:47:06.714Z</time></trkpt><trkpt lat="40.7721785" lon="-3.748106"><ele>1027.3333333333333</ele><time>2026-03-23T08:47:08.71Z</time></trkpt><trkpt lat="40.7722293" lon="-3.7480422"><ele>1027.1666666666665</ele><time>2026-03-23T08:47:09.736Z</time></trkpt><trkpt lat="40.7722963" lon="-3.7479976"><ele>1027.0</ele><time>2026-03-23T08:47:10.737Z</time></trkpt><trkpt lat="40.7723866" lon="-3.7479698"><ele>1027.0</ele><time>2026-03-23T08:47:11.728Z</time></trkpt><trkpt lat="40.7724796" lon="-3.7479408"><ele>1027.0</ele><time>2026-03-23T08:47:12.723Z</time></trkpt><trkpt lat="40.7725648" lon="-3.747928"><ele>1027.0</ele><time>2026-03-23T08:47:13.72Z</time></trkpt><trkpt lat="40.7726422" lon="-3.747933"><ele>1027.0</ele><time>2026-03-23T08:47:14.725Z</time></trkpt><trkpt lat="40.7727085" lon="-3.7479288"><ele>1027.0</ele><time>2026-03-23T08:47:15.715Z</time></trkpt><trkpt lat="40.7728163" lon="-3.7478792"><ele>1027.0</ele><time>2026-03-23T08:47:17.724Z</time></trkpt><trkpt lat="40.7728957" lon="-3.7477641"><ele>1025.6666666666665</ele><time>2026-03-23T08:47:19.732Z</time></trkpt><trkpt lat="40.7729885" lon="-3.7476728"><ele>1024.3333333333333</ele><time>2026-03-23T08:47:21.726Z</time></trkpt><trkpt lat="40.7731082" lon="-3.7476329"><ele>1023.0</ele><time>2026-03-23T08:47:23.725Z</time></trkpt><trkpt lat="40.7731736" lon="-3.747613"><ele>1021.6666666666667</ele><time>2026-03-23T08:47:24.732Z</time></trkpt><trkpt lat="40.7732434" lon="-3.7475973"><ele>1020.3333333333334</ele><time>2026-03-23T08:47:25.723Z</time></trkpt><trkpt lat="40.7733127" lon="-3.7475801"><ele>1019.0</ele><time>2026-03-23T08:47:26.731Z</time></trkpt><trkpt lat="40.773384" lon="-3.7475497"><ele>1019.0</ele><time>2026-03-23T08:47:27.72Z</time></trkpt><trkpt lat="40.7734466" lon="-3.7475129"><ele>1019.0000000000001</ele><time>2026-03-23T08:47:28.731Z</time></trkpt><trkpt lat="40.7735438" lon="-3.7474154"><ele>1019.0000000000001</ele><time>2026-03-23T08:47:30.72Z</time></trkpt><trkpt lat="40.773663" lon="-3.7473539"><ele>1019.0</ele><time>2026-03-23T08:47:32.722Z</time></trkpt><trkpt lat="40.7737356" lon="-3.7473444"><ele>1019.0</ele><time>2026-03-23T08:47:33.705Z</time></trkpt><trkpt lat="40.7738055" lon="-3.7473342"><ele>1018.5714285714287</ele><time>2026-03-23T08:47:34.708Z</time></trkpt><trkpt lat="40.7738743" lon="-3.7473182"><ele>1018.1428571428571</ele><time>2026-03-23T08:47:35.697Z</time></trkpt><trkpt lat="40.773936" lon="-3.7472838"><ele>1017.7142857142858</ele><time>2026-03-23T08:47:36.706Z</time></trkpt><trkpt lat="40.7739885" lon="-3.7472247"><ele>1017.2857142857143</ele><time>2026-03-23T08:47:37.699Z</time></trkpt><trkpt lat="40.774035" lon="-3.7471566"><ele>1016.8571428571429</ele><time>2026-03-23T08:47:38.729Z</time></trkpt><trkpt lat="40.7740793" lon="-3.7470876"><ele>1016.4285714285714</ele><time>2026-03-23T08:47:39.721Z</time></trkpt><trkpt lat="40.7741597" lon="-3.7470313"><ele>1016.0</ele><time>2026-03-23T08:47:41.722Z</time></trkpt><trkpt lat="40.7742514" lon="-3.7470618"><ele>1014.5999999999999</ele><time>2026-03-23T08:47:43.728Z</time></trkpt><trkpt lat="40.774366" lon="-3.7471216"><ele>1013.1999999999999</ele><time>2026-03-23T08:47:45.721Z</time></trkpt><trkpt lat="40.7744321" lon="-3.7471274"><ele>1011.8000000000001</ele><time>2026-03-23T08:47:46.725Z</time></trkpt><trkpt lat="40.7744959" lon="-3.7471139"><ele>1010.4000000000001</ele><time>2026-03-23T08:47:47.719Z</time></trkpt><trkpt lat="40.7745802" lon="-3.7470243"><ele>1009.0</ele><time>2026-03-23T08:47:49.862Z</time></trkpt><trkpt lat="40.7746382" lon="-3.746912"><ele>1008.8000000000001</ele><time>2026-03-23T08:47:51.717Z</time></trkpt><trkpt lat="40.774684" lon="-3.7468312"><ele>1008.6000000000001</ele><time>2026-03-23T08:47:52.886Z</time></trkpt><trkpt lat="40.7747065" lon="-3.7467382"><ele>1008.4</ele><time>2026-03-23T08:47:53.795Z</time></trkpt><trkpt lat="40.7747168" lon="-3.7466375"><ele>1008.2</ele><time>2026-03-23T08:47:54.725Z</time></trkpt><trkpt lat="40.7747784" lon="-3.7465136"><ele>1008.0</ele><time>2026-03-23T08:47:56.725Z</time></trkpt><trkpt lat="40.77488" lon="-3.7464296"><ele>1008.0</ele><time>2026-03-23T08:47:58.866Z</time></trkpt><trkpt lat="40.7749396" lon="-3.746393"><ele>1008.0</ele><time>2026-03-23T08:47:59.796Z</time></trkpt><trkpt lat="40.7749989" lon="-3.7463404"><ele>1008.0</ele><time>2026-03-23T08:48:00.708Z</time></trkpt><trkpt lat="40.7750747" lon="-3.7462379"><ele>1008.0</ele><time>2026-03-23T08:48:02.727Z</time></trkpt><trkpt lat="40.7751323" lon="-3.7461457"><ele>1008.0</ele><time>2026-03-23T08:48:04.725Z</time></trkpt><trkpt lat="40.7752055" lon="-3.7460621"><ele>1008.0</ele><time>2026-03-23T08:48:06.73Z</time></trkpt><trkpt lat="40.7752959" lon="-3.7459825"><ele>1006.2</ele><time>2026-03-23T08:48:08.726Z</time></trkpt><trkpt lat="40.7753853" lon="-3.7459122"><ele>1004.4</ele><time>2026-03-23T08:48:10.737Z</time></trkpt><trkpt lat="40.775479" lon="-3.7458668"><ele>1002.6000000000001</ele><time>2026-03-23T08:48:12.731Z</time></trkpt><trkpt lat="40.7755959" lon="-3.745831"><ele>1000.8000000000001</ele><time>2026-03-23T08:48:14.723Z</time></trkpt><trkpt lat="40.7756616" lon="-3.7458121"><ele>999.0</ele><time>2026-03-23T08:48:15.72Z</time></trkpt><trkpt lat="40.775734" lon="-3.7457828"><ele>999.0</ele><time>2026-03-23T08:48:16.722Z</time></trkpt><trkpt lat="40.7757953" lon="-3.7457274"><ele>999.0</ele><time>2026-03-23T08:48:17.719Z</time></trkpt><trkpt lat="40.7758433" lon="-3.7456675"><ele>999.0</ele><time>2026-03-23T08:48:18.818Z</time></trkpt><trkpt lat="40.7759319" lon="-3.7455779"><ele>999.0</ele><time>2026-03-23T08:48:20.722Z</time></trkpt><trkpt lat="40.7760495" lon="-3.7455377"><ele>999.0</ele><time>2026-03-23T08:48:22.718Z</time></trkpt><trkpt lat="40.776119" lon="-3.7455362"><ele>999.0</ele><time>2026-03-23T08:48:23.716Z</time></trkpt><trkpt lat="40.7761855" lon="-3.7455318"><ele>998.5</ele><time>2026-03-23T08:48:24.716Z</time></trkpt><trkpt lat="40.7762492" lon="-3.7455248"><ele>998.0</ele><time>2026-03-23T08:48:25.729Z</time></trkpt><trkpt lat="40.7763786" lon="-3.7454807"><ele>997.5</ele><time>2026-03-23T08:48:27.711Z</time></trkpt><trkpt lat="40.776454" lon="-3.7454374"><ele>997.0</ele><time>2026-03-23T08:48:28.73Z</time></trkpt><trkpt lat="40.7765314" lon="-3.7453979"><ele>996.5</ele><time>2026-03-23T08:48:29.704Z</time></trkpt><trkpt lat="40.7765963" lon="-3.7453596"><ele>996.0</ele><time>2026-03-23T08:48:30.719Z</time></trkpt><trkpt lat="40.7766577" lon="-3.7453245"><ele>996.0</ele><time>2026-03-23T08:48:31.723Z</time></trkpt><trkpt lat="40.7767562" lon="-3.7452699"><ele>995.9999999999999</ele><time>2026-03-23T08:48:33.724Z</time></trkpt><trkpt lat="40.7768541" lon="-3.7452195"><ele>995.9999999999999</ele><time>2026-03-23T08:48:35.722Z</time></trkpt><trkpt lat="40.7769559" lon="-3.7451995"><ele>996.0</ele><time>2026-03-23T08:48:37.738Z</time></trkpt><trkpt lat="40.7770714" lon="-3.745158"><ele>996.0</ele><time>2026-03-23T08:48:39.71Z</time></trkpt><trkpt lat="40.7771382" lon="-3.7451021"><ele>994.3333333333334</ele><time>2026-03-23T08:48:40.719Z</time></trkpt><trkpt lat="40.7772143" lon="-3.7450472"><ele>992.6666666666667</ele><time>2026-03-23T08:48:41.716Z</time></trkpt><trkpt lat="40.7772884" lon="-3.7449965"><ele>991.0</ele><time>2026-03-23T08:48:42.712Z</time></trkpt><trkpt lat="40.7773608" lon="-3.7449475"><ele>989.3333333333334</ele><time>2026-03-23T08:48:43.712Z</time></trkpt><trkpt lat="40.7774241" lon="-3.7449021"><ele>987.6666666666667</ele><time>2026-03-23T08:48:44.719Z</time></trkpt><trkpt lat="40.7774893" lon="-3.7447844"><ele>986.0</ele><time>2026-03-23T08:48:46.717Z</time></trkpt><trkpt lat="40.7775392" lon="-3.7446602"><ele>986.0</ele><time>2026-03-23T08:48:48.719Z</time></trkpt><trkpt lat="40.7775952" lon="-3.7446167"><ele>985.9999999999999</ele><time>2026-03-23T08:48:49.717Z</time></trkpt><trkpt lat="40.7776539" lon="-3.7445809"><ele>985.9999999999999</ele><time>2026-03-23T08:48:50.724Z</time></trkpt><trkpt lat="40.7777398" lon="-3.7444647"><ele>986.0</ele><time>2026-03-23T08:48:52.712Z</time></trkpt><trkpt lat="40.7777722" lon="-3.7443326"><ele>986.0</ele><time>2026-03-23T08:48:54.719Z</time></trkpt><trkpt lat="40.7778311" lon="-3.7442106"><ele>984.5000000000001</ele><time>2026-03-23T08:48:56.719Z</time></trkpt><trkpt lat="40.7778819" lon="-3.74415"><ele>983.0</ele><time>2026-03-23T08:48:57.71Z</time></trkpt><trkpt lat="40.7779343" lon="-3.7440854"><ele>981.5</ele><time>2026-03-23T08:48:58.72Z</time></trkpt><trkpt lat="40.778032" lon="-3.7439833"><ele>980.0</ele><time>2026-03-23T08:49:00.724Z</time></trkpt><trkpt lat="40.7780777" lon="-3.7438944"><ele>978.5000000000001</ele><time>2026-03-23T08:49:02.724Z</time></trkpt><trkpt lat="40.7780254" lon="-3.7437878"><ele>977.0</ele><time>2026-03-23T08:49:04.72Z</time></trkpt><trkpt lat="40.7779768" lon="-3.7437123"><ele>977.0000000000001</ele><time>2026-03-23T08:49:05.701Z</time></trkpt><trkpt lat="40.7779225" lon="-3.7436343"><ele>977.0</ele><time>2026-03-23T08:49:06.713Z</time></trkpt><trkpt lat="40.7778715" lon="-3.7435626"><ele>977.0</ele><time>2026-03-23T08:49:07.719Z</time></trkpt><trkpt lat="40.7778186" lon="-3.7434922"><ele>977.0</ele><time>2026-03-23T08:49:08.718Z</time></trkpt><trkpt lat="40.7777596" lon="-3.7434355"><ele>977.0000000000001</ele><time>2026-03-23T08:49:09.734Z</time></trkpt><trkpt lat="40.7777092" lon="-3.7433735"><ele>977.0</ele><time>2026-03-23T08:49:10.721Z</time></trkpt><trkpt lat="40.7776301" lon="-3.7432541"><ele>978.1666666666667</ele><time>2026-03-23T08:49:12.724Z</time></trkpt><trkpt lat="40.7775586" lon="-3.7431402"><ele>979.3333333333334</ele><time>2026-03-23T08:49:14.726Z</time></trkpt><trkpt lat="40.7775185" lon="-3.7430744"><ele>980.5</ele><time>2026-03-23T08:49:15.72Z</time></trkpt><trkpt lat="40.7774608" lon="-3.7430121"><ele>981.6666666666667</ele><time>2026-03-23T08:49:16.727Z</time></trkpt><trkpt lat="40.7774013" lon="-3.742955"><ele>982.8333333333334</ele><time>2026-03-23T08:49:17.694Z</time></trkpt><trkpt lat="40.7773416" lon="-3.7429061"><ele>984.0</ele><time>2026-03-23T08:49:18.689Z</time></trkpt><trkpt lat="40.7772928" lon="-3.7428472"><ele>984.0</ele><time>2026-03-23T08:49:19.698Z</time></trkpt><trkpt lat="40.7772491" lon="-3.7427871"><ele>984.0000000000001</ele><time>2026-03-23T08:49:20.709Z</time></trkpt><trkpt lat="40.7771324" lon="-3.7426955"><ele>984.0000000000001</ele><time>2026-03-23T08:49:22.693Z</time></trkpt><trkpt lat="40.7770481" lon="-3.7426845"><ele>984.0</ele><time>2026-03-23T08:49:23.713Z</time></trkpt><trkpt lat="40.7769627" lon="-3.7426711"><ele>984.0</ele><time>2026-03-23T08:49:24.714Z</time></trkpt><trkpt lat="40.7768847" lon="-3.7426373"><ele>985.0</ele><time>2026-03-23T08:49:25.712Z</time></trkpt><trkpt lat="40.776803" lon="-3.7425941"><ele>986.0</ele><time>2026-03-23T08:49:26.716Z</time></trkpt><trkpt lat="40.7767218" lon="-3.7425615"><ele>987.0</ele><time>2026-03-23T08:49:27.711Z</time></trkpt><trkpt lat="40.7766526" lon="-3.7425167"><ele>988.0</ele><time>2026-03-23T08:49:28.715Z</time></trkpt><trkpt lat="40.776584" lon="-3.7424585"><ele>989.0</ele><time>2026-03-23T08:49:29.718Z</time></trkpt><trkpt lat="40.7765265" lon="-3.7423903"><ele>990.0</ele><time>2026-03-23T08:49:30.721Z</time></trkpt><trkpt lat="40.7764774" lon="-3.7423338"><ele>990.0</ele><time>2026-03-23T08:49:31.723Z</time></trkpt><trkpt lat="40.7763549" lon="-3.7422775"><ele>990.0</ele><time>2026-03-23T08:49:33.726Z</time></trkpt><trkpt lat="40.7762526" lon="-3.7422415"><ele>990.0</ele><time>2026-03-23T08:49:35.711Z</time></trkpt><trkpt lat="40.7761843" lon="-3.742233"><ele>990.0</ele><time>2026-03-23T08:49:36.714Z</time></trkpt><trkpt lat="40.7761197" lon="-3.7422362"><ele>990.0</ele><time>2026-03-23T08:49:37.721Z</time></trkpt><trkpt lat="40.7760507" lon="-3.7422235"><ele>990.0</ele><time>2026-03-23T08:49:38.724Z</time></trkpt><trkpt lat="40.7759735" lon="-3.7421872"><ele>990.0</ele><time>2026-03-23T08:49:39.715Z</time></trkpt><trkpt lat="40.7758997" lon="-3.7421495"><ele>990.0</ele><time>2026-03-23T08:49:40.723Z</time></trkpt><trkpt lat="40.7758329" lon="-3.7421248"><ele>990.0</ele><time>2026-03-23T08:49:41.723Z</time></trkpt><trkpt lat="40.7757233" lon="-3.7420186"><ele>990.0</ele><time>2026-03-23T08:49:43.713Z</time></trkpt><trkpt lat="40.775653" lon="-3.7419423"><ele>990.0</ele><time>2026-03-23T08:49:44.707Z</time></trkpt><trkpt lat="40.7755743" lon="-3.741861"><ele>990.0</ele><time>2026-03-23T08:49:45.707Z</time></trkpt><trkpt lat="40.7754905" lon="-3.7417713"><ele>990.0</ele><time>2026-03-23T08:49:46.708Z</time></trkpt><trkpt lat="40.7754132" lon="-3.7416905"><ele>990.0</ele><time>2026-03-23T08:49:47.72Z</time></trkpt><trkpt lat="40.7753402" lon="-3.7416134"><ele>990.0</ele><time>2026-03-23T08:49:48.715Z</time></trkpt><trkpt lat="40.7752711" lon="-3.7415409"><ele>990.0</ele><time>2026-03-23T08:49:49.717Z</time></trkpt><trkpt lat="40.7752035" lon="-3.7414752"><ele>991.0</ele><time>2026-03-23T08:49:50.711Z</time></trkpt><trkpt lat="40.7751394" lon="-3.7413854"><ele>992.0</ele><time>2026-03-23T08:49:51.726Z</time></trkpt><trkpt lat="40.7750765" lon="-3.7412948"><ele>993.0</ele><time>2026-03-23T08:49:52.721Z</time></trkpt><trkpt lat="40.7750063" lon="-3.7411972"><ele>994.0</ele><time>2026-03-23T08:49:53.721Z</time></trkpt><trkpt lat="40.7749371" lon="-3.7410971"><ele>995.0</ele><time>2026-03-23T08:49:54.729Z</time></trkpt><trkpt lat="40.7748731" lon="-3.7410107"><ele>995.0000000000001</ele><time>2026-03-23T08:49:55.717Z</time></trkpt><trkpt lat="40.7748225" lon="-3.7409278"><ele>995.0</ele><time>2026-03-23T08:49:56.72Z</time></trkpt><trkpt lat="40.7747806" lon="-3.740836"><ele>995.0</ele><time>2026-03-23T08:49:57.719Z</time></trkpt><trkpt lat="40.7747372" lon="-3.7407249"><ele>995.0</ele><time>2026-03-23T08:49:58.728Z</time></trkpt><trkpt lat="40.7746891" lon="-3.7406134"><ele>995.0000000000001</ele><time>2026-03-23T08:49:59.709Z</time></trkpt><trkpt lat="40.7746451" lon="-3.740524"><ele>995.0</ele><time>2026-03-23T08:50:00.719Z</time></trkpt><trkpt lat="40.7745934" lon="-3.7404391"><ele>995.0</ele><time>2026-03-23T08:50:01.717Z</time></trkpt><trkpt lat="40.7745447" lon="-3.7403461"><ele>995.0</ele><time>2026-03-23T08:50:02.722Z</time></trkpt><trkpt lat="40.7744832" lon="-3.7402384"><ele>995.0</ele><time>2026-03-23T08:50:03.713Z</time></trkpt><trkpt lat="40.7744154" lon="-3.7401384"><ele>995.0</ele><time>2026-03-23T08:50:04.729Z</time></trkpt><trkpt lat="40.774357" lon="-3.740046"><ele>995.0</ele><time>2026-03-23T08:50:05.718Z</time></trkpt><trkpt lat="40.7743065" lon="-3.7399657"><ele>994.2</ele><time>2026-03-23T08:50:06.714Z</time></trkpt><trkpt lat="40.7742751" lon="-3.7398849"><ele>993.4</ele><time>2026-03-23T08:50:07.714Z</time></trkpt><trkpt lat="40.7742472" lon="-3.739805"><ele>992.5999999999999</ele><time>2026-03-23T08:50:08.715Z</time></trkpt><trkpt lat="40.7741789" lon="-3.7396805"><ele>991.8</ele><time>2026-03-23T08:50:10.735Z</time></trkpt><trkpt lat="40.7740608" lon="-3.7395982"><ele>991.0</ele><time>2026-03-23T08:50:12.719Z</time></trkpt><trkpt lat="40.7739974" lon="-3.7395294"><ele>990.9999999999999</ele><time>2026-03-23T08:50:13.719Z</time></trkpt><trkpt lat="40.7739428" lon="-3.7394509"><ele>991.0</ele><time>2026-03-23T08:50:14.723Z</time></trkpt><trkpt lat="40.7738956" lon="-3.739361"><ele>991.0</ele><time>2026-03-23T08:50:15.711Z</time></trkpt><trkpt lat="40.7738485" lon="-3.7392638"><ele>991.0</ele><time>2026-03-23T08:50:16.71Z</time></trkpt><trkpt lat="40.7738014" lon="-3.7391671"><ele>990.9999999999999</ele><time>2026-03-23T08:50:17.707Z</time></trkpt><trkpt lat="40.7737414" lon="-3.7390765"><ele>991.0</ele><time>2026-03-23T08:50:18.708Z</time></trkpt><trkpt lat="40.7736879" lon="-3.7389847"><ele>990.1999999999999</ele><time>2026-03-23T08:50:19.717Z</time></trkpt><trkpt lat="40.7736599" lon="-3.7388903"><ele>989.3999999999999</ele><time>2026-03-23T08:50:20.717Z</time></trkpt><trkpt lat="40.773643" lon="-3.7387944"><ele>988.6</ele><time>2026-03-23T08:50:21.705Z</time></trkpt><trkpt lat="40.77365" lon="-3.7386926"><ele>987.8</ele><time>2026-03-23T08:50:22.716Z</time></trkpt><trkpt lat="40.7736944" lon="-3.7385711"><ele>987.0</ele><time>2026-03-23T08:50:23.716Z</time></trkpt><trkpt lat="40.7737437" lon="-3.7384175"><ele>986.75</ele><time>2026-03-23T08:50:24.717Z</time></trkpt><trkpt lat="40.7737999" lon="-3.7382556"><ele>986.5</ele><time>2026-03-23T08:50:25.716Z</time></trkpt><trkpt lat="40.7738626" lon="-3.7381014"><ele>986.25</ele><time>2026-03-23T08:50:26.713Z</time></trkpt><trkpt lat="40.7739299" lon="-3.7379542"><ele>986.0</ele><time>2026-03-23T08:50:27.723Z</time></trkpt><trkpt lat="40.7739953" lon="-3.7378103"><ele>985.5999999999999</ele><time>2026-03-23T08:50:28.717Z</time></trkpt><trkpt lat="40.7740476" lon="-3.7376769"><ele>985.1999999999999</ele><time>2026-03-23T08:50:29.721Z</time></trkpt><trkpt lat="40.7740994" lon="-3.737547"><ele>984.8000000000001</ele><time>2026-03-23T08:50:30.721Z</time></trkpt><trkpt lat="40.7741479" lon="-3.737422"><ele>984.4000000000001</ele><time>2026-03-23T08:50:31.714Z</time></trkpt><trkpt lat="40.7742008" lon="-3.7373154"><ele>984.0</ele><time>2026-03-23T08:50:32.73Z</time></trkpt><trkpt lat="40.7742583" lon="-3.7372211"><ele>984.0</ele><time>2026-03-23T08:50:33.723Z</time></trkpt><trkpt lat="40.7743165" lon="-3.7371255"><ele>984.0</ele><time>2026-03-23T08:50:34.729Z</time></trkpt><trkpt lat="40.774369" lon="-3.7370345"><ele>984.0</ele><time>2026-03-23T08:50:35.718Z</time></trkpt><trkpt lat="40.7744077" lon="-3.7369369"><ele>984.0</ele><time>2026-03-23T08:50:36.735Z</time></trkpt><trkpt lat="40.7744249" lon="-3.7368303"><ele>984.0</ele><time>2026-03-23T08:50:37.727Z</time></trkpt><trkpt lat="40.7744335" lon="-3.7367202"><ele>984.0</ele><time>2026-03-23T08:50:38.735Z</time></trkpt><trkpt lat="40.7744447" lon="-3.7365929"><ele>982.4000000000001</ele><time>2026-03-23T08:50:39.716Z</time></trkpt><trkpt lat="40.7744655" lon="-3.7364599"><ele>980.8000000000001</ele><time>2026-03-23T08:50:40.731Z</time></trkpt><trkpt lat="40.7745016" lon="-3.7363414"><ele>979.1999999999999</ele><time>2026-03-23T08:50:41.715Z</time></trkpt><trkpt lat="40.7745386" lon="-3.7362257"><ele>977.5999999999999</ele><time>2026-03-23T08:50:42.721Z</time></trkpt><trkpt lat="40.7745776" lon="-3.7361073"><ele>976.0</ele><time>2026-03-23T08:50:43.72Z</time></trkpt><trkpt lat="40.7746227" lon="-3.7359893"><ele>975.0</ele><time>2026-03-23T08:50:44.724Z</time></trkpt><trkpt lat="40.7746711" lon="-3.7358715"><ele>973.9999999999999</ele><time>2026-03-23T08:50:45.716Z</time></trkpt><trkpt lat="40.7747236" lon="-3.735763"><ele>972.9999999999999</ele><time>2026-03-23T08:50:46.723Z</time></trkpt><trkpt lat="40.7747742" lon="-3.7356624"><ele>972.0</ele><time>2026-03-23T08:50:47.733Z</time></trkpt><trkpt lat="40.7748175" lon="-3.7355511"><ele>971.0</ele><time>2026-03-23T08:50:48.723Z</time></trkpt><trkpt lat="40.7748509" lon="-3.7354228"><ele>971.0</ele><time>2026-03-23T08:50:49.726Z</time></trkpt><trkpt lat="40.7748795" lon="-3.7352816"><ele>971.0</ele><time>2026-03-23T08:50:50.726Z</time></trkpt><trkpt lat="40.7749083" lon="-3.7351361"><ele>971.0</ele><time>2026-03-23T08:50:51.714Z</time></trkpt><trkpt lat="40.7749586" lon="-3.7349857"><ele>971.0</ele><time>2026-03-23T08:50:52.72Z</time></trkpt><trkpt lat="40.7750126" lon="-3.7348451"><ele>970.25</ele><time>2026-03-23T08:50:53.727Z</time></trkpt><trkpt lat="40.7750797" lon="-3.7347077"><ele>969.5</ele><time>2026-03-23T08:50:54.723Z</time></trkpt><trkpt lat="40.7751607" lon="-3.7345832"><ele>968.75</ele><time>2026-03-23T08:50:55.713Z</time></trkpt><trkpt lat="40.7752442" lon="-3.7344654"><ele>968.0</ele><time>2026-03-23T08:50:56.72Z</time></trkpt><trkpt lat="40.7753287" lon="-3.7343581"><ele>968.0</ele><time>2026-03-23T08:50:57.729Z</time></trkpt><trkpt lat="40.7754184" lon="-3.7342735"><ele>968.0</ele><time>2026-03-23T08:50:58.706Z</time></trkpt><trkpt lat="40.7755154" lon="-3.7342166"><ele>968.0</ele><time>2026-03-23T08:50:59.721Z</time></trkpt><trkpt lat="40.7756021" lon="-3.7341467"><ele>968.0</ele><time>2026-03-23T08:51:00.726Z</time></trkpt><trkpt lat="40.7756875" lon="-3.7340654"><ele>968.0</ele><time>2026-03-23T08:51:01.72Z</time></trkpt><trkpt lat="40.7757749" lon="-3.7339882"><ele>968.0</ele><time>2026-03-23T08:51:02.72Z</time></trkpt><trkpt lat="40.7758622" lon="-3.7339245"><ele>968.0</ele><time>2026-03-23T08:51:03.728Z</time></trkpt><trkpt lat="40.7759462" lon="-3.7338764"><ele>968.0</ele><time>2026-03-23T08:51:04.706Z</time></trkpt><trkpt lat="40.7760266" lon="-3.7338376"><ele>968.0</ele><time>2026-03-23T08:51:05.718Z</time></trkpt><trkpt lat="40.7761111" lon="-3.733819"><ele>968.0</ele><time>2026-03-23T08:51:06.729Z</time></trkpt><trkpt lat="40.7761989" lon="-3.7338045"><ele>967.0000000000001</ele><time>2026-03-23T08:51:07.719Z</time></trkpt><trkpt lat="40.7762836" lon="-3.733787"><ele>966.0</ele><time>2026-03-23T08:51:08.726Z</time></trkpt><trkpt lat="40.7763651" lon="-3.7337598"><ele>965.0</ele><time>2026-03-23T08:51:09.73Z</time></trkpt><trkpt lat="40.7764372" lon="-3.7337186"><ele>964.0</ele><time>2026-03-23T08:51:10.722Z</time></trkpt><trkpt lat="40.7765147" lon="-3.7336749"><ele>963.0000000000001</ele><time>2026-03-23T08:51:11.711Z</time></trkpt><trkpt lat="40.7765892" lon="-3.7336284"><ele>962.0</ele><time>2026-03-23T08:51:12.721Z</time></trkpt><trkpt lat="40.7766547" lon="-3.733578"><ele>962.3333333333334</ele><time>2026-03-23T08:51:13.717Z</time></trkpt><trkpt lat="40.7767132" lon="-3.7335318"><ele>962.6666666666667</ele><time>2026-03-23T08:51:14.728Z</time></trkpt><trkpt lat="40.7768027" lon="-3.7334588"><ele>963.0</ele><time>2026-03-23T08:51:16.716Z</time></trkpt><trkpt lat="40.7768878" lon="-3.7333552"><ele>963.3333333333333</ele><time>2026-03-23T08:51:18.719Z</time></trkpt><trkpt lat="40.776931" lon="-3.7332907"><ele>963.6666666666666</ele><time>2026-03-23T08:51:19.717Z</time></trkpt><trkpt lat="40.7769652" lon="-3.7332162"><ele>964.0</ele><time>2026-03-23T08:51:20.715Z</time></trkpt><trkpt lat="40.7769992" lon="-3.7331224"><ele>963.4999999999999</ele><time>2026-03-23T08:51:21.718Z</time></trkpt><trkpt lat="40.7770377" lon="-3.7330349"><ele>963.0</ele><time>2026-03-23T08:51:22.721Z</time></trkpt><trkpt lat="40.7770816" lon="-3.7329463"><ele>962.5</ele><time>2026-03-23T08:51:23.719Z</time></trkpt><trkpt lat="40.7771294" lon="-3.7328544"><ele>962.0</ele><time>2026-03-23T08:51:24.711Z</time></trkpt><trkpt lat="40.7771765" lon="-3.7327587"><ele>961.4999999999999</ele><time>2026-03-23T08:51:25.719Z</time></trkpt><trkpt lat="40.7772207" lon="-3.73266"><ele>961.0</ele><time>2026-03-23T08:51:26.734Z</time></trkpt><trkpt lat="40.7772707" lon="-3.732557"><ele>961.0</ele><time>2026-03-23T08:51:27.721Z</time></trkpt><trkpt lat="40.7773175" lon="-3.7324539"><ele>960.9999999999999</ele><time>2026-03-23T08:51:28.733Z</time></trkpt><trkpt lat="40.7773611" lon="-3.7323424"><ele>960.9999999999999</ele><time>2026-03-23T08:51:29.725Z</time></trkpt><trkpt lat="40.7774097" lon="-3.7322249"><ele>961.0</ele><time>2026-03-23T08:51:30.722Z</time></trkpt><trkpt lat="40.7774629" lon="-3.7320975"><ele>961.0</ele><time>2026-03-23T08:51:31.724Z</time></trkpt><trkpt lat="40.7775141" lon="-3.7319742"><ele>961.5999999999999</ele><time>2026-03-23T08:51:32.726Z</time></trkpt><trkpt lat="40.777563" lon="-3.7318587"><ele>962.1999999999999</ele><time>2026-03-23T08:51:33.703Z</time></trkpt><trkpt lat="40.7776132" lon="-3.7317413"><ele>962.8000000000001</ele><time>2026-03-23T08:51:34.709Z</time></trkpt><trkpt lat="40.7776525" lon="-3.7316336"><ele>963.4000000000001</ele><time>2026-03-23T08:51:35.727Z</time></trkpt><trkpt lat="40.7776933" lon="-3.7315328"><ele>964.0</ele><time>2026-03-23T08:51:36.711Z</time></trkpt><trkpt lat="40.7777458" lon="-3.7314588"><ele>963.0</ele><time>2026-03-23T08:51:37.711Z</time></trkpt><trkpt lat="40.7778141" lon="-3.7313882"><ele>962.0000000000001</ele><time>2026-03-23T08:51:38.723Z</time></trkpt><trkpt lat="40.7778928" lon="-3.7313162"><ele>961.0000000000001</ele><time>2026-03-23T08:51:39.716Z</time></trkpt><trkpt lat="40.7779761" lon="-3.7312233"><ele>960.0</ele><time>2026-03-23T08:51:40.716Z</time></trkpt><trkpt lat="40.7780649" lon="-3.7311305"><ele>959.0</ele><time>2026-03-23T08:51:41.722Z</time></trkpt><trkpt lat="40.7781575" lon="-3.7310329"><ele>959.0</ele><time>2026-03-23T08:51:42.714Z</time></trkpt><trkpt lat="40.7782485" lon="-3.7309332"><ele>959.0000000000001</ele><time>2026-03-23T08:51:43.708Z</time></trkpt><trkpt lat="40.7783333" lon="-3.7308425"><ele>959.0000000000001</ele><time>2026-03-23T08:51:44.695Z</time></trkpt><trkpt lat="40.7784082" lon="-3.7307544"><ele>959.0</ele><time>2026-03-23T08:51:45.691Z</time></trkpt><trkpt lat="40.7784741" lon="-3.7306729"><ele>959.0</ele><time>2026-03-23T08:51:46.708Z</time></trkpt><trkpt lat="40.778526" lon="-3.7305919"><ele>958.6666666666667</ele><time>2026-03-23T08:51:47.706Z</time></trkpt><trkpt lat="40.7785638" lon="-3.7305027"><ele>958.3333333333334</ele><time>2026-03-23T08:51:48.7Z</time></trkpt><trkpt lat="40.7785843" lon="-3.7304113"><ele>958.0</ele><time>2026-03-23T08:51:49.698Z</time></trkpt><trkpt lat="40.7785955" lon="-3.7303222"><ele>957.6666666666667</ele><time>2026-03-23T08:51:50.71Z</time></trkpt><trkpt lat="40.7786143" lon="-3.7302107"><ele>957.3333333333334</ele><time>2026-03-23T08:51:51.709Z</time></trkpt><trkpt lat="40.7786405" lon="-3.7300921"><ele>957.0</ele><time>2026-03-23T08:51:52.722Z</time></trkpt><trkpt lat="40.7786735" lon="-3.7299848"><ele>957.0</ele><time>2026-03-23T08:51:53.715Z</time></trkpt><trkpt lat="40.778719" lon="-3.7298756"><ele>957.0</ele><time>2026-03-23T08:51:54.691Z</time></trkpt><trkpt lat="40.7787526" lon="-3.7297878"><ele>957.0</ele><time>2026-03-23T08:51:55.699Z</time></trkpt><trkpt lat="40.7787827" lon="-3.7296988"><ele>957.0</ele><time>2026-03-23T08:51:56.705Z</time></trkpt><trkpt lat="40.7788383" lon="-3.7295752"><ele>957.0</ele><time>2026-03-23T08:51:58.711Z</time></trkpt><trkpt lat="40.7788634" lon="-3.7294839"><ele>957.0</ele><time>2026-03-23T08:52:00.724Z</time></trkpt><trkpt lat="40.7788997" lon="-3.729393"><ele>957.2</ele><time>2026-03-23T08:52:02.728Z</time></trkpt><trkpt lat="40.7789599" lon="-3.729339"><ele>957.4000000000001</ele><time>2026-03-23T08:52:05.715Z</time></trkpt><trkpt lat="40.779014" lon="-3.7292324"><ele>957.5999999999999</ele><time>2026-03-23T08:52:07.721Z</time></trkpt><trkpt lat="40.7790404" lon="-3.7291534"><ele>957.8</ele><time>2026-03-23T08:52:08.724Z</time></trkpt><trkpt lat="40.7790894" lon="-3.7290155"><ele>958.0</ele><time>2026-03-23T08:52:10.725Z</time></trkpt><trkpt lat="40.7791497" lon="-3.7289059"><ele>958.0</ele><time>2026-03-23T08:52:12.723Z</time></trkpt><trkpt lat="40.7792111" lon="-3.728816"><ele>958.0</ele><time>2026-03-23T08:52:14.696Z</time></trkpt><trkpt lat="40.7792791" lon="-3.7286743"><ele>958.0</ele><time>2026-03-23T08:52:16.699Z</time></trkpt><trkpt lat="40.779313" lon="-3.7286017"><ele>958.0</ele><time>2026-03-23T08:52:17.699Z</time></trkpt><trkpt lat="40.7793709" lon="-3.7284442"><ele>958.0</ele><time>2026-03-23T08:52:19.717Z</time></trkpt><trkpt lat="40.7793985" lon="-3.7283659"><ele>956.8333333333333</ele><time>2026-03-23T08:52:20.714Z</time></trkpt><trkpt lat="40.7794648" lon="-3.7282126"><ele>955.6666666666666</ele><time>2026-03-23T08:52:22.708Z</time></trkpt><trkpt lat="40.7795179" lon="-3.7281352"><ele>954.5</ele><time>2026-03-23T08:52:23.712Z</time></trkpt><trkpt lat="40.7795701" lon="-3.7280582"><ele>953.3333333333333</ele><time>2026-03-23T08:52:24.714Z</time></trkpt><trkpt lat="40.7796282" lon="-3.7279937"><ele>952.1666666666666</ele><time>2026-03-23T08:52:25.727Z</time></trkpt><trkpt lat="40.7796745" lon="-3.7279248"><ele>951.0</ele><time>2026-03-23T08:52:26.701Z</time></trkpt><trkpt lat="40.7797208" lon="-3.7278612"><ele>951.0</ele><time>2026-03-23T08:52:27.717Z</time></trkpt><trkpt lat="40.7797789" lon="-3.7278006"><ele>950.9999999999999</ele><time>2026-03-23T08:52:28.723Z</time></trkpt><trkpt lat="40.7798374" lon="-3.7277508"><ele>950.9999999999999</ele><time>2026-03-23T08:52:29.718Z</time></trkpt><trkpt lat="40.7798949" lon="-3.7277045"><ele>951.0</ele><time>2026-03-23T08:52:30.714Z</time></trkpt><trkpt lat="40.7800006" lon="-3.727643"><ele>951.0</ele><time>2026-03-23T08:52:32.724Z</time></trkpt><trkpt lat="40.7801139" lon="-3.7275708"><ele>950.6666666666666</ele><time>2026-03-23T08:52:34.731Z</time></trkpt><trkpt lat="40.7801785" lon="-3.7275178"><ele>950.3333333333333</ele><time>2026-03-23T08:52:35.726Z</time></trkpt><trkpt lat="40.7802496" lon="-3.7274597"><ele>950.0</ele><time>2026-03-23T08:52:36.701Z</time></trkpt><trkpt lat="40.7803163" lon="-3.7274023"><ele>949.6666666666666</ele><time>2026-03-23T08:52:37.71Z</time></trkpt><trkpt lat="40.7803734" lon="-3.7273447"><ele>949.3333333333333</ele><time>2026-03-23T08:52:38.725Z</time></trkpt><trkpt lat="40.7804227" lon="-3.7272785"><ele>949.0</ele><time>2026-03-23T08:52:39.724Z</time></trkpt><trkpt lat="40.7804703" lon="-3.7272095"><ele>948.3333333333333</ele><time>2026-03-23T08:52:40.718Z</time></trkpt><trkpt lat="40.7805122" lon="-3.7271417"><ele>947.6666666666666</ele><time>2026-03-23T08:52:41.724Z</time></trkpt><trkpt lat="40.7805544" lon="-3.7270521"><ele>947.0</ele><time>2026-03-23T08:52:42.715Z</time></trkpt><trkpt lat="40.7805925" lon="-3.7269407"><ele>946.3333333333333</ele><time>2026-03-23T08:52:43.725Z</time></trkpt><trkpt lat="40.7806404" lon="-3.7268334"><ele>945.6666666666666</ele><time>2026-03-23T08:52:44.705Z</time></trkpt><trkpt lat="40.7806838" lon="-3.7267361"><ele>945.0</ele><time>2026-03-23T08:52:45.708Z</time></trkpt><trkpt lat="40.7807235" lon="-3.7266504"><ele>944.6666666666666</ele><time>2026-03-23T08:52:46.702Z</time></trkpt><trkpt lat="40.7807611" lon="-3.7265601"><ele>944.3333333333333</ele><time>2026-03-23T08:52:47.723Z</time></trkpt><trkpt lat="40.7807934" lon="-3.7264766"><ele>944.0</ele><time>2026-03-23T08:52:48.715Z</time></trkpt><trkpt lat="40.7808257" lon="-3.7263999"><ele>943.6666666666666</ele><time>2026-03-23T08:52:49.709Z</time></trkpt><trkpt lat="40.7808828" lon="-3.7262606"><ele>943.3333333333333</ele><time>2026-03-23T08:52:51.715Z</time></trkpt><trkpt lat="40.7809419" lon="-3.7261373"><ele>943.0</ele><time>2026-03-23T08:52:53.709Z</time></trkpt><trkpt lat="40.7809784" lon="-3.7260647"><ele>942.5714285714287</ele><time>2026-03-23T08:52:54.718Z</time></trkpt><trkpt lat="40.781021" lon="-3.7259983"><ele>942.1428571428572</ele><time>2026-03-23T08:52:55.726Z</time></trkpt><trkpt lat="40.7810599" lon="-3.7259249"><ele>941.7142857142858</ele><time>2026-03-23T08:52:56.718Z</time></trkpt><trkpt lat="40.7810941" lon="-3.7258512"><ele>941.2857142857142</ele><time>2026-03-23T08:52:57.719Z</time></trkpt><trkpt lat="40.7811275" lon="-3.725775"><ele>940.8571428571428</ele><time>2026-03-23T08:52:58.704Z</time></trkpt><trkpt lat="40.7811627" lon="-3.7257031"><ele>940.4285714285713</ele><time>2026-03-23T08:52:59.715Z</time></trkpt><trkpt lat="40.781196" lon="-3.7256233"><ele>940.0</ele><time>2026-03-23T08:53:00.719Z</time></trkpt><trkpt lat="40.7812253" lon="-3.7255497"><ele>940.0</ele><time>2026-03-23T08:53:01.717Z</time></trkpt><trkpt lat="40.7812867" lon="-3.7254034"><ele>940.0</ele><time>2026-03-23T08:53:03.71Z</time></trkpt><trkpt lat="40.7813229" lon="-3.7253247"><ele>940.0</ele><time>2026-03-23T08:53:04.694Z</time></trkpt><trkpt lat="40.7813581" lon="-3.7252421"><ele>940.0</ele><time>2026-03-23T08:53:05.709Z</time></trkpt><trkpt lat="40.7813904" lon="-3.7251051"><ele>940.0</ele><time>2026-03-23T08:53:07.713Z</time></trkpt><trkpt lat="40.7814417" lon="-3.725"><ele>938.9999999999999</ele><time>2026-03-23T08:53:09.708Z</time></trkpt><trkpt lat="40.7815237" lon="-3.7248812"><ele>938.0</ele><time>2026-03-23T08:53:11.727Z</time></trkpt><trkpt lat="40.7815694" lon="-3.7248116"><ele>937.0</ele><time>2026-03-23T08:53:12.704Z</time></trkpt><trkpt lat="40.7816147" lon="-3.72472"><ele>936.0</ele><time>2026-03-23T08:53:13.71Z</time></trkpt><trkpt lat="40.7816536" lon="-3.7246337"><ele>934.9999999999999</ele><time>2026-03-23T08:53:14.692Z</time></trkpt><trkpt lat="40.7816842" lon="-3.7245483"><ele>934.0</ele><time>2026-03-23T08:53:15.707Z</time></trkpt><trkpt lat="40.7817188" lon="-3.7244696"><ele>932.6666666666666</ele><time>2026-03-23T08:53:16.7Z</time></trkpt><trkpt lat="40.7817461" lon="-3.7243935"><ele>931.3333333333333</ele><time>2026-03-23T08:53:17.693Z</time></trkpt><trkpt lat="40.7817993" lon="-3.724263"><ele>930.0</ele><time>2026-03-23T08:53:19.723Z</time></trkpt><trkpt lat="40.7818189" lon="-3.7241828"><ele>928.6666666666667</ele><time>2026-03-23T08:53:20.704Z</time></trkpt><trkpt lat="40.781843" lon="-3.7240973"><ele>927.3333333333334</ele><time>2026-03-23T08:53:21.707Z</time></trkpt><trkpt lat="40.7818762" lon="-3.7240064"><ele>926.0</ele><time>2026-03-23T08:53:22.725Z</time></trkpt><trkpt lat="40.7819002" lon="-3.7239207"><ele>925.5000000000001</ele><time>2026-03-23T08:53:23.716Z</time></trkpt><trkpt lat="40.7819331" lon="-3.7238344"><ele>925.0</ele><time>2026-03-23T08:53:24.713Z</time></trkpt><trkpt lat="40.7819789" lon="-3.7237448"><ele>924.5</ele><time>2026-03-23T08:53:25.726Z</time></trkpt><trkpt lat="40.7820208" lon="-3.7236441"><ele>924.0</ele><time>2026-03-23T08:53:26.721Z</time></trkpt><trkpt lat="40.7820665" lon="-3.7235508"><ele>923.5000000000001</ele><time>2026-03-23T08:53:27.711Z</time></trkpt><trkpt lat="40.7821127" lon="-3.7234694"><ele>923.0</ele><time>2026-03-23T08:53:28.723Z</time></trkpt><trkpt lat="40.7821534" lon="-3.7233975"><ele>922.5999999999999</ele><time>2026-03-23T08:53:29.73Z</time></trkpt><trkpt lat="40.7822232" lon="-3.7232944"><ele>922.1999999999999</ele><time>2026-03-23T08:53:31.715Z</time></trkpt><trkpt lat="40.782263" lon="-3.7232032"><ele>921.8</ele><time>2026-03-23T08:53:33.72Z</time></trkpt><trkpt lat="40.7823228" lon="-3.7231184"><ele>921.4</ele><time>2026-03-23T08:53:35.725Z</time></trkpt><trkpt lat="40.7823833" lon="-3.7230364"><ele>921.0</ele><time>2026-03-23T08:53:37.725Z</time></trkpt><trkpt lat="40.7824642" lon="-3.7229231"><ele>921.0000000000001</ele><time>2026-03-23T08:53:39.722Z</time></trkpt><trkpt lat="40.7825146" lon="-3.722864"><ele>921.0</ele><time>2026-03-23T08:53:40.704Z</time></trkpt><trkpt lat="40.7825732" lon="-3.7228049"><ele>921.0000000000001</ele><time>2026-03-23T08:53:41.721Z</time></trkpt><trkpt lat="40.7826345" lon="-3.7227399"><ele>921.0000000000001</ele><time>2026-03-23T08:53:42.726Z</time></trkpt><trkpt lat="40.7826958" lon="-3.7226656"><ele>921.0</ele><time>2026-03-23T08:53:43.721Z</time></trkpt><trkpt lat="40.7827489" lon="-3.7225916"><ele>921.0000000000001</ele><time>2026-03-23T08:53:44.721Z</time></trkpt><trkpt lat="40.7828001" lon="-3.7225306"><ele>921.0000000000001</ele><time>2026-03-23T08:53:45.724Z</time></trkpt><trkpt lat="40.7829029" lon="-3.7224884"><ele>922.1999999999999</ele><time>2026-03-23T08:53:47.724Z</time></trkpt><trkpt lat="40.783006" lon="-3.7224706"><ele>923.3999999999999</ele><time>2026-03-23T08:53:49.726Z</time></trkpt><trkpt lat="40.7831034" lon="-3.7224319"><ele>924.6</ele><time>2026-03-23T08:53:51.717Z</time></trkpt><trkpt lat="40.7832323" lon="-3.7223916"><ele>925.8</ele><time>2026-03-23T08:53:53.719Z</time></trkpt><trkpt lat="40.7833064" lon="-3.7223613"><ele>927.0</ele><time>2026-03-23T08:53:54.721Z</time></trkpt><trkpt lat="40.7833925" lon="-3.7223092"><ele>927.0</ele><time>2026-03-23T08:53:55.71Z</time></trkpt><trkpt lat="40.7834717" lon="-3.7222484"><ele>927.0</ele><time>2026-03-23T08:53:56.729Z</time></trkpt><trkpt lat="40.7835533" lon="-3.722161"><ele>927.0</ele><time>2026-03-23T08:53:57.717Z</time></trkpt><trkpt lat="40.7836331" lon="-3.7220515"><ele>927.0</ele><time>2026-03-23T08:53:58.725Z</time></trkpt><trkpt lat="40.7837102" lon="-3.721924"><ele>927.0</ele><time>2026-03-23T08:53:59.714Z</time></trkpt><trkpt lat="40.7837782" lon="-3.7218088"><ele>927.6</ele><time>2026-03-23T08:54:00.717Z</time></trkpt><trkpt lat="40.7838441" lon="-3.7217004"><ele>928.2</ele><time>2026-03-23T08:54:01.734Z</time></trkpt><trkpt lat="40.7838972" lon="-3.7215881"><ele>928.8</ele><time>2026-03-23T08:54:02.716Z</time></trkpt><trkpt lat="40.7839489" lon="-3.721468"><ele>929.4</ele><time>2026-03-23T08:54:03.721Z</time></trkpt><trkpt lat="40.7839958" lon="-3.7213314"><ele>930.0</ele><time>2026-03-23T08:54:04.715Z</time></trkpt><trkpt lat="40.7840382" lon="-3.7211903"><ele>929.8</ele><time>2026-03-23T08:54:05.733Z</time></trkpt><trkpt lat="40.7840707" lon="-3.7210473"><ele>929.6</ele><time>2026-03-23T08:54:06.706Z</time></trkpt><trkpt lat="40.7840973" lon="-3.7209209"><ele>929.4000000000001</ele><time>2026-03-23T08:54:07.73Z</time></trkpt><trkpt lat="40.784128" lon="-3.7208048"><ele>929.2</ele><time>2026-03-23T08:54:08.727Z</time></trkpt><trkpt lat="40.7841386" lon="-3.7206907"><ele>929.0</ele><time>2026-03-23T08:54:09.717Z</time></trkpt><trkpt lat="40.7841338" lon="-3.7205587"><ele>929.0</ele><time>2026-03-23T08:54:10.721Z</time></trkpt><trkpt lat="40.7841291" lon="-3.7204008"><ele>929.0</ele><time>2026-03-23T08:54:11.723Z</time></trkpt><trkpt lat="40.784142" lon="-3.7202392"><ele>929.0</ele><time>2026-03-23T08:54:12.696Z</time></trkpt><trkpt lat="40.7841544" lon="-3.7200768"><ele>929.0</ele><time>2026-03-23T08:54:13.695Z</time></trkpt><trkpt lat="40.7841626" lon="-3.7199265"><ele>928.6</ele><time>2026-03-23T08:54:14.717Z</time></trkpt><trkpt lat="40.78417" lon="-3.7197792"><ele>928.2</ele><time>2026-03-23T08:54:15.707Z</time></trkpt><trkpt lat="40.7841736" lon="-3.7196455"><ele>927.8000000000001</ele><time>2026-03-23T08:54:16.717Z</time></trkpt><trkpt lat="40.7841776" lon="-3.7195207"><ele>927.4000000000001</ele><time>2026-03-23T08:54:17.715Z</time></trkpt><trkpt lat="40.7841783" lon="-3.7194056"><ele>927.0</ele><time>2026-03-23T08:54:18.732Z</time></trkpt><trkpt lat="40.784169" lon="-3.7193032"><ele>926.5</ele><time>2026-03-23T08:54:19.717Z</time></trkpt><trkpt lat="40.784168" lon="-3.7191961"><ele>926.0</ele><time>2026-03-23T08:54:20.719Z</time></trkpt><trkpt lat="40.7841827" lon="-3.7190927"><ele>925.5</ele><time>2026-03-23T08:54:21.713Z</time></trkpt><trkpt lat="40.7841962" lon="-3.7189962"><ele>925.0</ele><time>2026-03-23T08:54:22.719Z</time></trkpt><trkpt lat="40.7842047" lon="-3.7188976"><ele>924.5</ele><time>2026-03-23T08:54:23.725Z</time></trkpt><trkpt lat="40.7842109" lon="-3.7187988"><ele>924.0</ele><time>2026-03-23T08:54:24.7Z</time></trkpt><trkpt lat="40.7842249" lon="-3.7186943"><ele>924.0</ele><time>2026-03-23T08:54:25.715Z</time></trkpt><trkpt lat="40.78424" lon="-3.7185938"><ele>924.0000000000001</ele><time>2026-03-23T08:54:26.692Z</time></trkpt><trkpt lat="40.7842532" lon="-3.7184807"><ele>924.0000000000001</ele><time>2026-03-23T08:54:27.701Z</time></trkpt><trkpt lat="40.7842723" lon="-3.7183569"><ele>924.0</ele><time>2026-03-23T08:54:28.717Z</time></trkpt><trkpt lat="40.7842945" lon="-3.7182301"><ele>924.0</ele><time>2026-03-23T08:54:29.726Z</time></trkpt><trkpt lat="40.7843178" lon="-3.7180876"><ele>922.0</ele><time>2026-03-23T08:54:30.722Z</time></trkpt><trkpt lat="40.7843442" lon="-3.7179282"><ele>920.0</ele><time>2026-03-23T08:54:31.717Z</time></trkpt><trkpt lat="40.7843609" lon="-3.7177636"><ele>918.0</ele><time>2026-03-23T08:54:32.719Z</time></trkpt><trkpt lat="40.7843765" lon="-3.7175925"><ele>916.0</ele><time>2026-03-23T08:54:33.72Z</time></trkpt><trkpt lat="40.7843946" lon="-3.7174254"><ele>914.0</ele><time>2026-03-23T08:54:34.721Z</time></trkpt><trkpt lat="40.7844117" lon="-3.7172606"><ele>912.0</ele><time>2026-03-23T08:54:35.726Z</time></trkpt><trkpt lat="40.7844207" lon="-3.717103"><ele>910.0</ele><time>2026-03-23T08:54:36.728Z</time></trkpt><trkpt lat="40.7844289" lon="-3.7169483"><ele>908.0</ele><time>2026-03-23T08:54:37.722Z</time></trkpt><trkpt lat="40.7844144" lon="-3.7168058"><ele>908.25</ele><time>2026-03-23T08:54:38.719Z</time></trkpt><trkpt lat="40.7843778" lon="-3.7166551"><ele>908.5</ele><time>2026-03-23T08:54:39.728Z</time></trkpt><trkpt lat="40.7843329" lon="-3.7165072"><ele>908.75</ele><time>2026-03-23T08:54:40.722Z</time></trkpt><trkpt lat="40.7842961" lon="-3.7163563"><ele>909.0</ele><time>2026-03-23T08:54:41.724Z</time></trkpt><trkpt lat="40.7842773" lon="-3.7162101"><ele>909.4000000000001</ele><time>2026-03-23T08:54:42.711Z</time></trkpt><trkpt lat="40.7842544" lon="-3.7160692"><ele>909.8000000000001</ele><time>2026-03-23T08:54:43.729Z</time></trkpt><trkpt lat="40.7842345" lon="-3.715932"><ele>910.1999999999999</ele><time>2026-03-23T08:54:44.701Z</time></trkpt><trkpt lat="40.784226" lon="-3.7157968"><ele>910.5999999999999</ele><time>2026-03-23T08:54:45.728Z</time></trkpt><trkpt lat="40.7842271" lon="-3.7156661"><ele>911.0</ele><time>2026-03-23T08:54:46.699Z</time></trkpt><trkpt lat="40.7842331" lon="-3.7155318"><ele>911.0</ele><time>2026-03-23T08:54:47.698Z</time></trkpt><trkpt lat="40.7842469" lon="-3.7153883"><ele>910.9999999999999</ele><time>2026-03-23T08:54:48.721Z</time></trkpt><trkpt lat="40.7842608" lon="-3.7152466"><ele>910.9999999999999</ele><time>2026-03-23T08:54:49.707Z</time></trkpt><trkpt lat="40.784275" lon="-3.7151091"><ele>911.0</ele><time>2026-03-23T08:54:50.722Z</time></trkpt><trkpt lat="40.7842883" lon="-3.7149698"><ele>911.0</ele><time>2026-03-23T08:54:51.722Z</time></trkpt><trkpt lat="40.7843" lon="-3.7148322"><ele>909.5</ele><time>2026-03-23T08:54:52.718Z</time></trkpt><trkpt lat="40.7843125" lon="-3.714691"><ele>908.0</ele><time>2026-03-23T08:54:53.718Z</time></trkpt><trkpt lat="40.7843171" lon="-3.714539"><ele>906.5</ele><time>2026-03-23T08:54:54.723Z</time></trkpt><trkpt lat="40.7843152" lon="-3.7143852"><ele>905.0</ele><time>2026-03-23T08:54:55.723Z</time></trkpt><trkpt lat="40.7843153" lon="-3.7142316"><ele>904.2</ele><time>2026-03-23T08:54:56.729Z</time></trkpt><trkpt lat="40.7843167" lon="-3.7140832"><ele>903.4</ele><time>2026-03-23T08:54:57.721Z</time></trkpt><trkpt lat="40.7843158" lon="-3.7139373"><ele>902.5999999999999</ele><time>2026-03-23T08:54:58.72Z</time></trkpt><trkpt lat="40.7843171" lon="-3.7137853"><ele>901.8</ele><time>2026-03-23T08:54:59.726Z</time></trkpt><trkpt lat="40.7843195" lon="-3.7136422"><ele>901.0</ele><time>2026-03-23T08:55:00.717Z</time></trkpt><trkpt lat="40.7843277" lon="-3.7134963"><ele>899.8</ele><time>2026-03-23T08:55:01.72Z</time></trkpt><trkpt lat="40.7843374" lon="-3.7133452"><ele>898.5999999999999</ele><time>2026-03-23T08:55:02.72Z</time></trkpt><trkpt lat="40.7843527" lon="-3.7132049"><ele>897.4</ele><time>2026-03-23T08:55:03.722Z</time></trkpt><trkpt lat="40.7843679" lon="-3.713071"><ele>896.2</ele><time>2026-03-23T08:55:04.721Z</time></trkpt><trkpt lat="40.7843832" lon="-3.7129272"><ele>895.0</ele><time>2026-03-23T08:55:05.723Z</time></trkpt><trkpt lat="40.7843987" lon="-3.7127938"><ele>896.8</ele><time>2026-03-23T08:55:06.716Z</time></trkpt><trkpt lat="40.7844275" lon="-3.7126597"><ele>898.6</ele><time>2026-03-23T08:55:07.723Z</time></trkpt><trkpt lat="40.7844561" lon="-3.71253"><ele>900.4000000000001</ele><time>2026-03-23T08:55:08.727Z</time></trkpt><trkpt lat="40.7844817" lon="-3.7123996"><ele>902.2</ele><time>2026-03-23T08:55:09.713Z</time></trkpt><trkpt lat="40.7845092" lon="-3.7122782"><ele>904.0</ele><time>2026-03-23T08:55:10.719Z</time></trkpt><trkpt lat="40.7845354" lon="-3.7121597"><ele>904.0</ele><time>2026-03-23T08:55:11.711Z</time></trkpt><trkpt lat="40.7845559" lon="-3.7120338"><ele>904.0000000000001</ele><time>2026-03-23T08:55:12.72Z</time></trkpt><trkpt lat="40.7845738" lon="-3.7119"><ele>904.0000000000001</ele><time>2026-03-23T08:55:13.722Z</time></trkpt><trkpt lat="40.7845852" lon="-3.7117684"><ele>904.0</ele><time>2026-03-23T08:55:14.723Z</time></trkpt><trkpt lat="40.7846013" lon="-3.7116341"><ele>904.0</ele><time>2026-03-23T08:55:15.711Z</time></trkpt><trkpt lat="40.7846197" lon="-3.7115045"><ele>902.9999999999999</ele><time>2026-03-23T08:55:16.718Z</time></trkpt><trkpt lat="40.7846374" lon="-3.7113965"><ele>902.0</ele><time>2026-03-23T08:55:17.706Z</time></trkpt><trkpt lat="40.7846557" lon="-3.7113018"><ele>901.0</ele><time>2026-03-23T08:55:18.723Z</time></trkpt><trkpt lat="40.7846773" lon="-3.7112099"><ele>900.0</ele><time>2026-03-23T08:55:19.723Z</time></trkpt><trkpt lat="40.7846953" lon="-3.7111236"><ele>898.9999999999999</ele><time>2026-03-23T08:55:20.723Z</time></trkpt><trkpt lat="40.7847312" lon="-3.7109731"><ele>898.0</ele><time>2026-03-23T08:55:22.715Z</time></trkpt><trkpt lat="40.7847613" lon="-3.7108544"><ele>897.1666666666666</ele><time>2026-03-23T08:55:24.72Z</time></trkpt><trkpt lat="40.7847868" lon="-3.7107752"><ele>896.3333333333333</ele><time>2026-03-23T08:55:26.707Z</time></trkpt><trkpt lat="40.7848186" lon="-3.7106867"><ele>895.5</ele><time>2026-03-23T08:55:30.724Z</time></trkpt><trkpt lat="40.7848362" lon="-3.7105631"><ele>894.6666666666667</ele><time>2026-03-23T08:56:21.719Z</time></trkpt><trkpt lat="40.7848852" lon="-3.7104437"><ele>893.8333333333334</ele><time>2026-03-23T08:56:23.722Z</time></trkpt><trkpt lat="40.7849168" lon="-3.7103604"><ele>893.0</ele><time>2026-03-23T08:56:24.715Z</time></trkpt><trkpt lat="40.7849545" lon="-3.7102623"><ele>892.0000000000001</ele><time>2026-03-23T08:56:25.724Z</time></trkpt><trkpt lat="40.7849881" lon="-3.7101605"><ele>891.0</ele><time>2026-03-23T08:56:26.723Z</time></trkpt><trkpt lat="40.7850233" lon="-3.7100592"><ele>890.0</ele><time>2026-03-23T08:56:27.718Z</time></trkpt><trkpt lat="40.78506" lon="-3.7099633"><ele>889.0</ele><time>2026-03-23T08:56:28.717Z</time></trkpt><trkpt lat="40.7850954" lon="-3.7098712"><ele>888.0000000000001</ele><time>2026-03-23T08:56:29.711Z</time></trkpt><trkpt lat="40.7851283" lon="-3.709764"><ele>887.0</ele><time>2026-03-23T08:56:30.727Z</time></trkpt><trkpt lat="40.7851646" lon="-3.7096689"><ele>886.6</ele><time>2026-03-23T08:56:31.721Z</time></trkpt><trkpt lat="40.785204" lon="-3.7095664"><ele>886.2</ele><time>2026-03-23T08:56:32.705Z</time></trkpt><trkpt lat="40.7852439" lon="-3.7094494"><ele>885.8</ele><time>2026-03-23T08:56:33.706Z</time></trkpt><trkpt lat="40.785285" lon="-3.7093258"><ele>885.4</ele><time>2026-03-23T08:56:34.722Z</time></trkpt><trkpt lat="40.7853259" lon="-3.7091931"><ele>885.0</ele><time>2026-03-23T08:56:35.726Z</time></trkpt><trkpt lat="40.7853698" lon="-3.7090472"><ele>882.25</ele><time>2026-03-23T08:56:36.729Z</time></trkpt><trkpt lat="40.7854105" lon="-3.7089041"><ele>879.5</ele><time>2026-03-23T08:56:37.726Z</time></trkpt><trkpt lat="40.7854504" lon="-3.7087581"><ele>876.75</ele><time>2026-03-23T08:56:38.718Z</time></trkpt><trkpt lat="40.7854831" lon="-3.7086089"><ele>874.0</ele><time>2026-03-23T08:56:39.71Z</time></trkpt><trkpt lat="40.7855162" lon="-3.7084721"><ele>871.8000000000001</ele><time>2026-03-23T08:56:40.717Z</time></trkpt><trkpt lat="40.7855526" lon="-3.7083357"><ele>869.6000000000001</ele><time>2026-03-23T08:56:41.708Z</time></trkpt><trkpt lat="40.7855892" lon="-3.7082008"><ele>867.4</ele><time>2026-03-23T08:56:42.715Z</time></trkpt><trkpt lat="40.7856217" lon="-3.7080816"><ele>865.2</ele><time>2026-03-23T08:56:43.708Z</time></trkpt><trkpt lat="40.7856557" lon="-3.707967"><ele>863.0</ele><time>2026-03-23T08:56:44.723Z</time></trkpt><trkpt lat="40.7856868" lon="-3.7078571"><ele>863.0000000000001</ele><time>2026-03-23T08:56:45.707Z</time></trkpt><trkpt lat="40.7857086" lon="-3.7077635"><ele>863.0</ele><time>2026-03-23T08:56:46.704Z</time></trkpt><trkpt lat="40.7857141" lon="-3.707643"><ele>863.0</ele><time>2026-03-23T08:56:48.705Z</time></trkpt><trkpt lat="40.7857218" lon="-3.7075547"><ele>863.0</ele><time>2026-03-23T08:56:51.714Z</time></trkpt><trkpt lat="40.7857754" lon="-3.7074361"><ele>863.0000000000001</ele><time>2026-03-23T08:56:55.711Z</time></trkpt><trkpt lat="40.7858402" lon="-3.7073997"><ele>863.0</ele><time>2026-03-23T08:56:56.723Z</time></trkpt><trkpt lat="40.7859131" lon="-3.7073661"><ele>862.5999999999999</ele><time>2026-03-23T08:56:57.704Z</time></trkpt><trkpt lat="40.785998" lon="-3.7073297"><ele>862.1999999999999</ele><time>2026-03-23T08:56:58.713Z</time></trkpt><trkpt lat="40.7860932" lon="-3.7072853"><ele>861.8</ele><time>2026-03-23T08:56:59.732Z</time></trkpt><trkpt lat="40.7861918" lon="-3.7072374"><ele>861.4</ele><time>2026-03-23T08:57:00.723Z</time></trkpt><trkpt lat="40.7862995" lon="-3.7071832"><ele>861.0</ele><time>2026-03-23T08:57:01.726Z</time></trkpt><trkpt lat="40.7864166" lon="-3.7071176"><ele>859.5</ele><time>2026-03-23T08:57:02.723Z</time></trkpt><trkpt lat="40.7865444" lon="-3.707048"><ele>858.0</ele><time>2026-03-23T08:57:03.718Z</time></trkpt><trkpt lat="40.7866613" lon="-3.7069817"><ele>856.5</ele><time>2026-03-23T08:57:04.725Z</time></trkpt><trkpt lat="40.7867711" lon="-3.7069229"><ele>855.0</ele><time>2026-03-23T08:57:05.729Z</time></trkpt><trkpt lat="40.7868761" lon="-3.7068557"><ele>855.0</ele><time>2026-03-23T08:57:06.724Z</time></trkpt><trkpt lat="40.7869687" lon="-3.706787"><ele>855.0</ele><time>2026-03-23T08:57:07.719Z</time></trkpt><trkpt lat="40.787053" lon="-3.7067156"><ele>855.0</ele><time>2026-03-23T08:57:08.718Z</time></trkpt><trkpt lat="40.7871179" lon="-3.7066319"><ele>855.0</ele><time>2026-03-23T08:57:09.73Z</time></trkpt><trkpt lat="40.7871615" lon="-3.7065305"><ele>855.0</ele><time>2026-03-23T08:57:10.705Z</time></trkpt><trkpt lat="40.7872065" lon="-3.7064327"><ele>855.0</ele><time>2026-03-23T08:57:11.703Z</time></trkpt><trkpt lat="40.7872694" lon="-3.7063467"><ele>855.0</ele><time>2026-03-23T08:57:12.711Z</time></trkpt><trkpt lat="40.7873468" lon="-3.7062892"><ele>855.0</ele><time>2026-03-23T08:57:13.713Z</time></trkpt><trkpt lat="40.7874418" lon="-3.7062549"><ele>855.0</ele><time>2026-03-23T08:57:14.717Z</time></trkpt><trkpt lat="40.7875229" lon="-3.70622"><ele>855.0</ele><time>2026-03-23T08:57:15.709Z</time></trkpt><trkpt lat="40.7876135" lon="-3.7061514"><ele>853.5</ele><time>2026-03-23T08:57:16.733Z</time></trkpt><trkpt lat="40.7876995" lon="-3.7060695"><ele>852.0</ele><time>2026-03-23T08:57:17.732Z</time></trkpt><trkpt lat="40.7877842" lon="-3.7059712"><ele>850.5</ele><time>2026-03-23T08:57:18.706Z</time></trkpt><trkpt lat="40.7878719" lon="-3.7058518"><ele>849.0</ele><time>2026-03-23T08:57:19.714Z</time></trkpt><trkpt lat="40.7879596" lon="-3.7057309"><ele>849.0</ele><time>2026-03-23T08:57:20.721Z</time></trkpt><trkpt lat="40.7880407" lon="-3.705598"><ele>849.0</ele><time>2026-03-23T08:57:21.724Z</time></trkpt><trkpt lat="40.7881206" lon="-3.7054568"><ele>849.0</ele><time>2026-03-23T08:57:22.723Z</time></trkpt><trkpt lat="40.788202" lon="-3.7053045"><ele>849.0</ele><time>2026-03-23T08:57:23.721Z</time></trkpt><trkpt lat="40.7882812" lon="-3.7051402"><ele>848.6666666666667</ele><time>2026-03-23T08:57:24.723Z</time></trkpt><trkpt lat="40.7883542" lon="-3.7049532"><ele>848.3333333333334</ele><time>2026-03-23T08:57:25.718Z</time></trkpt><trkpt lat="40.7884224" lon="-3.7047496"><ele>848.0</ele><time>2026-03-23T08:57:26.723Z</time></trkpt><trkpt lat="40.7884842" lon="-3.7045373"><ele>855.3333333333334</ele><time>2026-03-23T08:57:27.724Z</time></trkpt><trkpt lat="40.7885407" lon="-3.7043263"><ele>862.6666666666667</ele><time>2026-03-23T08:57:28.714Z</time></trkpt><trkpt lat="40.7885902" lon="-3.7041049"><ele>870.0</ele><time>2026-03-23T08:57:29.72Z</time></trkpt><trkpt lat="40.7886386" lon="-3.7038691"><ele>870.0</ele><time>2026-03-23T08:57:30.711Z</time></trkpt><trkpt lat="40.7886891" lon="-3.7036251"><ele>870.0</ele><time>2026-03-23T08:57:31.701Z</time></trkpt><trkpt lat="40.7887417" lon="-3.7033768"><ele>870.0</ele><time>2026-03-23T08:57:32.711Z</time></trkpt><trkpt lat="40.7887997" lon="-3.7031245"><ele>867.0</ele><time>2026-03-23T08:57:33.698Z</time></trkpt><trkpt lat="40.7888598" lon="-3.7028649"><ele>864.0</ele><time>2026-03-23T08:57:34.705Z</time></trkpt><trkpt lat="40.7889204" lon="-3.7025984"><ele>861.0</ele><time>2026-03-23T08:57:35.706Z</time></trkpt><trkpt lat="40.7889926" lon="-3.7023269"><ele>859.6666666666667</ele><time>2026-03-23T08:57:36.722Z</time></trkpt><trkpt lat="40.7890691" lon="-3.7020544"><ele>858.3333333333334</ele><time>2026-03-23T08:57:37.707Z</time></trkpt><trkpt lat="40.789152" lon="-3.7017784"><ele>857.0</ele><time>2026-03-23T08:57:38.784Z</time></trkpt><trkpt lat="40.7892424" lon="-3.701501"><ele>857.0</ele><time>2026-03-23T08:57:39.725Z</time></trkpt><trkpt lat="40.7893303" lon="-3.7012384"><ele>857.0</ele><time>2026-03-23T08:57:40.72Z</time></trkpt><trkpt lat="40.7894213" lon="-3.7009855"><ele>857.0</ele><time>2026-03-23T08:57:41.721Z</time></trkpt><trkpt lat="40.7895169" lon="-3.7007402"><ele>857.0</ele><time>2026-03-23T08:57:42.716Z</time></trkpt><trkpt lat="40.7896134" lon="-3.7005035"><ele>857.0</ele><time>2026-03-23T08:57:43.729Z</time></trkpt><trkpt lat="40.7897152" lon="-3.700266"><ele>857.0</ele><time>2026-03-23T08:57:44.735Z</time></trkpt><trkpt lat="40.7898205" lon="-3.7000363"><ele>854.6666666666667</ele><time>2026-03-23T08:57:45.722Z</time></trkpt><trkpt lat="40.7899264" lon="-3.699812"><ele>852.3333333333333</ele><time>2026-03-23T08:57:46.723Z</time></trkpt><trkpt lat="40.7900396" lon="-3.6995854"><ele>850.0</ele><time>2026-03-23T08:57:47.729Z</time></trkpt><trkpt lat="40.7901536" lon="-3.6993582"><ele>850.3333333333333</ele><time>2026-03-23T08:57:48.719Z</time></trkpt><trkpt lat="40.7902704" lon="-3.6991358"><ele>850.6666666666667</ele><time>2026-03-23T08:57:49.723Z</time></trkpt><trkpt lat="40.7903868" lon="-3.6989148"><ele>851.0</ele><time>2026-03-23T08:57:50.72Z</time></trkpt><trkpt lat="40.7905131" lon="-3.6987068"><ele>849.3333333333334</ele><time>2026-03-23T08:57:51.712Z</time></trkpt><trkpt lat="40.790647" lon="-3.698489"><ele>847.6666666666667</ele><time>2026-03-23T08:57:52.718Z</time></trkpt><trkpt lat="40.7907832" lon="-3.6982679"><ele>846.0</ele><time>2026-03-23T08:57:53.714Z</time></trkpt><trkpt lat="40.7909246" lon="-3.6980466"><ele>844.6666666666667</ele><time>2026-03-23T08:57:54.733Z</time></trkpt><trkpt lat="40.7910642" lon="-3.6978225"><ele>843.3333333333334</ele><time>2026-03-23T08:57:55.719Z</time></trkpt><trkpt lat="40.7912072" lon="-3.6975913"><ele>842.0</ele><time>2026-03-23T08:57:56.73Z</time></trkpt><trkpt lat="40.7913494" lon="-3.6973634"><ele>842.0</ele><time>2026-03-23T08:57:57.716Z</time></trkpt><trkpt lat="40.7914903" lon="-3.6971321"><ele>842.0</ele><time>2026-03-23T08:57:58.717Z</time></trkpt><trkpt lat="40.7916284" lon="-3.6969009"><ele>842.0</ele><time>2026-03-23T08:57:59.724Z</time></trkpt><trkpt lat="40.7917639" lon="-3.6966682"><ele>842.0</ele><time>2026-03-23T08:58:00.725Z</time></trkpt><trkpt lat="40.791889" lon="-3.6964269"><ele>842.0</ele><time>2026-03-23T08:58:01.722Z</time></trkpt><trkpt lat="40.7920148" lon="-3.6961853"><ele>842.0</ele><time>2026-03-23T08:58:02.706Z</time></trkpt><trkpt lat="40.7921362" lon="-3.6959366"><ele>841.0</ele><time>2026-03-23T08:58:03.7Z</time></trkpt><trkpt lat="40.7922455" lon="-3.695699"><ele>840.0</ele><time>2026-03-23T08:58:04.718Z</time></trkpt><trkpt lat="40.7923475" lon="-3.695467"><ele>839.0</ele><time>2026-03-23T08:58:05.711Z</time></trkpt><trkpt lat="40.792441" lon="-3.6952376"><ele>839.0</ele><time>2026-03-23T08:58:06.709Z</time></trkpt><trkpt lat="40.792533" lon="-3.6949985"><ele>839.0</ele><time>2026-03-23T08:58:07.696Z</time></trkpt><trkpt lat="40.7926195" lon="-3.6947541"><ele>839.0</ele><time>2026-03-23T08:58:08.692Z</time></trkpt><trkpt lat="40.7927004" lon="-3.6945175"><ele>839.6666666666667</ele><time>2026-03-23T08:58:09.705Z</time></trkpt><trkpt lat="40.792777" lon="-3.6942767"><ele>840.3333333333333</ele><time>2026-03-23T08:58:10.701Z</time></trkpt><trkpt lat="40.7928519" lon="-3.694034"><ele>841.0</ele><time>2026-03-23T08:58:11.699Z</time></trkpt><trkpt lat="40.7929205" lon="-3.6937861"><ele>840.6666666666666</ele><time>2026-03-23T08:58:12.698Z</time></trkpt><trkpt lat="40.7929818" lon="-3.6935576"><ele>840.3333333333333</ele><time>2026-03-23T08:58:13.696Z</time></trkpt><trkpt lat="40.7930487" lon="-3.6933371"><ele>840.0</ele><time>2026-03-23T08:58:14.706Z</time></trkpt><trkpt lat="40.793109" lon="-3.6931335"><ele>840.0</ele><time>2026-03-23T08:58:15.701Z</time></trkpt><trkpt lat="40.7931492" lon="-3.6929302"><ele>840.0</ele><time>2026-03-23T08:58:16.702Z</time></trkpt><trkpt lat="40.7931803" lon="-3.6927671"><ele>840.0</ele><time>2026-03-23T08:58:17.712Z</time></trkpt><trkpt lat="40.7931884" lon="-3.6926001"><ele>840.0</ele><time>2026-03-23T08:58:18.715Z</time></trkpt><trkpt lat="40.7932011" lon="-3.6924936"><ele>840.0</ele><time>2026-03-23T08:58:19.705Z</time></trkpt><trkpt lat="40.7932075" lon="-3.6923988"><ele>840.0</ele><time>2026-03-23T08:58:20.714Z</time></trkpt><trkpt lat="40.7931674" lon="-3.6922998"><ele>840.0</ele><time>2026-03-23T08:58:21.713Z</time></trkpt><trkpt lat="40.7931574" lon="-3.6921882"><ele>840.0</ele><time>2026-03-23T08:58:22.704Z</time></trkpt><trkpt lat="40.7931628" lon="-3.692075"><ele>840.0</ele><time>2026-03-23T08:58:23.694Z</time></trkpt><trkpt lat="40.7931882" lon="-3.6919605"><ele>840.0</ele><time>2026-03-23T08:58:24.714Z</time></trkpt><trkpt lat="40.7932407" lon="-3.6918362"><ele>839.75</ele><time>2026-03-23T08:58:25.726Z</time></trkpt><trkpt lat="40.7932895" lon="-3.6917161"><ele>839.5</ele><time>2026-03-23T08:58:26.715Z</time></trkpt><trkpt lat="40.7933264" lon="-3.6915652"><ele>839.25</ele><time>2026-03-23T08:58:27.704Z</time></trkpt><trkpt lat="40.7933425" lon="-3.6914011"><ele>839.0</ele><time>2026-03-23T08:58:28.728Z</time></trkpt><trkpt lat="40.793352" lon="-3.6912126"><ele>839.0</ele><time>2026-03-23T08:58:29.735Z</time></trkpt><trkpt lat="40.7933539" lon="-3.6910079"><ele>839.0</ele><time>2026-03-23T08:58:30.726Z</time></trkpt><trkpt lat="40.7933511" lon="-3.6907957"><ele>839.0</ele><time>2026-03-23T08:58:31.707Z</time></trkpt><trkpt lat="40.7933341" lon="-3.6905793"><ele>839.0</ele><time>2026-03-23T08:58:32.711Z</time></trkpt><trkpt lat="40.7933212" lon="-3.6903653"><ele>839.0</ele><time>2026-03-23T08:58:33.717Z</time></trkpt><trkpt lat="40.7932991" lon="-3.6901433"><ele>839.0</ele><time>2026-03-23T08:58:34.722Z</time></trkpt><trkpt lat="40.7932726" lon="-3.6899145"><ele>839.0</ele><time>2026-03-23T08:58:35.72Z</time></trkpt><trkpt lat="40.7932459" lon="-3.6896712"><ele>839.0</ele><time>2026-03-23T08:58:36.733Z</time></trkpt><trkpt lat="40.7932119" lon="-3.689428"><ele>839.0</ele><time>2026-03-23T08:58:37.72Z</time></trkpt><trkpt lat="40.7931666" lon="-3.6891848"><ele>839.0</ele><time>2026-03-23T08:58:38.715Z</time></trkpt><trkpt lat="40.7931195" lon="-3.6889452"><ele>839.0</ele><time>2026-03-23T08:58:39.734Z</time></trkpt><trkpt lat="40.7930643" lon="-3.6887136"><ele>839.0</ele><time>2026-03-23T08:58:40.728Z</time></trkpt><trkpt lat="40.7930021" lon="-3.6884821"><ele>838.6666666666667</ele><time>2026-03-23T08:58:41.723Z</time></trkpt><trkpt lat="40.7929324" lon="-3.688261"><ele>838.3333333333333</ele><time>2026-03-23T08:58:42.725Z</time></trkpt><trkpt lat="40.7928635" lon="-3.6880505"><ele>838.0</ele><time>2026-03-23T08:58:43.721Z</time></trkpt><trkpt lat="40.7927929" lon="-3.6878451"><ele>838.0</ele><time>2026-03-23T08:58:44.712Z</time></trkpt><trkpt lat="40.7927181" lon="-3.6876371"><ele>838.0</ele><time>2026-03-23T08:58:45.715Z</time></trkpt><trkpt lat="40.7926348" lon="-3.6874343"><ele>838.0</ele><time>2026-03-23T08:58:46.717Z</time></trkpt><trkpt lat="40.7925445" lon="-3.6872399"><ele>838.0</ele><time>2026-03-23T08:58:47.73Z</time></trkpt><trkpt lat="40.7924483" lon="-3.6870357"><ele>838.0</ele><time>2026-03-23T08:58:48.732Z</time></trkpt><trkpt lat="40.7923465" lon="-3.6868469"><ele>838.0</ele><time>2026-03-23T08:58:49.713Z</time></trkpt><trkpt lat="40.7922397" lon="-3.6866649"><ele>838.0</ele><time>2026-03-23T08:58:50.72Z</time></trkpt><trkpt lat="40.7921264" lon="-3.686475"><ele>838.0</ele><time>2026-03-23T08:58:51.717Z</time></trkpt><trkpt lat="40.7919994" lon="-3.6862826"><ele>838.0</ele><time>2026-03-23T08:58:52.713Z</time></trkpt><trkpt lat="40.7918807" lon="-3.6861066"><ele>838.3333333333333</ele><time>2026-03-23T08:58:53.715Z</time></trkpt><trkpt lat="40.7917505" lon="-3.6859286"><ele>838.6666666666667</ele><time>2026-03-23T08:58:54.704Z</time></trkpt><trkpt lat="40.7916133" lon="-3.6857575"><ele>839.0</ele><time>2026-03-23T08:58:55.74Z</time></trkpt><trkpt lat="40.7914685" lon="-3.6855913"><ele>839.0</ele><time>2026-03-23T08:58:56.724Z</time></trkpt><trkpt lat="40.7913119" lon="-3.6854306"><ele>839.0</ele><time>2026-03-23T08:58:57.723Z</time></trkpt><trkpt lat="40.791156" lon="-3.6852764"><ele>839.0</ele><time>2026-03-23T08:58:58.725Z</time></trkpt><trkpt lat="40.7909912" lon="-3.6851232"><ele>838.3333333333334</ele><time>2026-03-23T08:58:59.718Z</time></trkpt><trkpt lat="40.7908288" lon="-3.6849853"><ele>837.6666666666667</ele><time>2026-03-23T08:59:00.719Z</time></trkpt><trkpt lat="40.7906659" lon="-3.6848475"><ele>837.0</ele><time>2026-03-23T08:59:01.71Z</time></trkpt><trkpt lat="40.7905015" lon="-3.684723"><ele>837.0</ele><time>2026-03-23T08:59:02.699Z</time></trkpt><trkpt lat="40.7903336" lon="-3.6846001"><ele>837.0</ele><time>2026-03-23T08:59:03.704Z</time></trkpt><trkpt lat="40.7901656" lon="-3.6844644"><ele>837.0</ele><time>2026-03-23T08:59:04.703Z</time></trkpt><trkpt lat="40.7899976" lon="-3.6843418"><ele>837.6666666666667</ele><time>2026-03-23T08:59:05.704Z</time></trkpt><trkpt lat="40.7898262" lon="-3.6842116"><ele>838.3333333333334</ele><time>2026-03-23T08:59:06.704Z</time></trkpt><trkpt lat="40.7896498" lon="-3.6840731"><ele>839.0</ele><time>2026-03-23T08:59:07.72Z</time></trkpt><trkpt lat="40.7894702" lon="-3.6839363"><ele>839.0</ele><time>2026-03-23T08:59:08.711Z</time></trkpt><trkpt lat="40.7892817" lon="-3.6837998"><ele>839.0</ele><time>2026-03-23T08:59:09.712Z</time></trkpt><trkpt lat="40.7890933" lon="-3.6836645"><ele>839.0</ele><time>2026-03-23T08:59:10.709Z</time></trkpt><trkpt lat="40.7889102" lon="-3.6835206"><ele>839.0</ele><time>2026-03-23T08:59:11.703Z</time></trkpt><trkpt lat="40.7887312" lon="-3.6833713"><ele>839.0</ele><time>2026-03-23T08:59:12.707Z</time></trkpt><trkpt lat="40.7885582" lon="-3.6832137"><ele>839.0</ele><time>2026-03-23T08:59:13.72Z</time></trkpt><trkpt lat="40.7883998" lon="-3.6830303"><ele>839.0</ele><time>2026-03-23T08:59:14.723Z</time></trkpt><trkpt lat="40.7882485" lon="-3.682828"><ele>839.0</ele><time>2026-03-23T08:59:15.723Z</time></trkpt><trkpt lat="40.7881016" lon="-3.6826102"><ele>839.0</ele><time>2026-03-23T08:59:16.716Z</time></trkpt><trkpt lat="40.7879718" lon="-3.6823944"><ele>839.0</ele><time>2026-03-23T08:59:17.726Z</time></trkpt><trkpt lat="40.7878542" lon="-3.6821779"><ele>839.0</ele><time>2026-03-23T08:59:18.723Z</time></trkpt><trkpt lat="40.787751" lon="-3.6819589"><ele>839.0</ele><time>2026-03-23T08:59:19.732Z</time></trkpt><trkpt lat="40.787668" lon="-3.6817415"><ele>839.0</ele><time>2026-03-23T08:59:20.72Z</time></trkpt><trkpt lat="40.7875957" lon="-3.6815133"><ele>839.0</ele><time>2026-03-23T08:59:21.73Z</time></trkpt><trkpt lat="40.7875296" lon="-3.6812709"><ele>839.0</ele><time>2026-03-23T08:59:22.694Z</time></trkpt><trkpt lat="40.7874746" lon="-3.681017"><ele>839.0</ele><time>2026-03-23T08:59:23.702Z</time></trkpt><trkpt lat="40.7874288" lon="-3.6807565"><ele>839.0</ele><time>2026-03-23T08:59:24.707Z</time></trkpt><trkpt lat="40.7873811" lon="-3.6804885"><ele>839.0</ele><time>2026-03-23T08:59:25.717Z</time></trkpt><trkpt lat="40.7873418" lon="-3.6802111"><ele>840.3333333333334</ele><time>2026-03-23T08:59:26.703Z</time></trkpt><trkpt lat="40.7873034" lon="-3.6799339"><ele>841.6666666666667</ele><time>2026-03-23T08:59:27.71Z</time></trkpt><trkpt lat="40.7872612" lon="-3.6796437"><ele>843.0</ele><time>2026-03-23T08:59:28.72Z</time></trkpt><trkpt lat="40.7872217" lon="-3.6793805"><ele>843.6666666666667</ele><time>2026-03-23T08:59:29.7Z</time></trkpt><trkpt lat="40.7871718" lon="-3.6791058"><ele>844.3333333333334</ele><time>2026-03-23T08:59:30.693Z</time></trkpt><trkpt lat="40.7871121" lon="-3.6788312"><ele>845.0</ele><time>2026-03-23T08:59:31.714Z</time></trkpt><trkpt lat="40.7870593" lon="-3.6785569"><ele>846.3333333333334</ele><time>2026-03-23T08:59:32.703Z</time></trkpt><trkpt lat="40.7869965" lon="-3.6782742"><ele>847.6666666666667</ele><time>2026-03-23T08:59:33.717Z</time></trkpt><trkpt lat="40.7869305" lon="-3.677991"><ele>849.0</ele><time>2026-03-23T08:59:34.714Z</time></trkpt><trkpt lat="40.7868632" lon="-3.677711"><ele>846.6666666666667</ele><time>2026-03-23T08:59:35.718Z</time></trkpt><trkpt lat="40.786788" lon="-3.6774439"><ele>844.3333333333334</ele><time>2026-03-23T08:59:36.726Z</time></trkpt><trkpt lat="40.7867092" lon="-3.6771725"><ele>842.0</ele><time>2026-03-23T08:59:37.705Z</time></trkpt><trkpt lat="40.7866264" lon="-3.6768926"><ele>842.0</ele><time>2026-03-23T08:59:38.725Z</time></trkpt><trkpt lat="40.7865407" lon="-3.6766108"><ele>842.0</ele><time>2026-03-23T08:59:39.716Z</time></trkpt><trkpt lat="40.7864485" lon="-3.6763337"><ele>845.0</ele><time>2026-03-23T08:59:40.716Z</time></trkpt><trkpt lat="40.7863587" lon="-3.676061"><ele>848.0</ele><time>2026-03-23T08:59:41.717Z</time></trkpt><trkpt lat="40.7862621" lon="-3.6757893"><ele>848.0</ele><time>2026-03-23T08:59:42.722Z</time></trkpt><trkpt lat="40.7861653" lon="-3.6755181"><ele>848.0</ele><time>2026-03-23T08:59:43.717Z</time></trkpt><trkpt lat="40.7860696" lon="-3.675249"><ele>843.6666666666667</ele><time>2026-03-23T08:59:44.731Z</time></trkpt><trkpt lat="40.7859798" lon="-3.6749977"><ele>839.3333333333333</ele><time>2026-03-23T08:59:45.708Z</time></trkpt><trkpt lat="40.7858939" lon="-3.6747575"><ele>835.0</ele><time>2026-03-23T08:59:46.722Z</time></trkpt><trkpt lat="40.7858075" lon="-3.6745122"><ele>836.0</ele><time>2026-03-23T08:59:47.709Z</time></trkpt><trkpt lat="40.7857198" lon="-3.6742612"><ele>837.0</ele><time>2026-03-23T08:59:48.708Z</time></trkpt><trkpt lat="40.78563" lon="-3.6740058"><ele>838.0</ele><time>2026-03-23T08:59:49.708Z</time></trkpt><trkpt lat="40.7855461" lon="-3.6737476"><ele>840.0</ele><time>2026-03-23T08:59:50.699Z</time></trkpt><trkpt lat="40.7854723" lon="-3.6734918"><ele>842.0</ele><time>2026-03-23T08:59:51.702Z</time></trkpt><trkpt lat="40.7854208" lon="-3.6732266"><ele>844.0</ele><time>2026-03-23T08:59:52.698Z</time></trkpt><trkpt lat="40.7853925" lon="-3.6729459"><ele>845.6666666666666</ele><time>2026-03-23T08:59:53.697Z</time></trkpt><trkpt lat="40.7853791" lon="-3.6726712"><ele>847.3333333333333</ele><time>2026-03-23T08:59:54.701Z</time></trkpt><trkpt lat="40.7853881" lon="-3.6724024"><ele>849.0</ele><time>2026-03-23T08:59:55.701Z</time></trkpt><trkpt lat="40.785411" lon="-3.6721325"><ele>849.3333333333333</ele><time>2026-03-23T08:59:56.711Z</time></trkpt><trkpt lat="40.7854506" lon="-3.6718702"><ele>849.6666666666666</ele><time>2026-03-23T08:59:57.705Z</time></trkpt><trkpt lat="40.7854983" lon="-3.671595"><ele>850.0</ele><time>2026-03-23T08:59:58.714Z</time></trkpt><trkpt lat="40.7855657" lon="-3.671329"><ele>848.3333333333333</ele><time>2026-03-23T08:59:59.702Z</time></trkpt><trkpt lat="40.7856416" lon="-3.6710827"><ele>846.6666666666667</ele><time>2026-03-23T09:00:00.711Z</time></trkpt><trkpt lat="40.7857154" lon="-3.6708417"><ele>845.0</ele><time>2026-03-23T09:00:01.723Z</time></trkpt><trkpt lat="40.7857882" lon="-3.6706107"><ele>845.0</ele><time>2026-03-23T09:00:02.71Z</time></trkpt><trkpt lat="40.7858612" lon="-3.6703857"><ele>845.0</ele><time>2026-03-23T09:00:03.717Z</time></trkpt><trkpt lat="40.7859297" lon="-3.6701411"><ele>845.0</ele><time>2026-03-23T09:00:04.711Z</time></trkpt><trkpt lat="40.7859799" lon="-3.6698946"><ele>846.0</ele><time>2026-03-23T09:00:05.715Z</time></trkpt><trkpt lat="40.7860175" lon="-3.6696414"><ele>847.0</ele><time>2026-03-23T09:00:06.724Z</time></trkpt><trkpt lat="40.7860324" lon="-3.6693919"><ele>848.0</ele><time>2026-03-23T09:00:07.71Z</time></trkpt><trkpt lat="40.7860324" lon="-3.6691341"><ele>842.6666666666667</ele><time>2026-03-23T09:00:08.719Z</time></trkpt><trkpt lat="40.7860131" lon="-3.6688839"><ele>837.3333333333333</ele><time>2026-03-23T09:00:09.717Z</time></trkpt><trkpt lat="40.7859814" lon="-3.6686394"><ele>832.0</ele><time>2026-03-23T09:00:10.716Z</time></trkpt><trkpt lat="40.785934" lon="-3.6683995"><ele>831.6666666666666</ele><time>2026-03-23T09:00:11.72Z</time></trkpt><trkpt lat="40.7858743" lon="-3.6681778"><ele>831.3333333333333</ele><time>2026-03-23T09:00:12.709Z</time></trkpt><trkpt lat="40.7858051" lon="-3.6679792"><ele>831.0</ele><time>2026-03-23T09:00:13.72Z</time></trkpt><trkpt lat="40.7857241" lon="-3.6677804"><ele>832.3333333333333</ele><time>2026-03-23T09:00:14.715Z</time></trkpt><trkpt lat="40.7856332" lon="-3.6675944"><ele>833.6666666666666</ele><time>2026-03-23T09:00:15.714Z</time></trkpt><trkpt lat="40.7855249" lon="-3.6674063"><ele>835.0</ele><time>2026-03-23T09:00:16.715Z</time></trkpt><trkpt lat="40.7854102" lon="-3.6672286"><ele>835.0</ele><time>2026-03-23T09:00:17.724Z</time></trkpt><trkpt lat="40.785283" lon="-3.667053"><ele>835.0</ele><time>2026-03-23T09:00:18.72Z</time></trkpt><trkpt lat="40.7851615" lon="-3.6668823"><ele>835.0</ele><time>2026-03-23T09:00:19.7Z</time></trkpt><trkpt lat="40.785029" lon="-3.6667127"><ele>836.3333333333333</ele><time>2026-03-23T09:00:20.719Z</time></trkpt><trkpt lat="40.7848906" lon="-3.6665401"><ele>837.6666666666667</ele><time>2026-03-23T09:00:21.709Z</time></trkpt><trkpt lat="40.7847503" lon="-3.6663645"><ele>839.0</ele><time>2026-03-23T09:00:22.715Z</time></trkpt><trkpt lat="40.7846048" lon="-3.6661877"><ele>838.0</ele><time>2026-03-23T09:00:23.713Z</time></trkpt><trkpt lat="40.7844586" lon="-3.6660158"><ele>837.0</ele><time>2026-03-23T09:00:24.72Z</time></trkpt><trkpt lat="40.7843096" lon="-3.6658313"><ele>836.0</ele><time>2026-03-23T09:00:25.706Z</time></trkpt><trkpt lat="40.7841619" lon="-3.6656501"><ele>836.0</ele><time>2026-03-23T09:00:26.725Z</time></trkpt><trkpt lat="40.7840174" lon="-3.6654646"><ele>836.0</ele><time>2026-03-23T09:00:27.7Z</time></trkpt><trkpt lat="40.7838721" lon="-3.6652783"><ele>836.0</ele><time>2026-03-23T09:00:28.723Z</time></trkpt><trkpt lat="40.7837239" lon="-3.665086"><ele>834.6666666666667</ele><time>2026-03-23T09:00:29.72Z</time></trkpt><trkpt lat="40.7835804" lon="-3.664893"><ele>833.3333333333333</ele><time>2026-03-23T09:00:30.717Z</time></trkpt><trkpt lat="40.7834494" lon="-3.6647051"><ele>832.0</ele><time>2026-03-23T09:00:31.709Z</time></trkpt><trkpt lat="40.7833313" lon="-3.6645114"><ele>833.6666666666666</ele><time>2026-03-23T09:00:32.722Z</time></trkpt><trkpt lat="40.7832315" lon="-3.6643093"><ele>835.3333333333333</ele><time>2026-03-23T09:00:33.712Z</time></trkpt><trkpt lat="40.7831398" lon="-3.6641016"><ele>837.0</ele><time>2026-03-23T09:00:34.724Z</time></trkpt><trkpt lat="40.783063" lon="-3.6638802"><ele>837.0</ele><time>2026-03-23T09:00:35.725Z</time></trkpt><trkpt lat="40.7829971" lon="-3.6636577"><ele>837.0</ele><time>2026-03-23T09:00:36.715Z</time></trkpt><trkpt lat="40.7829438" lon="-3.6634295"><ele>837.0</ele><time>2026-03-23T09:00:37.721Z</time></trkpt><trkpt lat="40.7829112" lon="-3.66319"><ele>839.6666666666667</ele><time>2026-03-23T09:00:38.725Z</time></trkpt><trkpt lat="40.7828874" lon="-3.6629431"><ele>842.3333333333334</ele><time>2026-03-23T09:00:39.718Z</time></trkpt><trkpt lat="40.782868" lon="-3.6626892"><ele>845.0</ele><time>2026-03-23T09:00:40.718Z</time></trkpt><trkpt lat="40.7828603" lon="-3.6624262"><ele>847.6666666666667</ele><time>2026-03-23T09:00:41.726Z</time></trkpt><trkpt lat="40.7828585" lon="-3.6621578"><ele>850.3333333333333</ele><time>2026-03-23T09:00:42.716Z</time></trkpt><trkpt lat="40.7828586" lon="-3.6618962"><ele>853.0</ele><time>2026-03-23T09:00:43.715Z</time></trkpt><trkpt lat="40.7828585" lon="-3.6616436"><ele>853.3333333333333</ele><time>2026-03-23T09:00:44.721Z</time></trkpt><trkpt lat="40.7828538" lon="-3.661391"><ele>853.6666666666667</ele><time>2026-03-23T09:00:45.72Z</time></trkpt><trkpt lat="40.782848" lon="-3.6611396"><ele>854.0</ele><time>2026-03-23T09:00:46.742Z</time></trkpt><trkpt lat="40.7828397" lon="-3.6608922"><ele>853.0</ele><time>2026-03-23T09:00:47.729Z</time></trkpt><trkpt lat="40.7828325" lon="-3.660649"><ele>852.0</ele><time>2026-03-23T09:00:48.717Z</time></trkpt><trkpt lat="40.7828139" lon="-3.6604069"><ele>851.0</ele><time>2026-03-23T09:00:49.727Z</time></trkpt><trkpt lat="40.7827766" lon="-3.6601698"><ele>848.3333333333334</ele><time>2026-03-23T09:00:50.724Z</time></trkpt><trkpt lat="40.7827248" lon="-3.6599441"><ele>845.6666666666667</ele><time>2026-03-23T09:00:51.716Z</time></trkpt><trkpt lat="40.7826683" lon="-3.6597317"><ele>843.0</ele><time>2026-03-23T09:00:52.711Z</time></trkpt><trkpt lat="40.7826058" lon="-3.6595303"><ele>841.6666666666667</ele><time>2026-03-23T09:00:53.709Z</time></trkpt><trkpt lat="40.7825327" lon="-3.6593431"><ele>840.3333333333334</ele><time>2026-03-23T09:00:54.712Z</time></trkpt><trkpt lat="40.7824557" lon="-3.6591721"><ele>839.0</ele><time>2026-03-23T09:00:55.703Z</time></trkpt><trkpt lat="40.7823774" lon="-3.6590182"><ele>839.0</ele><time>2026-03-23T09:00:56.713Z</time></trkpt><trkpt lat="40.782302" lon="-3.6588872"><ele>839.0</ele><time>2026-03-23T09:00:57.719Z</time></trkpt><trkpt lat="40.782238" lon="-3.6587877"><ele>839.0</ele><time>2026-03-23T09:00:58.714Z</time></trkpt><trkpt lat="40.7821534" lon="-3.6587017"><ele>839.0</ele><time>2026-03-23T09:01:00.713Z</time></trkpt><trkpt lat="40.7820876" lon="-3.6587368"><ele>839.0</ele><time>2026-03-23T09:01:02.724Z</time></trkpt><trkpt lat="40.7820226" lon="-3.6587411"><ele>839.0</ele><time>2026-03-23T09:01:06.722Z</time></trkpt><trkpt lat="40.7821004" lon="-3.6587381"><ele>839.0</ele><time>2026-03-23T09:07:09.692Z</time></trkpt><trkpt lat="40.782161" lon="-3.6586825"><ele>839.0</ele><time>2026-03-23T09:07:27.734Z</time></trkpt><trkpt lat="40.7822711" lon="-3.65867"><ele>839.0</ele><time>2026-03-23T09:07:29.694Z</time></trkpt><trkpt lat="40.78239" lon="-3.6586397"><ele>839.0</ele><time>2026-03-23T09:07:31.713Z</time></trkpt><trkpt lat="40.7824776" lon="-3.6586441"><ele>839.0</ele><time>2026-03-23T09:07:33.716Z</time></trkpt><trkpt lat="40.7825767" lon="-3.6586642"><ele>839.0</ele><time>2026-03-23T09:07:35.707Z</time></trkpt><trkpt lat="40.7826834" lon="-3.658702"><ele>839.0</ele><time>2026-03-23T09:07:37.726Z</time></trkpt><trkpt lat="40.7828053" lon="-3.6587017"><ele>839.0</ele><time>2026-03-23T09:07:39.718Z</time></trkpt><trkpt lat="40.78287" lon="-3.658684"><ele>839.0</ele><time>2026-03-23T09:07:40.726Z</time></trkpt><trkpt lat="40.7829457" lon="-3.658654"><ele>840.6</ele><time>2026-03-23T09:07:41.703Z</time></trkpt><trkpt lat="40.7830116" lon="-3.6586132"><ele>842.2</ele><time>2026-03-23T09:07:42.709Z</time></trkpt><trkpt lat="40.7831077" lon="-3.6585209"><ele>843.8000000000001</ele><time>2026-03-23T09:07:44.712Z</time></trkpt><trkpt lat="40.78314" lon="-3.6584132"><ele>845.4000000000001</ele><time>2026-03-23T09:07:46.713Z</time></trkpt><trkpt lat="40.7831077" lon="-3.6582836"><ele>847.0</ele><time>2026-03-23T09:07:48.695Z</time></trkpt><trkpt lat="40.7830699" lon="-3.6581251"><ele>846.9999999999999</ele><time>2026-03-23T09:07:50.718Z</time></trkpt><trkpt lat="40.7830504" lon="-3.6580375"><ele>847.0</ele><time>2026-03-23T09:07:51.727Z</time></trkpt><trkpt lat="40.7830381" lon="-3.6579527"><ele>847.0</ele><time>2026-03-23T09:07:52.736Z</time></trkpt><trkpt lat="40.7830173" lon="-3.6578694"><ele>847.0</ele><time>2026-03-23T09:07:53.722Z</time></trkpt><trkpt lat="40.7829944" lon="-3.6577902"><ele>846.9999999999999</ele><time>2026-03-23T09:07:54.721Z</time></trkpt><trkpt lat="40.782985" lon="-3.6576177"><ele>847.0</ele><time>2026-03-23T09:07:56.717Z</time></trkpt><trkpt lat="40.7829824" lon="-3.6575331"><ele>848.1666666666666</ele><time>2026-03-23T09:07:57.705Z</time></trkpt><trkpt lat="40.7829792" lon="-3.657446"><ele>849.3333333333333</ele><time>2026-03-23T09:07:58.734Z</time></trkpt><trkpt lat="40.7829726" lon="-3.6573602"><ele>850.5</ele><time>2026-03-23T09:07:59.729Z</time></trkpt><trkpt lat="40.782949" lon="-3.6572006"><ele>851.6666666666667</ele><time>2026-03-23T09:08:01.71Z</time></trkpt><trkpt lat="40.7829124" lon="-3.6570591"><ele>852.8333333333334</ele><time>2026-03-23T09:08:03.725Z</time></trkpt><trkpt lat="40.7828966" lon="-3.6569747"><ele>854.0</ele><time>2026-03-23T09:08:04.731Z</time></trkpt><trkpt lat="40.7828962" lon="-3.6568773"><ele>855.5000000000001</ele><time>2026-03-23T09:08:05.704Z</time></trkpt><trkpt lat="40.7828962" lon="-3.6567747"><ele>857.0</ele><time>2026-03-23T09:08:06.721Z</time></trkpt><trkpt lat="40.7828884" lon="-3.6566824"><ele>858.5</ele><time>2026-03-23T09:08:07.729Z</time></trkpt><trkpt lat="40.7828921" lon="-3.6565122"><ele>860.0</ele><time>2026-03-23T09:08:09.696Z</time></trkpt><trkpt lat="40.7828777" lon="-3.6564231"><ele>861.5000000000001</ele><time>2026-03-23T09:08:10.731Z</time></trkpt><trkpt lat="40.7828583" lon="-3.6563398"><ele>863.0</ele><time>2026-03-23T09:08:11.703Z</time></trkpt><trkpt lat="40.782832" lon="-3.6562086"><ele>864.0000000000001</ele><time>2026-03-23T09:08:13.722Z</time></trkpt><trkpt lat="40.7828483" lon="-3.6560942"><ele>865.0</ele><time>2026-03-23T09:08:15.719Z</time></trkpt><trkpt lat="40.7828678" lon="-3.6560107"><ele>866.0</ele><time>2026-03-23T09:08:17.744Z</time></trkpt><trkpt lat="40.7828365" lon="-3.6559147"><ele>867.0</ele><time>2026-03-23T09:08:19.729Z</time></trkpt><trkpt lat="40.7828563" lon="-3.6558096"><ele>868.0000000000001</ele><time>2026-03-23T09:08:21.747Z</time></trkpt><trkpt lat="40.7829406" lon="-3.655717"><ele>869.0</ele><time>2026-03-23T09:08:23.705Z</time></trkpt><trkpt lat="40.7830258" lon="-3.6556022"><ele>869.0</ele><time>2026-03-23T09:08:25.728Z</time></trkpt><trkpt lat="40.7830589" lon="-3.6555216"><ele>869.0</ele><time>2026-03-23T09:08:26.73Z</time></trkpt><trkpt lat="40.7830949" lon="-3.6554336"><ele>869.0</ele><time>2026-03-23T09:08:27.713Z</time></trkpt><trkpt lat="40.7831256" lon="-3.6553455"><ele>869.0</ele><time>2026-03-23T09:08:28.729Z</time></trkpt><trkpt lat="40.7831579" lon="-3.6552706"><ele>869.0</ele><time>2026-03-23T09:08:29.729Z</time></trkpt><trkpt lat="40.783192" lon="-3.6551927"><ele>869.0</ele><time>2026-03-23T09:08:30.718Z</time></trkpt><trkpt lat="40.7832291" lon="-3.6551068"><ele>869.0</ele><time>2026-03-23T09:08:31.725Z</time></trkpt><trkpt lat="40.7832703" lon="-3.6550165"><ele>869.5000000000001</ele><time>2026-03-23T09:08:32.77Z</time></trkpt><trkpt lat="40.7833179" lon="-3.6549275"><ele>870.0</ele><time>2026-03-23T09:08:33.716Z</time></trkpt><trkpt lat="40.7833701" lon="-3.6548441"><ele>870.5</ele><time>2026-03-23T09:08:34.714Z</time></trkpt><trkpt lat="40.7834185" lon="-3.654768"><ele>871.0</ele><time>2026-03-23T09:08:35.696Z</time></trkpt><trkpt lat="40.783465" lon="-3.6546897"><ele>871.5000000000001</ele><time>2026-03-23T09:08:36.72Z</time></trkpt><trkpt lat="40.7835136" lon="-3.6546014"><ele>872.0</ele><time>2026-03-23T09:08:37.725Z</time></trkpt><trkpt lat="40.7835614" lon="-3.6545187"><ele>874.8333333333334</ele><time>2026-03-23T09:08:38.715Z</time></trkpt><trkpt lat="40.7836082" lon="-3.6544331"><ele>877.6666666666667</ele><time>2026-03-23T09:08:39.719Z</time></trkpt><trkpt lat="40.7836579" lon="-3.6543448"><ele>880.5</ele><time>2026-03-23T09:08:40.719Z</time></trkpt><trkpt lat="40.7837099" lon="-3.6542598"><ele>883.3333333333333</ele><time>2026-03-23T09:08:41.72Z</time></trkpt><trkpt lat="40.7837559" lon="-3.6541723"><ele>886.1666666666666</ele><time>2026-03-23T09:08:42.714Z</time></trkpt><trkpt lat="40.7837909" lon="-3.654083"><ele>889.0</ele><time>2026-03-23T09:08:43.727Z</time></trkpt><trkpt lat="40.7838061" lon="-3.653996"><ele>888.9999999999999</ele><time>2026-03-23T09:08:44.711Z</time></trkpt><trkpt lat="40.7837635" lon="-3.6538375"><ele>889.0</ele><time>2026-03-23T09:08:46.723Z</time></trkpt><trkpt lat="40.783731" lon="-3.6537467"><ele>889.0</ele><time>2026-03-23T09:08:47.721Z</time></trkpt><trkpt lat="40.7836958" lon="-3.6536514"><ele>889.0</ele><time>2026-03-23T09:08:48.713Z</time></trkpt><trkpt lat="40.783651" lon="-3.6535708"><ele>888.9999999999999</ele><time>2026-03-23T09:08:49.719Z</time></trkpt><trkpt lat="40.7836054" lon="-3.6534996"><ele>889.0</ele><time>2026-03-23T09:08:50.713Z</time></trkpt><trkpt lat="40.7835696" lon="-3.6533772"><ele>890.6</ele><time>2026-03-23T09:08:52.689Z</time></trkpt><trkpt lat="40.7836452" lon="-3.6532574"><ele>892.2</ele><time>2026-03-23T09:08:54.701Z</time></trkpt><trkpt lat="40.7836903" lon="-3.653188"><ele>893.8000000000001</ele><time>2026-03-23T09:08:55.699Z</time></trkpt><trkpt lat="40.7837323" lon="-3.6530967"><ele>895.4000000000001</ele><time>2026-03-23T09:08:56.693Z</time></trkpt><trkpt lat="40.7837827" lon="-3.6530056"><ele>897.0</ele><time>2026-03-23T09:08:57.697Z</time></trkpt><trkpt lat="40.7838299" lon="-3.6528879"><ele>897.0</ele><time>2026-03-23T09:08:58.691Z</time></trkpt><trkpt lat="40.783878" lon="-3.6528009"><ele>897.0</ele><time>2026-03-23T09:08:59.7Z</time></trkpt><trkpt lat="40.7839506" lon="-3.6526977"><ele>897.0</ele><time>2026-03-23T09:09:01.698Z</time></trkpt><trkpt lat="40.784011" lon="-3.65256"><ele>897.0</ele><time>2026-03-23T09:09:03.702Z</time></trkpt><trkpt lat="40.7840575" lon="-3.652456"><ele>897.0</ele><time>2026-03-23T09:09:05.717Z</time></trkpt><trkpt lat="40.7840822" lon="-3.6523704"><ele>896.2</ele><time>2026-03-23T09:09:07.709Z</time></trkpt><trkpt lat="40.7841288" lon="-3.6522854"><ele>895.4000000000001</ele><time>2026-03-23T09:09:09.717Z</time></trkpt><trkpt lat="40.7842082" lon="-3.6522223"><ele>894.5999999999999</ele><time>2026-03-23T09:09:11.715Z</time></trkpt><trkpt lat="40.7843381" lon="-3.6522118"><ele>893.8</ele><time>2026-03-23T09:09:13.702Z</time></trkpt><trkpt lat="40.7844146" lon="-3.6522149"><ele>893.0</ele><time>2026-03-23T09:09:14.702Z</time></trkpt><trkpt lat="40.7844861" lon="-3.6522155"><ele>893.0</ele><time>2026-03-23T09:09:15.703Z</time></trkpt><trkpt lat="40.7845495" lon="-3.6522259"><ele>893.0</ele><time>2026-03-23T09:09:16.728Z</time></trkpt><trkpt lat="40.784668" lon="-3.6522395"><ele>893.0</ele><time>2026-03-23T09:09:18.718Z</time></trkpt><trkpt lat="40.7847539" lon="-3.6522508"><ele>893.0</ele><time>2026-03-23T09:09:20.705Z</time></trkpt><trkpt lat="40.7848506" lon="-3.6522683"><ele>893.0</ele><time>2026-03-23T09:09:23.717Z</time></trkpt><trkpt lat="40.7849728" lon="-3.6522713"><ele>893.0</ele><time>2026-03-23T09:09:25.723Z</time></trkpt><trkpt lat="40.7850377" lon="-3.6522748"><ele>893.0</ele><time>2026-03-23T09:09:26.717Z</time></trkpt><trkpt lat="40.7851033" lon="-3.6522733"><ele>893.0</ele><time>2026-03-23T09:09:27.722Z</time></trkpt><trkpt lat="40.7851687" lon="-3.6522925"><ele>893.0</ele><time>2026-03-23T09:09:28.725Z</time></trkpt><trkpt lat="40.785233" lon="-3.6523193"><ele>893.0</ele><time>2026-03-23T09:09:29.714Z</time></trkpt><trkpt lat="40.785303" lon="-3.6523467"><ele>893.0</ele><time>2026-03-23T09:09:30.708Z</time></trkpt><trkpt lat="40.7853678" lon="-3.6523817"><ele>893.0</ele><time>2026-03-23T09:09:31.707Z</time></trkpt><trkpt lat="40.785432" lon="-3.6524296"><ele>892.8571428571429</ele><time>2026-03-23T09:09:32.691Z</time></trkpt><trkpt lat="40.7854864" lon="-3.6524841"><ele>892.7142857142858</ele><time>2026-03-23T09:09:33.703Z</time></trkpt><trkpt lat="40.7855374" lon="-3.652549"><ele>892.5714285714286</ele><time>2026-03-23T09:09:34.704Z</time></trkpt><trkpt lat="40.7855932" lon="-3.6526037"><ele>892.4285714285714</ele><time>2026-03-23T09:09:35.699Z</time></trkpt><trkpt lat="40.7856543" lon="-3.6526635"><ele>892.2857142857142</ele><time>2026-03-23T09:09:36.703Z</time></trkpt><trkpt lat="40.78572" lon="-3.6527185"><ele>892.1428571428571</ele><time>2026-03-23T09:09:37.699Z</time></trkpt><trkpt lat="40.7857829" lon="-3.6527758"><ele>892.0</ele><time>2026-03-23T09:09:38.695Z</time></trkpt><trkpt lat="40.785851" lon="-3.6528227"><ele>891.4999999999999</ele><time>2026-03-23T09:09:39.707Z</time></trkpt><trkpt lat="40.7859147" lon="-3.6528727"><ele>891.0</ele><time>2026-03-23T09:09:40.701Z</time></trkpt><trkpt lat="40.7859791" lon="-3.6529302"><ele>890.5</ele><time>2026-03-23T09:09:41.706Z</time></trkpt><trkpt lat="40.7860297" lon="-3.653005"><ele>890.0</ele><time>2026-03-23T09:09:42.691Z</time></trkpt><trkpt lat="40.7860836" lon="-3.6530887"><ele>889.4999999999999</ele><time>2026-03-23T09:09:43.707Z</time></trkpt><trkpt lat="40.7861456" lon="-3.6531629"><ele>889.0</ele><time>2026-03-23T09:09:44.697Z</time></trkpt><trkpt lat="40.7862174" lon="-3.6532337"><ele>888.6666666666666</ele><time>2026-03-23T09:09:45.695Z</time></trkpt><trkpt lat="40.786283" lon="-3.6533135"><ele>888.3333333333333</ele><time>2026-03-23T09:09:46.71Z</time></trkpt><trkpt lat="40.7863448" lon="-3.6533814"><ele>888.0</ele><time>2026-03-23T09:09:47.705Z</time></trkpt><trkpt lat="40.7864086" lon="-3.6534502"><ele>887.6666666666667</ele><time>2026-03-23T09:09:48.717Z</time></trkpt><trkpt lat="40.786464" lon="-3.6535118"><ele>887.3333333333334</ele><time>2026-03-23T09:09:49.715Z</time></trkpt><trkpt lat="40.7865186" lon="-3.6535661"><ele>887.0</ele><time>2026-03-23T09:09:50.714Z</time></trkpt><trkpt lat="40.7865718" lon="-3.6536179"><ele>886.8571428571428</ele><time>2026-03-23T09:09:51.714Z</time></trkpt><trkpt lat="40.7866224" lon="-3.6536823"><ele>886.7142857142857</ele><time>2026-03-23T09:09:52.699Z</time></trkpt><trkpt lat="40.7866736" lon="-3.6537419"><ele>886.5714285714286</ele><time>2026-03-23T09:09:53.713Z</time></trkpt><trkpt lat="40.7867236" lon="-3.6538087"><ele>886.4285714285713</ele><time>2026-03-23T09:09:54.704Z</time></trkpt><trkpt lat="40.7867764" lon="-3.6538768"><ele>886.2857142857143</ele><time>2026-03-23T09:09:55.714Z</time></trkpt><trkpt lat="40.7868298" lon="-3.6539468"><ele>886.1428571428571</ele><time>2026-03-23T09:09:56.707Z</time></trkpt><trkpt lat="40.7868825" lon="-3.6540214"><ele>886.0</ele><time>2026-03-23T09:09:57.712Z</time></trkpt><trkpt lat="40.7869291" lon="-3.6540979"><ele>886.4285714285714</ele><time>2026-03-23T09:09:58.706Z</time></trkpt><trkpt lat="40.7869756" lon="-3.6541698"><ele>886.8571428571429</ele><time>2026-03-23T09:09:59.718Z</time></trkpt><trkpt lat="40.7870206" lon="-3.6542374"><ele>887.2857142857142</ele><time>2026-03-23T09:10:00.724Z</time></trkpt><trkpt lat="40.787066" lon="-3.6543082"><ele>887.7142857142858</ele><time>2026-03-23T09:10:01.729Z</time></trkpt><trkpt lat="40.7871056" lon="-3.6543785"><ele>888.1428571428571</ele><time>2026-03-23T09:10:02.718Z</time></trkpt><trkpt lat="40.7871474" lon="-3.6544533"><ele>888.5714285714286</ele><time>2026-03-23T09:10:03.725Z</time></trkpt><trkpt lat="40.7871861" lon="-3.6545422"><ele>889.0</ele><time>2026-03-23T09:10:04.712Z</time></trkpt><trkpt lat="40.7872202" lon="-3.6546193"><ele>889.0</ele><time>2026-03-23T09:10:05.715Z</time></trkpt><trkpt lat="40.7872809" lon="-3.6547365"><ele>889.0000000000001</ele><time>2026-03-23T09:10:07.712Z</time></trkpt><trkpt lat="40.7873502" lon="-3.654862"><ele>889.0000000000001</ele><time>2026-03-23T09:10:10.714Z</time></trkpt><trkpt lat="40.7874105" lon="-3.6549686"><ele>889.0</ele><time>2026-03-23T09:10:12.712Z</time></trkpt><trkpt lat="40.7874802" lon="-3.6550423"><ele>889.0</ele><time>2026-03-23T09:10:14.724Z</time></trkpt><trkpt lat="40.7875842" lon="-3.6550657"><ele>889.0</ele><time>2026-03-23T09:10:16.699Z</time></trkpt><trkpt lat="40.7876517" lon="-3.6550528"><ele>889.0</ele><time>2026-03-23T09:10:18.716Z</time></trkpt><trkpt lat="40.7877176" lon="-3.6550523"><ele>889.0</ele><time>2026-03-23T09:10:20.866Z</time></trkpt><trkpt lat="40.787799" lon="-3.6550499"><ele>889.0</ele><time>2026-03-23T09:10:22.719Z</time></trkpt><trkpt lat="40.7878707" lon="-3.655043"><ele>889.0</ele><time>2026-03-23T09:10:24.714Z</time></trkpt><trkpt lat="40.7879493" lon="-3.6550488"><ele>889.0</ele><time>2026-03-23T09:10:26.718Z</time></trkpt><trkpt lat="40.78801" lon="-3.6549766"><ele>889.0</ele><time>2026-03-23T09:10:48.696Z</time></trkpt><trkpt lat="40.7879528" lon="-3.6548966"><ele>889.6666666666666</ele><time>2026-03-23T09:10:50.698Z</time></trkpt><trkpt lat="40.7878896" lon="-3.654858"><ele>890.3333333333333</ele><time>2026-03-23T09:10:52.688Z</time></trkpt><trkpt lat="40.7878307" lon="-3.6548113"><ele>891.0</ele><time>2026-03-23T09:10:54.698Z</time></trkpt><trkpt lat="40.7877674" lon="-3.6547"><ele>891.6666666666667</ele><time>2026-03-23T09:10:56.705Z</time></trkpt><trkpt lat="40.7877382" lon="-3.6546178"><ele>892.3333333333334</ele><time>2026-03-23T09:10:58.708Z</time></trkpt><trkpt lat="40.7876825" lon="-3.6545326"><ele>893.0</ele><time>2026-03-23T09:11:00.706Z</time></trkpt><trkpt lat="40.7876178" lon="-3.6544351"><ele>893.0</ele><time>2026-03-23T09:11:02.723Z</time></trkpt><trkpt lat="40.7875592" lon="-3.6543251"><ele>893.0</ele><time>2026-03-23T09:11:04.712Z</time></trkpt><trkpt lat="40.7875083" lon="-3.6542214"><ele>893.0</ele><time>2026-03-23T09:11:06.697Z</time></trkpt><trkpt lat="40.7874588" lon="-3.6541111"><ele>893.0</ele><time>2026-03-23T09:11:08.714Z</time></trkpt><trkpt lat="40.7874152" lon="-3.6539897"><ele>893.0</ele><time>2026-03-23T09:11:10.715Z</time></trkpt><trkpt lat="40.7873857" lon="-3.6538648"><ele>893.0</ele><time>2026-03-23T09:11:12.725Z</time></trkpt><trkpt lat="40.7873731" lon="-3.6537804"><ele>893.0</ele><time>2026-03-23T09:11:14.714Z</time></trkpt><trkpt lat="40.7873602" lon="-3.6536925"><ele>893.0</ele><time>2026-03-23T09:11:16.712Z</time></trkpt><trkpt lat="40.7873718" lon="-3.6536038"><ele>893.0</ele><time>2026-03-23T09:11:19.715Z</time></trkpt><trkpt lat="40.7874191" lon="-3.6535381"><ele>893.0</ele><time>2026-03-23T09:12:51.715Z</time></trkpt><trkpt lat="40.7874817" lon="-3.6535889"><ele>893.0</ele><time>2026-03-23T09:13:06.707Z</time></trkpt><trkpt lat="40.7875409" lon="-3.6536724"><ele>893.0</ele><time>2026-03-23T09:13:15.722Z</time></trkpt><trkpt lat="40.7876029" lon="-3.6537138"><ele>893.0</ele><time>2026-03-23T09:13:18.718Z</time></trkpt><trkpt lat="40.7876704" lon="-3.6537303"><ele>893.0</ele><time>2026-03-23T09:13:57.718Z</time></trkpt><trkpt lat="40.7877204" lon="-3.6537862"><ele>893.0</ele><time>2026-03-23T09:14:06.708Z</time></trkpt><trkpt lat="40.7876665" lon="-3.6537425"><ele>893.0</ele><time>2026-03-23T09:15:54.707Z</time></trkpt><trkpt lat="40.7877267" lon="-3.6537116"><ele>893.0</ele><time>2026-03-23T09:16:22.721Z</time></trkpt><trkpt lat="40.7878128" lon="-3.6537055"><ele>893.0</ele><time>2026-03-23T09:16:25.718Z</time></trkpt><trkpt lat="40.7878761" lon="-3.6536997"><ele>893.0</ele><time>2026-03-23T09:16:27.705Z</time></trkpt><trkpt lat="40.7879413" lon="-3.6536987"><ele>892.6666666666667</ele><time>2026-03-23T09:16:29.699Z</time></trkpt><trkpt lat="40.788023" lon="-3.6537071"><ele>892.3333333333334</ele><time>2026-03-23T09:16:32.711Z</time></trkpt><trkpt lat="40.7881097" lon="-3.6537357"><ele>892.0</ele><time>2026-03-23T09:16:35.69Z</time></trkpt><trkpt lat="40.788165" lon="-3.6537791"><ele>891.6666666666667</ele><time>2026-03-23T09:16:37.713Z</time></trkpt><trkpt lat="40.7882329" lon="-3.6538551"><ele>891.3333333333334</ele><time>2026-03-23T09:16:39.711Z</time></trkpt><trkpt lat="40.7882986" lon="-3.6538767"><ele>891.0</ele><time>2026-03-23T09:16:41.717Z</time></trkpt><trkpt lat="40.7883807" lon="-3.6538562"><ele>891.0000000000001</ele><time>2026-03-23T09:16:43.713Z</time></trkpt><trkpt lat="40.7884558" lon="-3.6538433"><ele>891.0</ele><time>2026-03-23T09:16:45.691Z</time></trkpt><trkpt lat="40.7885231" lon="-3.653836"><ele>891.0</ele><time>2026-03-23T09:16:47.711Z</time></trkpt><trkpt lat="40.7885962" lon="-3.6538529"><ele>891.0</ele><time>2026-03-23T09:16:50.72Z</time></trkpt><trkpt lat="40.7886563" lon="-3.6538953"><ele>891.0</ele><time>2026-03-23T09:16:52.713Z</time></trkpt><trkpt lat="40.7887199" lon="-3.6539647"><ele>891.0000000000001</ele><time>2026-03-23T09:16:54.709Z</time></trkpt><trkpt lat="40.7887812" lon="-3.6539971"><ele>891.0</ele><time>2026-03-23T09:16:56.718Z</time></trkpt><trkpt lat="40.7888464" lon="-3.6539865"><ele>890.5</ele><time>2026-03-23T09:16:58.7Z</time></trkpt><trkpt lat="40.7889161" lon="-3.6539293"><ele>890.0</ele><time>2026-03-23T09:17:00.697Z</time></trkpt><trkpt lat="40.7889529" lon="-3.6538564"><ele>889.5</ele><time>2026-03-23T09:17:02.712Z</time></trkpt><trkpt lat="40.7889986" lon="-3.653769"><ele>889.0</ele><time>2026-03-23T09:17:05.715Z</time></trkpt><trkpt lat="40.789066" lon="-3.6536822"><ele>888.5</ele><time>2026-03-23T09:17:07.724Z</time></trkpt><trkpt lat="40.7891165" lon="-3.653606"><ele>888.0</ele><time>2026-03-23T09:17:09.714Z</time></trkpt><trkpt lat="40.789186" lon="-3.6535223"><ele>887.6666666666666</ele><time>2026-03-23T09:17:11.72Z</time></trkpt><trkpt lat="40.7892527" lon="-3.6534411"><ele>887.3333333333333</ele><time>2026-03-23T09:17:13.711Z</time></trkpt><trkpt lat="40.7893038" lon="-3.6533921"><ele>887.0</ele><time>2026-03-23T09:17:15.714Z</time></trkpt><trkpt lat="40.789371" lon="-3.6533883"><ele>886.6666666666666</ele><time>2026-03-23T09:17:34.72Z</time></trkpt><trkpt lat="40.7894194" lon="-3.6534549"><ele>886.3333333333333</ele><time>2026-03-23T09:18:22.715Z</time></trkpt><trkpt lat="40.7894768" lon="-3.6535582"><ele>886.0</ele><time>2026-03-23T09:18:24.72Z</time></trkpt><trkpt lat="40.7895404" lon="-3.6536533"><ele>886.0</ele><time>2026-03-23T09:18:26.714Z</time></trkpt><trkpt lat="40.7896044" lon="-3.6537722"><ele>886.0</ele><time>2026-03-23T09:18:28.72Z</time></trkpt><trkpt lat="40.7896402" lon="-3.6538482"><ele>886.0</ele><time>2026-03-23T09:18:29.722Z</time></trkpt><trkpt lat="40.7896788" lon="-3.6539159"><ele>886.0</ele><time>2026-03-23T09:18:30.72Z</time></trkpt><trkpt lat="40.7897177" lon="-3.6539857"><ele>886.0</ele><time>2026-03-23T09:18:31.69Z</time></trkpt><trkpt lat="40.7897561" lon="-3.6540567"><ele>886.0</ele><time>2026-03-23T09:18:32.689Z</time></trkpt><trkpt lat="40.7897957" lon="-3.6541286"><ele>886.0</ele><time>2026-03-23T09:18:33.694Z</time></trkpt><trkpt lat="40.7898318" lon="-3.6542074"><ele>885.9999999999999</ele><time>2026-03-23T09:18:34.708Z</time></trkpt><trkpt lat="40.7898735" lon="-3.654296"><ele>886.0</ele><time>2026-03-23T09:18:35.696Z</time></trkpt><trkpt lat="40.7899127" lon="-3.6543804"><ele>886.0</ele><time>2026-03-23T09:18:36.71Z</time></trkpt><trkpt lat="40.7899485" lon="-3.6544721"><ele>886.0</ele><time>2026-03-23T09:18:37.7Z</time></trkpt><trkpt lat="40.7899808" lon="-3.65457"><ele>885.9999999999999</ele><time>2026-03-23T09:18:38.71Z</time></trkpt><trkpt lat="40.7900178" lon="-3.6546709"><ele>886.0</ele><time>2026-03-23T09:18:39.691Z</time></trkpt><trkpt lat="40.7900488" lon="-3.65477"><ele>887.3333333333333</ele><time>2026-03-23T09:18:40.718Z</time></trkpt><trkpt lat="40.7900733" lon="-3.6548623"><ele>888.6666666666666</ele><time>2026-03-23T09:18:41.704Z</time></trkpt><trkpt lat="40.7901015" lon="-3.654957"><ele>890.0</ele><time>2026-03-23T09:18:42.704Z</time></trkpt><trkpt lat="40.7901367" lon="-3.6550523"><ele>891.3333333333333</ele><time>2026-03-23T09:18:43.719Z</time></trkpt><trkpt lat="40.7901814" lon="-3.6551453"><ele>892.6666666666666</ele><time>2026-03-23T09:18:44.697Z</time></trkpt><trkpt lat="40.7902245" lon="-3.655229"><ele>894.0</ele><time>2026-03-23T09:18:45.707Z</time></trkpt><trkpt lat="40.7902651" lon="-3.6553073"><ele>894.5</ele><time>2026-03-23T09:18:46.701Z</time></trkpt><trkpt lat="40.7903053" lon="-3.6553818"><ele>895.0</ele><time>2026-03-23T09:18:47.71Z</time></trkpt><trkpt lat="40.7903828" lon="-3.6555088"><ele>895.5</ele><time>2026-03-23T09:18:49.719Z</time></trkpt><trkpt lat="40.7904206" lon="-3.6555756"><ele>896.0</ele><time>2026-03-23T09:18:50.709Z</time></trkpt><trkpt lat="40.7904618" lon="-3.6556529"><ele>896.5</ele><time>2026-03-23T09:18:51.712Z</time></trkpt><trkpt lat="40.790504" lon="-3.6557287"><ele>897.0</ele><time>2026-03-23T09:18:52.714Z</time></trkpt><trkpt lat="40.7905436" lon="-3.6558061"><ele>897.0</ele><time>2026-03-23T09:18:53.708Z</time></trkpt><trkpt lat="40.7905858" lon="-3.6558775"><ele>897.0</ele><time>2026-03-23T09:18:54.711Z</time></trkpt><trkpt lat="40.7906308" lon="-3.6559451"><ele>897.0</ele><time>2026-03-23T09:18:55.72Z</time></trkpt><trkpt lat="40.7906758" lon="-3.6560125"><ele>897.0</ele><time>2026-03-23T09:18:56.731Z</time></trkpt><trkpt lat="40.7907203" lon="-3.6560793"><ele>897.0</ele><time>2026-03-23T09:18:57.701Z</time></trkpt><trkpt lat="40.7908138" lon="-3.6562002"><ele>897.0</ele><time>2026-03-23T09:18:59.701Z</time></trkpt><trkpt lat="40.7908608" lon="-3.6562646"><ele>897.0</ele><time>2026-03-23T09:19:00.711Z</time></trkpt><trkpt lat="40.7909535" lon="-3.6563655"><ele>897.0</ele><time>2026-03-23T09:19:02.708Z</time></trkpt><trkpt lat="40.7910653" lon="-3.6564414"><ele>897.0</ele><time>2026-03-23T09:19:04.703Z</time></trkpt><trkpt lat="40.7911284" lon="-3.6564831"><ele>897.0</ele><time>2026-03-23T09:19:05.718Z</time></trkpt><trkpt lat="40.7911971" lon="-3.6565193"><ele>897.0</ele><time>2026-03-23T09:19:06.707Z</time></trkpt><trkpt lat="40.7912732" lon="-3.6565499"><ele>897.6</ele><time>2026-03-23T09:19:07.691Z</time></trkpt><trkpt lat="40.7913453" lon="-3.656582"><ele>898.2</ele><time>2026-03-23T09:19:08.694Z</time></trkpt><trkpt lat="40.7914139" lon="-3.6566159"><ele>898.8</ele><time>2026-03-23T09:19:09.698Z</time></trkpt><trkpt lat="40.7915267" lon="-3.6566871"><ele>899.4</ele><time>2026-03-23T09:19:11.705Z</time></trkpt><trkpt lat="40.7916337" lon="-3.6567491"><ele>900.0</ele><time>2026-03-23T09:19:13.709Z</time></trkpt><trkpt lat="40.7917288" lon="-3.6568117"><ele>900.0</ele><time>2026-03-23T09:19:15.702Z</time></trkpt><trkpt lat="40.7918229" lon="-3.656884"><ele>900.0</ele><time>2026-03-23T09:19:17.696Z</time></trkpt><trkpt lat="40.7918916" lon="-3.6569701"><ele>900.0</ele><time>2026-03-23T09:19:19.71Z</time></trkpt><trkpt lat="40.7919445" lon="-3.657024"><ele>900.0</ele><time>2026-03-23T09:19:21.707Z</time></trkpt><trkpt lat="40.7920148" lon="-3.6570461"><ele>900.0</ele><time>2026-03-23T09:19:24.727Z</time></trkpt><trkpt lat="40.7921031" lon="-3.6570363"><ele>900.0</ele><time>2026-03-23T09:19:27.718Z</time></trkpt><trkpt lat="40.792205" lon="-3.6570753"><ele>898.8333333333334</ele><time>2026-03-23T09:19:30.707Z</time></trkpt><trkpt lat="40.7922782" lon="-3.6570938"><ele>897.6666666666667</ele><time>2026-03-23T09:19:32.711Z</time></trkpt><trkpt lat="40.7923405" lon="-3.6571787"><ele>896.5</ele><time>2026-03-23T09:19:35.713Z</time></trkpt><trkpt lat="40.7923826" lon="-3.6572523"><ele>895.3333333333334</ele><time>2026-03-23T09:19:38.71Z</time></trkpt><trkpt lat="40.7924283" lon="-3.6573346"><ele>894.1666666666667</ele><time>2026-03-23T09:19:43.716Z</time></trkpt><trkpt lat="40.7924645" lon="-3.6574443"><ele>893.0</ele><time>2026-03-23T09:19:46.705Z</time></trkpt><trkpt lat="40.7924958" lon="-3.6575311"><ele>893.0000000000001</ele><time>2026-03-23T09:19:49.719Z</time></trkpt><trkpt lat="40.7925242" lon="-3.6576301"><ele>893.0</ele><time>2026-03-23T09:21:39.707Z</time></trkpt><trkpt lat="40.7925484" lon="-3.6577419"><ele>893.0</ele><time>2026-03-23T09:21:41.697Z</time></trkpt><trkpt lat="40.7925861" lon="-3.6578287"><ele>893.0</ele><time>2026-03-23T09:21:43.707Z</time></trkpt><trkpt lat="40.792655" lon="-3.6579357"><ele>893.0000000000001</ele><time>2026-03-23T09:21:45.724Z</time></trkpt><trkpt lat="40.7927142" lon="-3.6580368"><ele>893.0</ele><time>2026-03-23T09:21:47.711Z</time></trkpt><trkpt lat="40.7927627" lon="-3.6581268"><ele>891.3333333333334</ele><time>2026-03-23T09:21:49.701Z</time></trkpt><trkpt lat="40.7928211" lon="-3.6582356"><ele>889.6666666666667</ele><time>2026-03-23T09:21:51.72Z</time></trkpt><trkpt lat="40.7928624" lon="-3.6583134"><ele>888.0</ele><time>2026-03-23T09:21:52.723Z</time></trkpt><trkpt lat="40.792903" lon="-3.6583798"><ele>886.3333333333333</ele><time>2026-03-23T09:21:53.708Z</time></trkpt><trkpt lat="40.7929485" lon="-3.6584494"><ele>884.6666666666666</ele><time>2026-03-23T09:21:54.71Z</time></trkpt><trkpt lat="40.7929934" lon="-3.6585262"><ele>883.0</ele><time>2026-03-23T09:21:55.727Z</time></trkpt><trkpt lat="40.7930464" lon="-3.6586063"><ele>883.0</ele><time>2026-03-23T09:21:56.722Z</time></trkpt><trkpt lat="40.7930981" lon="-3.6586944"><ele>883.0</ele><time>2026-03-23T09:21:57.705Z</time></trkpt><trkpt lat="40.7931504" lon="-3.6587743"><ele>883.0</ele><time>2026-03-23T09:21:58.715Z</time></trkpt><trkpt lat="40.7931919" lon="-3.658856"><ele>883.0</ele><time>2026-03-23T09:21:59.72Z</time></trkpt><trkpt lat="40.7932247" lon="-3.6589392"><ele>883.0</ele><time>2026-03-23T09:22:00.722Z</time></trkpt><trkpt lat="40.7932582" lon="-3.6590208"><ele>883.0</ele><time>2026-03-23T09:22:01.724Z</time></trkpt><trkpt lat="40.7932945" lon="-3.6590986"><ele>883.0</ele><time>2026-03-23T09:22:02.714Z</time></trkpt><trkpt lat="40.7933226" lon="-3.6591801"><ele>882.9999999999999</ele><time>2026-03-23T09:22:03.695Z</time></trkpt><trkpt lat="40.7933554" lon="-3.6592548"><ele>883.0</ele><time>2026-03-23T09:22:04.694Z</time></trkpt><trkpt lat="40.7934438" lon="-3.659367"><ele>883.0</ele><time>2026-03-23T09:22:06.696Z</time></trkpt><trkpt lat="40.7934924" lon="-3.6594316"><ele>883.0</ele><time>2026-03-23T09:22:07.699Z</time></trkpt><trkpt lat="40.7935312" lon="-3.6595096"><ele>882.9999999999999</ele><time>2026-03-23T09:22:08.706Z</time></trkpt><trkpt lat="40.7935721" lon="-3.6596015"><ele>883.0</ele><time>2026-03-23T09:22:09.697Z</time></trkpt><trkpt lat="40.7936108" lon="-3.6597087"><ele>881.0</ele><time>2026-03-23T09:22:10.703Z</time></trkpt><trkpt lat="40.7936608" lon="-3.6598269"><ele>879.0</ele><time>2026-03-23T09:22:11.719Z</time></trkpt><trkpt lat="40.7937039" lon="-3.6599507"><ele>877.0</ele><time>2026-03-23T09:22:12.703Z</time></trkpt><trkpt lat="40.7937554" lon="-3.6600569"><ele>875.0</ele><time>2026-03-23T09:22:13.711Z</time></trkpt><trkpt lat="40.7937996" lon="-3.6601536"><ele>873.0</ele><time>2026-03-23T09:22:14.709Z</time></trkpt><trkpt lat="40.7938416" lon="-3.6602562"><ele>873.0</ele><time>2026-03-23T09:22:15.708Z</time></trkpt><trkpt lat="40.7938776" lon="-3.6603531"><ele>873.0</ele><time>2026-03-23T09:22:16.715Z</time></trkpt><trkpt lat="40.7939006" lon="-3.6604458"><ele>873.0</ele><time>2026-03-23T09:22:17.706Z</time></trkpt><trkpt lat="40.7939142" lon="-3.6605295"><ele>873.0</ele><time>2026-03-23T09:22:18.717Z</time></trkpt><trkpt lat="40.7939217" lon="-3.6606967"><ele>873.0</ele><time>2026-03-23T09:22:20.711Z</time></trkpt><trkpt lat="40.7939001" lon="-3.6608581"><ele>873.0</ele><time>2026-03-23T09:22:22.708Z</time></trkpt><trkpt lat="40.7938469" lon="-3.6609765"><ele>873.0</ele><time>2026-03-23T09:22:24.7Z</time></trkpt><trkpt lat="40.7937802" lon="-3.6610832"><ele>873.0</ele><time>2026-03-23T09:22:26.716Z</time></trkpt><trkpt lat="40.7936933" lon="-3.6611879"><ele>873.0</ele><time>2026-03-23T09:22:28.71Z</time></trkpt><trkpt lat="40.7935989" lon="-3.6612761"><ele>873.0</ele><time>2026-03-23T09:22:30.71Z</time></trkpt><trkpt lat="40.7935164" lon="-3.661362"><ele>872.0</ele><time>2026-03-23T09:22:32.707Z</time></trkpt><trkpt lat="40.7934421" lon="-3.6614457"><ele>871.0</ele><time>2026-03-23T09:22:34.705Z</time></trkpt><trkpt lat="40.7933687" lon="-3.6615362"><ele>870.0</ele><time>2026-03-23T09:22:36.714Z</time></trkpt><trkpt lat="40.7932689" lon="-3.6616062"><ele>869.0</ele><time>2026-03-23T09:22:38.712Z</time></trkpt><trkpt lat="40.7931761" lon="-3.6616622"><ele>868.0</ele><time>2026-03-23T09:22:40.689Z</time></trkpt><trkpt lat="40.7931086" lon="-3.6617453"><ele>868.0</ele><time>2026-03-23T09:22:42.707Z</time></trkpt><trkpt lat="40.7931048" lon="-3.6618718"><ele>868.0</ele><time>2026-03-23T09:22:44.696Z</time></trkpt><trkpt lat="40.7931082" lon="-3.6620132"><ele>868.0</ele><time>2026-03-23T09:22:46.717Z</time></trkpt><trkpt lat="40.7931352" lon="-3.6621604"><ele>868.0</ele><time>2026-03-23T09:22:48.707Z</time></trkpt><trkpt lat="40.7931673" lon="-3.6622841"><ele>868.0</ele><time>2026-03-23T09:22:50.703Z</time></trkpt><trkpt lat="40.7932279" lon="-3.6623938"><ele>867.2</ele><time>2026-03-23T09:22:52.71Z</time></trkpt><trkpt lat="40.7932951" lon="-3.6625055"><ele>866.4</ele><time>2026-03-23T09:22:54.711Z</time></trkpt><trkpt lat="40.7933446" lon="-3.6626074"><ele>865.6000000000001</ele><time>2026-03-23T09:22:56.711Z</time></trkpt><trkpt lat="40.7933851" lon="-3.6626978"><ele>864.8000000000001</ele><time>2026-03-23T09:22:58.713Z</time></trkpt><trkpt lat="40.7934531" lon="-3.6628101"><ele>864.0</ele><time>2026-03-23T09:23:00.725Z</time></trkpt><trkpt lat="40.7935369" lon="-3.6629214"><ele>864.0</ele><time>2026-03-23T09:23:02.71Z</time></trkpt><trkpt lat="40.7936009" lon="-3.6630198"><ele>864.0000000000001</ele><time>2026-03-23T09:23:04.714Z</time></trkpt><trkpt lat="40.7936827" lon="-3.6631366"><ele>864.0000000000001</ele><time>2026-03-23T09:23:06.696Z</time></trkpt><trkpt lat="40.7937279" lon="-3.663195"><ele>864.0</ele><time>2026-03-23T09:23:07.707Z</time></trkpt><trkpt lat="40.7938039" lon="-3.6632963"><ele>864.0</ele><time>2026-03-23T09:23:09.723Z</time></trkpt><trkpt lat="40.793866" lon="-3.6634"><ele>864.0</ele><time>2026-03-23T09:23:11.717Z</time></trkpt><trkpt lat="40.7939383" lon="-3.663512"><ele>864.0</ele><time>2026-03-23T09:23:13.712Z</time></trkpt><trkpt lat="40.7940183" lon="-3.6635982"><ele>864.0</ele><time>2026-03-23T09:23:15.726Z</time></trkpt><trkpt lat="40.7940763" lon="-3.6636321"><ele>864.0</ele><time>2026-03-23T09:23:16.728Z</time></trkpt><trkpt lat="40.7941364" lon="-3.6636658"><ele>864.0</ele><time>2026-03-23T09:23:17.704Z</time></trkpt><trkpt lat="40.7941956" lon="-3.6637067"><ele>864.0</ele><time>2026-03-23T09:23:18.718Z</time></trkpt><trkpt lat="40.7942478" lon="-3.6637628"><ele>863.5</ele><time>2026-03-23T09:23:19.714Z</time></trkpt><trkpt lat="40.794297" lon="-3.6638282"><ele>863.0</ele><time>2026-03-23T09:23:20.714Z</time></trkpt><trkpt lat="40.7943736" lon="-3.6639276"><ele>862.5</ele><time>2026-03-23T09:23:22.718Z</time></trkpt><trkpt lat="40.7944174" lon="-3.6640091"><ele>862.0</ele><time>2026-03-23T09:23:24.706Z</time></trkpt><trkpt lat="40.7944464" lon="-3.6640959"><ele>861.5</ele><time>2026-03-23T09:23:26.72Z</time></trkpt><trkpt lat="40.7944455" lon="-3.6642209"><ele>861.0</ele><time>2026-03-23T09:23:29.715Z</time></trkpt><trkpt lat="40.7944322" lon="-3.6643243"><ele>861.0</ele><time>2026-03-23T09:23:31.715Z</time></trkpt><trkpt lat="40.7944191" lon="-3.664443"><ele>860.9999999999999</ele><time>2026-03-23T09:23:33.705Z</time></trkpt><trkpt lat="40.7943936" lon="-3.6645681"><ele>860.9999999999999</ele><time>2026-03-23T09:23:35.714Z</time></trkpt><trkpt lat="40.794367" lon="-3.6646937"><ele>861.0</ele><time>2026-03-23T09:23:37.708Z</time></trkpt><trkpt lat="40.7943459" lon="-3.6647966"><ele>861.0</ele><time>2026-03-23T09:23:39.7Z</time></trkpt><trkpt lat="40.7943263" lon="-3.6649306"><ele>858.8</ele><time>2026-03-23T09:23:41.716Z</time></trkpt><trkpt lat="40.7943159" lon="-3.665066"><ele>856.5999999999999</ele><time>2026-03-23T09:23:43.711Z</time></trkpt><trkpt lat="40.7943152" lon="-3.6651951"><ele>854.4</ele><time>2026-03-23T09:23:45.705Z</time></trkpt><trkpt lat="40.7943115" lon="-3.6653326"><ele>852.2</ele><time>2026-03-23T09:23:47.684Z</time></trkpt><trkpt lat="40.7943016" lon="-3.6654849"><ele>850.0</ele><time>2026-03-23T09:23:49.699Z</time></trkpt><trkpt lat="40.7942788" lon="-3.6656336"><ele>849.3333333333333</ele><time>2026-03-23T09:23:51.705Z</time></trkpt><trkpt lat="40.794243" lon="-3.6657526"><ele>848.6666666666666</ele><time>2026-03-23T09:23:53.692Z</time></trkpt><trkpt lat="40.7941901" lon="-3.6658798"><ele>848.0</ele><time>2026-03-23T09:23:55.709Z</time></trkpt><trkpt lat="40.7941825" lon="-3.6659866"><ele>847.3333333333333</ele><time>2026-03-23T09:23:57.708Z</time></trkpt><trkpt lat="40.7942097" lon="-3.6660843"><ele>846.6666666666666</ele><time>2026-03-23T09:23:59.707Z</time></trkpt><trkpt lat="40.7942404" lon="-3.6661854"><ele>846.0</ele><time>2026-03-23T09:24:01.718Z</time></trkpt><trkpt lat="40.794246" lon="-3.6662947"><ele>845.0</ele><time>2026-03-23T09:24:03.705Z</time></trkpt><trkpt lat="40.7942214" lon="-3.6664146"><ele>844.0</ele><time>2026-03-23T09:24:06.707Z</time></trkpt><trkpt lat="40.7942005" lon="-3.6665092"><ele>843.0</ele><time>2026-03-23T09:24:08.708Z</time></trkpt><trkpt lat="40.7942427" lon="-3.6665889"><ele>842.0</ele><time>2026-03-23T09:24:11.712Z</time></trkpt><trkpt lat="40.7943206" lon="-3.6665744"><ele>841.0</ele><time>2026-03-23T09:24:37.709Z</time></trkpt><trkpt lat="40.7944342" lon="-3.6665288"><ele>840.0</ele><time>2026-03-23T09:24:39.71Z</time></trkpt><trkpt lat="40.7945417" lon="-3.6664583"><ele>839.6666666666666</ele><time>2026-03-23T09:24:41.706Z</time></trkpt><trkpt lat="40.7946164" lon="-3.666409"><ele>839.3333333333333</ele><time>2026-03-23T09:24:42.727Z</time></trkpt><trkpt lat="40.7946981" lon="-3.6663586"><ele>839.0</ele><time>2026-03-23T09:24:43.709Z</time></trkpt><trkpt lat="40.7947755" lon="-3.6663093"><ele>838.6666666666666</ele><time>2026-03-23T09:24:44.715Z</time></trkpt><trkpt lat="40.7948516" lon="-3.6662577"><ele>838.3333333333333</ele><time>2026-03-23T09:24:45.706Z</time></trkpt><trkpt lat="40.7949264" lon="-3.6662018"><ele>838.0</ele><time>2026-03-23T09:24:46.714Z</time></trkpt><trkpt lat="40.7949996" lon="-3.6661401"><ele>838.5999999999999</ele><time>2026-03-23T09:24:47.712Z</time></trkpt><trkpt lat="40.7950683" lon="-3.6660745"><ele>839.1999999999999</ele><time>2026-03-23T09:24:48.708Z</time></trkpt><trkpt lat="40.7951364" lon="-3.6659897"><ele>839.8</ele><time>2026-03-23T09:24:49.712Z</time></trkpt><trkpt lat="40.7951989" lon="-3.6658963"><ele>840.4</ele><time>2026-03-23T09:24:50.717Z</time></trkpt><trkpt lat="40.7952668" lon="-3.6657733"><ele>841.0</ele><time>2026-03-23T09:24:51.706Z</time></trkpt><trkpt lat="40.7953274" lon="-3.665642"><ele>841.0</ele><time>2026-03-23T09:24:52.723Z</time></trkpt><trkpt lat="40.7953805" lon="-3.6655074"><ele>841.0</ele><time>2026-03-23T09:24:53.716Z</time></trkpt><trkpt lat="40.795433" lon="-3.6653734"><ele>841.0</ele><time>2026-03-23T09:24:54.711Z</time></trkpt><trkpt lat="40.7954902" lon="-3.6652359"><ele>841.0</ele><time>2026-03-23T09:24:55.71Z</time></trkpt><trkpt lat="40.795543" lon="-3.665105"><ele>841.5999999999999</ele><time>2026-03-23T09:24:56.7Z</time></trkpt><trkpt lat="40.7955938" lon="-3.6649809"><ele>842.2</ele><time>2026-03-23T09:24:57.712Z</time></trkpt><trkpt lat="40.7956483" lon="-3.6648647"><ele>842.8</ele><time>2026-03-23T09:24:58.717Z</time></trkpt><trkpt lat="40.7957078" lon="-3.6647614"><ele>843.4000000000001</ele><time>2026-03-23T09:24:59.714Z</time></trkpt><trkpt lat="40.7957667" lon="-3.6646573"><ele>844.0</ele><time>2026-03-23T09:25:00.708Z</time></trkpt><trkpt lat="40.7958264" lon="-3.6645712"><ele>844.0</ele><time>2026-03-23T09:25:01.712Z</time></trkpt><trkpt lat="40.7958881" lon="-3.6644792"><ele>844.0</ele><time>2026-03-23T09:25:02.72Z</time></trkpt><trkpt lat="40.7959457" lon="-3.6643856"><ele>844.0</ele><time>2026-03-23T09:25:03.703Z</time></trkpt><trkpt lat="40.7960052" lon="-3.664281"><ele>844.0</ele><time>2026-03-23T09:25:04.707Z</time></trkpt><trkpt lat="40.7960665" lon="-3.6641619"><ele>844.0</ele><time>2026-03-23T09:25:05.692Z</time></trkpt><trkpt lat="40.796127" lon="-3.664039"><ele>843.6</ele><time>2026-03-23T09:25:06.703Z</time></trkpt><trkpt lat="40.7961866" lon="-3.6639277"><ele>843.2</ele><time>2026-03-23T09:25:07.681Z</time></trkpt><trkpt lat="40.7962458" lon="-3.6638273"><ele>842.8000000000001</ele><time>2026-03-23T09:25:08.685Z</time></trkpt><trkpt lat="40.7963192" lon="-3.66373"><ele>842.4000000000001</ele><time>2026-03-23T09:25:09.689Z</time></trkpt><trkpt lat="40.7963964" lon="-3.6636476"><ele>842.0</ele><time>2026-03-23T09:25:10.687Z</time></trkpt><trkpt lat="40.796457" lon="-3.6635598"><ele>842.7142857142858</ele><time>2026-03-23T09:25:11.695Z</time></trkpt><trkpt lat="40.796504" lon="-3.6634876"><ele>843.4285714285714</ele><time>2026-03-23T09:25:12.694Z</time></trkpt><trkpt lat="40.7965639" lon="-3.6633969"><ele>844.1428571428571</ele><time>2026-03-23T09:25:13.688Z</time></trkpt><trkpt lat="40.7966113" lon="-3.6633366"><ele>844.8571428571429</ele><time>2026-03-23T09:25:14.713Z</time></trkpt><trkpt lat="40.7966505" lon="-3.6632713"><ele>845.5714285714286</ele><time>2026-03-23T09:25:15.697Z</time></trkpt><trkpt lat="40.7966951" lon="-3.6632011"><ele>846.2857142857143</ele><time>2026-03-23T09:25:16.692Z</time></trkpt><trkpt lat="40.7967397" lon="-3.663101"><ele>847.0</ele><time>2026-03-23T09:25:17.703Z</time></trkpt><trkpt lat="40.7967851" lon="-3.663007"><ele>847.0</ele><time>2026-03-23T09:25:18.695Z</time></trkpt><trkpt lat="40.7968283" lon="-3.6628996"><ele>847.0</ele><time>2026-03-23T09:25:19.696Z</time></trkpt><trkpt lat="40.7968685" lon="-3.6627929"><ele>847.0</ele><time>2026-03-23T09:25:20.692Z</time></trkpt><trkpt lat="40.7969079" lon="-3.6626941"><ele>847.0</ele><time>2026-03-23T09:25:21.711Z</time></trkpt><trkpt lat="40.7969316" lon="-3.6626106"><ele>847.0</ele><time>2026-03-23T09:25:22.708Z</time></trkpt><trkpt lat="40.7969988" lon="-3.6624582"><ele>846.1666666666666</ele><time>2026-03-23T09:25:24.702Z</time></trkpt><trkpt lat="40.7970356" lon="-3.6623636"><ele>845.3333333333333</ele><time>2026-03-23T09:25:25.69Z</time></trkpt><trkpt lat="40.7970784" lon="-3.6622667"><ele>844.5</ele><time>2026-03-23T09:25:26.702Z</time></trkpt><trkpt lat="40.797125" lon="-3.662178"><ele>843.6666666666667</ele><time>2026-03-23T09:25:27.7Z</time></trkpt><trkpt lat="40.7971865" lon="-3.6620925"><ele>842.8333333333334</ele><time>2026-03-23T09:25:28.701Z</time></trkpt><trkpt lat="40.7972424" lon="-3.6620214"><ele>842.0</ele><time>2026-03-23T09:25:29.714Z</time></trkpt><trkpt lat="40.7972915" lon="-3.6619668"><ele>842.1666666666667</ele><time>2026-03-23T09:25:30.712Z</time></trkpt><trkpt lat="40.7973579" lon="-3.6619295"><ele>842.3333333333334</ele><time>2026-03-23T09:25:31.706Z</time></trkpt><trkpt lat="40.7974198" lon="-3.6619044"><ele>842.5</ele><time>2026-03-23T09:25:32.713Z</time></trkpt><trkpt lat="40.7975265" lon="-3.6619146"><ele>842.6666666666667</ele><time>2026-03-23T09:25:34.697Z</time></trkpt><trkpt lat="40.7976054" lon="-3.6619373"><ele>842.8333333333334</ele><time>2026-03-23T09:25:36.696Z</time></trkpt><trkpt lat="40.7976693" lon="-3.6619181"><ele>843.0</ele><time>2026-03-23T09:25:39.709Z</time></trkpt><trkpt lat="40.7977355" lon="-3.6618967"><ele>843.0</ele><time>2026-03-23T09:25:42.71Z</time></trkpt><trkpt lat="40.7978224" lon="-3.6618661"><ele>843.0</ele><time>2026-03-23T09:25:46.716Z</time></trkpt><trkpt lat="40.7978855" lon="-3.6618382"><ele>843.0</ele><time>2026-03-23T09:25:48.716Z</time></trkpt><trkpt lat="40.7979851" lon="-3.6617928"><ele>843.0</ele><time>2026-03-23T09:25:50.708Z</time></trkpt><trkpt lat="40.798048" lon="-3.6617777"><ele>843.0</ele><time>2026-03-23T09:25:51.715Z</time></trkpt><trkpt lat="40.7981829" lon="-3.6617619"><ele>843.0</ele><time>2026-03-23T09:25:53.708Z</time></trkpt><trkpt lat="40.7983069" lon="-3.6617217"><ele>843.0</ele><time>2026-03-23T09:25:55.703Z</time></trkpt><trkpt lat="40.7983687" lon="-3.6616781"><ele>843.0</ele><time>2026-03-23T09:25:56.712Z</time></trkpt><trkpt lat="40.7984268" lon="-3.661625"><ele>843.0</ele><time>2026-03-23T09:25:57.701Z</time></trkpt><trkpt lat="40.7984736" lon="-3.6615647"><ele>843.0</ele><time>2026-03-23T09:25:58.712Z</time></trkpt><trkpt lat="40.7985564" lon="-3.6614303"><ele>843.2</ele><time>2026-03-23T09:26:00.705Z</time></trkpt><trkpt lat="40.7986112" lon="-3.6613326"><ele>843.4</ele><time>2026-03-23T09:26:01.713Z</time></trkpt><trkpt lat="40.7986704" lon="-3.6612218"><ele>843.6</ele><time>2026-03-23T09:26:02.702Z</time></trkpt><trkpt lat="40.7987241" lon="-3.6611139"><ele>843.8000000000001</ele><time>2026-03-23T09:26:03.709Z</time></trkpt><trkpt lat="40.7987827" lon="-3.6610074"><ele>844.0</ele><time>2026-03-23T09:26:04.708Z</time></trkpt><trkpt lat="40.7988372" lon="-3.660923"><ele>844.2857142857143</ele><time>2026-03-23T09:26:05.705Z</time></trkpt><trkpt lat="40.7988871" lon="-3.6608654"><ele>844.5714285714287</ele><time>2026-03-23T09:26:06.69Z</time></trkpt><trkpt lat="40.7989421" lon="-3.6608102"><ele>844.8571428571429</ele><time>2026-03-23T09:26:07.709Z</time></trkpt><trkpt lat="40.7989913" lon="-3.6607551"><ele>845.1428571428571</ele><time>2026-03-23T09:26:08.7Z</time></trkpt><trkpt lat="40.7990406" lon="-3.6606897"><ele>845.4285714285714</ele><time>2026-03-23T09:26:09.711Z</time></trkpt><trkpt lat="40.7990955" lon="-3.6606109"><ele>845.7142857142857</ele><time>2026-03-23T09:26:10.709Z</time></trkpt><trkpt lat="40.7991525" lon="-3.6605407"><ele>846.0</ele><time>2026-03-23T09:26:11.716Z</time></trkpt><trkpt lat="40.7992107" lon="-3.6604734"><ele>846.0</ele><time>2026-03-23T09:26:12.715Z</time></trkpt><trkpt lat="40.799258" lon="-3.6604022"><ele>846.0</ele><time>2026-03-23T09:26:13.702Z</time></trkpt><trkpt lat="40.799307" lon="-3.6603196"><ele>846.0</ele><time>2026-03-23T09:26:14.711Z</time></trkpt><trkpt lat="40.7993549" lon="-3.6602302"><ele>846.0</ele><time>2026-03-23T09:26:15.701Z</time></trkpt><trkpt lat="40.7994097" lon="-3.6601376"><ele>846.0</ele><time>2026-03-23T09:26:16.715Z</time></trkpt><trkpt lat="40.7994631" lon="-3.6600443"><ele>846.0</ele><time>2026-03-23T09:26:17.715Z</time></trkpt><trkpt lat="40.7995241" lon="-3.6599532"><ele>845.5999999999999</ele><time>2026-03-23T09:26:18.706Z</time></trkpt><trkpt lat="40.7995891" lon="-3.6598762"><ele>845.2</ele><time>2026-03-23T09:26:19.717Z</time></trkpt><trkpt lat="40.7996588" lon="-3.6598041"><ele>844.8</ele><time>2026-03-23T09:26:20.719Z</time></trkpt><trkpt lat="40.7997386" lon="-3.6597406"><ele>844.4000000000001</ele><time>2026-03-23T09:26:21.712Z</time></trkpt><trkpt lat="40.7998225" lon="-3.6596911"><ele>844.0</ele><time>2026-03-23T09:26:22.707Z</time></trkpt><trkpt lat="40.7999051" lon="-3.6596408"><ele>843.9999999999999</ele><time>2026-03-23T09:26:23.701Z</time></trkpt><trkpt lat="40.7999826" lon="-3.6595949"><ele>844.0</ele><time>2026-03-23T09:26:24.715Z</time></trkpt><trkpt lat="40.8000527" lon="-3.6595436"><ele>844.0</ele><time>2026-03-23T09:26:25.712Z</time></trkpt><trkpt lat="40.8001096" lon="-3.6594775"><ele>844.0</ele><time>2026-03-23T09:26:26.706Z</time></trkpt><trkpt lat="40.8001597" lon="-3.6594169"><ele>843.9999999999999</ele><time>2026-03-23T09:26:27.702Z</time></trkpt><trkpt lat="40.8002128" lon="-3.6593634"><ele>844.0</ele><time>2026-03-23T09:26:28.699Z</time></trkpt><trkpt lat="40.8003226" lon="-3.6593019"><ele>844.6</ele><time>2026-03-23T09:26:30.701Z</time></trkpt><trkpt lat="40.800413" lon="-3.6592559"><ele>845.2</ele><time>2026-03-23T09:26:32.704Z</time></trkpt><trkpt lat="40.8005147" lon="-3.6592288"><ele>845.8000000000001</ele><time>2026-03-23T09:26:34.706Z</time></trkpt><trkpt lat="40.8006162" lon="-3.6592037"><ele>846.4000000000001</ele><time>2026-03-23T09:26:36.702Z</time></trkpt><trkpt lat="40.8007102" lon="-3.6591989"><ele>847.0</ele><time>2026-03-23T09:26:38.695Z</time></trkpt><trkpt lat="40.8008012" lon="-3.6591913"><ele>846.9999999999999</ele><time>2026-03-23T09:26:40.685Z</time></trkpt><trkpt lat="40.8008727" lon="-3.6592011"><ele>847.0</ele><time>2026-03-23T09:26:42.683Z</time></trkpt><trkpt lat="40.8009544" lon="-3.6592349"><ele>847.0</ele><time>2026-03-23T09:26:44.704Z</time></trkpt><trkpt lat="40.8010188" lon="-3.6592533"><ele>847.0</ele><time>2026-03-23T09:26:45.713Z</time></trkpt><trkpt lat="40.8011054" lon="-3.6592748"><ele>846.9999999999999</ele><time>2026-03-23T09:26:46.702Z</time></trkpt><trkpt lat="40.8011901" lon="-3.6592773"><ele>847.0</ele><time>2026-03-23T09:26:47.699Z</time></trkpt><trkpt lat="40.8012646" lon="-3.6592804"><ele>846.9999999999999</ele><time>2026-03-23T09:26:48.708Z</time></trkpt><trkpt lat="40.8013498" lon="-3.6592633"><ele>847.0</ele><time>2026-03-23T09:26:49.709Z</time></trkpt><trkpt lat="40.80144" lon="-3.6592362"><ele>847.0</ele><time>2026-03-23T09:26:50.694Z</time></trkpt><trkpt lat="40.8015362" lon="-3.6592093"><ele>847.0</ele><time>2026-03-23T09:26:51.696Z</time></trkpt><trkpt lat="40.8016231" lon="-3.6591853"><ele>846.9999999999999</ele><time>2026-03-23T09:26:52.696Z</time></trkpt><trkpt lat="40.8017053" lon="-3.6591731"><ele>847.0</ele><time>2026-03-23T09:26:53.712Z</time></trkpt><trkpt lat="40.801784" lon="-3.6591668"><ele>847.0</ele><time>2026-03-23T09:26:54.707Z</time></trkpt><trkpt lat="40.8018843" lon="-3.6591617"><ele>847.0</ele><time>2026-03-23T09:26:55.712Z</time></trkpt><trkpt lat="40.8019808" lon="-3.6591581"><ele>847.0</ele><time>2026-03-23T09:26:56.702Z</time></trkpt><trkpt lat="40.8020781" lon="-3.6591636"><ele>847.0</ele><time>2026-03-23T09:26:57.709Z</time></trkpt><trkpt lat="40.8021793" lon="-3.6591728"><ele>847.0</ele><time>2026-03-23T09:26:58.709Z</time></trkpt><trkpt lat="40.8022834" lon="-3.6591814"><ele>846.9999999999999</ele><time>2026-03-23T09:26:59.711Z</time></trkpt><trkpt lat="40.802383" lon="-3.6591842"><ele>847.0</ele><time>2026-03-23T09:27:00.7Z</time></trkpt><trkpt lat="40.8024689" lon="-3.6591746"><ele>847.0</ele><time>2026-03-23T09:27:01.705Z</time></trkpt><trkpt lat="40.8025438" lon="-3.6591803"><ele>847.0</ele><time>2026-03-23T09:27:02.717Z</time></trkpt><trkpt lat="40.8026217" lon="-3.6591675"><ele>846.9999999999999</ele><time>2026-03-23T09:27:03.711Z</time></trkpt><trkpt lat="40.8026895" lon="-3.6591479"><ele>847.0</ele><time>2026-03-23T09:27:04.688Z</time></trkpt><trkpt lat="40.8027503" lon="-3.6591145"><ele>847.4000000000001</ele><time>2026-03-23T09:27:05.709Z</time></trkpt><trkpt lat="40.8028398" lon="-3.6590713"><ele>847.8000000000001</ele><time>2026-03-23T09:27:07.704Z</time></trkpt><trkpt lat="40.802933" lon="-3.6590456"><ele>848.2</ele><time>2026-03-23T09:27:09.704Z</time></trkpt><trkpt lat="40.8030441" lon="-3.6589834"><ele>848.6</ele><time>2026-03-23T09:27:11.711Z</time></trkpt><trkpt lat="40.803109" lon="-3.6589363"><ele>849.0</ele><time>2026-03-23T09:27:12.709Z</time></trkpt><trkpt lat="40.8031928" lon="-3.6589001"><ele>849.0</ele><time>2026-03-23T09:27:13.697Z</time></trkpt><trkpt lat="40.8032691" lon="-3.658879"><ele>849.0</ele><time>2026-03-23T09:27:14.705Z</time></trkpt><trkpt lat="40.8033559" lon="-3.6588768"><ele>849.0</ele><time>2026-03-23T09:27:15.687Z</time></trkpt><trkpt lat="40.803444" lon="-3.6588804"><ele>849.0</ele><time>2026-03-23T09:27:16.685Z</time></trkpt><trkpt lat="40.8035147" lon="-3.6588841"><ele>849.0</ele><time>2026-03-23T09:27:17.722Z</time></trkpt><trkpt lat="40.8035812" lon="-3.6588891"><ele>849.0</ele><time>2026-03-23T09:27:18.702Z</time></trkpt><trkpt lat="40.803647" lon="-3.6588595"><ele>849.1666666666666</ele><time>2026-03-23T09:27:19.688Z</time></trkpt><trkpt lat="40.8037024" lon="-3.6587903"><ele>849.3333333333333</ele><time>2026-03-23T09:27:20.707Z</time></trkpt><trkpt lat="40.8037576" lon="-3.6587219"><ele>849.5</ele><time>2026-03-23T09:27:21.682Z</time></trkpt><trkpt lat="40.803818" lon="-3.6586535"><ele>849.6666666666666</ele><time>2026-03-23T09:27:22.703Z</time></trkpt><trkpt lat="40.8038805" lon="-3.6585945"><ele>849.8333333333333</ele><time>2026-03-23T09:27:23.71Z</time></trkpt><trkpt lat="40.8039514" lon="-3.6585313"><ele>850.0</ele><time>2026-03-23T09:27:24.704Z</time></trkpt><trkpt lat="40.8040358" lon="-3.6584774"><ele>850.6</ele><time>2026-03-23T09:27:25.708Z</time></trkpt><trkpt lat="40.804115" lon="-3.6584236"><ele>851.2</ele><time>2026-03-23T09:27:26.707Z</time></trkpt><trkpt lat="40.8041891" lon="-3.6583722"><ele>851.8</ele><time>2026-03-23T09:27:27.692Z</time></trkpt><trkpt lat="40.8042727" lon="-3.6583035"><ele>852.4</ele><time>2026-03-23T09:27:28.69Z</time></trkpt><trkpt lat="40.8043468" lon="-3.6582084"><ele>853.0</ele><time>2026-03-23T09:27:29.694Z</time></trkpt><trkpt lat="40.8044084" lon="-3.6581019"><ele>853.0</ele><time>2026-03-23T09:27:30.719Z</time></trkpt><trkpt lat="40.8044665" lon="-3.657994"><ele>853.0</ele><time>2026-03-23T09:27:31.697Z</time></trkpt><trkpt lat="40.804532" lon="-3.6578979"><ele>853.0</ele><time>2026-03-23T09:27:32.711Z</time></trkpt><trkpt lat="40.8045946" lon="-3.6578154"><ele>853.0</ele><time>2026-03-23T09:27:33.715Z</time></trkpt><trkpt lat="40.8046719" lon="-3.6577362"><ele>853.0</ele><time>2026-03-23T09:27:34.7Z</time></trkpt><trkpt lat="40.8047519" lon="-3.6576569"><ele>853.4</ele><time>2026-03-23T09:27:35.708Z</time></trkpt><trkpt lat="40.8048374" lon="-3.6575885"><ele>853.8</ele><time>2026-03-23T09:27:36.701Z</time></trkpt><trkpt lat="40.8049328" lon="-3.6575067"><ele>854.2</ele><time>2026-03-23T09:27:37.7Z</time></trkpt><trkpt lat="40.8050121" lon="-3.6574409"><ele>854.6</ele><time>2026-03-23T09:27:38.705Z</time></trkpt><trkpt lat="40.8050852" lon="-3.6573798"><ele>855.0</ele><time>2026-03-23T09:27:39.702Z</time></trkpt><trkpt lat="40.8051546" lon="-3.6573336"><ele>855.5</ele><time>2026-03-23T09:27:40.693Z</time></trkpt><trkpt lat="40.8052164" lon="-3.6572621"><ele>856.0</ele><time>2026-03-23T09:27:42.688Z</time></trkpt><trkpt lat="40.8052742" lon="-3.6571816"><ele>856.5</ele><time>2026-03-23T09:27:45.704Z</time></trkpt><trkpt lat="40.8053302" lon="-3.6570823"><ele>857.0</ele><time>2026-03-23T09:28:00.688Z</time></trkpt><trkpt lat="40.8053959" lon="-3.6569907"><ele>857.5</ele><time>2026-03-23T09:28:02.706Z</time></trkpt><trkpt lat="40.8054552" lon="-3.6568955"><ele>858.0</ele><time>2026-03-23T09:28:04.702Z</time></trkpt><trkpt lat="40.8055094" lon="-3.6568056"><ele>858.0</ele><time>2026-03-23T09:28:06.701Z</time></trkpt><trkpt lat="40.8055565" lon="-3.6567111"><ele>858.0</ele><time>2026-03-23T09:28:08.712Z</time></trkpt><trkpt lat="40.8056032" lon="-3.6566053"><ele>858.0</ele><time>2026-03-23T09:28:10.699Z</time></trkpt><trkpt lat="40.8056395" lon="-3.6564652"><ele>858.0</ele><time>2026-03-23T09:28:12.725Z</time></trkpt><trkpt lat="40.8056835" lon="-3.6563809"><ele>858.0</ele><time>2026-03-23T09:28:14.689Z</time></trkpt><trkpt lat="40.8057543" lon="-3.6563148"><ele>858.0</ele><time>2026-03-23T09:28:16.709Z</time></trkpt><trkpt lat="40.8057995" lon="-3.6562275"><ele>858.0</ele><time>2026-03-23T09:28:18.693Z</time></trkpt><trkpt lat="40.8058514" lon="-3.6560826"><ele>858.0</ele><time>2026-03-23T09:28:20.708Z</time></trkpt><trkpt lat="40.805866" lon="-3.655998"><ele>858.0</ele><time>2026-03-23T09:28:21.712Z</time></trkpt><trkpt lat="40.8058891" lon="-3.6559091"><ele>858.0</ele><time>2026-03-23T09:28:22.708Z</time></trkpt><trkpt lat="40.8059164" lon="-3.6558134"><ele>858.0</ele><time>2026-03-23T09:28:23.7Z</time></trkpt><trkpt lat="40.8059494" lon="-3.6557149"><ele>858.3333333333334</ele><time>2026-03-23T09:28:24.705Z</time></trkpt><trkpt lat="40.8059845" lon="-3.655607"><ele>858.6666666666667</ele><time>2026-03-23T09:28:25.692Z</time></trkpt><trkpt lat="40.8060192" lon="-3.6555031"><ele>859.0</ele><time>2026-03-23T09:28:26.711Z</time></trkpt><trkpt lat="40.8060508" lon="-3.6554119"><ele>859.3333333333334</ele><time>2026-03-23T09:28:27.707Z</time></trkpt><trkpt lat="40.8060861" lon="-3.655316"><ele>859.6666666666667</ele><time>2026-03-23T09:28:28.714Z</time></trkpt><trkpt lat="40.8061232" lon="-3.6552138"><ele>860.0</ele><time>2026-03-23T09:28:29.707Z</time></trkpt><trkpt lat="40.8061563" lon="-3.6551144"><ele>860.8571428571428</ele><time>2026-03-23T09:28:30.703Z</time></trkpt><trkpt lat="40.8061894" lon="-3.6550164"><ele>861.7142857142858</ele><time>2026-03-23T09:28:31.713Z</time></trkpt><trkpt lat="40.8062098" lon="-3.654933"><ele>862.5714285714286</ele><time>2026-03-23T09:28:32.706Z</time></trkpt><trkpt lat="40.8062282" lon="-3.6548494"><ele>863.4285714285713</ele><time>2026-03-23T09:28:33.698Z</time></trkpt><trkpt lat="40.8062478" lon="-3.6547633"><ele>864.2857142857142</ele><time>2026-03-23T09:28:34.704Z</time></trkpt><trkpt lat="40.8062691" lon="-3.6546759"><ele>865.1428571428571</ele><time>2026-03-23T09:28:35.709Z</time></trkpt><trkpt lat="40.8062923" lon="-3.6545884"><ele>866.0</ele><time>2026-03-23T09:28:36.717Z</time></trkpt><trkpt lat="40.8063165" lon="-3.6544966"><ele>866.5000000000001</ele><time>2026-03-23T09:28:37.701Z</time></trkpt><trkpt lat="40.806351" lon="-3.6544006"><ele>867.0</ele><time>2026-03-23T09:28:38.701Z</time></trkpt><trkpt lat="40.8063797" lon="-3.6542986"><ele>867.5</ele><time>2026-03-23T09:28:39.714Z</time></trkpt><trkpt lat="40.8064071" lon="-3.6541914"><ele>868.0</ele><time>2026-03-23T09:28:40.7Z</time></trkpt><trkpt lat="40.8064331" lon="-3.6540813"><ele>868.5000000000001</ele><time>2026-03-23T09:28:41.707Z</time></trkpt><trkpt lat="40.8064638" lon="-3.6539744"><ele>869.0</ele><time>2026-03-23T09:28:42.703Z</time></trkpt><trkpt lat="40.8065047" lon="-3.6538623"><ele>869.0</ele><time>2026-03-23T09:28:43.692Z</time></trkpt><trkpt lat="40.8065531" lon="-3.6537563"><ele>869.0000000000001</ele><time>2026-03-23T09:28:44.691Z</time></trkpt><trkpt lat="40.806606" lon="-3.653653"><ele>869.0000000000001</ele><time>2026-03-23T09:28:45.693Z</time></trkpt><trkpt lat="40.8066537" lon="-3.6535455"><ele>869.0</ele><time>2026-03-23T09:28:46.706Z</time></trkpt><trkpt lat="40.8066974" lon="-3.6534372"><ele>869.0</ele><time>2026-03-23T09:28:47.7Z</time></trkpt><trkpt lat="40.8067397" lon="-3.653342"><ele>869.1666666666667</ele><time>2026-03-23T09:28:48.701Z</time></trkpt><trkpt lat="40.8067774" lon="-3.6532507"><ele>869.3333333333334</ele><time>2026-03-23T09:28:49.713Z</time></trkpt><trkpt lat="40.8068195" lon="-3.6531551"><ele>869.5</ele><time>2026-03-23T09:28:50.712Z</time></trkpt><trkpt lat="40.8068665" lon="-3.6530562"><ele>869.6666666666667</ele><time>2026-03-23T09:28:51.695Z</time></trkpt><trkpt lat="40.8069172" lon="-3.6529562"><ele>869.8333333333334</ele><time>2026-03-23T09:28:52.704Z</time></trkpt><trkpt lat="40.8069691" lon="-3.6528518"><ele>870.0</ele><time>2026-03-23T09:28:53.711Z</time></trkpt><trkpt lat="40.8070232" lon="-3.6527501"><ele>870.3333333333334</ele><time>2026-03-23T09:28:54.71Z</time></trkpt><trkpt lat="40.8070729" lon="-3.6526431"><ele>870.6666666666667</ele><time>2026-03-23T09:28:55.712Z</time></trkpt><trkpt lat="40.807123" lon="-3.652533"><ele>871.0</ele><time>2026-03-23T09:28:56.712Z</time></trkpt><trkpt lat="40.8071593" lon="-3.6524322"><ele>871.3333333333334</ele><time>2026-03-23T09:28:57.711Z</time></trkpt><trkpt lat="40.8071781" lon="-3.6523398"><ele>871.6666666666667</ele><time>2026-03-23T09:28:58.705Z</time></trkpt><trkpt lat="40.8072071" lon="-3.6522496"><ele>872.0</ele><time>2026-03-23T09:28:59.694Z</time></trkpt><trkpt lat="40.8072436" lon="-3.6521696"><ele>872.0</ele><time>2026-03-23T09:29:00.689Z</time></trkpt><trkpt lat="40.807286" lon="-3.6520949"><ele>872.0</ele><time>2026-03-23T09:29:01.694Z</time></trkpt><trkpt lat="40.8073557" lon="-3.6519972"><ele>872.0</ele><time>2026-03-23T09:29:03.709Z</time></trkpt><trkpt lat="40.807407" lon="-3.6519049"><ele>872.0</ele><time>2026-03-23T09:29:05.687Z</time></trkpt><trkpt lat="40.807454" lon="-3.6517772"><ele>872.0</ele><time>2026-03-23T09:29:07.694Z</time></trkpt><trkpt lat="40.8075086" lon="-3.6516459"><ele>872.0000000000001</ele><time>2026-03-23T09:29:09.7Z</time></trkpt><trkpt lat="40.8075591" lon="-3.6515171"><ele>872.0</ele><time>2026-03-23T09:29:11.7Z</time></trkpt><trkpt lat="40.8075456" lon="-3.6514216"><ele>872.0</ele><time>2026-03-23T09:29:12.686Z</time></trkpt><trkpt lat="40.8075351" lon="-3.6513128"><ele>872.0</ele><time>2026-03-23T09:29:13.705Z</time></trkpt><trkpt lat="40.8075117" lon="-3.6512115"><ele>872.0000000000001</ele><time>2026-03-23T09:29:14.7Z</time></trkpt><trkpt lat="40.8075166" lon="-3.6511032"><ele>872.0</ele><time>2026-03-23T09:29:15.706Z</time></trkpt><trkpt lat="40.8075313" lon="-3.6510068"><ele>871.8</ele><time>2026-03-23T09:29:16.7Z</time></trkpt><trkpt lat="40.8075537" lon="-3.6509077"><ele>871.6</ele><time>2026-03-23T09:29:17.706Z</time></trkpt><trkpt lat="40.8075861" lon="-3.6507834"><ele>871.3999999999999</ele><time>2026-03-23T09:29:18.701Z</time></trkpt><trkpt lat="40.8076225" lon="-3.6506684"><ele>871.1999999999999</ele><time>2026-03-23T09:29:19.704Z</time></trkpt><trkpt lat="40.8076639" lon="-3.650549"><ele>871.0</ele><time>2026-03-23T09:29:20.709Z</time></trkpt><trkpt lat="40.8077158" lon="-3.6504397"><ele>871.0</ele><time>2026-03-23T09:29:21.696Z</time></trkpt><trkpt lat="40.8077728" lon="-3.6503359"><ele>870.9999999999999</ele><time>2026-03-23T09:29:22.699Z</time></trkpt><trkpt lat="40.8078411" lon="-3.650235"><ele>870.9999999999999</ele><time>2026-03-23T09:29:23.698Z</time></trkpt><trkpt lat="40.8079023" lon="-3.6501238"><ele>871.0</ele><time>2026-03-23T09:29:24.699Z</time></trkpt><trkpt lat="40.8079591" lon="-3.6500017"><ele>871.0</ele><time>2026-03-23T09:29:25.699Z</time></trkpt><trkpt lat="40.8080055" lon="-3.6498869"><ele>870.5999999999999</ele><time>2026-03-23T09:29:26.702Z</time></trkpt><trkpt lat="40.8080425" lon="-3.6497702"><ele>870.1999999999999</ele><time>2026-03-23T09:29:27.703Z</time></trkpt><trkpt lat="40.8080647" lon="-3.6496613"><ele>869.8000000000001</ele><time>2026-03-23T09:29:28.698Z</time></trkpt><trkpt lat="40.808094" lon="-3.6495502"><ele>869.4000000000001</ele><time>2026-03-23T09:29:29.687Z</time></trkpt><trkpt lat="40.8081348" lon="-3.6494399"><ele>869.0</ele><time>2026-03-23T09:29:30.707Z</time></trkpt><trkpt lat="40.8081829" lon="-3.6493428"><ele>868.8333333333334</ele><time>2026-03-23T09:29:31.694Z</time></trkpt><trkpt lat="40.8082307" lon="-3.6492563"><ele>868.6666666666667</ele><time>2026-03-23T09:29:32.704Z</time></trkpt><trkpt lat="40.8082702" lon="-3.6491688"><ele>868.5</ele><time>2026-03-23T09:29:33.693Z</time></trkpt><trkpt lat="40.8083082" lon="-3.6491017"><ele>868.3333333333333</ele><time>2026-03-23T09:29:34.705Z</time></trkpt><trkpt lat="40.8083803" lon="-3.6489835"><ele>868.1666666666666</ele><time>2026-03-23T09:29:36.704Z</time></trkpt><trkpt lat="40.8084219" lon="-3.648845"><ele>868.0</ele><time>2026-03-23T09:29:38.695Z</time></trkpt><trkpt lat="40.8084597" lon="-3.6487687"><ele>867.5999999999999</ele><time>2026-03-23T09:29:39.694Z</time></trkpt><trkpt lat="40.8085381" lon="-3.6486604"><ele>867.1999999999999</ele><time>2026-03-23T09:29:41.707Z</time></trkpt><trkpt lat="40.8086362" lon="-3.6485839"><ele>866.8</ele><time>2026-03-23T09:29:43.702Z</time></trkpt><trkpt lat="40.808727" lon="-3.6485369"><ele>866.4</ele><time>2026-03-23T09:29:45.708Z</time></trkpt><trkpt lat="40.8088123" lon="-3.6484984"><ele>866.0</ele><time>2026-03-23T09:29:47.708Z</time></trkpt><trkpt lat="40.8089058" lon="-3.6484078"><ele>866.0000000000001</ele><time>2026-03-23T09:29:49.704Z</time></trkpt><trkpt lat="40.8089553" lon="-3.6483441"><ele>866.0</ele><time>2026-03-23T09:29:50.706Z</time></trkpt><trkpt lat="40.8090002" lon="-3.6482796"><ele>866.0</ele><time>2026-03-23T09:29:51.718Z</time></trkpt><trkpt lat="40.8090778" lon="-3.6481458"><ele>866.0</ele><time>2026-03-23T09:29:53.694Z</time></trkpt><trkpt lat="40.8091132" lon="-3.6480706"><ele>866.0000000000001</ele><time>2026-03-23T09:29:54.714Z</time></trkpt><trkpt lat="40.809149" lon="-3.6479856"><ele>866.0</ele><time>2026-03-23T09:29:55.696Z</time></trkpt><trkpt lat="40.809182" lon="-3.6478941"><ele>866.0000000000001</ele><time>2026-03-23T09:29:56.704Z</time></trkpt><trkpt lat="40.8092172" lon="-3.6478075"><ele>866.0</ele><time>2026-03-23T09:29:57.713Z</time></trkpt><trkpt lat="40.809256" lon="-3.647731"><ele>866.0</ele><time>2026-03-23T09:29:58.705Z</time></trkpt><trkpt lat="40.8093059" lon="-3.6476508"><ele>866.0</ele><time>2026-03-23T09:29:59.708Z</time></trkpt><trkpt lat="40.8093682" lon="-3.6475762"><ele>866.0000000000001</ele><time>2026-03-23T09:30:00.711Z</time></trkpt><trkpt lat="40.8094246" lon="-3.647507"><ele>866.0</ele><time>2026-03-23T09:30:01.711Z</time></trkpt><trkpt lat="40.8094811" lon="-3.647446"><ele>865.3333333333334</ele><time>2026-03-23T09:30:02.714Z</time></trkpt><trkpt lat="40.8095382" lon="-3.6473829"><ele>864.6666666666667</ele><time>2026-03-23T09:30:03.701Z</time></trkpt><trkpt lat="40.8095931" lon="-3.6473149"><ele>864.0</ele><time>2026-03-23T09:30:04.715Z</time></trkpt><trkpt lat="40.8096391" lon="-3.6472448"><ele>863.3333333333333</ele><time>2026-03-23T09:30:05.699Z</time></trkpt><trkpt lat="40.8097318" lon="-3.6471561"><ele>862.6666666666666</ele><time>2026-03-23T09:30:07.719Z</time></trkpt><trkpt lat="40.8098245" lon="-3.6471112"><ele>862.0</ele><time>2026-03-23T09:30:09.712Z</time></trkpt><trkpt lat="40.8099323" lon="-3.6470639"><ele>861.9999999999999</ele><time>2026-03-23T09:30:11.69Z</time></trkpt><trkpt lat="40.8099954" lon="-3.6470201"><ele>862.0</ele><time>2026-03-23T09:30:12.702Z</time></trkpt><trkpt lat="40.8100622" lon="-3.6469635"><ele>862.0</ele><time>2026-03-23T09:30:13.693Z</time></trkpt><trkpt lat="40.8101328" lon="-3.6469152"><ele>862.0</ele><time>2026-03-23T09:30:14.711Z</time></trkpt><trkpt lat="40.8102057" lon="-3.6468575"><ele>861.9999999999999</ele><time>2026-03-23T09:30:15.702Z</time></trkpt><trkpt lat="40.8102691" lon="-3.6467866"><ele>862.0</ele><time>2026-03-23T09:30:16.711Z</time></trkpt><trkpt lat="40.8103291" lon="-3.646699"><ele>862.0</ele><time>2026-03-23T09:30:17.704Z</time></trkpt><trkpt lat="40.8103922" lon="-3.6465996"><ele>862.0</ele><time>2026-03-23T09:30:18.71Z</time></trkpt><trkpt lat="40.8104568" lon="-3.6465003"><ele>862.0</ele><time>2026-03-23T09:30:19.717Z</time></trkpt><trkpt lat="40.8105195" lon="-3.6463995"><ele>862.0</ele><time>2026-03-23T09:30:20.704Z</time></trkpt><trkpt lat="40.8105922" lon="-3.6463041"><ele>862.0</ele><time>2026-03-23T09:30:21.68Z</time></trkpt><trkpt lat="40.8106679" lon="-3.6462032"><ele>862.0</ele><time>2026-03-23T09:30:22.692Z</time></trkpt><trkpt lat="40.8107469" lon="-3.6461095"><ele>862.0</ele><time>2026-03-23T09:30:23.694Z</time></trkpt><trkpt lat="40.8108314" lon="-3.646013"><ele>862.0</ele><time>2026-03-23T09:30:24.705Z</time></trkpt><trkpt lat="40.8109151" lon="-3.6459239"><ele>862.0</ele><time>2026-03-23T09:30:25.712Z</time></trkpt><trkpt lat="40.8109961" lon="-3.6458368"><ele>862.0</ele><time>2026-03-23T09:30:26.695Z</time></trkpt><trkpt lat="40.8110772" lon="-3.6457571"><ele>862.0</ele><time>2026-03-23T09:30:27.71Z</time></trkpt><trkpt lat="40.8111589" lon="-3.6456842"><ele>862.0</ele><time>2026-03-23T09:30:28.704Z</time></trkpt><trkpt lat="40.81123" lon="-3.6455948"><ele>862.0</ele><time>2026-03-23T09:30:29.7Z</time></trkpt><trkpt lat="40.8112943" lon="-3.6454978"><ele>862.0</ele><time>2026-03-23T09:30:30.694Z</time></trkpt><trkpt lat="40.8113544" lon="-3.6453882"><ele>862.0</ele><time>2026-03-23T09:30:31.698Z</time></trkpt><trkpt lat="40.8114175" lon="-3.6452808"><ele>862.4000000000001</ele><time>2026-03-23T09:30:32.698Z</time></trkpt><trkpt lat="40.8114782" lon="-3.6451663"><ele>862.8000000000001</ele><time>2026-03-23T09:30:33.698Z</time></trkpt><trkpt lat="40.8115407" lon="-3.6450491"><ele>863.2</ele><time>2026-03-23T09:30:34.695Z</time></trkpt><trkpt lat="40.8116087" lon="-3.644944"><ele>863.6</ele><time>2026-03-23T09:30:35.689Z</time></trkpt><trkpt lat="40.8116835" lon="-3.6448251"><ele>864.0</ele><time>2026-03-23T09:30:36.69Z</time></trkpt><trkpt lat="40.8117669" lon="-3.6447279"><ele>862.5</ele><time>2026-03-23T09:30:37.683Z</time></trkpt><trkpt lat="40.8118487" lon="-3.6446188"><ele>861.0</ele><time>2026-03-23T09:30:38.688Z</time></trkpt><trkpt lat="40.8119274" lon="-3.6445032"><ele>859.5</ele><time>2026-03-23T09:30:39.703Z</time></trkpt><trkpt lat="40.8120014" lon="-3.6443902"><ele>858.0</ele><time>2026-03-23T09:30:40.691Z</time></trkpt><trkpt lat="40.8120726" lon="-3.6442668"><ele>857.8</ele><time>2026-03-23T09:30:41.701Z</time></trkpt><trkpt lat="40.8121473" lon="-3.6441592"><ele>857.5999999999999</ele><time>2026-03-23T09:30:42.704Z</time></trkpt><trkpt lat="40.8122042" lon="-3.6440467"><ele>857.4000000000001</ele><time>2026-03-23T09:30:43.687Z</time></trkpt><trkpt lat="40.8122591" lon="-3.6439534"><ele>857.2</ele><time>2026-03-23T09:30:44.71Z</time></trkpt><trkpt lat="40.812318" lon="-3.6438674"><ele>857.0</ele><time>2026-03-23T09:30:45.702Z</time></trkpt><trkpt lat="40.8123792" lon="-3.643774"><ele>857.0</ele><time>2026-03-23T09:30:46.703Z</time></trkpt><trkpt lat="40.8124338" lon="-3.6436862"><ele>857.0</ele><time>2026-03-23T09:30:47.705Z</time></trkpt><trkpt lat="40.8124766" lon="-3.6435875"><ele>857.0</ele><time>2026-03-23T09:30:48.705Z</time></trkpt><trkpt lat="40.8125151" lon="-3.6434785"><ele>857.0</ele><time>2026-03-23T09:30:49.711Z</time></trkpt><trkpt lat="40.8125642" lon="-3.6433763"><ele>857.0</ele><time>2026-03-23T09:30:50.692Z</time></trkpt><trkpt lat="40.8126285" lon="-3.6432749"><ele>857.6</ele><time>2026-03-23T09:30:51.697Z</time></trkpt><trkpt lat="40.8126981" lon="-3.6431719"><ele>858.2</ele><time>2026-03-23T09:30:52.712Z</time></trkpt><trkpt lat="40.8127762" lon="-3.6430683"><ele>858.8</ele><time>2026-03-23T09:30:53.706Z</time></trkpt><trkpt lat="40.8128669" lon="-3.6429806"><ele>859.4</ele><time>2026-03-23T09:30:54.715Z</time></trkpt><trkpt lat="40.8129571" lon="-3.6428947"><ele>860.0</ele><time>2026-03-23T09:30:55.712Z</time></trkpt><trkpt lat="40.813049" lon="-3.6428028"><ele>859.5</ele><time>2026-03-23T09:30:56.709Z</time></trkpt><trkpt lat="40.8131428" lon="-3.6426959"><ele>859.0</ele><time>2026-03-23T09:30:57.713Z</time></trkpt><trkpt lat="40.8132338" lon="-3.6425955"><ele>858.5</ele><time>2026-03-23T09:30:58.707Z</time></trkpt><trkpt lat="40.813326" lon="-3.6425003"><ele>858.0</ele><time>2026-03-23T09:30:59.717Z</time></trkpt><trkpt lat="40.8134229" lon="-3.6424088"><ele>858.2</ele><time>2026-03-23T09:31:00.699Z</time></trkpt><trkpt lat="40.8135153" lon="-3.642318"><ele>858.4</ele><time>2026-03-23T09:31:01.709Z</time></trkpt><trkpt lat="40.8135982" lon="-3.64223"><ele>858.6000000000001</ele><time>2026-03-23T09:31:02.711Z</time></trkpt><trkpt lat="40.8136712" lon="-3.6421294"><ele>858.8000000000001</ele><time>2026-03-23T09:31:03.701Z</time></trkpt><trkpt lat="40.8137352" lon="-3.6420255"><ele>859.0</ele><time>2026-03-23T09:31:04.694Z</time></trkpt><trkpt lat="40.8137862" lon="-3.6419084"><ele>858.6</ele><time>2026-03-23T09:31:05.707Z</time></trkpt><trkpt lat="40.8138297" lon="-3.6417909"><ele>858.2</ele><time>2026-03-23T09:31:06.696Z</time></trkpt><trkpt lat="40.8138707" lon="-3.6416735"><ele>857.8000000000001</ele><time>2026-03-23T09:31:07.717Z</time></trkpt><trkpt lat="40.8139193" lon="-3.6415447"><ele>857.4000000000001</ele><time>2026-03-23T09:31:08.706Z</time></trkpt><trkpt lat="40.8139723" lon="-3.6414245"><ele>857.0</ele><time>2026-03-23T09:31:09.697Z</time></trkpt><trkpt lat="40.8140218" lon="-3.641299"><ele>857.0000000000001</ele><time>2026-03-23T09:31:10.698Z</time></trkpt><trkpt lat="40.8140616" lon="-3.6411829"><ele>857.0</ele><time>2026-03-23T09:31:11.703Z</time></trkpt><trkpt lat="40.8140939" lon="-3.6410842"><ele>857.0</ele><time>2026-03-23T09:31:12.693Z</time></trkpt><trkpt lat="40.8141057" lon="-3.6409769"><ele>857.0</ele><time>2026-03-23T09:31:13.696Z</time></trkpt><trkpt lat="40.8141012" lon="-3.6408686"><ele>857.0000000000001</ele><time>2026-03-23T09:31:14.712Z</time></trkpt><trkpt lat="40.8140852" lon="-3.6407651"><ele>857.0</ele><time>2026-03-23T09:31:15.71Z</time></trkpt><trkpt lat="40.8140828" lon="-3.6406669"><ele>857.1666666666667</ele><time>2026-03-23T09:31:16.709Z</time></trkpt><trkpt lat="40.8140968" lon="-3.6405722"><ele>857.3333333333334</ele><time>2026-03-23T09:31:17.707Z</time></trkpt><trkpt lat="40.814122" lon="-3.6404942"><ele>857.5</ele><time>2026-03-23T09:31:18.7Z</time></trkpt><trkpt lat="40.8141575" lon="-3.6404211"><ele>857.6666666666667</ele><time>2026-03-23T09:31:19.703Z</time></trkpt><trkpt lat="40.8141997" lon="-3.6403375"><ele>857.8333333333334</ele><time>2026-03-23T09:31:20.704Z</time></trkpt><trkpt lat="40.8142578" lon="-3.6402554"><ele>858.0</ele><time>2026-03-23T09:31:21.695Z</time></trkpt><trkpt lat="40.8143128" lon="-3.6401587"><ele>858.2</ele><time>2026-03-23T09:31:22.701Z</time></trkpt><trkpt lat="40.8143501" lon="-3.6400633"><ele>858.4</ele><time>2026-03-23T09:31:23.713Z</time></trkpt><trkpt lat="40.8143758" lon="-3.6399793"><ele>858.6000000000001</ele><time>2026-03-23T09:31:24.698Z</time></trkpt><trkpt lat="40.81441" lon="-3.6398398"><ele>858.8000000000001</ele><time>2026-03-23T09:31:26.711Z</time></trkpt><trkpt lat="40.8144192" lon="-3.6396758"><ele>859.0</ele><time>2026-03-23T09:31:28.708Z</time></trkpt><trkpt lat="40.8143394" lon="-3.639554"><ele>858.8571428571428</ele><time>2026-03-23T09:31:30.699Z</time></trkpt><trkpt lat="40.8142736" lon="-3.639512"><ele>858.7142857142857</ele><time>2026-03-23T09:31:31.709Z</time></trkpt><trkpt lat="40.8142102" lon="-3.639458"><ele>858.5714285714286</ele><time>2026-03-23T09:31:32.703Z</time></trkpt><trkpt lat="40.8141602" lon="-3.6393872"><ele>858.4285714285713</ele><time>2026-03-23T09:31:33.713Z</time></trkpt><trkpt lat="40.8141285" lon="-3.6393068"><ele>858.2857142857143</ele><time>2026-03-23T09:31:34.715Z</time></trkpt><trkpt lat="40.8141269" lon="-3.6392108"><ele>858.1428571428571</ele><time>2026-03-23T09:31:35.723Z</time></trkpt><trkpt lat="40.8141536" lon="-3.6391046"><ele>858.0</ele><time>2026-03-23T09:31:36.701Z</time></trkpt><trkpt lat="40.8141896" lon="-3.6390131"><ele>858.0</ele><time>2026-03-23T09:31:37.707Z</time></trkpt><trkpt lat="40.8142337" lon="-3.6389302"><ele>858.0</ele><time>2026-03-23T09:31:38.701Z</time></trkpt><trkpt lat="40.8142909" lon="-3.6388092"><ele>858.0</ele><time>2026-03-23T09:31:40.713Z</time></trkpt><trkpt lat="40.8143226" lon="-3.6387136"><ele>858.0</ele><time>2026-03-23T09:31:42.697Z</time></trkpt><trkpt lat="40.8143503" lon="-3.6386178"><ele>858.0</ele><time>2026-03-23T09:31:45.717Z</time></trkpt><trkpt lat="40.8143811" lon="-3.6385292"><ele>858.0</ele><time>2026-03-23T09:32:53.707Z</time></trkpt><trkpt lat="40.8144599" lon="-3.6384014"><ele>858.1666666666666</ele><time>2026-03-23T09:32:55.706Z</time></trkpt><trkpt lat="40.8145225" lon="-3.6383295"><ele>858.3333333333333</ele><time>2026-03-23T09:32:56.716Z</time></trkpt><trkpt lat="40.8145829" lon="-3.638252"><ele>858.5</ele><time>2026-03-23T09:32:57.704Z</time></trkpt><trkpt lat="40.8146461" lon="-3.6381815"><ele>858.6666666666666</ele><time>2026-03-23T09:32:58.716Z</time></trkpt><trkpt lat="40.814718" lon="-3.6381031"><ele>858.8333333333333</ele><time>2026-03-23T09:32:59.703Z</time></trkpt><trkpt lat="40.814802" lon="-3.638029"><ele>859.0</ele><time>2026-03-23T09:33:00.698Z</time></trkpt><trkpt lat="40.8148886" lon="-3.6379568"><ele>859.0</ele><time>2026-03-23T09:33:01.706Z</time></trkpt><trkpt lat="40.8149813" lon="-3.6378787"><ele>859.0</ele><time>2026-03-23T09:33:02.891Z</time></trkpt><trkpt lat="40.8151674" lon="-3.6377035"><ele>859.0</ele><time>2026-03-23T09:33:04.848Z</time></trkpt><trkpt lat="40.8153873" lon="-3.6375225"><ele>860.0</ele><time>2026-03-23T09:33:06.696Z</time></trkpt><trkpt lat="40.8155035" lon="-3.6374233"><ele>861.0</ele><time>2026-03-23T09:33:07.695Z</time></trkpt><trkpt lat="40.8156159" lon="-3.6373299"><ele>862.0</ele><time>2026-03-23T09:33:08.687Z</time></trkpt><trkpt lat="40.8157223" lon="-3.6372448"><ele>863.0</ele><time>2026-03-23T09:33:09.692Z</time></trkpt><trkpt lat="40.81582" lon="-3.6371544"><ele>863.0</ele><time>2026-03-23T09:33:10.702Z</time></trkpt><trkpt lat="40.8159113" lon="-3.6370669"><ele>863.0</ele><time>2026-03-23T09:33:11.703Z</time></trkpt><trkpt lat="40.8159999" lon="-3.6369907"><ele>863.0</ele><time>2026-03-23T09:33:12.717Z</time></trkpt><trkpt lat="40.8160952" lon="-3.6369053"><ele>863.0</ele><time>2026-03-23T09:33:13.692Z</time></trkpt><trkpt lat="40.8161968" lon="-3.6368163"><ele>865.0</ele><time>2026-03-23T09:33:14.7Z</time></trkpt><trkpt lat="40.8162981" lon="-3.6367277"><ele>867.0</ele><time>2026-03-23T09:33:15.711Z</time></trkpt><trkpt lat="40.8164086" lon="-3.6366499"><ele>869.0</ele><time>2026-03-23T09:33:16.708Z</time></trkpt><trkpt lat="40.8165222" lon="-3.6365758"><ele>871.0</ele><time>2026-03-23T09:33:17.712Z</time></trkpt><trkpt lat="40.8166334" lon="-3.6365031"><ele>871.0</ele><time>2026-03-23T09:33:18.692Z</time></trkpt><trkpt lat="40.8167456" lon="-3.6364395"><ele>871.0</ele><time>2026-03-23T09:33:19.688Z</time></trkpt><trkpt lat="40.8168551" lon="-3.636381"><ele>871.0</ele><time>2026-03-23T09:33:20.709Z</time></trkpt><trkpt lat="40.8169664" lon="-3.6363256"><ele>871.0</ele><time>2026-03-23T09:33:21.71Z</time></trkpt><trkpt lat="40.8170676" lon="-3.636282"><ele>870.8333333333333</ele><time>2026-03-23T09:33:22.707Z</time></trkpt><trkpt lat="40.8171533" lon="-3.6362317"><ele>870.6666666666666</ele><time>2026-03-23T09:33:23.697Z</time></trkpt><trkpt lat="40.8172293" lon="-3.6361878"><ele>870.5</ele><time>2026-03-23T09:33:24.715Z</time></trkpt><trkpt lat="40.8173023" lon="-3.6361431"><ele>870.3333333333333</ele><time>2026-03-23T09:33:25.7Z</time></trkpt><trkpt lat="40.8173701" lon="-3.6360898"><ele>870.1666666666666</ele><time>2026-03-23T09:33:26.708Z</time></trkpt><trkpt lat="40.8174387" lon="-3.6360315"><ele>870.0</ele><time>2026-03-23T09:33:27.713Z</time></trkpt><trkpt lat="40.8175144" lon="-3.6359597"><ele>870.6</ele><time>2026-03-23T09:33:28.717Z</time></trkpt><trkpt lat="40.8175936" lon="-3.6358787"><ele>871.2</ele><time>2026-03-23T09:33:29.712Z</time></trkpt><trkpt lat="40.8176749" lon="-3.6358041"><ele>871.8</ele><time>2026-03-23T09:33:30.71Z</time></trkpt><trkpt lat="40.8177521" lon="-3.6357276"><ele>872.4</ele><time>2026-03-23T09:33:31.714Z</time></trkpt><trkpt lat="40.8178259" lon="-3.6356438"><ele>873.0</ele><time>2026-03-23T09:33:32.721Z</time></trkpt><trkpt lat="40.8178888" lon="-3.635553"><ele>873.0</ele><time>2026-03-23T09:33:33.721Z</time></trkpt><trkpt lat="40.8179507" lon="-3.6354643"><ele>873.0</ele><time>2026-03-23T09:33:34.69Z</time></trkpt><trkpt lat="40.8180176" lon="-3.6353722"><ele>873.0</ele><time>2026-03-23T09:33:35.698Z</time></trkpt><trkpt lat="40.8180893" lon="-3.6352833"><ele>873.0</ele><time>2026-03-23T09:33:36.715Z</time></trkpt><trkpt lat="40.8181638" lon="-3.6352011"><ele>873.0</ele><time>2026-03-23T09:33:37.708Z</time></trkpt><trkpt lat="40.8182396" lon="-3.6351265"><ele>873.8</ele><time>2026-03-23T09:33:38.693Z</time></trkpt><trkpt lat="40.8183222" lon="-3.6350525"><ele>874.5999999999999</ele><time>2026-03-23T09:33:39.705Z</time></trkpt><trkpt lat="40.8184022" lon="-3.6349847"><ele>875.4000000000001</ele><time>2026-03-23T09:33:40.716Z</time></trkpt><trkpt lat="40.8184833" lon="-3.6349194"><ele>876.2</ele><time>2026-03-23T09:33:41.706Z</time></trkpt><trkpt lat="40.8185645" lon="-3.6348497"><ele>877.0</ele><time>2026-03-23T09:33:42.692Z</time></trkpt><trkpt lat="40.8186366" lon="-3.6347676"><ele>877.0</ele><time>2026-03-23T09:33:43.705Z</time></trkpt><trkpt lat="40.8187114" lon="-3.6346835"><ele>877.0</ele><time>2026-03-23T09:33:44.715Z</time></trkpt><trkpt lat="40.8187822" lon="-3.6345912"><ele>877.0</ele><time>2026-03-23T09:33:45.782Z</time></trkpt><trkpt lat="40.8188539" lon="-3.6344909"><ele>877.0</ele><time>2026-03-23T09:33:46.729Z</time></trkpt><trkpt lat="40.8189193" lon="-3.634391"><ele>877.0</ele><time>2026-03-23T09:33:47.744Z</time></trkpt><trkpt lat="40.8189859" lon="-3.6342909"><ele>878.75</ele><time>2026-03-23T09:33:48.708Z</time></trkpt><trkpt lat="40.8190508" lon="-3.6341892"><ele>880.5</ele><time>2026-03-23T09:33:49.853Z</time></trkpt><trkpt lat="40.8191721" lon="-3.6339714"><ele>882.25</ele><time>2026-03-23T09:33:51.721Z</time></trkpt><trkpt lat="40.8192354" lon="-3.6338568"><ele>884.0</ele><time>2026-03-23T09:33:52.723Z</time></trkpt><trkpt lat="40.8193001" lon="-3.6337411"><ele>884.0</ele><time>2026-03-23T09:33:53.718Z</time></trkpt><trkpt lat="40.819367" lon="-3.6336269"><ele>884.0000000000001</ele><time>2026-03-23T09:33:54.857Z</time></trkpt><trkpt lat="40.8194341" lon="-3.6335057"><ele>884.0000000000001</ele><time>2026-03-23T09:33:55.783Z</time></trkpt><trkpt lat="40.8195046" lon="-3.6333959"><ele>884.0</ele><time>2026-03-23T09:33:56.694Z</time></trkpt><trkpt lat="40.8195713" lon="-3.6332738"><ele>884.0</ele><time>2026-03-23T09:33:57.701Z</time></trkpt><trkpt lat="40.8196449" lon="-3.6331541"><ele>884.0</ele><time>2026-03-23T09:33:58.698Z</time></trkpt><trkpt lat="40.8197254" lon="-3.6330258"><ele>884.0</ele><time>2026-03-23T09:33:59.698Z</time></trkpt><trkpt lat="40.8198024" lon="-3.6329018"><ele>884.0</ele><time>2026-03-23T09:34:00.695Z</time></trkpt><trkpt lat="40.8198763" lon="-3.6327694"><ele>884.0</ele><time>2026-03-23T09:34:01.698Z</time></trkpt><trkpt lat="40.8199352" lon="-3.6326296"><ele>885.75</ele><time>2026-03-23T09:34:02.713Z</time></trkpt><trkpt lat="40.8199917" lon="-3.632491"><ele>887.5</ele><time>2026-03-23T09:34:03.692Z</time></trkpt><trkpt lat="40.8200456" lon="-3.6323547"><ele>889.25</ele><time>2026-03-23T09:34:04.712Z</time></trkpt><trkpt lat="40.820093" lon="-3.63222"><ele>891.0</ele><time>2026-03-23T09:34:05.698Z</time></trkpt><trkpt lat="40.8201404" lon="-3.6320894"><ele>890.5999999999999</ele><time>2026-03-23T09:34:06.692Z</time></trkpt><trkpt lat="40.8201873" lon="-3.631961"><ele>890.1999999999999</ele><time>2026-03-23T09:34:07.714Z</time></trkpt><trkpt lat="40.8202279" lon="-3.6318332"><ele>889.8000000000001</ele><time>2026-03-23T09:34:08.691Z</time></trkpt><trkpt lat="40.8202652" lon="-3.631703"><ele>889.4000000000001</ele><time>2026-03-23T09:34:09.714Z</time></trkpt><trkpt lat="40.820299" lon="-3.6315735"><ele>889.0</ele><time>2026-03-23T09:34:10.7Z</time></trkpt><trkpt lat="40.8203375" lon="-3.6314439"><ele>889.0</ele><time>2026-03-23T09:34:11.697Z</time></trkpt><trkpt lat="40.8203764" lon="-3.6313135"><ele>889.0000000000001</ele><time>2026-03-23T09:34:12.702Z</time></trkpt><trkpt lat="40.8204032" lon="-3.6311871"><ele>889.0000000000001</ele><time>2026-03-23T09:34:13.715Z</time></trkpt><trkpt lat="40.8204167" lon="-3.6310596"><ele>889.0</ele><time>2026-03-23T09:34:14.703Z</time></trkpt><trkpt lat="40.8204259" lon="-3.6309359"><ele>889.0</ele><time>2026-03-23T09:34:15.714Z</time></trkpt><trkpt lat="40.8204354" lon="-3.6308186"><ele>889.8333333333333</ele><time>2026-03-23T09:34:16.718Z</time></trkpt><trkpt lat="40.8204507" lon="-3.6307177"><ele>890.6666666666666</ele><time>2026-03-23T09:34:17.713Z</time></trkpt><trkpt lat="40.8204681" lon="-3.6306221"><ele>891.5</ele><time>2026-03-23T09:34:18.708Z</time></trkpt><trkpt lat="40.8205206" lon="-3.6304812"><ele>892.3333333333333</ele><time>2026-03-23T09:34:20.707Z</time></trkpt><trkpt lat="40.8205619" lon="-3.6304128"><ele>893.1666666666666</ele><time>2026-03-23T09:34:21.707Z</time></trkpt><trkpt lat="40.8206192" lon="-3.6303443"><ele>894.0</ele><time>2026-03-23T09:34:22.721Z</time></trkpt><trkpt lat="40.8206784" lon="-3.6302778"><ele>894.4000000000001</ele><time>2026-03-23T09:34:23.699Z</time></trkpt><trkpt lat="40.8207423" lon="-3.6301936"><ele>894.8000000000001</ele><time>2026-03-23T09:34:24.685Z</time></trkpt><trkpt lat="40.8208043" lon="-3.630093"><ele>895.1999999999999</ele><time>2026-03-23T09:34:25.695Z</time></trkpt><trkpt lat="40.8208701" lon="-3.6299857"><ele>895.5999999999999</ele><time>2026-03-23T09:34:26.678Z</time></trkpt><trkpt lat="40.8209379" lon="-3.6298677"><ele>896.0</ele><time>2026-03-23T09:34:27.689Z</time></trkpt><trkpt lat="40.8210035" lon="-3.6297451"><ele>896.0</ele><time>2026-03-23T09:34:28.692Z</time></trkpt><trkpt lat="40.8210675" lon="-3.629614"><ele>896.0</ele><time>2026-03-23T09:34:29.691Z</time></trkpt><trkpt lat="40.8211273" lon="-3.6294736"><ele>896.0</ele><time>2026-03-23T09:34:30.707Z</time></trkpt><trkpt lat="40.8211835" lon="-3.6293388"><ele>896.0</ele><time>2026-03-23T09:34:31.71Z</time></trkpt><trkpt lat="40.8212329" lon="-3.6291994"><ele>896.5999999999999</ele><time>2026-03-23T09:34:32.688Z</time></trkpt><trkpt lat="40.8212791" lon="-3.6290503"><ele>897.1999999999999</ele><time>2026-03-23T09:34:33.693Z</time></trkpt><trkpt lat="40.8213113" lon="-3.6289124"><ele>897.8000000000001</ele><time>2026-03-23T09:34:34.7Z</time></trkpt><trkpt lat="40.8213347" lon="-3.6287984"><ele>898.4000000000001</ele><time>2026-03-23T09:34:35.718Z</time></trkpt><trkpt lat="40.8213531" lon="-3.6286949"><ele>899.0</ele><time>2026-03-23T09:34:36.691Z</time></trkpt><trkpt lat="40.8213747" lon="-3.628609"><ele>899.8000000000001</ele><time>2026-03-23T09:34:37.709Z</time></trkpt><trkpt lat="40.8214321" lon="-3.6284874"><ele>900.6000000000001</ele><time>2026-03-23T09:34:39.715Z</time></trkpt><trkpt lat="40.8214926" lon="-3.6284604"><ele>901.4</ele><time>2026-03-23T09:34:41.704Z</time></trkpt><trkpt lat="40.8215571" lon="-3.6285353"><ele>902.2</ele><time>2026-03-23T09:34:45.708Z</time></trkpt><trkpt lat="40.8216477" lon="-3.6285105"><ele>903.0</ele><time>2026-03-23T09:35:06.708Z</time></trkpt><trkpt lat="40.821721" lon="-3.6283926"><ele>903.0</ele><time>2026-03-23T09:35:08.705Z</time></trkpt><trkpt lat="40.8217597" lon="-3.6283203"><ele>903.0</ele><time>2026-03-23T09:35:09.706Z</time></trkpt><trkpt lat="40.821806" lon="-3.6282482"><ele>903.0</ele><time>2026-03-23T09:35:10.708Z</time></trkpt><trkpt lat="40.8218526" lon="-3.6281683"><ele>903.0</ele><time>2026-03-23T09:35:11.778Z</time></trkpt><trkpt lat="40.8218968" lon="-3.6280795"><ele>903.0</ele><time>2026-03-23T09:35:12.713Z</time></trkpt><trkpt lat="40.8219305" lon="-3.6280038"><ele>903.0</ele><time>2026-03-23T09:35:13.722Z</time></trkpt><trkpt lat="40.8219562" lon="-3.6278959"><ele>903.0</ele><time>2026-03-23T09:35:15.795Z</time></trkpt><trkpt lat="40.8219366" lon="-3.6277825"><ele>903.6666666666666</ele><time>2026-03-23T09:35:17.703Z</time></trkpt><trkpt lat="40.8219369" lon="-3.6276985"><ele>904.3333333333333</ele><time>2026-03-23T09:35:18.707Z</time></trkpt><trkpt lat="40.8219878" lon="-3.6275721"><ele>905.0</ele><time>2026-03-23T09:35:20.71Z</time></trkpt><trkpt lat="40.822088" lon="-3.6275389"><ele>905.6666666666666</ele><time>2026-03-23T09:35:22.764Z</time></trkpt><trkpt lat="40.8221532" lon="-3.6275787"><ele>906.3333333333333</ele><time>2026-03-23T09:35:23.708Z</time></trkpt><trkpt lat="40.8222321" lon="-3.6276333"><ele>907.0</ele><time>2026-03-23T09:35:24.712Z</time></trkpt><trkpt lat="40.8223129" lon="-3.627674"><ele>907.0</ele><time>2026-03-23T09:35:25.729Z</time></trkpt><trkpt lat="40.8224025" lon="-3.627705"><ele>907.0</ele><time>2026-03-23T09:35:26.69Z</time></trkpt><trkpt lat="40.8225039" lon="-3.6277357"><ele>907.0</ele><time>2026-03-23T09:35:27.708Z</time></trkpt><trkpt lat="40.822617" lon="-3.6277719"><ele>907.0</ele><time>2026-03-23T09:35:28.71Z</time></trkpt><trkpt lat="40.822737" lon="-3.6278086"><ele>907.0</ele><time>2026-03-23T09:35:29.713Z</time></trkpt><trkpt lat="40.8228618" lon="-3.6278448"><ele>907.0</ele><time>2026-03-23T09:35:30.711Z</time></trkpt><trkpt lat="40.8229895" lon="-3.6278831"><ele>907.0</ele><time>2026-03-23T09:35:31.708Z</time></trkpt><trkpt lat="40.8231161" lon="-3.6279207"><ele>907.0</ele><time>2026-03-23T09:35:32.704Z</time></trkpt><trkpt lat="40.8232444" lon="-3.6279685"><ele>907.0</ele><time>2026-03-23T09:35:33.714Z</time></trkpt><trkpt lat="40.8233782" lon="-3.6280147"><ele>908.25</ele><time>2026-03-23T09:35:34.693Z</time></trkpt><trkpt lat="40.8235086" lon="-3.628061"><ele>909.5</ele><time>2026-03-23T09:35:35.705Z</time></trkpt><trkpt lat="40.8236371" lon="-3.6281038"><ele>910.75</ele><time>2026-03-23T09:35:36.719Z</time></trkpt><trkpt lat="40.8237712" lon="-3.628148"><ele>912.0</ele><time>2026-03-23T09:35:37.701Z</time></trkpt><trkpt lat="40.8239071" lon="-3.6281931"><ele>912.0</ele><time>2026-03-23T09:35:38.713Z</time></trkpt><trkpt lat="40.8240447" lon="-3.6282404"><ele>912.0</ele><time>2026-03-23T09:35:39.699Z</time></trkpt><trkpt lat="40.8241706" lon="-3.6282826"><ele>912.0</ele><time>2026-03-23T09:35:40.687Z</time></trkpt><trkpt lat="40.8242837" lon="-3.6283209"><ele>912.0</ele><time>2026-03-23T09:35:41.689Z</time></trkpt><trkpt lat="40.8243871" lon="-3.6283564"><ele>912.6666666666666</ele><time>2026-03-23T09:35:42.686Z</time></trkpt><trkpt lat="40.824487" lon="-3.6283867"><ele>913.3333333333333</ele><time>2026-03-23T09:35:43.707Z</time></trkpt><trkpt lat="40.824582" lon="-3.6284178"><ele>914.0</ele><time>2026-03-23T09:35:44.686Z</time></trkpt><trkpt lat="40.8246691" lon="-3.628448"><ele>914.6666666666666</ele><time>2026-03-23T09:35:45.705Z</time></trkpt><trkpt lat="40.8247509" lon="-3.6284603"><ele>915.3333333333333</ele><time>2026-03-23T09:35:46.714Z</time></trkpt><trkpt lat="40.8248214" lon="-3.6284579"><ele>916.0</ele><time>2026-03-23T09:35:47.686Z</time></trkpt><trkpt lat="40.8249576" lon="-3.6284605"><ele>915.9999999999999</ele><time>2026-03-23T09:35:49.692Z</time></trkpt><trkpt lat="40.825029" lon="-3.6284753"><ele>916.0</ele><time>2026-03-23T09:35:50.719Z</time></trkpt><trkpt lat="40.8250937" lon="-3.6284798"><ele>916.0</ele><time>2026-03-23T09:35:51.707Z</time></trkpt><trkpt lat="40.8251888" lon="-3.6284796"><ele>916.0</ele><time>2026-03-23T09:35:53.691Z</time></trkpt><trkpt lat="40.8252522" lon="-3.6284758"><ele>915.9999999999999</ele><time>2026-03-23T09:35:55.702Z</time></trkpt><trkpt lat="40.8253343" lon="-3.6284392"><ele>916.0</ele><time>2026-03-23T09:35:58.702Z</time></trkpt><trkpt lat="40.8254126" lon="-3.6284039"><ele>916.8</ele><time>2026-03-23T09:36:00.709Z</time></trkpt><trkpt lat="40.8254829" lon="-3.6283423"><ele>917.5999999999999</ele><time>2026-03-23T09:36:03.702Z</time></trkpt><trkpt lat="40.8255866" lon="-3.6282757"><ele>918.4</ele><time>2026-03-23T09:36:05.702Z</time></trkpt><trkpt lat="40.825677" lon="-3.6282081"><ele>919.2</ele><time>2026-03-23T09:36:07.7Z</time></trkpt><trkpt lat="40.825741" lon="-3.628161"><ele>920.0</ele><time>2026-03-23T09:36:09.705Z</time></trkpt><trkpt lat="40.8258033" lon="-3.6280931"><ele>920.0000000000001</ele><time>2026-03-23T09:36:12.713Z</time></trkpt><trkpt lat="40.8258574" lon="-3.6280404"><ele>920.0</ele><time>2026-03-23T09:36:15.713Z</time></trkpt><trkpt lat="40.8259644" lon="-3.6279564"><ele>920.0</ele><time>2026-03-23T09:36:18.711Z</time></trkpt><trkpt lat="40.8260242" lon="-3.6278904"><ele>920.0</ele><time>2026-03-23T09:36:20.711Z</time></trkpt><trkpt lat="40.8260806" lon="-3.6278319"><ele>920.0000000000001</ele><time>2026-03-23T09:36:24.698Z</time></trkpt><trkpt lat="40.8261506" lon="-3.6277666"><ele>920.0</ele><time>2026-03-23T09:36:26.703Z</time></trkpt><trkpt lat="40.8262288" lon="-3.6277093"><ele>919.5000000000001</ele><time>2026-03-23T09:36:28.695Z</time></trkpt><trkpt lat="40.8262886" lon="-3.6276569"><ele>919.0</ele><time>2026-03-23T09:36:30.694Z</time></trkpt><trkpt lat="40.8263647" lon="-3.6275968"><ele>918.5</ele><time>2026-03-23T09:36:32.707Z</time></trkpt><trkpt lat="40.8264521" lon="-3.627532"><ele>918.0</ele><time>2026-03-23T09:36:34.693Z</time></trkpt><trkpt lat="40.8265283" lon="-3.6274715"><ele>917.5000000000001</ele><time>2026-03-23T09:36:36.703Z</time></trkpt><trkpt lat="40.8265972" lon="-3.6274087"><ele>917.0</ele><time>2026-03-23T09:36:39.705Z</time></trkpt><trkpt lat="40.8266599" lon="-3.6273457"><ele>917.0000000000001</ele><time>2026-03-23T09:36:42.705Z</time></trkpt><trkpt lat="40.8267213" lon="-3.6272901"><ele>917.0</ele><time>2026-03-23T09:36:44.713Z</time></trkpt><trkpt lat="40.8267965" lon="-3.6272308"><ele>917.0</ele><time>2026-03-23T09:36:46.711Z</time></trkpt><trkpt lat="40.8268597" lon="-3.6271857"><ele>917.0</ele><time>2026-03-23T09:36:48.714Z</time></trkpt><trkpt lat="40.8269315" lon="-3.6271396"><ele>917.0000000000001</ele><time>2026-03-23T09:36:50.692Z</time></trkpt><trkpt lat="40.8270282" lon="-3.6270564"><ele>917.0</ele><time>2026-03-23T09:36:52.707Z</time></trkpt><trkpt lat="40.8270837" lon="-3.6270088"><ele>917.6666666666667</ele><time>2026-03-23T09:36:53.708Z</time></trkpt><trkpt lat="40.8271418" lon="-3.6269649"><ele>918.3333333333334</ele><time>2026-03-23T09:36:54.738Z</time></trkpt><trkpt lat="40.8271929" lon="-3.6269151"><ele>919.0</ele><time>2026-03-23T09:36:55.684Z</time></trkpt><trkpt lat="40.8272606" lon="-3.6268677"><ele>919.6666666666667</ele><time>2026-03-23T09:36:56.691Z</time></trkpt><trkpt lat="40.8273413" lon="-3.6268095"><ele>920.3333333333334</ele><time>2026-03-23T09:36:57.725Z</time></trkpt><trkpt lat="40.8274256" lon="-3.6267439"><ele>921.0</ele><time>2026-03-23T09:36:58.703Z</time></trkpt><trkpt lat="40.8275179" lon="-3.626677"><ele>921.0</ele><time>2026-03-23T09:36:59.705Z</time></trkpt><trkpt lat="40.82761" lon="-3.6266083"><ele>921.0</ele><time>2026-03-23T09:37:00.697Z</time></trkpt><trkpt lat="40.8277072" lon="-3.6265275"><ele>921.0</ele><time>2026-03-23T09:37:01.704Z</time></trkpt><trkpt lat="40.8277998" lon="-3.6264418"><ele>921.0</ele><time>2026-03-23T09:37:02.708Z</time></trkpt><trkpt lat="40.8278912" lon="-3.626346"><ele>921.5999999999999</ele><time>2026-03-23T09:37:03.701Z</time></trkpt><trkpt lat="40.8279889" lon="-3.6262526"><ele>922.1999999999999</ele><time>2026-03-23T09:37:04.709Z</time></trkpt><trkpt lat="40.8280845" lon="-3.6261838"><ele>922.8000000000001</ele><time>2026-03-23T09:37:05.713Z</time></trkpt><trkpt lat="40.828174" lon="-3.6261248"><ele>923.4000000000001</ele><time>2026-03-23T09:37:06.706Z</time></trkpt><trkpt lat="40.8282749" lon="-3.6260734"><ele>924.0</ele><time>2026-03-23T09:37:07.69Z</time></trkpt><trkpt lat="40.8283875" lon="-3.6260428"><ele>923.25</ele><time>2026-03-23T09:37:08.717Z</time></trkpt><trkpt lat="40.8284984" lon="-3.6260189"><ele>922.5</ele><time>2026-03-23T09:37:09.718Z</time></trkpt><trkpt lat="40.828616" lon="-3.6259989"><ele>921.75</ele><time>2026-03-23T09:37:10.704Z</time></trkpt><trkpt lat="40.8287271" lon="-3.6259795"><ele>921.0</ele><time>2026-03-23T09:37:11.701Z</time></trkpt><trkpt lat="40.8288403" lon="-3.6259707"><ele>921.0</ele><time>2026-03-23T09:37:12.708Z</time></trkpt><trkpt lat="40.8289468" lon="-3.625955"><ele>921.0</ele><time>2026-03-23T09:37:13.714Z</time></trkpt><trkpt lat="40.8290425" lon="-3.6259495"><ele>921.0</ele><time>2026-03-23T09:37:14.714Z</time></trkpt><trkpt lat="40.8291281" lon="-3.6259378"><ele>921.0</ele><time>2026-03-23T09:37:15.71Z</time></trkpt><trkpt lat="40.8292056" lon="-3.6259328"><ele>921.0</ele><time>2026-03-23T09:37:16.705Z</time></trkpt><trkpt lat="40.8292713" lon="-3.6259301"><ele>921.0</ele><time>2026-03-23T09:37:17.703Z</time></trkpt><trkpt lat="40.8293636" lon="-3.6258971"><ele>921.1666666666666</ele><time>2026-03-23T09:37:19.72Z</time></trkpt><trkpt lat="40.8293817" lon="-3.6258141"><ele>921.3333333333333</ele><time>2026-03-23T09:37:21.703Z</time></trkpt><trkpt lat="40.8293905" lon="-3.6257096"><ele>921.5</ele><time>2026-03-23T09:37:24.711Z</time></trkpt><trkpt lat="40.8294692" lon="-3.6256496"><ele>921.6666666666666</ele><time>2026-03-23T09:37:26.704Z</time></trkpt><trkpt lat="40.8295513" lon="-3.6256555"><ele>921.8333333333333</ele><time>2026-03-23T09:37:29.705Z</time></trkpt><trkpt lat="40.8295825" lon="-3.6257339"><ele>922.0</ele><time>2026-03-23T09:39:45.693Z</time></trkpt><trkpt lat="40.8295904" lon="-3.6258298"><ele>921.9999999999999</ele><time>2026-03-23T09:39:49.72Z</time></trkpt><trkpt lat="40.8294989" lon="-3.6258699"><ele>922.0</ele><time>2026-03-23T09:39:51.697Z</time></trkpt><trkpt lat="40.8294347" lon="-3.6258787"><ele>922.0</ele><time>2026-03-23T09:39:52.698Z</time></trkpt><trkpt lat="40.8293578" lon="-3.6259033"><ele>922.0</ele><time>2026-03-23T09:39:53.692Z</time></trkpt><trkpt lat="40.8292651" lon="-3.6259241"><ele>921.9999999999999</ele><time>2026-03-23T09:39:54.706Z</time></trkpt><trkpt lat="40.8291774" lon="-3.6259391"><ele>922.0</ele><time>2026-03-23T09:39:55.687Z</time></trkpt><trkpt lat="40.8290877" lon="-3.6259493"><ele>921.8</ele><time>2026-03-23T09:39:56.695Z</time></trkpt><trkpt lat="40.8290015" lon="-3.625959"><ele>921.6</ele><time>2026-03-23T09:39:57.692Z</time></trkpt><trkpt lat="40.8289124" lon="-3.625968"><ele>921.3999999999999</ele><time>2026-03-23T09:39:58.715Z</time></trkpt><trkpt lat="40.8288187" lon="-3.6259781"><ele>921.1999999999999</ele><time>2026-03-23T09:39:59.712Z</time></trkpt><trkpt lat="40.8287241" lon="-3.6259916"><ele>921.0</ele><time>2026-03-23T09:40:00.707Z</time></trkpt><trkpt lat="40.8286334" lon="-3.6260113"><ele>921.0</ele><time>2026-03-23T09:40:01.718Z</time></trkpt><trkpt lat="40.8285464" lon="-3.6260329"><ele>921.0</ele><time>2026-03-23T09:40:02.73Z</time></trkpt><trkpt lat="40.8284764" lon="-3.6260437"><ele>921.0</ele><time>2026-03-23T09:40:03.721Z</time></trkpt><trkpt lat="40.8284083" lon="-3.6260553"><ele>921.0</ele><time>2026-03-23T09:40:04.702Z</time></trkpt><trkpt lat="40.8283376" lon="-3.6260763"><ele>921.0</ele><time>2026-03-23T09:40:05.713Z</time></trkpt><trkpt lat="40.8282546" lon="-3.6261022"><ele>921.0</ele><time>2026-03-23T09:40:06.72Z</time></trkpt><trkpt lat="40.8281769" lon="-3.6261469"><ele>921.5</ele><time>2026-03-23T09:40:07.721Z</time></trkpt><trkpt lat="40.8281023" lon="-3.6261958"><ele>922.0</ele><time>2026-03-23T09:40:08.705Z</time></trkpt><trkpt lat="40.8280204" lon="-3.6262609"><ele>922.5</ele><time>2026-03-23T09:40:09.716Z</time></trkpt><trkpt lat="40.8279502" lon="-3.6263261"><ele>923.0</ele><time>2026-03-23T09:40:10.711Z</time></trkpt><trkpt lat="40.8278903" lon="-3.6263809"><ele>923.5</ele><time>2026-03-23T09:40:11.707Z</time></trkpt><trkpt lat="40.827832" lon="-3.6264136"><ele>924.0</ele><time>2026-03-23T09:40:12.7Z</time></trkpt><trkpt lat="40.8277445" lon="-3.626423"><ele>924.0</ele><time>2026-03-23T09:40:14.713Z</time></trkpt><trkpt lat="40.8277404" lon="-3.6263135"><ele>924.0</ele><time>2026-03-23T09:40:16.71Z</time></trkpt><trkpt lat="40.827782" lon="-3.6262162"><ele>924.0</ele><time>2026-03-23T09:40:17.721Z</time></trkpt><trkpt lat="40.8278391" lon="-3.6261264"><ele>924.0</ele><time>2026-03-23T09:40:18.71Z</time></trkpt><trkpt lat="40.8279019" lon="-3.6260688"><ele>924.0</ele><time>2026-03-23T09:40:19.711Z</time></trkpt><trkpt lat="40.827973" lon="-3.6260144"><ele>924.0</ele><time>2026-03-23T09:40:20.701Z</time></trkpt><trkpt lat="40.8280405" lon="-3.6259686"><ele>922.8000000000001</ele><time>2026-03-23T09:40:21.706Z</time></trkpt><trkpt lat="40.8280996" lon="-3.6259125"><ele>921.6000000000001</ele><time>2026-03-23T09:40:22.7Z</time></trkpt><trkpt lat="40.8281417" lon="-3.6258465"><ele>920.4</ele><time>2026-03-23T09:40:23.696Z</time></trkpt><trkpt lat="40.8281639" lon="-3.6257047"><ele>919.2</ele><time>2026-03-23T09:40:25.716Z</time></trkpt><trkpt lat="40.8281329" lon="-3.6255697"><ele>918.0</ele><time>2026-03-23T09:40:27.703Z</time></trkpt><trkpt lat="40.8280908" lon="-3.6254059"><ele>917.0</ele><time>2026-03-23T09:40:29.694Z</time></trkpt><trkpt lat="40.828072" lon="-3.6253075"><ele>916.0</ele><time>2026-03-23T09:40:30.683Z</time></trkpt><trkpt lat="40.8280504" lon="-3.6252116"><ele>915.0</ele><time>2026-03-23T09:40:31.704Z</time></trkpt><trkpt lat="40.8280219" lon="-3.6250779"><ele>914.0</ele><time>2026-03-23T09:40:33.694Z</time></trkpt><trkpt lat="40.8279905" lon="-3.6249804"><ele>913.0</ele><time>2026-03-23T09:40:35.699Z</time></trkpt><trkpt lat="40.8280193" lon="-3.6250804"><ele>912.0</ele><time>2026-03-23T09:40:48.686Z</time></trkpt><trkpt lat="40.8280446" lon="-3.6251672"><ele>912.0</ele><time>2026-03-23T09:40:49.693Z</time></trkpt><trkpt lat="40.8280649" lon="-3.6252608"><ele>912.0</ele><time>2026-03-23T09:40:50.68Z</time></trkpt><trkpt lat="40.8280898" lon="-3.6253678"><ele>912.0</ele><time>2026-03-23T09:40:51.689Z</time></trkpt><trkpt lat="40.8281153" lon="-3.6254812"><ele>912.0</ele><time>2026-03-23T09:40:52.69Z</time></trkpt><trkpt lat="40.8281306" lon="-3.6255832"><ele>912.0</ele><time>2026-03-23T09:40:53.698Z</time></trkpt><trkpt lat="40.8281548" lon="-3.6257343"><ele>912.0</ele><time>2026-03-23T09:40:55.71Z</time></trkpt><trkpt lat="40.8281414" lon="-3.625853"><ele>913.2</ele><time>2026-03-23T09:40:57.703Z</time></trkpt><trkpt lat="40.8280768" lon="-3.6259405"><ele>914.4000000000001</ele><time>2026-03-23T09:40:59.691Z</time></trkpt><trkpt lat="40.8279825" lon="-3.6260191"><ele>915.5999999999999</ele><time>2026-03-23T09:41:01.698Z</time></trkpt><trkpt lat="40.8278706" lon="-3.6260936"><ele>916.8</ele><time>2026-03-23T09:41:03.711Z</time></trkpt><trkpt lat="40.8278045" lon="-3.6261832"><ele>918.0</ele><time>2026-03-23T09:41:05.7Z</time></trkpt><trkpt lat="40.827758" lon="-3.626318"><ele>918.5</ele><time>2026-03-23T09:41:07.71Z</time></trkpt><trkpt lat="40.8277284" lon="-3.6264089"><ele>919.0</ele><time>2026-03-23T09:41:09.71Z</time></trkpt><trkpt lat="40.8276945" lon="-3.626494"><ele>919.5</ele><time>2026-03-23T09:41:11.707Z</time></trkpt><trkpt lat="40.8276091" lon="-3.6265878"><ele>920.0</ele><time>2026-03-23T09:41:13.71Z</time></trkpt><trkpt lat="40.8275311" lon="-3.6266472"><ele>920.5</ele><time>2026-03-23T09:41:15.709Z</time></trkpt><trkpt lat="40.827456" lon="-3.6266292"><ele>921.0</ele><time>2026-03-23T09:41:17.689Z</time></trkpt><trkpt lat="40.8273976" lon="-3.6264839"><ele>921.0</ele><time>2026-03-23T09:41:19.692Z</time></trkpt><trkpt lat="40.827363" lon="-3.6263198"><ele>920.9999999999999</ele><time>2026-03-23T09:41:21.701Z</time></trkpt><trkpt lat="40.827349" lon="-3.6262216"><ele>920.9999999999999</ele><time>2026-03-23T09:41:22.689Z</time></trkpt><trkpt lat="40.8273273" lon="-3.6261065"><ele>921.0</ele><time>2026-03-23T09:41:23.702Z</time></trkpt><trkpt lat="40.8272955" lon="-3.6259793"><ele>921.0</ele><time>2026-03-23T09:41:24.71Z</time></trkpt><trkpt lat="40.8272639" lon="-3.6258364"><ele>920.0</ele><time>2026-03-23T09:41:25.71Z</time></trkpt><trkpt lat="40.8272265" lon="-3.6256967"><ele>918.9999999999999</ele><time>2026-03-23T09:41:26.707Z</time></trkpt><trkpt lat="40.8271927" lon="-3.6255547"><ele>917.9999999999999</ele><time>2026-03-23T09:41:27.705Z</time></trkpt><trkpt lat="40.8271614" lon="-3.6254089"><ele>917.0</ele><time>2026-03-23T09:41:28.702Z</time></trkpt><trkpt lat="40.8271364" lon="-3.625272"><ele>916.0</ele><time>2026-03-23T09:41:29.7Z</time></trkpt><trkpt lat="40.82711" lon="-3.6251356"><ele>914.8</ele><time>2026-03-23T09:41:30.701Z</time></trkpt><trkpt lat="40.8270791" lon="-3.6250017"><ele>913.5999999999999</ele><time>2026-03-23T09:41:31.707Z</time></trkpt><trkpt lat="40.8270453" lon="-3.6248648"><ele>912.4</ele><time>2026-03-23T09:41:32.698Z</time></trkpt><trkpt lat="40.8270123" lon="-3.6247318"><ele>911.2</ele><time>2026-03-23T09:41:33.701Z</time></trkpt><trkpt lat="40.8269855" lon="-3.6245985"><ele>910.0</ele><time>2026-03-23T09:41:34.714Z</time></trkpt><trkpt lat="40.826958" lon="-3.6244606"><ele>908.6</ele><time>2026-03-23T09:41:35.708Z</time></trkpt><trkpt lat="40.8269266" lon="-3.624324"><ele>907.2</ele><time>2026-03-23T09:41:36.699Z</time></trkpt><trkpt lat="40.8268996" lon="-3.6241838"><ele>905.8</ele><time>2026-03-23T09:41:37.71Z</time></trkpt><trkpt lat="40.8268702" lon="-3.6240494"><ele>904.4</ele><time>2026-03-23T09:41:38.693Z</time></trkpt><trkpt lat="40.8268413" lon="-3.6239095"><ele>903.0</ele><time>2026-03-23T09:41:39.698Z</time></trkpt><trkpt lat="40.8268109" lon="-3.6237638"><ele>901.0</ele><time>2026-03-23T09:41:40.697Z</time></trkpt><trkpt lat="40.8267768" lon="-3.6236132"><ele>899.0</ele><time>2026-03-23T09:41:41.692Z</time></trkpt><trkpt lat="40.8267483" lon="-3.6234728"><ele>897.0</ele><time>2026-03-23T09:41:42.701Z</time></trkpt><trkpt lat="40.8267203" lon="-3.6233359"><ele>895.0</ele><time>2026-03-23T09:41:43.712Z</time></trkpt><trkpt lat="40.8266932" lon="-3.6231997"><ele>893.0</ele><time>2026-03-23T09:41:44.708Z</time></trkpt><trkpt lat="40.8266725" lon="-3.6230738"><ele>893.0000000000001</ele><time>2026-03-23T09:41:45.706Z</time></trkpt><trkpt lat="40.8266566" lon="-3.622955"><ele>893.0</ele><time>2026-03-23T09:41:46.713Z</time></trkpt><trkpt lat="40.8266426" lon="-3.6228504"><ele>893.0</ele><time>2026-03-23T09:41:47.705Z</time></trkpt><trkpt lat="40.8266328" lon="-3.6227575"><ele>893.0</ele><time>2026-03-23T09:41:48.693Z</time></trkpt><trkpt lat="40.8266231" lon="-3.622668"><ele>893.0000000000001</ele><time>2026-03-23T09:41:49.709Z</time></trkpt><trkpt lat="40.8266152" lon="-3.6225848"><ele>893.0</ele><time>2026-03-23T09:41:50.708Z</time></trkpt><trkpt lat="40.8266022" lon="-3.6224342"><ele>892.0</ele><time>2026-03-23T09:41:52.708Z</time></trkpt><trkpt lat="40.8265865" lon="-3.622304"><ele>891.0</ele><time>2026-03-23T09:41:54.713Z</time></trkpt><trkpt lat="40.8265827" lon="-3.622159"><ele>890.0</ele><time>2026-03-23T09:41:56.705Z</time></trkpt><trkpt lat="40.8265754" lon="-3.6220006"><ele>889.0</ele><time>2026-03-23T09:41:58.707Z</time></trkpt><trkpt lat="40.8265647" lon="-3.6219095"><ele>888.0</ele><time>2026-03-23T09:41:59.713Z</time></trkpt><trkpt lat="40.8265558" lon="-3.6218154"><ele>887.3333333333334</ele><time>2026-03-23T09:42:00.706Z</time></trkpt><trkpt lat="40.8265485" lon="-3.6217284"><ele>886.6666666666667</ele><time>2026-03-23T09:42:01.701Z</time></trkpt><trkpt lat="40.8265441" lon="-3.6215802"><ele>886.0</ele><time>2026-03-23T09:42:03.702Z</time></trkpt><trkpt lat="40.8265389" lon="-3.6214413"><ele>885.3333333333334</ele><time>2026-03-23T09:42:05.706Z</time></trkpt><trkpt lat="40.8265329" lon="-3.6213464"><ele>884.6666666666667</ele><time>2026-03-23T09:42:07.681Z</time></trkpt><trkpt lat="40.8265194" lon="-3.6212459"><ele>884.0</ele><time>2026-03-23T09:42:09.701Z</time></trkpt><trkpt lat="40.8265097" lon="-3.6211164"><ele>882.6</ele><time>2026-03-23T09:42:11.702Z</time></trkpt><trkpt lat="40.8264848" lon="-3.6209864"><ele>881.2</ele><time>2026-03-23T09:42:13.714Z</time></trkpt><trkpt lat="40.8264662" lon="-3.620903"><ele>879.8000000000001</ele><time>2026-03-23T09:42:14.704Z</time></trkpt><trkpt lat="40.8264578" lon="-3.6208192"><ele>878.4000000000001</ele><time>2026-03-23T09:42:15.713Z</time></trkpt><trkpt lat="40.8264452" lon="-3.6206674"><ele>877.0</ele><time>2026-03-23T09:42:17.707Z</time></trkpt><trkpt lat="40.8264438" lon="-3.6204876"><ele>877.0</ele><time>2026-03-23T09:42:19.706Z</time></trkpt><trkpt lat="40.8264359" lon="-3.6203893"><ele>877.0</ele><time>2026-03-23T09:42:20.707Z</time></trkpt><trkpt lat="40.8264255" lon="-3.6202699"><ele>877.0</ele><time>2026-03-23T09:42:21.705Z</time></trkpt><trkpt lat="40.8264079" lon="-3.620145"><ele>877.0</ele><time>2026-03-23T09:42:22.698Z</time></trkpt><trkpt lat="40.8263964" lon="-3.6200043"><ele>877.0</ele><time>2026-03-23T09:42:23.708Z</time></trkpt><trkpt lat="40.826385" lon="-3.6198673"><ele>876.0</ele><time>2026-03-23T09:42:24.706Z</time></trkpt><trkpt lat="40.8263733" lon="-3.6197472"><ele>875.0</ele><time>2026-03-23T09:42:25.7Z</time></trkpt><trkpt lat="40.8263565" lon="-3.6196337"><ele>874.0</ele><time>2026-03-23T09:42:26.708Z</time></trkpt><trkpt lat="40.8263404" lon="-3.6194994"><ele>873.0</ele><time>2026-03-23T09:42:27.687Z</time></trkpt><trkpt lat="40.8263237" lon="-3.6193365"><ele>872.0</ele><time>2026-03-23T09:42:28.707Z</time></trkpt><trkpt lat="40.8263016" lon="-3.6191754"><ele>871.5</ele><time>2026-03-23T09:42:29.704Z</time></trkpt><trkpt lat="40.8262843" lon="-3.6190173"><ele>871.0</ele><time>2026-03-23T09:42:30.708Z</time></trkpt><trkpt lat="40.8262629" lon="-3.6188553"><ele>870.5</ele><time>2026-03-23T09:42:31.71Z</time></trkpt><trkpt lat="40.8262334" lon="-3.6186751"><ele>870.0</ele><time>2026-03-23T09:42:32.706Z</time></trkpt><trkpt lat="40.8262086" lon="-3.6184875"><ele>872.5</ele><time>2026-03-23T09:42:33.702Z</time></trkpt><trkpt lat="40.8261733" lon="-3.6183005"><ele>875.0</ele><time>2026-03-23T09:42:34.698Z</time></trkpt><trkpt lat="40.8261383" lon="-3.6181099"><ele>877.5</ele><time>2026-03-23T09:42:35.712Z</time></trkpt><trkpt lat="40.8260957" lon="-3.6179326"><ele>880.0</ele><time>2026-03-23T09:42:36.708Z</time></trkpt><trkpt lat="40.8260571" lon="-3.6177582"><ele>883.75</ele><time>2026-03-23T09:42:37.71Z</time></trkpt><trkpt lat="40.8260177" lon="-3.6175907"><ele>887.5</ele><time>2026-03-23T09:42:38.702Z</time></trkpt><trkpt lat="40.8259847" lon="-3.6174261"><ele>891.25</ele><time>2026-03-23T09:42:39.71Z</time></trkpt><trkpt lat="40.8259532" lon="-3.6172646"><ele>895.0</ele><time>2026-03-23T09:42:40.71Z</time></trkpt><trkpt lat="40.8259192" lon="-3.6171127"><ele>894.75</ele><time>2026-03-23T09:42:41.697Z</time></trkpt><trkpt lat="40.8258875" lon="-3.6169584"><ele>894.5</ele><time>2026-03-23T09:42:42.712Z</time></trkpt><trkpt lat="40.8258545" lon="-3.6168107"><ele>894.25</ele><time>2026-03-23T09:42:43.706Z</time></trkpt><trkpt lat="40.8258184" lon="-3.6166632"><ele>894.0</ele><time>2026-03-23T09:42:44.7Z</time></trkpt><trkpt lat="40.8257845" lon="-3.6165161"><ele>894.0</ele><time>2026-03-23T09:42:45.703Z</time></trkpt><trkpt lat="40.8257491" lon="-3.6163766"><ele>894.0</ele><time>2026-03-23T09:42:46.703Z</time></trkpt><trkpt lat="40.8257055" lon="-3.6162362"><ele>894.0</ele><time>2026-03-23T09:42:47.709Z</time></trkpt><trkpt lat="40.8256613" lon="-3.6160845"><ele>894.0</ele><time>2026-03-23T09:42:48.714Z</time></trkpt><trkpt lat="40.8256163" lon="-3.6159297"><ele>894.0</ele><time>2026-03-23T09:42:49.709Z</time></trkpt><trkpt lat="40.8255673" lon="-3.6157681"><ele>894.0</ele><time>2026-03-23T09:42:50.69Z</time></trkpt><trkpt lat="40.8255156" lon="-3.6156009"><ele>894.0</ele><time>2026-03-23T09:42:51.701Z</time></trkpt><trkpt lat="40.8254656" lon="-3.6154399"><ele>894.0</ele><time>2026-03-23T09:42:52.707Z</time></trkpt><trkpt lat="40.825417" lon="-3.6152787"><ele>894.5</ele><time>2026-03-23T09:42:53.702Z</time></trkpt><trkpt lat="40.8253699" lon="-3.6151186"><ele>895.0</ele><time>2026-03-23T09:42:54.698Z</time></trkpt><trkpt lat="40.8253308" lon="-3.6149627"><ele>895.5</ele><time>2026-03-23T09:42:55.71Z</time></trkpt><trkpt lat="40.8252992" lon="-3.6148149"><ele>896.0</ele><time>2026-03-23T09:42:56.701Z</time></trkpt><trkpt lat="40.8252796" lon="-3.6146689"><ele>896.0</ele><time>2026-03-23T09:42:57.706Z</time></trkpt><trkpt lat="40.8252656" lon="-3.6145151"><ele>895.9999999999999</ele><time>2026-03-23T09:42:58.699Z</time></trkpt><trkpt lat="40.8252602" lon="-3.6143608"><ele>895.9999999999999</ele><time>2026-03-23T09:42:59.713Z</time></trkpt><trkpt lat="40.8252505" lon="-3.6142321"><ele>896.0</ele><time>2026-03-23T09:43:00.707Z</time></trkpt><trkpt lat="40.8252441" lon="-3.6141367"><ele>896.0</ele><time>2026-03-23T09:43:01.699Z</time></trkpt><trkpt lat="40.8252121" lon="-3.6140477"><ele>896.1666666666667</ele><time>2026-03-23T09:43:03.716Z</time></trkpt><trkpt lat="40.8251586" lon="-3.6139989"><ele>896.3333333333334</ele><time>2026-03-23T09:43:05.718Z</time></trkpt><trkpt lat="40.8250668" lon="-3.6140132"><ele>896.5</ele><time>2026-03-23T09:43:07.698Z</time></trkpt><trkpt lat="40.8249583" lon="-3.6140019"><ele>896.6666666666667</ele><time>2026-03-23T09:43:09.684Z</time></trkpt><trkpt lat="40.8248946" lon="-3.6140021"><ele>896.8333333333334</ele><time>2026-03-23T09:43:10.698Z</time></trkpt><trkpt lat="40.824831" lon="-3.6139939"><ele>897.0</ele><time>2026-03-23T09:43:11.693Z</time></trkpt><trkpt lat="40.8247556" lon="-3.6140006"><ele>897.0</ele><time>2026-03-23T09:43:12.701Z</time></trkpt><trkpt lat="40.8246736" lon="-3.6139982"><ele>897.0</ele><time>2026-03-23T09:43:13.691Z</time></trkpt><trkpt lat="40.8245935" lon="-3.6139963"><ele>897.0</ele><time>2026-03-23T09:43:14.692Z</time></trkpt><trkpt lat="40.8245145" lon="-3.6140016"><ele>897.0</ele><time>2026-03-23T09:43:15.698Z</time></trkpt><trkpt lat="40.8244299" lon="-3.6140124"><ele>897.0</ele><time>2026-03-23T09:43:16.701Z</time></trkpt><trkpt lat="40.8243517" lon="-3.614023"><ele>897.0</ele><time>2026-03-23T09:43:17.7Z</time></trkpt><trkpt lat="40.8242779" lon="-3.6140237"><ele>895.6</ele><time>2026-03-23T09:43:18.705Z</time></trkpt><trkpt lat="40.8242123" lon="-3.6140252"><ele>894.2</ele><time>2026-03-23T09:43:19.706Z</time></trkpt><trkpt lat="40.8241486" lon="-3.6140263"><ele>892.8</ele><time>2026-03-23T09:43:20.708Z</time></trkpt><trkpt lat="40.8240332" lon="-3.6140473"><ele>891.4</ele><time>2026-03-23T09:43:22.709Z</time></trkpt><trkpt lat="40.823917" lon="-3.6140497"><ele>890.0</ele><time>2026-03-23T09:43:24.706Z</time></trkpt><trkpt lat="40.8238098" lon="-3.6140529"><ele>890.0000000000001</ele><time>2026-03-23T09:43:26.698Z</time></trkpt><trkpt lat="40.8236999" lon="-3.6140665"><ele>890.0</ele><time>2026-03-23T09:43:28.698Z</time></trkpt><trkpt lat="40.8236094" lon="-3.6140742"><ele>890.0</ele><time>2026-03-23T09:43:30.699Z</time></trkpt><trkpt lat="40.8235232" lon="-3.6140773"><ele>890.0</ele><time>2026-03-23T09:43:32.688Z</time></trkpt><trkpt lat="40.8234541" lon="-3.6140912"><ele>890.0000000000001</ele><time>2026-03-23T09:43:34.693Z</time></trkpt><trkpt lat="40.8233755" lon="-3.6141229"><ele>890.0</ele><time>2026-03-23T09:43:36.707Z</time></trkpt><trkpt lat="40.8233277" lon="-3.6142174"><ele>888.6</ele><time>2026-03-23T09:43:38.686Z</time></trkpt><trkpt lat="40.823277" lon="-3.6143126"><ele>887.2</ele><time>2026-03-23T09:43:40.701Z</time></trkpt><trkpt lat="40.8231899" lon="-3.6143902"><ele>885.8</ele><time>2026-03-23T09:43:42.71Z</time></trkpt><trkpt lat="40.8230992" lon="-3.6144784"><ele>884.4</ele><time>2026-03-23T09:43:44.697Z</time></trkpt><trkpt lat="40.8230455" lon="-3.6146005"><ele>883.0</ele><time>2026-03-23T09:43:46.701Z</time></trkpt><trkpt lat="40.8229944" lon="-3.6147245"><ele>882.8333333333333</ele><time>2026-03-23T09:43:48.711Z</time></trkpt><trkpt lat="40.8229724" lon="-3.6148152"><ele>882.6666666666666</ele><time>2026-03-23T09:43:50.706Z</time></trkpt><trkpt lat="40.8229484" lon="-3.614934"><ele>882.5</ele><time>2026-03-23T09:43:52.699Z</time></trkpt><trkpt lat="40.8228781" lon="-3.6150084"><ele>882.3333333333333</ele><time>2026-03-23T09:43:54.693Z</time></trkpt><trkpt lat="40.822796" lon="-3.6149998"><ele>882.1666666666666</ele><time>2026-03-23T09:43:56.691Z</time></trkpt><trkpt lat="40.8227369" lon="-3.6149543"><ele>882.0</ele><time>2026-03-23T09:43:58.69Z</time></trkpt><trkpt lat="40.8226797" lon="-3.6148745"><ele>882.2</ele><time>2026-03-23T09:44:00.694Z</time></trkpt><trkpt lat="40.8226392" lon="-3.6147578"><ele>882.4000000000001</ele><time>2026-03-23T09:44:02.706Z</time></trkpt><trkpt lat="40.8225968" lon="-3.6145995"><ele>882.5999999999999</ele><time>2026-03-23T09:44:04.684Z</time></trkpt><trkpt lat="40.8225668" lon="-3.6145222"><ele>882.8</ele><time>2026-03-23T09:44:05.695Z</time></trkpt><trkpt lat="40.8225143" lon="-3.6144292"><ele>883.0</ele><time>2026-03-23T09:44:07.702Z</time></trkpt><trkpt lat="40.8224507" lon="-3.6143785"><ele>883.4999999999999</ele><time>2026-03-23T09:44:10.709Z</time></trkpt><trkpt lat="40.8223935" lon="-3.6143271"><ele>884.0</ele><time>2026-03-23T09:44:13.71Z</time></trkpt><trkpt lat="40.8223349" lon="-3.6142683"><ele>884.5</ele><time>2026-03-23T09:44:15.703Z</time></trkpt><trkpt lat="40.822258" lon="-3.6141929"><ele>885.0</ele><time>2026-03-23T09:44:17.697Z</time></trkpt><trkpt lat="40.8221738" lon="-3.6141299"><ele>885.4999999999999</ele><time>2026-03-23T09:44:19.704Z</time></trkpt><trkpt lat="40.8220956" lon="-3.6140429"><ele>886.0</ele><time>2026-03-23T09:44:21.706Z</time></trkpt><trkpt lat="40.8220801" lon="-3.6139384"><ele>885.9999999999999</ele><time>2026-03-23T09:44:23.711Z</time></trkpt><trkpt lat="40.8220937" lon="-3.6138395"><ele>886.0</ele><time>2026-03-23T09:44:24.698Z</time></trkpt><trkpt lat="40.8221083" lon="-3.6137316"><ele>886.0</ele><time>2026-03-23T09:44:25.702Z</time></trkpt><trkpt lat="40.8221244" lon="-3.613625"><ele>886.0</ele><time>2026-03-23T09:44:26.704Z</time></trkpt><trkpt lat="40.8221305" lon="-3.6135217"><ele>885.9999999999999</ele><time>2026-03-23T09:44:27.701Z</time></trkpt><trkpt lat="40.8221298" lon="-3.6134338"><ele>886.0</ele><time>2026-03-23T09:44:28.707Z</time></trkpt><trkpt lat="40.8221217" lon="-3.6132809"><ele>885.8571428571429</ele><time>2026-03-23T09:44:30.712Z</time></trkpt><trkpt lat="40.8221195" lon="-3.6131917"><ele>885.7142857142858</ele><time>2026-03-23T09:44:31.686Z</time></trkpt><trkpt lat="40.8221187" lon="-3.6131048"><ele>885.5714285714286</ele><time>2026-03-23T09:44:32.689Z</time></trkpt><trkpt lat="40.8221189" lon="-3.61301"><ele>885.4285714285714</ele><time>2026-03-23T09:44:33.692Z</time></trkpt><trkpt lat="40.8221169" lon="-3.6129073"><ele>885.2857142857142</ele><time>2026-03-23T09:44:34.702Z</time></trkpt><trkpt lat="40.8221089" lon="-3.6128076"><ele>885.1428571428571</ele><time>2026-03-23T09:44:35.702Z</time></trkpt><trkpt lat="40.8221041" lon="-3.6127221"><ele>885.0</ele><time>2026-03-23T09:44:36.697Z</time></trkpt><trkpt lat="40.822107" lon="-3.6125552"><ele>885.0</ele><time>2026-03-23T09:44:38.697Z</time></trkpt><trkpt lat="40.8221356" lon="-3.6124775"><ele>885.0</ele><time>2026-03-23T09:44:39.702Z</time></trkpt><trkpt lat="40.8221943" lon="-3.6124118"><ele>885.0</ele><time>2026-03-23T09:44:41.71Z</time></trkpt><trkpt lat="40.8222685" lon="-3.6123598"><ele>885.0</ele><time>2026-03-23T09:44:43.691Z</time></trkpt><trkpt lat="40.8223139" lon="-3.6122834"><ele>885.0</ele><time>2026-03-23T09:44:45.694Z</time></trkpt><trkpt lat="40.8223431" lon="-3.6121889"><ele>885.0</ele><time>2026-03-23T09:44:47.691Z</time></trkpt><trkpt lat="40.8223639" lon="-3.6121011"><ele>885.0</ele><time>2026-03-23T09:44:49.697Z</time></trkpt><trkpt lat="40.8223815" lon="-3.6120079"><ele>885.8</ele><time>2026-03-23T09:44:51.681Z</time></trkpt><trkpt lat="40.8224041" lon="-3.6118829"><ele>886.6</ele><time>2026-03-23T09:44:53.704Z</time></trkpt><trkpt lat="40.8224248" lon="-3.6117385"><ele>887.4000000000001</ele><time>2026-03-23T09:44:56.69Z</time></trkpt><trkpt lat="40.8224345" lon="-3.6116238"><ele>888.2</ele><time>2026-03-23T09:44:58.701Z</time></trkpt><trkpt lat="40.8224504" lon="-3.6114758"><ele>889.0</ele><time>2026-03-23T09:45:00.704Z</time></trkpt><trkpt lat="40.8224653" lon="-3.6113918"><ele>888.9999999999999</ele><time>2026-03-23T09:45:01.706Z</time></trkpt><trkpt lat="40.8224792" lon="-3.6112836"><ele>889.0</ele><time>2026-03-23T09:45:02.705Z</time></trkpt><trkpt lat="40.8225023" lon="-3.611179"><ele>889.0</ele><time>2026-03-23T09:45:03.699Z</time></trkpt><trkpt lat="40.8225238" lon="-3.6110906"><ele>889.0</ele><time>2026-03-23T09:45:04.697Z</time></trkpt><trkpt lat="40.8225461" lon="-3.6109932"><ele>888.9999999999999</ele><time>2026-03-23T09:45:05.687Z</time></trkpt><trkpt lat="40.8225639" lon="-3.6108989"><ele>889.0</ele><time>2026-03-23T09:45:06.691Z</time></trkpt><trkpt lat="40.8225865" lon="-3.610796"><ele>889.4285714285714</ele><time>2026-03-23T09:45:07.702Z</time></trkpt><trkpt lat="40.8226139" lon="-3.6107023"><ele>889.8571428571429</ele><time>2026-03-23T09:45:08.694Z</time></trkpt><trkpt lat="40.8226326" lon="-3.610608"><ele>890.2857142857142</ele><time>2026-03-23T09:45:09.719Z</time></trkpt><trkpt lat="40.8226478" lon="-3.6105157"><ele>890.7142857142858</ele><time>2026-03-23T09:45:10.692Z</time></trkpt><trkpt lat="40.8226552" lon="-3.6104211"><ele>891.1428571428571</ele><time>2026-03-23T09:45:11.687Z</time></trkpt><trkpt lat="40.822666" lon="-3.6103227"><ele>891.5714285714286</ele><time>2026-03-23T09:45:12.709Z</time></trkpt><trkpt lat="40.8226791" lon="-3.6102306"><ele>892.0</ele><time>2026-03-23T09:45:13.699Z</time></trkpt><trkpt lat="40.8226864" lon="-3.610065"><ele>893.8</ele><time>2026-03-23T09:45:15.698Z</time></trkpt><trkpt lat="40.8226981" lon="-3.6099785"><ele>895.6</ele><time>2026-03-23T09:45:16.696Z</time></trkpt><trkpt lat="40.8227188" lon="-3.6098435"><ele>897.3999999999999</ele><time>2026-03-23T09:45:18.708Z</time></trkpt><trkpt lat="40.8227656" lon="-3.6097533"><ele>899.1999999999999</ele><time>2026-03-23T09:45:20.702Z</time></trkpt><trkpt lat="40.8228153" lon="-3.6096587"><ele>901.0</ele><time>2026-03-23T09:45:22.701Z</time></trkpt><trkpt lat="40.8228154" lon="-3.6095003"><ele>900.9999999999999</ele><time>2026-03-23T09:45:24.703Z</time></trkpt><trkpt lat="40.8228402" lon="-3.6093829"><ele>901.0</ele><time>2026-03-23T09:45:26.698Z</time></trkpt><trkpt lat="40.8228764" lon="-3.6092513"><ele>901.0</ele><time>2026-03-23T09:45:28.698Z</time></trkpt><trkpt lat="40.82291" lon="-3.6091322"><ele>901.0</ele><time>2026-03-23T09:45:30.707Z</time></trkpt><trkpt lat="40.8229457" lon="-3.609057"><ele>900.9999999999999</ele><time>2026-03-23T09:45:32.705Z</time></trkpt><trkpt lat="40.8229849" lon="-3.6089555"><ele>901.0</ele><time>2026-03-23T09:45:34.7Z</time></trkpt><trkpt lat="40.8230269" lon="-3.6088504"><ele>901.0</ele><time>2026-03-23T09:45:36.71Z</time></trkpt><trkpt lat="40.8230524" lon="-3.6087112"><ele>900.9999999999999</ele><time>2026-03-23T09:45:39.706Z</time></trkpt><trkpt lat="40.8230439" lon="-3.6085629"><ele>900.9999999999999</ele><time>2026-03-23T09:45:41.714Z</time></trkpt><trkpt lat="40.8230487" lon="-3.6084143"><ele>901.0</ele><time>2026-03-23T09:45:43.718Z</time></trkpt><trkpt lat="40.8230852" lon="-3.6082832"><ele>901.0</ele><time>2026-03-23T09:45:45.714Z</time></trkpt><trkpt lat="40.8231387" lon="-3.6081612"><ele>901.3333333333333</ele><time>2026-03-23T09:45:47.7Z</time></trkpt><trkpt lat="40.823163" lon="-3.6080457"><ele>901.6666666666666</ele><time>2026-03-23T09:45:49.716Z</time></trkpt><trkpt lat="40.8231608" lon="-3.6079276"><ele>902.0</ele><time>2026-03-23T09:45:51.71Z</time></trkpt><trkpt lat="40.8231543" lon="-3.6078211"><ele>902.3333333333333</ele><time>2026-03-23T09:45:53.705Z</time></trkpt><trkpt lat="40.8231529" lon="-3.6077256"><ele>902.6666666666666</ele><time>2026-03-23T09:45:55.693Z</time></trkpt><trkpt lat="40.8231555" lon="-3.6076047"><ele>903.0</ele><time>2026-03-23T09:45:57.701Z</time></trkpt><trkpt lat="40.8231416" lon="-3.607486"><ele>903.8</ele><time>2026-03-23T09:45:59.7Z</time></trkpt><trkpt lat="40.8231316" lon="-3.6073613"><ele>904.5999999999999</ele><time>2026-03-23T09:46:01.701Z</time></trkpt><trkpt lat="40.8231549" lon="-3.607242"><ele>905.4000000000001</ele><time>2026-03-23T09:46:03.705Z</time></trkpt><trkpt lat="40.8231891" lon="-3.6071137"><ele>906.2</ele><time>2026-03-23T09:46:05.696Z</time></trkpt><trkpt lat="40.8232355" lon="-3.606968"><ele>907.0</ele><time>2026-03-23T09:46:07.692Z</time></trkpt><trkpt lat="40.8232635" lon="-3.6068889"><ele>907.4285714285716</ele><time>2026-03-23T09:46:08.678Z</time></trkpt><trkpt lat="40.8232914" lon="-3.6068063"><ele>907.8571428571429</ele><time>2026-03-23T09:46:09.693Z</time></trkpt><trkpt lat="40.8233199" lon="-3.6067199"><ele>908.2857142857143</ele><time>2026-03-23T09:46:10.693Z</time></trkpt><trkpt lat="40.8233458" lon="-3.6066309"><ele>908.7142857142858</ele><time>2026-03-23T09:46:11.689Z</time></trkpt><trkpt lat="40.8233736" lon="-3.606545"><ele>909.1428571428571</ele><time>2026-03-23T09:46:12.696Z</time></trkpt><trkpt lat="40.8233994" lon="-3.6064646"><ele>909.5714285714286</ele><time>2026-03-23T09:46:13.696Z</time></trkpt><trkpt lat="40.8234346" lon="-3.6063854"><ele>910.0</ele><time>2026-03-23T09:46:14.699Z</time></trkpt><trkpt lat="40.8234902" lon="-3.6062496"><ele>910.0</ele><time>2026-03-23T09:46:16.703Z</time></trkpt><trkpt lat="40.8235208" lon="-3.6061724"><ele>910.0</ele><time>2026-03-23T09:46:17.7Z</time></trkpt><trkpt lat="40.8235529" lon="-3.6060952"><ele>910.0</ele><time>2026-03-23T09:46:18.711Z</time></trkpt><trkpt lat="40.8235918" lon="-3.6060159"><ele>910.0</ele><time>2026-03-23T09:46:19.705Z</time></trkpt><trkpt lat="40.8236216" lon="-3.6059363"><ele>910.0</ele><time>2026-03-23T09:46:20.712Z</time></trkpt><trkpt lat="40.8236578" lon="-3.6058634"><ele>910.0</ele><time>2026-03-23T09:46:21.686Z</time></trkpt><trkpt lat="40.8236979" lon="-3.6057519"><ele>910.0</ele><time>2026-03-23T09:46:23.715Z</time></trkpt><trkpt lat="40.8237328" lon="-3.605673"><ele>910.0</ele><time>2026-03-23T09:46:25.708Z</time></trkpt><trkpt lat="40.8237474" lon="-3.6055718"><ele>910.0</ele><time>2026-03-23T09:46:27.709Z</time></trkpt><trkpt lat="40.8237578" lon="-3.6054555"><ele>910.0</ele><time>2026-03-23T09:46:29.692Z</time></trkpt><trkpt lat="40.8237646" lon="-3.6053189"><ele>910.0</ele><time>2026-03-23T09:46:31.701Z</time></trkpt><trkpt lat="40.8237742" lon="-3.6052001"><ele>910.0</ele><time>2026-03-23T09:46:33.688Z</time></trkpt><trkpt lat="40.8237578" lon="-3.6050721"><ele>910.6666666666666</ele><time>2026-03-23T09:46:35.694Z</time></trkpt><trkpt lat="40.8236987" lon="-3.6050156"><ele>911.3333333333333</ele><time>2026-03-23T09:46:37.695Z</time></trkpt><trkpt lat="40.8236137" lon="-3.6049681"><ele>912.0</ele><time>2026-03-23T09:46:39.7Z</time></trkpt><trkpt lat="40.8235051" lon="-3.6049214"><ele>912.6666666666667</ele><time>2026-03-23T09:46:41.686Z</time></trkpt><trkpt lat="40.8234414" lon="-3.6049018"><ele>913.3333333333334</ele><time>2026-03-23T09:46:42.698Z</time></trkpt><trkpt lat="40.823343" lon="-3.604894"><ele>914.0</ele><time>2026-03-23T09:46:44.7Z</time></trkpt><trkpt lat="40.8232622" lon="-3.6048746"><ele>914.8333333333334</ele><time>2026-03-23T09:46:46.712Z</time></trkpt><trkpt lat="40.8232032" lon="-3.6048281"><ele>915.6666666666667</ele><time>2026-03-23T09:46:49.701Z</time></trkpt><trkpt lat="40.8232605" lon="-3.6047744"><ele>916.5</ele><time>2026-03-23T09:47:12.695Z</time></trkpt><trkpt lat="40.8233009" lon="-3.6047034"><ele>917.3333333333333</ele><time>2026-03-23T09:47:26.695Z</time></trkpt><trkpt lat="40.8233546" lon="-3.6046411"><ele>918.1666666666666</ele><time>2026-03-23T09:47:30.689Z</time></trkpt><trkpt lat="40.8232668" lon="-3.6045998"><ele>919.0</ele><time>2026-03-23T09:48:47.713Z</time></trkpt><trkpt lat="40.8231572" lon="-3.6046095"><ele>918.9999999999999</ele><time>2026-03-23T09:48:49.708Z</time></trkpt><trkpt lat="40.8230581" lon="-3.6046127"><ele>919.0</ele><time>2026-03-23T09:48:51.703Z</time></trkpt><trkpt lat="40.822987" lon="-3.6046028"><ele>919.0</ele><time>2026-03-23T09:48:53.709Z</time></trkpt><trkpt lat="40.8228742" lon="-3.6045806"><ele>919.0</ele><time>2026-03-23T09:49:07.701Z</time></trkpt><trkpt lat="40.8227935" lon="-3.604559"><ele>918.9999999999999</ele><time>2026-03-23T09:49:08.709Z</time></trkpt><trkpt lat="40.8227165" lon="-3.6045318"><ele>919.0</ele><time>2026-03-23T09:49:09.713Z</time></trkpt><trkpt lat="40.8226391" lon="-3.6045024"><ele>919.4285714285713</ele><time>2026-03-23T09:49:10.711Z</time></trkpt><trkpt lat="40.8225704" lon="-3.6044759"><ele>919.8571428571428</ele><time>2026-03-23T09:49:11.71Z</time></trkpt><trkpt lat="40.8224971" lon="-3.6044572"><ele>920.2857142857142</ele><time>2026-03-23T09:49:12.699Z</time></trkpt><trkpt lat="40.8224254" lon="-3.6044417"><ele>920.7142857142858</ele><time>2026-03-23T09:49:13.719Z</time></trkpt><trkpt lat="40.8223544" lon="-3.6044391"><ele>921.1428571428572</ele><time>2026-03-23T09:49:14.691Z</time></trkpt><trkpt lat="40.8222888" lon="-3.6044629"><ele>921.5714285714287</ele><time>2026-03-23T09:49:15.697Z</time></trkpt><trkpt lat="40.8222216" lon="-3.6044992"><ele>922.0</ele><time>2026-03-23T09:49:16.693Z</time></trkpt><trkpt lat="40.8221571" lon="-3.6045479"><ele>921.9999999999999</ele><time>2026-03-23T09:49:17.685Z</time></trkpt><trkpt lat="40.8220882" lon="-3.6045921"><ele>922.0</ele><time>2026-03-23T09:49:18.69Z</time></trkpt><trkpt lat="40.8220215" lon="-3.6046375"><ele>922.0</ele><time>2026-03-23T09:49:19.709Z</time></trkpt><trkpt lat="40.8219504" lon="-3.6046789"><ele>922.0</ele><time>2026-03-23T09:49:20.706Z</time></trkpt><trkpt lat="40.8218825" lon="-3.6047283"><ele>921.9999999999999</ele><time>2026-03-23T09:49:21.711Z</time></trkpt><trkpt lat="40.8218133" lon="-3.6047785"><ele>922.0</ele><time>2026-03-23T09:49:22.693Z</time></trkpt><trkpt lat="40.8217425" lon="-3.6048252"><ele>918.4000000000001</ele><time>2026-03-23T09:49:23.717Z</time></trkpt><trkpt lat="40.8216641" lon="-3.604881"><ele>914.8000000000001</ele><time>2026-03-23T09:49:24.691Z</time></trkpt><trkpt lat="40.8215911" lon="-3.6049473"><ele>911.2</ele><time>2026-03-23T09:49:25.717Z</time></trkpt><trkpt lat="40.8215229" lon="-3.6050271"><ele>907.6</ele><time>2026-03-23T09:49:26.69Z</time></trkpt><trkpt lat="40.8214585" lon="-3.6051148"><ele>904.0</ele><time>2026-03-23T09:49:27.704Z</time></trkpt><trkpt lat="40.8213986" lon="-3.605212"><ele>904.0</ele><time>2026-03-23T09:49:28.701Z</time></trkpt><trkpt lat="40.821336" lon="-3.6053156"><ele>904.0000000000001</ele><time>2026-03-23T09:49:29.69Z</time></trkpt><trkpt lat="40.8212624" lon="-3.6054149"><ele>904.0000000000001</ele><time>2026-03-23T09:49:30.699Z</time></trkpt><trkpt lat="40.8211849" lon="-3.6055041"><ele>904.0</ele><time>2026-03-23T09:49:31.695Z</time></trkpt><trkpt lat="40.8211027" lon="-3.6055885"><ele>904.0</ele><time>2026-03-23T09:49:32.705Z</time></trkpt><trkpt lat="40.8210225" lon="-3.6056652"><ele>902.8000000000001</ele><time>2026-03-23T09:49:33.704Z</time></trkpt><trkpt lat="40.8209504" lon="-3.6057475"><ele>901.6000000000001</ele><time>2026-03-23T09:49:34.705Z</time></trkpt><trkpt lat="40.8208798" lon="-3.6058337"><ele>900.4</ele><time>2026-03-23T09:49:35.712Z</time></trkpt><trkpt lat="40.8208339" lon="-3.6059369"><ele>899.2</ele><time>2026-03-23T09:49:36.691Z</time></trkpt><trkpt lat="40.8208158" lon="-3.6060584"><ele>898.0</ele><time>2026-03-23T09:49:37.708Z</time></trkpt><trkpt lat="40.8208006" lon="-3.6061812"><ele>900.1666666666666</ele><time>2026-03-23T09:49:38.712Z</time></trkpt><trkpt lat="40.8207662" lon="-3.6062837"><ele>902.3333333333333</ele><time>2026-03-23T09:49:39.702Z</time></trkpt><trkpt lat="40.8207033" lon="-3.6063672"><ele>904.5</ele><time>2026-03-23T09:49:40.693Z</time></trkpt><trkpt lat="40.8206268" lon="-3.6064341"><ele>906.6666666666667</ele><time>2026-03-23T09:49:41.711Z</time></trkpt><trkpt lat="40.8205443" lon="-3.6064827"><ele>908.8333333333334</ele><time>2026-03-23T09:49:42.695Z</time></trkpt><trkpt lat="40.8204618" lon="-3.6065234"><ele>911.0</ele><time>2026-03-23T09:49:43.696Z</time></trkpt><trkpt lat="40.8203694" lon="-3.6065325"><ele>911.0</ele><time>2026-03-23T09:49:44.711Z</time></trkpt><trkpt lat="40.8202694" lon="-3.6065257"><ele>910.9999999999999</ele><time>2026-03-23T09:49:45.689Z</time></trkpt><trkpt lat="40.8201668" lon="-3.6065122"><ele>910.9999999999999</ele><time>2026-03-23T09:49:46.705Z</time></trkpt><trkpt lat="40.820061" lon="-3.6064835"><ele>911.0</ele><time>2026-03-23T09:49:47.706Z</time></trkpt><trkpt lat="40.819951" lon="-3.6064491"><ele>911.0</ele><time>2026-03-23T09:49:48.705Z</time></trkpt><trkpt lat="40.8198462" lon="-3.6063956"><ele>907.8</ele><time>2026-03-23T09:49:49.7Z</time></trkpt><trkpt lat="40.8197462" lon="-3.6063303"><ele>904.5999999999999</ele><time>2026-03-23T09:49:50.702Z</time></trkpt><trkpt lat="40.8196434" lon="-3.606281"><ele>901.4</ele><time>2026-03-23T09:49:51.708Z</time></trkpt><trkpt lat="40.8195401" lon="-3.606249"><ele>898.2</ele><time>2026-03-23T09:49:52.707Z</time></trkpt><trkpt lat="40.819438" lon="-3.6062147"><ele>895.0</ele><time>2026-03-23T09:49:53.714Z</time></trkpt><trkpt lat="40.8193396" lon="-3.6061802"><ele>891.8333333333333</ele><time>2026-03-23T09:49:54.705Z</time></trkpt><trkpt lat="40.8192531" lon="-3.6061428"><ele>888.6666666666666</ele><time>2026-03-23T09:49:55.705Z</time></trkpt><trkpt lat="40.8191785" lon="-3.606108"><ele>885.5</ele><time>2026-03-23T09:49:56.704Z</time></trkpt><trkpt lat="40.8191134" lon="-3.6060722"><ele>882.3333333333333</ele><time>2026-03-23T09:49:57.685Z</time></trkpt><trkpt lat="40.8190141" lon="-3.6060579"><ele>879.1666666666666</ele><time>2026-03-23T09:49:59.703Z</time></trkpt><trkpt lat="40.8189354" lon="-3.6061371"><ele>876.0</ele><time>2026-03-23T09:50:01.7Z</time></trkpt><trkpt lat="40.8189177" lon="-3.6062596"><ele>876.0</ele><time>2026-03-23T09:50:03.801Z</time></trkpt><trkpt lat="40.8189404" lon="-3.6063996"><ele>876.0</ele><time>2026-03-23T09:50:05.713Z</time></trkpt><trkpt lat="40.8189636" lon="-3.6064772"><ele>876.0</ele><time>2026-03-23T09:50:06.716Z</time></trkpt><trkpt lat="40.818991" lon="-3.6065648"><ele>876.0</ele><time>2026-03-23T09:50:07.697Z</time></trkpt><trkpt lat="40.8190121" lon="-3.6066541"><ele>876.0</ele><time>2026-03-23T09:50:08.693Z</time></trkpt><trkpt lat="40.8190263" lon="-3.6067507"><ele>876.0</ele><time>2026-03-23T09:50:09.696Z</time></trkpt><trkpt lat="40.8190308" lon="-3.6068431"><ele>876.0</ele><time>2026-03-23T09:50:10.686Z</time></trkpt><trkpt lat="40.8189686" lon="-3.6069732"><ele>876.0</ele><time>2026-03-23T09:50:12.693Z</time></trkpt><trkpt lat="40.8188987" lon="-3.6070225"><ele>876.0</ele><time>2026-03-23T09:50:13.682Z</time></trkpt><trkpt lat="40.81882" lon="-3.6070605"><ele>876.0</ele><time>2026-03-23T09:50:14.677Z</time></trkpt><trkpt lat="40.8187397" lon="-3.6071027"><ele>876.0</ele><time>2026-03-23T09:50:15.681Z</time></trkpt><trkpt lat="40.8186813" lon="-3.6071716"><ele>876.0</ele><time>2026-03-23T09:50:16.695Z</time></trkpt><trkpt lat="40.8186247" lon="-3.607339"><ele>877.4</ele><time>2026-03-23T09:50:18.685Z</time></trkpt><trkpt lat="40.8186132" lon="-3.6074585"><ele>878.8</ele><time>2026-03-23T09:50:19.691Z</time></trkpt><trkpt lat="40.8186012" lon="-3.6075581"><ele>880.1999999999999</ele><time>2026-03-23T09:50:20.702Z</time></trkpt><trkpt lat="40.8185156" lon="-3.6076628"><ele>881.5999999999999</ele><time>2026-03-23T09:50:22.693Z</time></trkpt><trkpt lat="40.8184427" lon="-3.6076751"><ele>883.0</ele><time>2026-03-23T09:50:23.698Z</time></trkpt><trkpt lat="40.8183301" lon="-3.6076461"><ele>879.4999999999999</ele><time>2026-03-23T09:50:25.696Z</time></trkpt><trkpt lat="40.8182582" lon="-3.60751"><ele>876.0</ele><time>2026-03-23T09:50:27.678Z</time></trkpt><trkpt lat="40.8182207" lon="-3.6074197"><ele>872.5</ele><time>2026-03-23T09:50:28.682Z</time></trkpt><trkpt lat="40.8181746" lon="-3.6073325"><ele>869.0</ele><time>2026-03-23T09:50:29.695Z</time></trkpt><trkpt lat="40.8181312" lon="-3.6072576"><ele>865.4999999999999</ele><time>2026-03-23T09:50:30.695Z</time></trkpt><trkpt lat="40.8180825" lon="-3.607195"><ele>862.0</ele><time>2026-03-23T09:50:31.701Z</time></trkpt><trkpt lat="40.8179702" lon="-3.6071218"><ele>861.9999999999999</ele><time>2026-03-23T09:50:33.703Z</time></trkpt><trkpt lat="40.8179079" lon="-3.6071037"><ele>862.0</ele><time>2026-03-23T09:50:34.705Z</time></trkpt><trkpt lat="40.8178351" lon="-3.6070815"><ele>862.0</ele><time>2026-03-23T09:50:35.702Z</time></trkpt><trkpt lat="40.8177572" lon="-3.6070451"><ele>862.0</ele><time>2026-03-23T09:50:36.698Z</time></trkpt><trkpt lat="40.8176759" lon="-3.6069971"><ele>861.9999999999999</ele><time>2026-03-23T09:50:37.709Z</time></trkpt><trkpt lat="40.8176056" lon="-3.606923"><ele>862.0</ele><time>2026-03-23T09:50:38.704Z</time></trkpt><trkpt lat="40.8175382" lon="-3.6068448"><ele>859.4000000000001</ele><time>2026-03-23T09:50:39.702Z</time></trkpt><trkpt lat="40.8174751" lon="-3.6067581"><ele>856.8000000000001</ele><time>2026-03-23T09:50:40.705Z</time></trkpt><trkpt lat="40.8174001" lon="-3.6066738"><ele>854.2</ele><time>2026-03-23T09:50:41.702Z</time></trkpt><trkpt lat="40.8173258" lon="-3.6065931"><ele>851.6</ele><time>2026-03-23T09:50:42.689Z</time></trkpt><trkpt lat="40.8172493" lon="-3.606509"><ele>849.0</ele><time>2026-03-23T09:50:43.686Z</time></trkpt><trkpt lat="40.8171763" lon="-3.6064313"><ele>849.0</ele><time>2026-03-23T09:50:44.698Z</time></trkpt><trkpt lat="40.8171062" lon="-3.6063532"><ele>849.0</ele><time>2026-03-23T09:50:45.689Z</time></trkpt><trkpt lat="40.8170414" lon="-3.6062773"><ele>849.0</ele><time>2026-03-23T09:50:46.686Z</time></trkpt><trkpt lat="40.8169828" lon="-3.6062055"><ele>849.0</ele><time>2026-03-23T09:50:47.685Z</time></trkpt><trkpt lat="40.8169321" lon="-3.6061445"><ele>849.0</ele><time>2026-03-23T09:50:48.68Z</time></trkpt><trkpt lat="40.8168776" lon="-3.60609"><ele>849.0</ele><time>2026-03-23T09:50:49.692Z</time></trkpt><trkpt lat="40.816788" lon="-3.6059974"><ele>846.8000000000001</ele><time>2026-03-23T09:50:51.713Z</time></trkpt><trkpt lat="40.8167265" lon="-3.6059249"><ele>844.6</ele><time>2026-03-23T09:50:53.695Z</time></trkpt><trkpt lat="40.8166846" lon="-3.6058126"><ele>842.4</ele><time>2026-03-23T09:50:55.69Z</time></trkpt><trkpt lat="40.8166582" lon="-3.6057138"><ele>840.2</ele><time>2026-03-23T09:50:57.683Z</time></trkpt><trkpt lat="40.81663" lon="-3.6055918"><ele>838.0</ele><time>2026-03-23T09:50:59.702Z</time></trkpt><trkpt lat="40.8166015" lon="-3.605434"><ele>837.9999999999999</ele><time>2026-03-23T09:51:01.701Z</time></trkpt><trkpt lat="40.8165867" lon="-3.6053402"><ele>838.0</ele><time>2026-03-23T09:51:02.699Z</time></trkpt><trkpt lat="40.8165708" lon="-3.6052446"><ele>838.0</ele><time>2026-03-23T09:51:03.71Z</time></trkpt><trkpt lat="40.816556" lon="-3.6051545"><ele>838.0</ele><time>2026-03-23T09:51:04.7Z</time></trkpt><trkpt lat="40.8165412" lon="-3.6050571"><ele>837.9999999999999</ele><time>2026-03-23T09:51:05.716Z</time></trkpt><trkpt lat="40.81653" lon="-3.6049681"><ele>838.0</ele><time>2026-03-23T09:51:06.698Z</time></trkpt><trkpt lat="40.816511" lon="-3.6048134"><ele>837.2</ele><time>2026-03-23T09:51:08.702Z</time></trkpt><trkpt lat="40.8164982" lon="-3.6046819"><ele>836.4</ele><time>2026-03-23T09:51:10.713Z</time></trkpt><trkpt lat="40.8164851" lon="-3.6045764"><ele>835.6</ele><time>2026-03-23T09:51:12.709Z</time></trkpt><trkpt lat="40.816472" lon="-3.6044655"><ele>834.8000000000001</ele><time>2026-03-23T09:51:14.704Z</time></trkpt><trkpt lat="40.8164636" lon="-3.6043144"><ele>834.0</ele><time>2026-03-23T09:51:16.708Z</time></trkpt><trkpt lat="40.8164459" lon="-3.6041688"><ele>832.8333333333334</ele><time>2026-03-23T09:51:18.713Z</time></trkpt><trkpt lat="40.8164265" lon="-3.6040478"><ele>831.6666666666667</ele><time>2026-03-23T09:51:20.706Z</time></trkpt><trkpt lat="40.8164035" lon="-3.6039435"><ele>830.5</ele><time>2026-03-23T09:51:22.689Z</time></trkpt><trkpt lat="40.8163753" lon="-3.603833"><ele>829.3333333333334</ele><time>2026-03-23T09:51:24.709Z</time></trkpt><trkpt lat="40.8163368" lon="-3.6037399"><ele>828.1666666666667</ele><time>2026-03-23T09:51:26.697Z</time></trkpt><trkpt lat="40.8162758" lon="-3.6036517"><ele>827.0</ele><time>2026-03-23T09:51:29.701Z</time></trkpt><trkpt lat="40.8162524" lon="-3.6035578"><ele>827.0</ele><time>2026-03-23T09:51:33.693Z</time></trkpt><trkpt lat="40.8162043" lon="-3.6034899"><ele>827.0</ele><time>2026-03-23T09:51:37.692Z</time></trkpt><trkpt lat="40.8162562" lon="-3.6035789"><ele>827.0</ele><time>2026-03-23T09:53:40.685Z</time></trkpt><trkpt lat="40.8163563" lon="-3.6036034"><ele>827.0</ele><time>2026-03-23T09:53:42.706Z</time></trkpt><trkpt lat="40.8164831" lon="-3.6036532"><ele>827.0</ele><time>2026-03-23T09:53:44.683Z</time></trkpt><trkpt lat="40.8166982" lon="-3.6037021"><ele>827.0</ele><time>2026-03-23T09:53:45.698Z</time></trkpt><trkpt lat="40.8168032" lon="-3.6037499"><ele>827.0</ele><time>2026-03-23T09:53:46.699Z</time></trkpt><trkpt lat="40.8169" lon="-3.6038014"><ele>827.0</ele><time>2026-03-23T09:53:47.698Z</time></trkpt><trkpt lat="40.8170255" lon="-3.6038723"><ele>827.0</ele><time>2026-03-23T09:53:48.695Z</time></trkpt><trkpt lat="40.8171093" lon="-3.603972"><ele>827.2</ele><time>2026-03-23T09:53:49.685Z</time></trkpt><trkpt lat="40.817189" lon="-3.6040571"><ele>827.4000000000001</ele><time>2026-03-23T09:53:50.689Z</time></trkpt><trkpt lat="40.8173016" lon="-3.6041133"><ele>827.5999999999999</ele><time>2026-03-23T09:53:51.691Z</time></trkpt><trkpt lat="40.8173889" lon="-3.6041544"><ele>827.8</ele><time>2026-03-23T09:53:52.701Z</time></trkpt><trkpt lat="40.8174724" lon="-3.6042211"><ele>828.0</ele><time>2026-03-23T09:53:53.688Z</time></trkpt><trkpt lat="40.8175674" lon="-3.6042889"><ele>829.5999999999999</ele><time>2026-03-23T09:53:54.693Z</time></trkpt><trkpt lat="40.8176746" lon="-3.6043593"><ele>831.1999999999999</ele><time>2026-03-23T09:53:55.693Z</time></trkpt><trkpt lat="40.817727" lon="-3.6044075"><ele>832.8</ele><time>2026-03-23T09:53:56.686Z</time></trkpt><trkpt lat="40.8178833" lon="-3.6044379"><ele>834.4</ele><time>2026-03-23T09:53:58.695Z</time></trkpt><trkpt lat="40.8179628" lon="-3.6044147"><ele>836.0</ele><time>2026-03-23T09:53:59.689Z</time></trkpt><trkpt lat="40.818039" lon="-3.6044109"><ele>836.0</ele><time>2026-03-23T09:54:00.687Z</time></trkpt><trkpt lat="40.8181418" lon="-3.6044771"><ele>836.0</ele><time>2026-03-23T09:54:02.689Z</time></trkpt><trkpt lat="40.8182026" lon="-3.6045678"><ele>836.0</ele><time>2026-03-23T09:54:04.697Z</time></trkpt><trkpt lat="40.8181188" lon="-3.6045408"><ele>836.0</ele><time>2026-03-23T09:54:10.692Z</time></trkpt><trkpt lat="40.81805" lon="-3.6044568"><ele>836.0</ele><time>2026-03-23T09:54:12.698Z</time></trkpt><trkpt lat="40.8179975" lon="-3.6044028"><ele>836.0</ele><time>2026-03-23T09:54:13.701Z</time></trkpt><trkpt lat="40.8178855" lon="-3.6043184"><ele>836.0</ele><time>2026-03-23T09:54:15.688Z</time></trkpt><trkpt lat="40.8178137" lon="-3.6042661"><ele>836.0</ele><time>2026-03-23T09:54:17.697Z</time></trkpt><trkpt lat="40.8177145" lon="-3.6041984"><ele>836.0</ele><time>2026-03-23T09:54:19.679Z</time></trkpt><trkpt lat="40.8176454" lon="-3.6041472"><ele>836.0</ele><time>2026-03-23T09:54:21.689Z</time></trkpt><trkpt lat="40.8175646" lon="-3.6041043"><ele>834.6666666666667</ele><time>2026-03-23T09:54:24.704Z</time></trkpt><trkpt lat="40.8174836" lon="-3.6040438"><ele>833.3333333333334</ele><time>2026-03-23T09:54:26.692Z</time></trkpt><trkpt lat="40.8174659" lon="-3.6039456"><ele>832.0</ele><time>2026-03-23T09:54:29.694Z</time></trkpt><trkpt lat="40.8175518" lon="-3.6038823"><ele>830.6666666666667</ele><time>2026-03-23T09:54:34.691Z</time></trkpt><trkpt lat="40.8176213" lon="-3.6038629"><ele>829.3333333333334</ele><time>2026-03-23T09:54:36.685Z</time></trkpt><trkpt lat="40.817558" lon="-3.603789"><ele>828.0</ele><time>2026-03-23T09:54:41.683Z</time></trkpt><trkpt lat="40.8174936" lon="-3.6037714"><ele>828.0000000000001</ele><time>2026-03-23T09:54:42.69Z</time></trkpt><trkpt lat="40.8174101" lon="-3.6037422"><ele>828.0</ele><time>2026-03-23T09:54:44.674Z</time></trkpt><trkpt lat="40.8173472" lon="-3.603705"><ele>828.0</ele><time>2026-03-23T09:54:46.681Z</time></trkpt><trkpt lat="40.8172754" lon="-3.6036858"><ele>828.0</ele><time>2026-03-23T09:54:48.691Z</time></trkpt><trkpt lat="40.8172074" lon="-3.6036697"><ele>828.0</ele><time>2026-03-23T09:54:50.692Z</time></trkpt><trkpt lat="40.8171248" lon="-3.6036624"><ele>828.0000000000001</ele><time>2026-03-23T09:54:57.685Z</time></trkpt><trkpt lat="40.8170594" lon="-3.6036424"><ele>828.0</ele><time>2026-03-23T09:55:00.684Z</time></trkpt><trkpt lat="40.8171405" lon="-3.603609"><ele>828.0</ele><time>2026-03-23T09:55:13.699Z</time></trkpt><trkpt lat="40.8172252" lon="-3.6036255"><ele>828.0</ele><time>2026-03-23T09:55:15.692Z</time></trkpt><trkpt lat="40.8173195" lon="-3.6037138"><ele>828.0</ele><time>2026-03-23T09:55:17.692Z</time></trkpt><trkpt lat="40.8173898" lon="-3.6037895"><ele>828.0</ele><time>2026-03-23T09:55:18.686Z</time></trkpt><trkpt lat="40.8174606" lon="-3.6038734"><ele>828.0</ele><time>2026-03-23T09:55:19.682Z</time></trkpt><trkpt lat="40.8175439" lon="-3.6039658"><ele>828.0</ele><time>2026-03-23T09:55:20.691Z</time></trkpt><trkpt lat="40.8176493" lon="-3.6040309"><ele>828.0</ele><time>2026-03-23T09:55:21.694Z</time></trkpt><trkpt lat="40.8177559" lon="-3.6041117"><ele>828.0</ele><time>2026-03-23T09:55:22.698Z</time></trkpt><trkpt lat="40.8178105" lon="-3.6041943"><ele>828.0</ele><time>2026-03-23T09:55:23.692Z</time></trkpt><trkpt lat="40.8178807" lon="-3.6042359"><ele>828.0</ele><time>2026-03-23T09:55:24.681Z</time></trkpt><trkpt lat="40.8179458" lon="-3.6042749"><ele>830.0</ele><time>2026-03-23T09:55:25.697Z</time></trkpt><trkpt lat="40.8179929" lon="-3.6043816"><ele>832.0</ele><time>2026-03-23T09:55:27.697Z</time></trkpt><trkpt lat="40.8182388" lon="-3.6045227"><ele>834.0</ele><time>2026-03-23T09:55:38.686Z</time></trkpt><trkpt lat="40.8182493" lon="-3.6046075"><ele>836.0</ele><time>2026-03-23T09:55:42.688Z</time></trkpt><trkpt lat="40.8181631" lon="-3.6045833"><ele>836.0000000000001</ele><time>2026-03-23T09:55:45.684Z</time></trkpt><trkpt lat="40.8180917" lon="-3.604564"><ele>836.0</ele><time>2026-03-23T09:55:47.682Z</time></trkpt><trkpt lat="40.8180287" lon="-3.6045195"><ele>836.0</ele><time>2026-03-23T09:55:49.683Z</time></trkpt><trkpt lat="40.8179502" lon="-3.6044471"><ele>836.0</ele><time>2026-03-23T09:55:51.679Z</time></trkpt><trkpt lat="40.817879" lon="-3.6043578"><ele>836.0000000000001</ele><time>2026-03-23T09:55:53.684Z</time></trkpt><trkpt lat="40.8178092" lon="-3.6042901"><ele>836.0</ele><time>2026-03-23T09:55:55.679Z</time></trkpt><trkpt lat="40.8177411" lon="-3.6042424"><ele>836.0000000000001</ele><time>2026-03-23T09:55:57.69Z</time></trkpt><trkpt lat="40.8176761" lon="-3.6041854"><ele>836.0</ele><time>2026-03-23T09:55:59.691Z</time></trkpt><trkpt lat="40.8175855" lon="-3.6041316"><ele>836.0</ele><time>2026-03-23T09:56:01.684Z</time></trkpt><trkpt lat="40.817512" lon="-3.604038"><ele>836.0</ele><time>2026-03-23T09:56:04.682Z</time></trkpt><trkpt lat="40.8174439" lon="-3.6040099"><ele>836.0000000000001</ele><time>2026-03-23T09:56:05.676Z</time></trkpt><trkpt lat="40.8173688" lon="-3.6039551"><ele>836.0</ele><time>2026-03-23T09:56:07.689Z</time></trkpt><trkpt lat="40.8172863" lon="-3.6039019"><ele>834.6666666666667</ele><time>2026-03-23T09:56:09.673Z</time></trkpt><trkpt lat="40.8171957" lon="-3.6038828"><ele>833.3333333333334</ele><time>2026-03-23T09:56:12.675Z</time></trkpt><trkpt lat="40.8171391" lon="-3.6038434"><ele>832.0</ele><time>2026-03-23T09:56:14.69Z</time></trkpt><trkpt lat="40.8170639" lon="-3.6037477"><ele>830.6666666666667</ele><time>2026-03-23T09:56:22.69Z</time></trkpt><trkpt lat="40.8170147" lon="-3.6036629"><ele>829.3333333333334</ele><time>2026-03-23T09:56:25.687Z</time></trkpt><trkpt lat="40.8169741" lon="-3.6035821"><ele>828.0</ele><time>2026-03-23T09:56:27.689Z</time></trkpt><trkpt lat="40.81694" lon="-3.6034782"><ele>825.6666666666667</ele><time>2026-03-23T09:56:29.681Z</time></trkpt><trkpt lat="40.8168989" lon="-3.6033893"><ele>823.3333333333334</ele><time>2026-03-23T09:56:31.68Z</time></trkpt><trkpt lat="40.8168652" lon="-3.6032938"><ele>821.0</ele><time>2026-03-23T09:56:34.688Z</time></trkpt><trkpt lat="40.8163203" lon="-3.6035183"><ele>822.1999999999999</ele><time>2026-03-23T09:57:26.703Z</time></trkpt><trkpt lat="40.8163962" lon="-3.603688"><ele>823.4</ele><time>2026-03-23T09:57:46.672Z</time></trkpt><trkpt lat="40.8164224" lon="-3.6037924"><ele>824.6</ele><time>2026-03-23T09:57:48.675Z</time></trkpt><trkpt lat="40.8165047" lon="-3.6038389"><ele>825.8</ele><time>2026-03-23T09:57:53.686Z</time></trkpt><trkpt lat="40.8165464" lon="-3.6039247"><ele>827.0</ele><time>2026-03-23T09:58:05.668Z</time></trkpt><trkpt lat="40.8166121" lon="-3.6039718"><ele>827.0</ele><time>2026-03-23T09:58:06.664Z</time></trkpt><trkpt lat="40.8167014" lon="-3.604031"><ele>827.0</ele><time>2026-03-23T09:58:07.671Z</time></trkpt><trkpt lat="40.8168258" lon="-3.6040786"><ele>827.0</ele><time>2026-03-23T09:58:08.669Z</time></trkpt><trkpt lat="40.8169374" lon="-3.6041185"><ele>827.0</ele><time>2026-03-23T09:58:09.669Z</time></trkpt><trkpt lat="40.8170177" lon="-3.6041946"><ele>827.0</ele><time>2026-03-23T09:58:10.694Z</time></trkpt><trkpt lat="40.8171379" lon="-3.6042771"><ele>827.25</ele><time>2026-03-23T09:58:12.672Z</time></trkpt><trkpt lat="40.8172581" lon="-3.6043901"><ele>827.5</ele><time>2026-03-23T09:58:13.677Z</time></trkpt><trkpt lat="40.8174264" lon="-3.6045263"><ele>827.75</ele><time>2026-03-23T09:58:14.687Z</time></trkpt><trkpt lat="40.8174895" lon="-3.6044838"><ele>828.0</ele><time>2026-03-23T09:58:15.685Z</time></trkpt><trkpt lat="40.8176537" lon="-3.6044111"><ele>828.0</ele><time>2026-03-23T09:58:17.672Z</time></trkpt><trkpt lat="40.8177417" lon="-3.6043769"><ele>828.0</ele><time>2026-03-23T09:58:20.699Z</time></trkpt><trkpt lat="40.8177967" lon="-3.6041878"><ele>828.0</ele><time>2026-03-23T09:58:25.674Z</time></trkpt><trkpt lat="40.8176386" lon="-3.6041551"><ele>828.0</ele><time>2026-03-23T09:58:27.681Z</time></trkpt><trkpt lat="40.8174726" lon="-3.6040838"><ele>828.0</ele><time>2026-03-23T09:58:28.671Z</time></trkpt><trkpt lat="40.8173623" lon="-3.6040397"><ele>828.0</ele><time>2026-03-23T09:58:29.671Z</time></trkpt><trkpt lat="40.8172476" lon="-3.6040097"><ele>828.0</ele><time>2026-03-23T09:58:30.672Z</time></trkpt><trkpt lat="40.8171525" lon="-3.6039853"><ele>828.0</ele><time>2026-03-23T09:58:31.67Z</time></trkpt><trkpt lat="40.8170582" lon="-3.6039294"><ele>828.0</ele><time>2026-03-23T09:58:32.666Z</time></trkpt><trkpt lat="40.816928" lon="-3.6038615"><ele>828.0</ele><time>2026-03-23T09:58:34.677Z</time></trkpt><trkpt lat="40.8168336" lon="-3.6038273"><ele>828.0</ele><time>2026-03-23T09:58:36.685Z</time></trkpt><trkpt lat="40.8167443" lon="-3.6037968"><ele>828.0</ele><time>2026-03-23T09:58:37.69Z</time></trkpt><trkpt lat="40.8166836" lon="-3.6037574"><ele>828.0</ele><time>2026-03-23T09:58:39.683Z</time></trkpt><trkpt lat="40.816616" lon="-3.6037159"><ele>828.0</ele><time>2026-03-23T09:58:44.683Z</time></trkpt><trkpt lat="40.8165492" lon="-3.6036859"><ele>828.0</ele><time>2026-03-23T09:58:47.69Z</time></trkpt><trkpt lat="40.8164916" lon="-3.6036325"><ele>826.5999999999999</ele><time>2026-03-23T09:58:52.704Z</time></trkpt><trkpt lat="40.8165414" lon="-3.6035673"><ele>825.1999999999999</ele><time>2026-03-23T09:59:19.684Z</time></trkpt><trkpt lat="40.8166113" lon="-3.6034727"><ele>823.8</ele><time>2026-03-23T09:59:22.684Z</time></trkpt><trkpt lat="40.8166936" lon="-3.6034234"><ele>822.4</ele><time>2026-03-23T09:59:23.686Z</time></trkpt><trkpt lat="40.8167638" lon="-3.6033867"><ele>821.0</ele><time>2026-03-23T09:59:24.696Z</time></trkpt><trkpt lat="40.8163102" lon="-3.6035244"><ele>836.0</ele><time>2026-03-23T09:59:33.916Z</time></trkpt><trkpt lat="40.8177767" lon="-3.6037945"><ele>836.0</ele><time>2026-03-23T09:59:43.685Z</time></trkpt><trkpt lat="40.8177174" lon="-3.603835"><ele>836.0</ele><time>2026-03-23T09:59:44.693Z</time></trkpt><trkpt lat="40.8176411" lon="-3.6038808"><ele>836.0</ele><time>2026-03-23T09:59:45.682Z</time></trkpt><trkpt lat="40.8175068" lon="-3.6039244"><ele>836.0</ele><time>2026-03-23T09:59:47.687Z</time></trkpt><trkpt lat="40.8174312" lon="-3.6039235"><ele>836.0</ele><time>2026-03-23T09:59:48.674Z</time></trkpt><trkpt lat="40.8173413" lon="-3.603977"><ele>834.0</ele><time>2026-03-23T09:59:49.67Z</time></trkpt><trkpt lat="40.8172634" lon="-3.6039495"><ele>832.0</ele><time>2026-03-23T09:59:50.696Z</time></trkpt><trkpt lat="40.8171367" lon="-3.6039339"><ele>830.0</ele><time>2026-03-23T09:59:51.676Z</time></trkpt><trkpt lat="40.8170561" lon="-3.6038477"><ele>828.0</ele><time>2026-03-23T09:59:52.684Z</time></trkpt><trkpt lat="40.8169167" lon="-3.6037826"><ele>828.0</ele><time>2026-03-23T09:59:53.694Z</time></trkpt><trkpt lat="40.8168597" lon="-3.6036752"><ele>828.0</ele><time>2026-03-23T09:59:54.681Z</time></trkpt><trkpt lat="40.8167994" lon="-3.6036414"><ele>828.0</ele><time>2026-03-23T09:59:55.684Z</time></trkpt><trkpt lat="40.8166946" lon="-3.6035772"><ele>828.0</ele><time>2026-03-23T09:59:57.679Z</time></trkpt><trkpt lat="40.8166138" lon="-3.6035144"><ele>828.0</ele><time>2026-03-23T09:59:59.673Z</time></trkpt><trkpt lat="40.8165504" lon="-3.6035015"><ele>828.0</ele><time>2026-03-23T10:00:04.678Z</time></trkpt><trkpt lat="40.8164818" lon="-3.6034834"><ele>827.8571428571429</ele><time>2026-03-23T10:00:13.695Z</time></trkpt><trkpt lat="40.8164317" lon="-3.60354"><ele>827.7142857142858</ele><time>2026-03-23T10:00:29.699Z</time></trkpt><trkpt lat="40.8164094" lon="-3.6036201"><ele>827.5714285714287</ele><time>2026-03-23T10:00:43.676Z</time></trkpt><trkpt lat="40.8164402" lon="-3.6037056"><ele>827.4285714285714</ele><time>2026-03-23T10:00:57.69Z</time></trkpt><trkpt lat="40.8163983" lon="-3.6037698"><ele>827.2857142857142</ele><time>2026-03-23T10:01:10.684Z</time></trkpt><trkpt lat="40.8163332" lon="-3.6037872"><ele>827.1428571428572</ele><time>2026-03-23T10:01:17.693Z</time></trkpt><trkpt lat="40.8162714" lon="-3.6037356"><ele>827.0</ele><time>2026-03-23T10:01:40.686Z</time></trkpt><trkpt lat="40.8162214" lon="-3.6036656"><ele>827.0000000000001</ele><time>2026-03-23T10:01:45.688Z</time></trkpt><trkpt lat="40.816245" lon="-3.6037748"><ele>827.0</ele><time>2026-03-23T10:01:54.684Z</time></trkpt><trkpt lat="40.8162963" lon="-3.6038266"><ele>827.0</ele><time>2026-03-23T10:02:10.694Z</time></trkpt><trkpt lat="40.8163636" lon="-3.6038128"><ele>827.0</ele><time>2026-03-23T10:02:17.684Z</time></trkpt><trkpt lat="40.8164234" lon="-3.603763"><ele>827.0000000000001</ele><time>2026-03-23T10:02:31.688Z</time></trkpt><trkpt lat="40.8164796" lon="-3.6036982"><ele>827.0</ele><time>2026-03-23T10:02:39.69Z</time></trkpt><trkpt lat="40.8165436" lon="-3.6035742"><ele>826.0000000000001</ele><time>2026-03-23T10:03:36.684Z</time></trkpt><trkpt lat="40.8164853" lon="-3.6035209"><ele>825.0</ele><time>2026-03-23T10:03:42.674Z</time></trkpt><trkpt lat="40.8164069" lon="-3.6035481"><ele>824.0</ele><time>2026-03-23T10:04:01.688Z</time></trkpt><trkpt lat="40.8163936" lon="-3.6034642"><ele>823.0</ele><time>2026-03-23T10:06:24.693Z</time></trkpt><trkpt lat="40.8163533" lon="-3.6033783"><ele>822.0000000000001</ele><time>2026-03-23T10:06:38.685Z</time></trkpt><trkpt lat="40.8164141" lon="-3.603311"><ele>821.0</ele><time>2026-03-23T10:06:54.694Z</time></trkpt><trkpt lat="40.816472" lon="-3.6033872"><ele>821.0000000000001</ele><time>2026-03-23T10:07:15.687Z</time></trkpt><trkpt lat="40.8164722" lon="-3.603486"><ele>821.0</ele><time>2026-03-23T10:07:16.687Z</time></trkpt><trkpt lat="40.8163522" lon="-3.6034852"><ele>821.0</ele><time>2026-03-23T10:07:19.701Z</time></trkpt><trkpt lat="40.8162925" lon="-3.6035153"><ele>821.0</ele><time>2026-03-23T10:07:30.705Z</time></trkpt><trkpt lat="40.8162137" lon="-3.6035356"><ele>821.0000000000001</ele><time>2026-03-23T10:09:36.693Z</time></trkpt><trkpt lat="40.8162589" lon="-3.6036154"><ele>821.0</ele><time>2026-03-23T10:09:40.694Z</time></trkpt><trkpt lat="40.8163272" lon="-3.6036976"><ele>822.1999999999999</ele><time>2026-03-23T10:09:42.693Z</time></trkpt><trkpt lat="40.8163839" lon="-3.6038242"><ele>823.4</ele><time>2026-03-23T10:09:44.694Z</time></trkpt><trkpt lat="40.8164356" lon="-3.6039518"><ele>824.6</ele><time>2026-03-23T10:09:46.694Z</time></trkpt><trkpt lat="40.8164558" lon="-3.6040838"><ele>825.8</ele><time>2026-03-23T10:09:48.702Z</time></trkpt><trkpt lat="40.8164815" lon="-3.6042158"><ele>827.0</ele><time>2026-03-23T10:09:50.706Z</time></trkpt><trkpt lat="40.8164989" lon="-3.6043759"><ele>827.0000000000001</ele><time>2026-03-23T10:09:52.7Z</time></trkpt><trkpt lat="40.8165036" lon="-3.6044662"><ele>827.0</ele><time>2026-03-23T10:09:53.702Z</time></trkpt><trkpt lat="40.8165077" lon="-3.6045726"><ele>827.0</ele><time>2026-03-23T10:09:54.701Z</time></trkpt><trkpt lat="40.8165169" lon="-3.6046878"><ele>827.0</ele><time>2026-03-23T10:09:55.695Z</time></trkpt><trkpt lat="40.8165269" lon="-3.6047913"><ele>827.0000000000001</ele><time>2026-03-23T10:09:56.689Z</time></trkpt><trkpt lat="40.8165394" lon="-3.6048986"><ele>827.0</ele><time>2026-03-23T10:09:57.681Z</time></trkpt><trkpt lat="40.8165563" lon="-3.605006"><ele>828.1666666666667</ele><time>2026-03-23T10:09:58.696Z</time></trkpt><trkpt lat="40.8165726" lon="-3.6051241"><ele>829.3333333333334</ele><time>2026-03-23T10:09:59.694Z</time></trkpt><trkpt lat="40.816589" lon="-3.6052281"><ele>830.5</ele><time>2026-03-23T10:10:00.699Z</time></trkpt><trkpt lat="40.8166118" lon="-3.6053359"><ele>831.6666666666667</ele><time>2026-03-23T10:10:01.702Z</time></trkpt><trkpt lat="40.816635" lon="-3.6054499"><ele>832.8333333333334</ele><time>2026-03-23T10:10:02.697Z</time></trkpt><trkpt lat="40.8166514" lon="-3.6055653"><ele>834.0</ele><time>2026-03-23T10:10:03.697Z</time></trkpt><trkpt lat="40.8166708" lon="-3.605676"><ele>834.6666666666666</ele><time>2026-03-23T10:10:04.706Z</time></trkpt><trkpt lat="40.8167034" lon="-3.6057828"><ele>835.3333333333333</ele><time>2026-03-23T10:10:05.7Z</time></trkpt><trkpt lat="40.8167448" lon="-3.6058724"><ele>836.0</ele><time>2026-03-23T10:10:06.702Z</time></trkpt><trkpt lat="40.8168177" lon="-3.6059758"><ele>836.6666666666666</ele><time>2026-03-23T10:10:08.704Z</time></trkpt><trkpt lat="40.8168699" lon="-3.606046"><ele>837.3333333333333</ele><time>2026-03-23T10:10:10.687Z</time></trkpt><trkpt lat="40.8169388" lon="-3.6061292"><ele>838.0</ele><time>2026-03-23T10:10:12.696Z</time></trkpt><trkpt lat="40.8170265" lon="-3.6062231"><ele>839.8333333333333</ele><time>2026-03-23T10:10:14.698Z</time></trkpt><trkpt lat="40.8171246" lon="-3.6063201"><ele>841.6666666666666</ele><time>2026-03-23T10:10:16.688Z</time></trkpt><trkpt lat="40.8171734" lon="-3.6063784"><ele>843.5</ele><time>2026-03-23T10:10:17.689Z</time></trkpt><trkpt lat="40.8172251" lon="-3.6064464"><ele>845.3333333333333</ele><time>2026-03-23T10:10:18.693Z</time></trkpt><trkpt lat="40.8172871" lon="-3.6065206"><ele>847.1666666666666</ele><time>2026-03-23T10:10:19.702Z</time></trkpt><trkpt lat="40.8173566" lon="-3.6066049"><ele>849.0</ele><time>2026-03-23T10:10:20.696Z</time></trkpt><trkpt lat="40.8174276" lon="-3.6066869"><ele>849.0</ele><time>2026-03-23T10:10:21.693Z</time></trkpt><trkpt lat="40.8174961" lon="-3.606769"><ele>849.0</ele><time>2026-03-23T10:10:22.704Z</time></trkpt><trkpt lat="40.8175665" lon="-3.6068488"><ele>849.0</ele><time>2026-03-23T10:10:23.706Z</time></trkpt><trkpt lat="40.8176353" lon="-3.6069198"><ele>849.0</ele><time>2026-03-23T10:10:24.711Z</time></trkpt><trkpt lat="40.817713" lon="-3.6069831"><ele>849.0</ele><time>2026-03-23T10:10:25.706Z</time></trkpt><trkpt lat="40.817798" lon="-3.6070252"><ele>851.6</ele><time>2026-03-23T10:10:26.692Z</time></trkpt><trkpt lat="40.8178859" lon="-3.6070667"><ele>854.2</ele><time>2026-03-23T10:10:27.696Z</time></trkpt><trkpt lat="40.8179621" lon="-3.6071103"><ele>856.8000000000001</ele><time>2026-03-23T10:10:28.704Z</time></trkpt><trkpt lat="40.8180465" lon="-3.6071783"><ele>859.4000000000001</ele><time>2026-03-23T10:10:29.701Z</time></trkpt><trkpt lat="40.8181241" lon="-3.6072766"><ele>862.0</ele><time>2026-03-23T10:10:30.709Z</time></trkpt><trkpt lat="40.8181926" lon="-3.607385"><ele>861.9999999999999</ele><time>2026-03-23T10:10:31.694Z</time></trkpt><trkpt lat="40.8182489" lon="-3.6074814"><ele>862.0</ele><time>2026-03-23T10:10:32.699Z</time></trkpt><trkpt lat="40.8183096" lon="-3.6075625"><ele>862.0</ele><time>2026-03-23T10:10:33.682Z</time></trkpt><trkpt lat="40.8183656" lon="-3.6076207"><ele>862.0</ele><time>2026-03-23T10:10:34.686Z</time></trkpt><trkpt lat="40.8184311" lon="-3.6076498"><ele>861.9999999999999</ele><time>2026-03-23T10:10:35.692Z</time></trkpt><trkpt lat="40.8185196" lon="-3.6075839"><ele>862.0</ele><time>2026-03-23T10:10:37.689Z</time></trkpt><trkpt lat="40.8185399" lon="-3.6074987"><ele>865.4999999999999</ele><time>2026-03-23T10:10:38.686Z</time></trkpt><trkpt lat="40.8185549" lon="-3.6073932"><ele>869.0</ele><time>2026-03-23T10:10:39.674Z</time></trkpt><trkpt lat="40.8185869" lon="-3.6073022"><ele>872.5</ele><time>2026-03-23T10:10:40.672Z</time></trkpt><trkpt lat="40.8186361" lon="-3.6072169"><ele>876.0</ele><time>2026-03-23T10:10:41.682Z</time></trkpt><trkpt lat="40.8187082" lon="-3.6071428"><ele>879.4999999999999</ele><time>2026-03-23T10:10:42.699Z</time></trkpt><trkpt lat="40.818799" lon="-3.607096"><ele>883.0</ele><time>2026-03-23T10:10:43.693Z</time></trkpt><trkpt lat="40.8188892" lon="-3.6070601"><ele>882.9999999999999</ele><time>2026-03-23T10:10:44.687Z</time></trkpt><trkpt lat="40.8189598" lon="-3.6070136"><ele>883.0</ele><time>2026-03-23T10:10:45.685Z</time></trkpt><trkpt lat="40.8190087" lon="-3.606925"><ele>883.0</ele><time>2026-03-23T10:10:46.696Z</time></trkpt><trkpt lat="40.8190226" lon="-3.606839"><ele>883.0</ele><time>2026-03-23T10:10:47.687Z</time></trkpt><trkpt lat="40.8190047" lon="-3.6067504"><ele>882.9999999999999</ele><time>2026-03-23T10:10:48.683Z</time></trkpt><trkpt lat="40.8189791" lon="-3.6066519"><ele>883.0</ele><time>2026-03-23T10:10:49.698Z</time></trkpt><trkpt lat="40.8189458" lon="-3.6065356"><ele>881.5999999999999</ele><time>2026-03-23T10:10:50.685Z</time></trkpt><trkpt lat="40.8189113" lon="-3.6064182"><ele>880.1999999999999</ele><time>2026-03-23T10:10:51.684Z</time></trkpt><trkpt lat="40.8188996" lon="-3.6063076"><ele>878.8</ele><time>2026-03-23T10:10:52.689Z</time></trkpt><trkpt lat="40.8189007" lon="-3.6062159"><ele>877.4</ele><time>2026-03-23T10:10:53.696Z</time></trkpt><trkpt lat="40.818973" lon="-3.6061042"><ele>876.0</ele><time>2026-03-23T10:10:55.691Z</time></trkpt><trkpt lat="40.8191002" lon="-3.6060752"><ele>874.1999999999999</ele><time>2026-03-23T10:10:57.7Z</time></trkpt><trkpt lat="40.8191805" lon="-3.6060938"><ele>872.3999999999999</ele><time>2026-03-23T10:10:58.692Z</time></trkpt><trkpt lat="40.8192778" lon="-3.6061339"><ele>870.6</ele><time>2026-03-23T10:10:59.697Z</time></trkpt><trkpt lat="40.8193705" lon="-3.6061858"><ele>868.8</ele><time>2026-03-23T10:11:00.699Z</time></trkpt><trkpt lat="40.8194613" lon="-3.6062144"><ele>867.0</ele><time>2026-03-23T10:11:01.698Z</time></trkpt><trkpt lat="40.8195646" lon="-3.6062371"><ele>874.0</ele><time>2026-03-23T10:11:02.693Z</time></trkpt><trkpt lat="40.8196821" lon="-3.6062858"><ele>881.0</ele><time>2026-03-23T10:11:03.699Z</time></trkpt><trkpt lat="40.819809" lon="-3.6063452"><ele>888.0</ele><time>2026-03-23T10:11:04.669Z</time></trkpt><trkpt lat="40.8199271" lon="-3.6064089"><ele>895.0</ele><time>2026-03-23T10:11:05.677Z</time></trkpt><trkpt lat="40.820034" lon="-3.6064518"><ele>895.0</ele><time>2026-03-23T10:11:06.681Z</time></trkpt><trkpt lat="40.8201467" lon="-3.6064872"><ele>895.0</ele><time>2026-03-23T10:11:07.677Z</time></trkpt><trkpt lat="40.8202571" lon="-3.6064978"><ele>895.0</ele><time>2026-03-23T10:11:08.672Z</time></trkpt><trkpt lat="40.8203694" lon="-3.6065009"><ele>895.0</ele><time>2026-03-23T10:11:09.675Z</time></trkpt><trkpt lat="40.8204732" lon="-3.6064852"><ele>895.0</ele><time>2026-03-23T10:11:10.681Z</time></trkpt><trkpt lat="40.8205759" lon="-3.6064393"><ele>895.6</ele><time>2026-03-23T10:11:11.698Z</time></trkpt><trkpt lat="40.8206729" lon="-3.6063857"><ele>896.2</ele><time>2026-03-23T10:11:12.679Z</time></trkpt><trkpt lat="40.8207411" lon="-3.6063108"><ele>896.8</ele><time>2026-03-23T10:11:13.692Z</time></trkpt><trkpt lat="40.8207855" lon="-3.6062113"><ele>897.4</ele><time>2026-03-23T10:11:14.698Z</time></trkpt><trkpt lat="40.8208076" lon="-3.6060853"><ele>898.0</ele><time>2026-03-23T10:11:15.693Z</time></trkpt><trkpt lat="40.8208291" lon="-3.6059487"><ele>898.0</ele><time>2026-03-23T10:11:16.705Z</time></trkpt><trkpt lat="40.820876" lon="-3.6058238"><ele>898.0</ele><time>2026-03-23T10:11:17.69Z</time></trkpt><trkpt lat="40.8209455" lon="-3.6057168"><ele>898.0</ele><time>2026-03-23T10:11:18.701Z</time></trkpt><trkpt lat="40.8210359" lon="-3.6056195"><ele>898.0</ele><time>2026-03-23T10:11:19.698Z</time></trkpt><trkpt lat="40.8211305" lon="-3.6055153"><ele>899.5</ele><time>2026-03-23T10:11:20.694Z</time></trkpt><trkpt lat="40.8212231" lon="-3.6054041"><ele>901.0</ele><time>2026-03-23T10:11:21.7Z</time></trkpt><trkpt lat="40.8213159" lon="-3.6052876"><ele>902.5</ele><time>2026-03-23T10:11:22.697Z</time></trkpt><trkpt lat="40.8213903" lon="-3.6051661"><ele>904.0</ele><time>2026-03-23T10:11:23.694Z</time></trkpt><trkpt lat="40.8214676" lon="-3.6050518"><ele>904.0</ele><time>2026-03-23T10:11:24.7Z</time></trkpt><trkpt lat="40.8215501" lon="-3.6049534"><ele>904.0</ele><time>2026-03-23T10:11:25.688Z</time></trkpt><trkpt lat="40.8216471" lon="-3.6048612"><ele>904.0</ele><time>2026-03-23T10:11:26.698Z</time></trkpt><trkpt lat="40.8217514" lon="-3.6047903"><ele>904.0</ele><time>2026-03-23T10:11:27.701Z</time></trkpt><trkpt lat="40.8218547" lon="-3.6047208"><ele>904.0</ele><time>2026-03-23T10:11:28.703Z</time></trkpt><trkpt lat="40.8219602" lon="-3.6046437"><ele>904.0</ele><time>2026-03-23T10:11:29.701Z</time></trkpt><trkpt lat="40.8220662" lon="-3.6045605"><ele>904.0</ele><time>2026-03-23T10:11:30.703Z</time></trkpt><trkpt lat="40.8221598" lon="-3.604486"><ele>904.0</ele><time>2026-03-23T10:11:31.705Z</time></trkpt><trkpt lat="40.8222579" lon="-3.6044366"><ele>904.0</ele><time>2026-03-23T10:11:32.709Z</time></trkpt><trkpt lat="40.8223681" lon="-3.6044174"><ele>904.0</ele><time>2026-03-23T10:11:33.696Z</time></trkpt><trkpt lat="40.8224735" lon="-3.604436"><ele>904.0</ele><time>2026-03-23T10:11:34.683Z</time></trkpt><trkpt lat="40.8225897" lon="-3.6044706"><ele>904.0</ele><time>2026-03-23T10:11:35.686Z</time></trkpt><trkpt lat="40.8227025" lon="-3.6045101"><ele>907.0</ele><time>2026-03-23T10:11:36.693Z</time></trkpt><trkpt lat="40.8228141" lon="-3.6045415"><ele>910.0000000000001</ele><time>2026-03-23T10:11:37.69Z</time></trkpt><trkpt lat="40.8229154" lon="-3.6045764"><ele>913.0000000000001</ele><time>2026-03-23T10:11:38.693Z</time></trkpt><trkpt lat="40.8230133" lon="-3.6045978"><ele>916.0</ele><time>2026-03-23T10:11:39.697Z</time></trkpt><trkpt lat="40.8231007" lon="-3.6045983"><ele>919.0</ele><time>2026-03-23T10:11:40.692Z</time></trkpt><trkpt lat="40.8231894" lon="-3.6045896"><ele>918.9999999999999</ele><time>2026-03-23T10:11:41.688Z</time></trkpt><trkpt lat="40.823279" lon="-3.604579"><ele>919.0</ele><time>2026-03-23T10:11:42.702Z</time></trkpt><trkpt lat="40.8233712" lon="-3.6045757"><ele>919.0</ele><time>2026-03-23T10:11:43.689Z</time></trkpt><trkpt lat="40.8234545" lon="-3.6045784"><ele>919.0</ele><time>2026-03-23T10:11:44.711Z</time></trkpt><trkpt lat="40.8235321" lon="-3.604588"><ele>918.9999999999999</ele><time>2026-03-23T10:11:45.702Z</time></trkpt><trkpt lat="40.823599" lon="-3.6046"><ele>919.0</ele><time>2026-03-23T10:11:46.705Z</time></trkpt><trkpt lat="40.8236905" lon="-3.6046311"><ele>919.0</ele><time>2026-03-23T10:11:48.708Z</time></trkpt><trkpt lat="40.8237598" lon="-3.6046793"><ele>919.0000000000001</ele><time>2026-03-23T10:11:50.713Z</time></trkpt><trkpt lat="40.8237071" lon="-3.6047735"><ele>919.0000000000001</ele><time>2026-03-23T10:11:53.7Z</time></trkpt><trkpt lat="40.8236035" lon="-3.6047966"><ele>919.0</ele><time>2026-03-23T10:11:55.7Z</time></trkpt><trkpt lat="40.8234865" lon="-3.6047786"><ele>919.0</ele><time>2026-03-23T10:11:57.691Z</time></trkpt><trkpt lat="40.8233704" lon="-3.6047758"><ele>919.0</ele><time>2026-03-23T10:11:59.689Z</time></trkpt><trkpt lat="40.823302" lon="-3.6047834"><ele>918.9999999999999</ele><time>2026-03-23T10:12:00.696Z</time></trkpt><trkpt lat="40.8232263" lon="-3.6048051"><ele>919.0</ele><time>2026-03-23T10:12:01.712Z</time></trkpt><trkpt lat="40.8231544" lon="-3.6048232"><ele>919.0</ele><time>2026-03-23T10:12:02.703Z</time></trkpt><trkpt lat="40.8230807" lon="-3.6048295"><ele>918.9999999999999</ele><time>2026-03-23T10:12:03.691Z</time></trkpt><trkpt lat="40.8230102" lon="-3.6048271"><ele>919.0</ele><time>2026-03-23T10:12:04.694Z</time></trkpt><trkpt lat="40.8229427" lon="-3.6048205"><ele>919.0</ele><time>2026-03-23T10:12:05.689Z</time></trkpt><trkpt lat="40.8228729" lon="-3.6048195"><ele>919.0</ele><time>2026-03-23T10:12:06.695Z</time></trkpt><trkpt lat="40.8228008" lon="-3.6048245"><ele>918.9999999999999</ele><time>2026-03-23T10:12:07.683Z</time></trkpt><trkpt lat="40.8227261" lon="-3.6048287"><ele>919.0</ele><time>2026-03-23T10:12:08.696Z</time></trkpt><trkpt lat="40.8226618" lon="-3.6048307"><ele>919.0</ele><time>2026-03-23T10:12:09.699Z</time></trkpt><trkpt lat="40.8225958" lon="-3.6048348"><ele>918.9999999999999</ele><time>2026-03-23T10:12:10.687Z</time></trkpt><trkpt lat="40.8225267" lon="-3.6048516"><ele>919.0</ele><time>2026-03-23T10:12:11.694Z</time></trkpt><trkpt lat="40.8224547" lon="-3.6048742"><ele>919.0</ele><time>2026-03-23T10:12:12.704Z</time></trkpt><trkpt lat="40.8223836" lon="-3.6049097"><ele>919.4999999999999</ele><time>2026-03-23T10:12:13.692Z</time></trkpt><trkpt lat="40.8223098" lon="-3.6049457"><ele>920.0</ele><time>2026-03-23T10:12:14.693Z</time></trkpt><trkpt lat="40.8222502" lon="-3.6050033"><ele>920.5</ele><time>2026-03-23T10:12:15.701Z</time></trkpt><trkpt lat="40.8221985" lon="-3.6050682"><ele>921.0</ele><time>2026-03-23T10:12:16.71Z</time></trkpt><trkpt lat="40.8221523" lon="-3.6051378"><ele>921.4999999999999</ele><time>2026-03-23T10:12:17.692Z</time></trkpt><trkpt lat="40.8221015" lon="-3.6052176"><ele>922.0</ele><time>2026-03-23T10:12:18.695Z</time></trkpt><trkpt lat="40.822049" lon="-3.605307"><ele>921.9999999999999</ele><time>2026-03-23T10:12:19.693Z</time></trkpt><trkpt lat="40.8219918" lon="-3.6054042"><ele>922.0</ele><time>2026-03-23T10:12:20.701Z</time></trkpt><trkpt lat="40.8219484" lon="-3.6054886"><ele>922.0</ele><time>2026-03-23T10:12:21.698Z</time></trkpt><trkpt lat="40.8219045" lon="-3.6055683"><ele>922.0</ele><time>2026-03-23T10:12:22.701Z</time></trkpt><trkpt lat="40.8218529" lon="-3.6056529"><ele>921.9999999999999</ele><time>2026-03-23T10:12:23.689Z</time></trkpt><trkpt lat="40.8218065" lon="-3.6057195"><ele>922.0</ele><time>2026-03-23T10:12:24.699Z</time></trkpt><trkpt lat="40.8217678" lon="-3.6057943"><ele>922.4285714285714</ele><time>2026-03-23T10:12:25.704Z</time></trkpt><trkpt lat="40.8217339" lon="-3.6058647"><ele>922.8571428571429</ele><time>2026-03-23T10:12:26.689Z</time></trkpt><trkpt lat="40.8216905" lon="-3.6059445"><ele>923.2857142857143</ele><time>2026-03-23T10:12:27.699Z</time></trkpt><trkpt lat="40.8216458" lon="-3.6060232"><ele>923.7142857142858</ele><time>2026-03-23T10:12:28.701Z</time></trkpt><trkpt lat="40.8216021" lon="-3.606092"><ele>924.1428571428571</ele><time>2026-03-23T10:12:29.697Z</time></trkpt><trkpt lat="40.821558" lon="-3.6061684"><ele>924.5714285714287</ele><time>2026-03-23T10:12:30.692Z</time></trkpt><trkpt lat="40.8215132" lon="-3.6062492"><ele>925.0</ele><time>2026-03-23T10:12:31.698Z</time></trkpt><trkpt lat="40.8214688" lon="-3.6063234"><ele>925.0</ele><time>2026-03-23T10:12:32.692Z</time></trkpt><trkpt lat="40.8214258" lon="-3.6063986"><ele>925.0</ele><time>2026-03-23T10:12:33.689Z</time></trkpt><trkpt lat="40.8213891" lon="-3.6064743"><ele>925.0</ele><time>2026-03-23T10:12:34.691Z</time></trkpt><trkpt lat="40.8213146" lon="-3.6066019"><ele>925.0</ele><time>2026-03-23T10:12:36.695Z</time></trkpt><trkpt lat="40.8212431" lon="-3.6067346"><ele>925.0</ele><time>2026-03-23T10:12:38.681Z</time></trkpt><trkpt lat="40.8211979" lon="-3.6068094"><ele>924.9999999999999</ele><time>2026-03-23T10:12:39.695Z</time></trkpt><trkpt lat="40.8211487" lon="-3.6068891"><ele>925.0</ele><time>2026-03-23T10:12:40.696Z</time></trkpt><trkpt lat="40.8210975" lon="-3.6069701"><ele>925.0</ele><time>2026-03-23T10:12:41.699Z</time></trkpt><trkpt lat="40.821042" lon="-3.6070504"><ele>925.0</ele><time>2026-03-23T10:12:42.7Z</time></trkpt><trkpt lat="40.8209838" lon="-3.6071255"><ele>924.9999999999999</ele><time>2026-03-23T10:12:43.7Z</time></trkpt><trkpt lat="40.8209276" lon="-3.6072076"><ele>925.0</ele><time>2026-03-23T10:12:44.707Z</time></trkpt><trkpt lat="40.8208943" lon="-3.6072962"><ele>925.3333333333333</ele><time>2026-03-23T10:12:45.703Z</time></trkpt><trkpt lat="40.8208714" lon="-3.6073912"><ele>925.6666666666666</ele><time>2026-03-23T10:12:46.713Z</time></trkpt><trkpt lat="40.8208663" lon="-3.6074913"><ele>926.0</ele><time>2026-03-23T10:12:47.707Z</time></trkpt><trkpt lat="40.820861" lon="-3.6075936"><ele>926.3333333333333</ele><time>2026-03-23T10:12:48.7Z</time></trkpt><trkpt lat="40.8208535" lon="-3.6076921"><ele>926.6666666666666</ele><time>2026-03-23T10:12:49.691Z</time></trkpt><trkpt lat="40.8208307" lon="-3.607794"><ele>927.0</ele><time>2026-03-23T10:12:50.705Z</time></trkpt><trkpt lat="40.8207927" lon="-3.607873"><ele>927.8333333333334</ele><time>2026-03-23T10:12:51.707Z</time></trkpt><trkpt lat="40.8207251" lon="-3.6079984"><ele>928.6666666666667</ele><time>2026-03-23T10:12:53.702Z</time></trkpt><trkpt lat="40.8206599" lon="-3.6081322"><ele>929.5</ele><time>2026-03-23T10:12:55.695Z</time></trkpt><trkpt lat="40.8206241" lon="-3.6082097"><ele>930.3333333333334</ele><time>2026-03-23T10:12:56.698Z</time></trkpt><trkpt lat="40.8205877" lon="-3.6082952"><ele>931.1666666666667</ele><time>2026-03-23T10:12:57.698Z</time></trkpt><trkpt lat="40.8205499" lon="-3.6083715"><ele>932.0</ele><time>2026-03-23T10:12:58.703Z</time></trkpt><trkpt lat="40.8204847" lon="-3.6084838"><ele>932.0000000000001</ele><time>2026-03-23T10:13:00.705Z</time></trkpt><trkpt lat="40.8204387" lon="-3.6085444"><ele>932.0</ele><time>2026-03-23T10:13:01.701Z</time></trkpt><trkpt lat="40.8203841" lon="-3.6086194"><ele>932.0</ele><time>2026-03-23T10:13:02.71Z</time></trkpt><trkpt lat="40.8203312" lon="-3.6087163"><ele>932.0</ele><time>2026-03-23T10:13:03.698Z</time></trkpt><trkpt lat="40.8202838" lon="-3.6088175"><ele>932.0000000000001</ele><time>2026-03-23T10:13:04.702Z</time></trkpt><trkpt lat="40.8202442" lon="-3.6089085"><ele>932.0</ele><time>2026-03-23T10:13:05.701Z</time></trkpt><trkpt lat="40.8202037" lon="-3.6090009"><ele>931.5000000000001</ele><time>2026-03-23T10:13:07.702Z</time></trkpt><trkpt lat="40.8201706" lon="-3.6090824"><ele>931.0</ele><time>2026-03-23T10:13:09.7Z</time></trkpt><trkpt lat="40.8201248" lon="-3.6092238"><ele>930.5</ele><time>2026-03-23T10:13:11.694Z</time></trkpt><trkpt lat="40.8200911" lon="-3.6092946"><ele>930.0</ele><time>2026-03-23T10:13:12.707Z</time></trkpt><trkpt lat="40.8200559" lon="-3.60938"><ele>929.5000000000001</ele><time>2026-03-23T10:13:13.699Z</time></trkpt><trkpt lat="40.820016" lon="-3.6094682"><ele>929.0</ele><time>2026-03-23T10:13:14.695Z</time></trkpt><trkpt lat="40.8199777" lon="-3.6095587"><ele>930.1666666666667</ele><time>2026-03-23T10:13:15.699Z</time></trkpt><trkpt lat="40.8199404" lon="-3.6096499"><ele>931.3333333333334</ele><time>2026-03-23T10:13:16.703Z</time></trkpt><trkpt lat="40.8198921" lon="-3.6097365"><ele>932.5</ele><time>2026-03-23T10:13:17.699Z</time></trkpt><trkpt lat="40.8198446" lon="-3.6098125"><ele>933.6666666666667</ele><time>2026-03-23T10:13:18.697Z</time></trkpt><trkpt lat="40.8197863" lon="-3.6098835"><ele>934.8333333333334</ele><time>2026-03-23T10:13:19.693Z</time></trkpt><trkpt lat="40.8197199" lon="-3.6099538"><ele>936.0</ele><time>2026-03-23T10:13:20.709Z</time></trkpt><trkpt lat="40.8196559" lon="-3.610031"><ele>936.0</ele><time>2026-03-23T10:13:21.694Z</time></trkpt><trkpt lat="40.8195872" lon="-3.6101094"><ele>936.0</ele><time>2026-03-23T10:13:22.7Z</time></trkpt><trkpt lat="40.8195276" lon="-3.6101968"><ele>936.0</ele><time>2026-03-23T10:13:23.709Z</time></trkpt><trkpt lat="40.8194752" lon="-3.6102988"><ele>936.0</ele><time>2026-03-23T10:13:24.697Z</time></trkpt><trkpt lat="40.8194383" lon="-3.6104014"><ele>936.0</ele><time>2026-03-23T10:13:25.695Z</time></trkpt><trkpt lat="40.8194022" lon="-3.6104945"><ele>936.0</ele><time>2026-03-23T10:13:26.702Z</time></trkpt><trkpt lat="40.819368" lon="-3.6105925"><ele>936.1666666666666</ele><time>2026-03-23T10:13:27.698Z</time></trkpt><trkpt lat="40.8193338" lon="-3.6106973"><ele>936.3333333333333</ele><time>2026-03-23T10:13:28.695Z</time></trkpt><trkpt lat="40.8193076" lon="-3.6108082"><ele>936.5</ele><time>2026-03-23T10:13:29.703Z</time></trkpt><trkpt lat="40.8192847" lon="-3.6109106"><ele>936.6666666666666</ele><time>2026-03-23T10:13:30.706Z</time></trkpt><trkpt lat="40.8192563" lon="-3.6109969"><ele>936.8333333333333</ele><time>2026-03-23T10:13:31.701Z</time></trkpt><trkpt lat="40.81923" lon="-3.6110752"><ele>937.0</ele><time>2026-03-23T10:13:32.698Z</time></trkpt><trkpt lat="40.8192002" lon="-3.6111504"><ele>936.9999999999999</ele><time>2026-03-23T10:13:33.697Z</time></trkpt><trkpt lat="40.8191621" lon="-3.6112391"><ele>937.0</ele><time>2026-03-23T10:13:34.691Z</time></trkpt><trkpt lat="40.8191233" lon="-3.611346"><ele>937.0</ele><time>2026-03-23T10:13:35.695Z</time></trkpt><trkpt lat="40.8190943" lon="-3.6114478"><ele>937.0</ele><time>2026-03-23T10:13:36.697Z</time></trkpt><trkpt lat="40.819069" lon="-3.6115359"><ele>936.9999999999999</ele><time>2026-03-23T10:13:37.699Z</time></trkpt><trkpt lat="40.819045" lon="-3.6116204"><ele>937.0</ele><time>2026-03-23T10:13:38.698Z</time></trkpt><trkpt lat="40.8190266" lon="-3.6117076"><ele>937.0</ele><time>2026-03-23T10:13:39.703Z</time></trkpt><trkpt lat="40.8190003" lon="-3.6118005"><ele>937.0</ele><time>2026-03-23T10:13:40.696Z</time></trkpt><trkpt lat="40.8189742" lon="-3.6118938"><ele>937.0</ele><time>2026-03-23T10:13:41.706Z</time></trkpt><trkpt lat="40.8189534" lon="-3.6119769"><ele>937.0</ele><time>2026-03-23T10:13:42.688Z</time></trkpt><trkpt lat="40.8189159" lon="-3.6121236"><ele>937.0</ele><time>2026-03-23T10:13:44.703Z</time></trkpt><trkpt lat="40.8188682" lon="-3.6122712"><ele>936.6666666666666</ele><time>2026-03-23T10:13:46.688Z</time></trkpt><trkpt lat="40.8188427" lon="-3.6123498"><ele>936.3333333333333</ele><time>2026-03-23T10:13:47.698Z</time></trkpt><trkpt lat="40.8188142" lon="-3.6124346"><ele>936.0</ele><time>2026-03-23T10:13:48.688Z</time></trkpt><trkpt lat="40.8187866" lon="-3.6125229"><ele>935.6666666666667</ele><time>2026-03-23T10:13:49.709Z</time></trkpt><trkpt lat="40.8187613" lon="-3.6126152"><ele>935.3333333333334</ele><time>2026-03-23T10:13:50.688Z</time></trkpt><trkpt lat="40.8187356" lon="-3.6126979"><ele>935.0</ele><time>2026-03-23T10:13:51.696Z</time></trkpt><trkpt lat="40.8186989" lon="-3.6128236"><ele>935.0000000000001</ele><time>2026-03-23T10:13:53.703Z</time></trkpt><trkpt lat="40.8186648" lon="-3.6129236"><ele>935.0</ele><time>2026-03-23T10:13:55.697Z</time></trkpt><trkpt lat="40.8186268" lon="-3.6130061"><ele>935.0</ele><time>2026-03-23T10:13:57.698Z</time></trkpt><trkpt lat="40.8185654" lon="-3.6131036"><ele>935.0</ele><time>2026-03-23T10:13:59.676Z</time></trkpt><trkpt lat="40.8184991" lon="-3.6131824"><ele>935.0000000000001</ele><time>2026-03-23T10:14:01.7Z</time></trkpt><trkpt lat="40.8184451" lon="-3.6132374"><ele>935.0</ele><time>2026-03-23T10:14:03.705Z</time></trkpt><trkpt lat="40.8183732" lon="-3.6133124"><ele>935.0000000000001</ele><time>2026-03-23T10:14:06.708Z</time></trkpt><trkpt lat="40.8183237" lon="-3.6133717"><ele>935.0</ele><time>2026-03-23T10:14:08.696Z</time></trkpt><trkpt lat="40.8182709" lon="-3.6134314"><ele>935.0000000000001</ele><time>2026-03-23T10:14:10.703Z</time></trkpt><trkpt lat="40.8182105" lon="-3.6134951"><ele>935.0000000000001</ele><time>2026-03-23T10:14:12.681Z</time></trkpt><trkpt lat="40.8181572" lon="-3.6135516"><ele>935.0</ele><time>2026-03-23T10:14:14.694Z</time></trkpt><trkpt lat="40.8180948" lon="-3.6136073"><ele>935.0000000000001</ele><time>2026-03-23T10:14:17.705Z</time></trkpt><trkpt lat="40.8180373" lon="-3.6136752"><ele>935.0000000000001</ele><time>2026-03-23T10:14:20.702Z</time></trkpt><trkpt lat="40.8179948" lon="-3.6137599"><ele>934.1428571428573</ele><time>2026-03-23T10:14:23.702Z</time></trkpt><trkpt lat="40.8179497" lon="-3.6138296"><ele>933.2857142857143</ele><time>2026-03-23T10:14:26.696Z</time></trkpt><trkpt lat="40.817898" lon="-3.6138928"><ele>932.4285714285716</ele><time>2026-03-23T10:14:29.7Z</time></trkpt><trkpt lat="40.8178386" lon="-3.6139503"><ele>931.5714285714287</ele><time>2026-03-23T10:14:33.689Z</time></trkpt><trkpt lat="40.8177894" lon="-3.6140048"><ele>930.7142857142858</ele><time>2026-03-23T10:16:22.691Z</time></trkpt><trkpt lat="40.8177203" lon="-3.6140456"><ele>929.8571428571429</ele><time>2026-03-23T10:16:24.692Z</time></trkpt><trkpt lat="40.8176573" lon="-3.6140967"><ele>929.0</ele><time>2026-03-23T10:16:26.668Z</time></trkpt><trkpt lat="40.8175986" lon="-3.614145"><ele>928.6666666666667</ele><time>2026-03-23T10:16:28.699Z</time></trkpt><trkpt lat="40.8175426" lon="-3.614188"><ele>928.3333333333334</ele><time>2026-03-23T10:16:30.691Z</time></trkpt><trkpt lat="40.8174796" lon="-3.6142266"><ele>928.0</ele><time>2026-03-23T10:16:32.704Z</time></trkpt><trkpt lat="40.8174232" lon="-3.6142637"><ele>927.6666666666667</ele><time>2026-03-23T10:16:34.698Z</time></trkpt><trkpt lat="40.8173236" lon="-3.6143123"><ele>927.3333333333334</ele><time>2026-03-23T10:16:37.832Z</time></trkpt><trkpt lat="40.817253" lon="-3.6143437"><ele>927.0</ele><time>2026-03-23T10:16:39.793Z</time></trkpt><trkpt lat="40.8171642" lon="-3.6143658"><ele>927.0</ele><time>2026-03-23T10:16:42.702Z</time></trkpt><trkpt lat="40.8171014" lon="-3.6143863"><ele>927.0</ele><time>2026-03-23T10:16:44.712Z</time></trkpt><trkpt lat="40.8170277" lon="-3.6143898"><ele>927.0</ele><time>2026-03-23T10:16:47.806Z</time></trkpt><trkpt lat="40.8169498" lon="-3.6143826"><ele>927.0</ele><time>2026-03-23T10:16:50.694Z</time></trkpt><trkpt lat="40.8168876" lon="-3.6143595"><ele>927.0</ele><time>2026-03-23T10:16:52.858Z</time></trkpt><trkpt lat="40.8168044" lon="-3.6143367"><ele>927.0</ele><time>2026-03-23T10:16:55.708Z</time></trkpt><trkpt lat="40.8167211" lon="-3.6143425"><ele>925.1666666666666</ele><time>2026-03-23T10:16:58.697Z</time></trkpt><trkpt lat="40.8166515" lon="-3.6143"><ele>923.3333333333333</ele><time>2026-03-23T10:17:01.707Z</time></trkpt><trkpt lat="40.8165593" lon="-3.6142624"><ele>921.5</ele><time>2026-03-23T10:17:04.696Z</time></trkpt><trkpt lat="40.8164807" lon="-3.614257"><ele>919.6666666666666</ele><time>2026-03-23T10:17:06.694Z</time></trkpt><trkpt lat="40.8164163" lon="-3.6142641"><ele>917.8333333333333</ele><time>2026-03-23T10:17:08.702Z</time></trkpt><trkpt lat="40.8163345" lon="-3.6142905"><ele>916.0</ele><time>2026-03-23T10:17:11.708Z</time></trkpt><trkpt lat="40.8162467" lon="-3.6143138"><ele>915.9999999999999</ele><time>2026-03-23T10:17:14.7Z</time></trkpt><trkpt lat="40.8161719" lon="-3.6142885"><ele>916.0</ele><time>2026-03-23T10:17:33.694Z</time></trkpt><trkpt lat="40.8160915" lon="-3.6143373"><ele>916.0</ele><time>2026-03-23T10:19:30.685Z</time></trkpt><trkpt lat="40.8160203" lon="-3.614353"><ele>916.0</ele><time>2026-03-23T10:19:31.7Z</time></trkpt><trkpt lat="40.8159088" lon="-3.6143668"><ele>915.9999999999999</ele><time>2026-03-23T10:19:33.718Z</time></trkpt><trkpt lat="40.8158139" lon="-3.6143903"><ele>916.0</ele><time>2026-03-23T10:19:35.703Z</time></trkpt><trkpt lat="40.8156867" lon="-3.6144198"><ele>915.1999999999999</ele><time>2026-03-23T10:19:37.69Z</time></trkpt><trkpt lat="40.8155855" lon="-3.6144403"><ele>914.3999999999999</ele><time>2026-03-23T10:19:39.698Z</time></trkpt><trkpt lat="40.8154942" lon="-3.614446"><ele>913.6</ele><time>2026-03-23T10:19:41.696Z</time></trkpt><trkpt lat="40.8153678" lon="-3.6144287"><ele>912.8</ele><time>2026-03-23T10:19:44.683Z</time></trkpt><trkpt lat="40.8153011" lon="-3.6143732"><ele>912.0</ele><time>2026-03-23T10:19:46.705Z</time></trkpt><trkpt lat="40.8152153" lon="-3.6143225"><ele>913.3333333333334</ele><time>2026-03-23T10:19:48.701Z</time></trkpt><trkpt lat="40.815137" lon="-3.6142864"><ele>914.6666666666667</ele><time>2026-03-23T10:19:50.701Z</time></trkpt><trkpt lat="40.815047" lon="-3.6142502"><ele>916.0</ele><time>2026-03-23T10:19:52.709Z</time></trkpt><trkpt lat="40.8149848" lon="-3.614224"><ele>917.3333333333334</ele><time>2026-03-23T10:19:53.695Z</time></trkpt><trkpt lat="40.8149148" lon="-3.6141943"><ele>918.6666666666667</ele><time>2026-03-23T10:19:54.707Z</time></trkpt><trkpt lat="40.8148509" lon="-3.6141656"><ele>920.0</ele><time>2026-03-23T10:19:55.701Z</time></trkpt><trkpt lat="40.8147493" lon="-3.6141464"><ele>920.0</ele><time>2026-03-23T10:19:57.784Z</time></trkpt><trkpt lat="40.8146447" lon="-3.6141171"><ele>920.0</ele><time>2026-03-23T10:19:59.7Z</time></trkpt><trkpt lat="40.8145792" lon="-3.614101"><ele>920.0</ele><time>2026-03-23T10:20:00.688Z</time></trkpt><trkpt lat="40.8144718" lon="-3.6140802"><ele>920.0</ele><time>2026-03-23T10:20:02.696Z</time></trkpt><trkpt lat="40.8143518" lon="-3.6140591"><ele>920.0</ele><time>2026-03-23T10:20:04.699Z</time></trkpt><trkpt lat="40.8142875" lon="-3.6140471"><ele>919.6</ele><time>2026-03-23T10:20:05.71Z</time></trkpt><trkpt lat="40.8141758" lon="-3.6140296"><ele>919.2</ele><time>2026-03-23T10:20:07.693Z</time></trkpt><trkpt lat="40.8140645" lon="-3.6140099"><ele>918.8</ele><time>2026-03-23T10:20:09.694Z</time></trkpt><trkpt lat="40.8139474" lon="-3.6140022"><ele>918.4</ele><time>2026-03-23T10:20:11.707Z</time></trkpt><trkpt lat="40.8138535" lon="-3.6140042"><ele>918.0</ele><time>2026-03-23T10:20:13.694Z</time></trkpt><trkpt lat="40.8137616" lon="-3.6140188"><ele>918.0</ele><time>2026-03-23T10:20:15.71Z</time></trkpt><trkpt lat="40.8136822" lon="-3.6140449"><ele>918.0</ele><time>2026-03-23T10:20:17.702Z</time></trkpt><trkpt lat="40.813615" lon="-3.6140567"><ele>918.0</ele><time>2026-03-23T10:20:19.695Z</time></trkpt><trkpt lat="40.8135487" lon="-3.6140587"><ele>918.0</ele><time>2026-03-23T10:20:21.704Z</time></trkpt><trkpt lat="40.8134485" lon="-3.6140392"><ele>918.0</ele><time>2026-03-23T10:20:24.702Z</time></trkpt><trkpt lat="40.8133699" lon="-3.6140586"><ele>918.0</ele><time>2026-03-23T10:20:26.698Z</time></trkpt><trkpt lat="40.8132587" lon="-3.6140701"><ele>917.6666666666666</ele><time>2026-03-23T10:20:28.699Z</time></trkpt><trkpt lat="40.8131934" lon="-3.6140704"><ele>917.3333333333333</ele><time>2026-03-23T10:20:29.696Z</time></trkpt><trkpt lat="40.8130895" lon="-3.6140694"><ele>917.0</ele><time>2026-03-23T10:20:31.705Z</time></trkpt><trkpt lat="40.8129938" lon="-3.6140669"><ele>916.6666666666666</ele><time>2026-03-23T10:20:33.695Z</time></trkpt><trkpt lat="40.8129281" lon="-3.6140606"><ele>916.3333333333333</ele><time>2026-03-23T10:20:34.698Z</time></trkpt><trkpt lat="40.8128623" lon="-3.6140752"><ele>916.0</ele><time>2026-03-23T10:20:35.693Z</time></trkpt><trkpt lat="40.8127942" lon="-3.6140943"><ele>916.0</ele><time>2026-03-23T10:20:36.699Z</time></trkpt><trkpt lat="40.812677" lon="-3.6140946"><ele>915.9999999999999</ele><time>2026-03-23T10:20:38.69Z</time></trkpt><trkpt lat="40.8125832" lon="-3.6141078"><ele>915.9999999999999</ele><time>2026-03-23T10:20:40.709Z</time></trkpt><trkpt lat="40.8125072" lon="-3.6141156"><ele>916.0</ele><time>2026-03-23T10:20:42.681Z</time></trkpt><trkpt lat="40.8124254" lon="-3.6141207"><ele>916.0</ele><time>2026-03-23T10:20:44.712Z</time></trkpt><trkpt lat="40.8123409" lon="-3.6141386"><ele>915.4999999999999</ele><time>2026-03-23T10:20:46.678Z</time></trkpt><trkpt lat="40.8122622" lon="-3.6141427"><ele>915.0</ele><time>2026-03-23T10:20:48.694Z</time></trkpt><trkpt lat="40.812186" lon="-3.6141441"><ele>914.5</ele><time>2026-03-23T10:20:50.703Z</time></trkpt><trkpt lat="40.8120915" lon="-3.6141245"><ele>914.0</ele><time>2026-03-23T10:20:52.694Z</time></trkpt><trkpt lat="40.8120274" lon="-3.6141129"><ele>913.4999999999999</ele><time>2026-03-23T10:20:54.69Z</time></trkpt><trkpt lat="40.8119506" lon="-3.6140908"><ele>913.0</ele><time>2026-03-23T10:20:57.7Z</time></trkpt><trkpt lat="40.8118859" lon="-3.6140751"><ele>912.3333333333333</ele><time>2026-03-23T10:21:01.705Z</time></trkpt><trkpt lat="40.8118201" lon="-3.6140616"><ele>911.6666666666666</ele><time>2026-03-23T10:21:04.683Z</time></trkpt><trkpt lat="40.8117432" lon="-3.6140477"><ele>911.0</ele><time>2026-03-23T10:21:08.689Z</time></trkpt><trkpt lat="40.8116718" lon="-3.6140327"><ele>910.3333333333333</ele><time>2026-03-23T10:21:11.764Z</time></trkpt><trkpt lat="40.8115878" lon="-3.6140154"><ele>909.6666666666666</ele><time>2026-03-23T10:21:14.685Z</time></trkpt><trkpt lat="40.8115047" lon="-3.6139989"><ele>909.0</ele><time>2026-03-23T10:21:17.695Z</time></trkpt><trkpt lat="40.8114303" lon="-3.6139844"><ele>909.0</ele><time>2026-03-23T10:21:20.852Z</time></trkpt><trkpt lat="40.8113545" lon="-3.6139641"><ele>909.0</ele><time>2026-03-23T10:21:23.69Z</time></trkpt><trkpt lat="40.811287" lon="-3.6139554"><ele>909.0</ele><time>2026-03-23T10:21:26.696Z</time></trkpt><trkpt lat="40.8112057" lon="-3.6139268"><ele>909.0</ele><time>2026-03-23T10:21:29.693Z</time></trkpt><trkpt lat="40.8111422" lon="-3.6138747"><ele>909.0</ele><time>2026-03-23T10:21:32.687Z</time></trkpt><trkpt lat="40.8110672" lon="-3.6138188"><ele>909.0</ele><time>2026-03-23T10:21:35.699Z</time></trkpt><trkpt lat="40.81098" lon="-3.6137783"><ele>908.3333333333334</ele><time>2026-03-23T10:21:37.691Z</time></trkpt><trkpt lat="40.8108955" lon="-3.6137415"><ele>907.6666666666667</ele><time>2026-03-23T10:21:39.702Z</time></trkpt><trkpt lat="40.8108334" lon="-3.6137023"><ele>907.0</ele><time>2026-03-23T10:21:41.685Z</time></trkpt><trkpt lat="40.8107719" lon="-3.6136679"><ele>906.3333333333334</ele><time>2026-03-23T10:21:44.671Z</time></trkpt><trkpt lat="40.8107" lon="-3.6136305"><ele>905.6666666666667</ele><time>2026-03-23T10:21:48.698Z</time></trkpt><trkpt lat="40.8106248" lon="-3.6135918"><ele>905.0</ele><time>2026-03-23T10:21:50.693Z</time></trkpt><trkpt lat="40.810539" lon="-3.6135598"><ele>904.7142857142857</ele><time>2026-03-23T10:21:53.697Z</time></trkpt><trkpt lat="40.8104733" lon="-3.6135478"><ele>904.4285714285713</ele><time>2026-03-23T10:21:56.704Z</time></trkpt><trkpt lat="40.810401" lon="-3.6135568"><ele>904.1428571428571</ele><time>2026-03-23T10:21:59.695Z</time></trkpt><trkpt lat="40.8103362" lon="-3.6135347"><ele>903.8571428571429</ele><time>2026-03-23T10:22:23.666Z</time></trkpt><trkpt lat="40.810272" lon="-3.6135408"><ele>903.5714285714286</ele><time>2026-03-23T10:24:17.695Z</time></trkpt><trkpt lat="40.8102041" lon="-3.613544"><ele>903.2857142857142</ele><time>2026-03-23T10:25:51.675Z</time></trkpt><trkpt lat="40.8101395" lon="-3.6135143"><ele>903.0</ele><time>2026-03-23T10:25:57.586Z</time></trkpt><trkpt lat="40.8100754" lon="-3.6134954"><ele>902.7142857142858</ele><time>2026-03-23T10:26:03.697Z</time></trkpt><trkpt lat="40.8100108" lon="-3.6134667"><ele>902.4285714285714</ele><time>2026-03-23T10:26:09.694Z</time></trkpt><trkpt lat="40.8099451" lon="-3.6134708"><ele>902.1428571428571</ele><time>2026-03-23T10:26:15.694Z</time></trkpt><trkpt lat="40.8098857" lon="-3.6135048"><ele>901.8571428571429</ele><time>2026-03-23T10:26:21.692Z</time></trkpt><trkpt lat="40.8098422" lon="-3.613566"><ele>901.5714285714287</ele><time>2026-03-23T10:26:39.701Z</time></trkpt><trkpt lat="40.8098661" lon="-3.6136501"><ele>901.2857142857143</ele><time>2026-03-23T10:26:45.685Z</time></trkpt><trkpt lat="40.8098669" lon="-3.6137408"><ele>901.0</ele><time>2026-03-23T10:26:52.713Z</time></trkpt><trkpt lat="40.8098907" lon="-3.6138208"><ele>901.0</ele><time>2026-03-23T10:27:01.655Z</time></trkpt><trkpt lat="40.809871" lon="-3.6137388"><ele>901.0000000000001</ele><time>2026-03-23T10:27:31.683Z</time></trkpt><trkpt lat="40.8098526" lon="-3.6138241"><ele>901.0</ele><time>2026-03-23T10:27:52.684Z</time></trkpt><trkpt lat="40.809868" lon="-3.6139135"><ele>901.0</ele><time>2026-03-23T10:28:01.669Z</time></trkpt><trkpt lat="40.809871" lon="-3.6140012"><ele>901.0000000000001</ele><time>2026-03-23T10:28:09.69Z</time></trkpt><trkpt lat="40.8098831" lon="-3.6140903"><ele>901.0</ele><time>2026-03-23T10:28:24.685Z</time></trkpt><trkpt lat="40.8099096" lon="-3.6141669"><ele>901.0</ele><time>2026-03-23T10:28:32.834Z</time></trkpt><trkpt lat="40.8099099" lon="-3.6142516"><ele>901.0</ele><time>2026-03-23T10:28:39.631Z</time></trkpt><trkpt lat="40.8098952" lon="-3.6141613"><ele>901.0000000000001</ele><time>2026-03-23T10:28:53.687Z</time></trkpt><trkpt lat="40.8098744" lon="-3.6140652"><ele>901.0</ele><time>2026-03-23T10:29:28.705Z</time></trkpt><trkpt lat="40.8098425" lon="-3.6139822"><ele>901.0</ele><time>2026-03-23T10:29:38.689Z</time></trkpt><trkpt lat="40.8098475" lon="-3.6138934"><ele>901.0000000000001</ele><time>2026-03-23T10:29:48.702Z</time></trkpt><trkpt lat="40.8097724" lon="-3.6138974"><ele>901.0</ele><time>2026-03-23T10:30:14.668Z</time></trkpt><trkpt lat="40.8097041" lon="-3.6139097"><ele>901.0</ele><time>2026-03-23T10:30:21.595Z</time></trkpt><trkpt lat="40.8096325" lon="-3.6139397"><ele>901.0</ele><time>2026-03-23T10:30:29.686Z</time></trkpt><trkpt lat="40.8095739" lon="-3.6138991"><ele>901.0000000000001</ele><time>2026-03-23T10:30:36.67Z</time></trkpt><trkpt lat="40.8095332" lon="-3.6138352"><ele>901.0</ele><time>2026-03-23T10:30:47.684Z</time></trkpt><trkpt lat="40.8094711" lon="-3.6138616"><ele>901.0</ele><time>2026-03-23T10:30:55.698Z</time></trkpt><trkpt lat="40.8094126" lon="-3.6138988"><ele>901.0000000000001</ele><time>2026-03-23T10:31:02.714Z</time></trkpt><trkpt lat="40.8093399" lon="-3.6138778"><ele>901.0</ele><time>2026-03-23T10:31:07.69Z</time></trkpt><trkpt lat="40.8092703" lon="-3.6138935"><ele>901.0</ele><time>2026-03-23T10:31:14.677Z</time></trkpt><trkpt lat="40.8092039" lon="-3.6139238"><ele>900.5714285714287</ele><time>2026-03-23T10:31:22.711Z</time></trkpt><trkpt lat="40.8091334" lon="-3.6139354"><ele>900.1428571428572</ele><time>2026-03-23T10:31:29.683Z</time></trkpt><trkpt lat="40.8090703" lon="-3.613948"><ele>899.7142857142858</ele><time>2026-03-23T10:31:35.613Z</time></trkpt><trkpt lat="40.8090013" lon="-3.6139545"><ele>899.2857142857142</ele><time>2026-03-23T10:31:41.613Z</time></trkpt><trkpt lat="40.8089275" lon="-3.6139473"><ele>898.8571428571428</ele><time>2026-03-23T10:31:48.592Z</time></trkpt><trkpt lat="40.808872" lon="-3.6138898"><ele>898.4285714285713</ele><time>2026-03-23T10:31:56.71Z</time></trkpt><trkpt lat="40.8088628" lon="-3.6137985"><ele>898.0</ele><time>2026-03-23T10:32:10.653Z</time></trkpt><trkpt lat="40.8089176" lon="-3.6137388"><ele>898.0</ele><time>2026-03-23T10:32:16.704Z</time></trkpt><trkpt lat="40.8089861" lon="-3.6137072"><ele>897.9999999999999</ele><time>2026-03-23T10:32:22.675Z</time></trkpt><trkpt lat="40.8090511" lon="-3.6136756"><ele>898.0</ele><time>2026-03-23T10:32:28.679Z</time></trkpt><trkpt lat="40.8091135" lon="-3.6136554"><ele>898.0</ele><time>2026-03-23T10:32:33.644Z</time></trkpt><trkpt lat="40.8091753" lon="-3.6136386"><ele>897.9999999999999</ele><time>2026-03-23T10:32:39.68Z</time></trkpt><trkpt lat="40.8092501" lon="-3.6136301"><ele>898.0</ele><time>2026-03-23T10:32:45.683Z</time></trkpt><trkpt lat="40.809317" lon="-3.6136147"><ele>898.0</ele><time>2026-03-23T10:32:50.687Z</time></trkpt><trkpt lat="40.8093815" lon="-3.6135914"><ele>898.4285714285713</ele><time>2026-03-23T10:32:55.696Z</time></trkpt><trkpt lat="40.8094445" lon="-3.6135654"><ele>898.8571428571428</ele><time>2026-03-23T10:33:00.682Z</time></trkpt><trkpt lat="40.8095062" lon="-3.613548"><ele>899.2857142857142</ele><time>2026-03-23T10:33:05.689Z</time></trkpt><trkpt lat="40.8095691" lon="-3.613541"><ele>899.7142857142858</ele><time>2026-03-23T10:33:15.683Z</time></trkpt><trkpt lat="40.8096344" lon="-3.613504"><ele>900.1428571428572</ele><time>2026-03-23T10:33:22.594Z</time></trkpt><trkpt lat="40.8096975" lon="-3.6134828"><ele>900.5714285714287</ele><time>2026-03-23T10:33:28.589Z</time></trkpt><trkpt lat="40.8097728" lon="-3.613483"><ele>901.0</ele><time>2026-03-23T10:33:34.68Z</time></trkpt><trkpt lat="40.8098406" lon="-3.6134657"><ele>901.0</ele><time>2026-03-23T10:33:40.602Z</time></trkpt><trkpt lat="40.8099062" lon="-3.6135015"><ele>901.0000000000001</ele><time>2026-03-23T10:33:46.69Z</time></trkpt><trkpt lat="40.8099705" lon="-3.613485"><ele>901.0</ele><time>2026-03-23T10:34:23.686Z</time></trkpt><trkpt lat="40.8100409" lon="-3.6134718"><ele>901.0</ele><time>2026-03-23T10:34:29.675Z</time></trkpt><trkpt lat="40.8101052" lon="-3.6135022"><ele>901.0000000000001</ele><time>2026-03-23T10:34:35.697Z</time></trkpt><trkpt lat="40.8101746" lon="-3.6135184"><ele>901.0</ele><time>2026-03-23T10:34:42.699Z</time></trkpt><trkpt lat="40.8102409" lon="-3.6135434"><ele>901.0</ele><time>2026-03-23T10:34:49.675Z</time></trkpt><trkpt lat="40.8103082" lon="-3.6135349"><ele>900.9999999999999</ele><time>2026-03-23T10:34:56.68Z</time></trkpt><trkpt lat="40.8103742" lon="-3.6135312"><ele>901.0</ele><time>2026-03-23T10:35:04.698Z</time></trkpt><trkpt lat="40.8102791" lon="-3.6135502"><ele>901.0</ele><time>2026-03-23T10:37:43.68Z</time></trkpt><trkpt lat="40.8101891" lon="-3.613538"><ele>901.0</ele><time>2026-03-23T10:37:45.686Z</time></trkpt><trkpt lat="40.8101264" lon="-3.6135106"><ele>900.9999999999999</ele><time>2026-03-23T10:37:46.689Z</time></trkpt><trkpt lat="40.8100617" lon="-3.6134933"><ele>901.0</ele><time>2026-03-23T10:37:47.688Z</time></trkpt><trkpt lat="40.8099916" lon="-3.6134772"><ele>900.9999999999999</ele><time>2026-03-23T10:37:48.675Z</time></trkpt><trkpt lat="40.8099139" lon="-3.6134675"><ele>901.0</ele><time>2026-03-23T10:37:49.687Z</time></trkpt><trkpt lat="40.8098345" lon="-3.6134685"><ele>901.0</ele><time>2026-03-23T10:37:50.702Z</time></trkpt><trkpt lat="40.80977" lon="-3.6134742"><ele>901.0</ele><time>2026-03-23T10:37:51.687Z</time></trkpt><trkpt lat="40.8096992" lon="-3.6134909"><ele>900.9999999999999</ele><time>2026-03-23T10:37:52.702Z</time></trkpt><trkpt lat="40.809632" lon="-3.6135012"><ele>901.0</ele><time>2026-03-23T10:37:53.678Z</time></trkpt><trkpt lat="40.8095211" lon="-3.6135398"><ele>901.0</ele><time>2026-03-23T10:37:55.692Z</time></trkpt><trkpt lat="40.8094415" lon="-3.6135643"><ele>901.0000000000001</ele><time>2026-03-23T10:37:57.699Z</time></trkpt><trkpt lat="40.8093704" lon="-3.6135866"><ele>901.0</ele><time>2026-03-23T10:37:59.688Z</time></trkpt><trkpt lat="40.8093034" lon="-3.6136058"><ele>901.0</ele><time>2026-03-23T10:38:01.682Z</time></trkpt><trkpt lat="40.809226" lon="-3.6136319"><ele>901.0000000000001</ele><time>2026-03-23T10:38:03.686Z</time></trkpt><trkpt lat="40.8091624" lon="-3.6136577"><ele>901.0</ele><time>2026-03-23T10:38:05.688Z</time></trkpt><trkpt lat="40.8090875" lon="-3.6136915"><ele>901.0</ele><time>2026-03-23T10:38:09.701Z</time></trkpt><trkpt lat="40.8090089" lon="-3.6137118"><ele>900.4</ele><time>2026-03-23T10:38:12.683Z</time></trkpt><trkpt lat="40.8089444" lon="-3.6137389"><ele>899.8</ele><time>2026-03-23T10:38:14.692Z</time></trkpt><trkpt lat="40.8089894" lon="-3.6137987"><ele>899.1999999999999</ele><time>2026-03-23T10:38:38.691Z</time></trkpt><trkpt lat="40.8089421" lon="-3.6137377"><ele>898.5999999999999</ele><time>2026-03-23T10:40:01.701Z</time></trkpt><trkpt lat="40.8088284" lon="-3.6138709"><ele>898.0</ele><time>2026-03-23T10:40:44.681Z</time></trkpt><trkpt lat="40.8087692" lon="-3.6139866"><ele>897.9999999999999</ele><time>2026-03-23T10:40:47.689Z</time></trkpt><trkpt lat="40.8087414" lon="-3.6140808"><ele>898.0</ele><time>2026-03-23T10:40:49.698Z</time></trkpt><trkpt lat="40.8086737" lon="-3.614227"><ele>898.0</ele><time>2026-03-23T10:40:54.681Z</time></trkpt><trkpt lat="40.8086016" lon="-3.6142902"><ele>898.0</ele><time>2026-03-23T10:40:56.684Z</time></trkpt><trkpt lat="40.808532" lon="-3.6142832"><ele>897.9999999999999</ele><time>2026-03-23T10:40:58.687Z</time></trkpt><trkpt lat="40.8084479" lon="-3.6142974"><ele>898.0</ele><time>2026-03-23T10:41:01.687Z</time></trkpt><trkpt lat="40.808378" lon="-3.6143241"><ele>897.8</ele><time>2026-03-23T10:41:03.689Z</time></trkpt><trkpt lat="40.8083066" lon="-3.6143713"><ele>897.5999999999999</ele><time>2026-03-23T10:41:05.696Z</time></trkpt><trkpt lat="40.808241" lon="-3.6143838"><ele>897.4000000000001</ele><time>2026-03-23T10:41:07.695Z</time></trkpt><trkpt lat="40.8081498" lon="-3.6143984"><ele>897.2</ele><time>2026-03-23T10:41:09.72Z</time></trkpt><trkpt lat="40.8080561" lon="-3.6144643"><ele>897.0</ele><time>2026-03-23T10:41:11.665Z</time></trkpt><trkpt lat="40.8079544" lon="-3.614543"><ele>897.0</ele><time>2026-03-23T10:41:13.696Z</time></trkpt><trkpt lat="40.8078479" lon="-3.6146242"><ele>897.0</ele><time>2026-03-23T10:41:15.7Z</time></trkpt><trkpt lat="40.807757" lon="-3.6146803"><ele>897.0</ele><time>2026-03-23T10:41:17.724Z</time></trkpt><trkpt lat="40.8076941" lon="-3.6147173"><ele>897.0</ele><time>2026-03-23T10:41:19.69Z</time></trkpt><trkpt lat="40.8076397" lon="-3.6147713"><ele>897.0</ele><time>2026-03-23T10:41:22.699Z</time></trkpt><trkpt lat="40.8075596" lon="-3.6148249"><ele>897.0</ele><time>2026-03-23T10:41:35.682Z</time></trkpt><trkpt lat="40.8074781" lon="-3.614898"><ele>897.0</ele><time>2026-03-23T10:41:37.67Z</time></trkpt><trkpt lat="40.8073815" lon="-3.6149536"><ele>897.0</ele><time>2026-03-23T10:41:39.666Z</time></trkpt><trkpt lat="40.8072736" lon="-3.6150233"><ele>897.0</ele><time>2026-03-23T10:41:41.665Z</time></trkpt><trkpt lat="40.8071798" lon="-3.6150906"><ele>897.0</ele><time>2026-03-23T10:41:43.673Z</time></trkpt><trkpt lat="40.8071087" lon="-3.615146"><ele>897.0</ele><time>2026-03-23T10:41:45.663Z</time></trkpt><trkpt lat="40.8070433" lon="-3.6151858"><ele>897.0</ele><time>2026-03-23T10:41:48.683Z</time></trkpt><trkpt lat="40.806981" lon="-3.6152198"><ele>897.0</ele><time>2026-03-23T10:41:51.666Z</time></trkpt><trkpt lat="40.8068744" lon="-3.615263"><ele>897.0</ele><time>2026-03-23T10:41:53.678Z</time></trkpt><trkpt lat="40.8068173" lon="-3.6153038"><ele>897.0</ele><time>2026-03-23T10:41:54.667Z</time></trkpt><trkpt lat="40.806711" lon="-3.615382"><ele>897.0</ele><time>2026-03-23T10:41:56.676Z</time></trkpt><trkpt lat="40.8066596" lon="-3.6154347"><ele>896.6</ele><time>2026-03-23T10:41:57.68Z</time></trkpt><trkpt lat="40.8065755" lon="-3.6155395"><ele>896.2</ele><time>2026-03-23T10:41:59.696Z</time></trkpt><trkpt lat="40.8065013" lon="-3.6156162"><ele>895.8</ele><time>2026-03-23T10:42:01.697Z</time></trkpt><trkpt lat="40.8064083" lon="-3.6156897"><ele>895.4</ele><time>2026-03-23T10:42:03.705Z</time></trkpt><trkpt lat="40.8063134" lon="-3.6157726"><ele>895.0</ele><time>2026-03-23T10:42:05.693Z</time></trkpt><trkpt lat="40.8062214" lon="-3.6158643"><ele>894.9999999999999</ele><time>2026-03-23T10:42:07.706Z</time></trkpt><trkpt lat="40.8061328" lon="-3.6159424"><ele>895.0</ele><time>2026-03-23T10:42:09.688Z</time></trkpt><trkpt lat="40.8060633" lon="-3.6160164"><ele>895.0</ele><time>2026-03-23T10:42:11.71Z</time></trkpt><trkpt lat="40.8060093" lon="-3.6160866"><ele>895.0</ele><time>2026-03-23T10:42:13.692Z</time></trkpt><trkpt lat="40.8059454" lon="-3.6161487"><ele>894.9999999999999</ele><time>2026-03-23T10:42:15.713Z</time></trkpt><trkpt lat="40.8058772" lon="-3.616215"><ele>895.0</ele><time>2026-03-23T10:42:17.7Z</time></trkpt><trkpt lat="40.8058039" lon="-3.6162961"><ele>894.0</ele><time>2026-03-23T10:42:20.67Z</time></trkpt><trkpt lat="40.8057451" lon="-3.6163984"><ele>893.0</ele><time>2026-03-23T10:42:22.705Z</time></trkpt><trkpt lat="40.805683" lon="-3.6165023"><ele>892.0</ele><time>2026-03-23T10:42:24.689Z</time></trkpt><trkpt lat="40.8056104" lon="-3.6166015"><ele>891.0</ele><time>2026-03-23T10:42:26.69Z</time></trkpt><trkpt lat="40.8055197" lon="-3.6167156"><ele>890.0</ele><time>2026-03-23T10:42:28.691Z</time></trkpt><trkpt lat="40.8054457" lon="-3.6168138"><ele>890.0000000000001</ele><time>2026-03-23T10:42:30.712Z</time></trkpt><trkpt lat="40.8053745" lon="-3.616905"><ele>890.0</ele><time>2026-03-23T10:42:32.689Z</time></trkpt><trkpt lat="40.8053094" lon="-3.6169752"><ele>890.0</ele><time>2026-03-23T10:42:34.68Z</time></trkpt><trkpt lat="40.8052308" lon="-3.616997"><ele>890.0</ele><time>2026-03-23T10:42:37.683Z</time></trkpt><trkpt lat="40.8051655" lon="-3.6169781"><ele>890.0000000000001</ele><time>2026-03-23T10:43:11.685Z</time></trkpt><trkpt lat="40.805098" lon="-3.616979"><ele>890.0</ele><time>2026-03-23T10:43:19.679Z</time></trkpt><trkpt lat="40.8051618" lon="-3.6169866"><ele>890.0</ele><time>2026-03-23T10:44:06.698Z</time></trkpt><trkpt lat="40.805201" lon="-3.6170676"><ele>890.0</ele><time>2026-03-23T10:44:39.7Z</time></trkpt><trkpt lat="40.8052649" lon="-3.616997"><ele>890.0</ele><time>2026-03-23T10:44:43.684Z</time></trkpt><trkpt lat="40.8053396" lon="-3.6169447"><ele>890.0</ele><time>2026-03-23T10:44:45.67Z</time></trkpt><trkpt lat="40.8054299" lon="-3.6168683"><ele>890.0</ele><time>2026-03-23T10:44:47.687Z</time></trkpt><trkpt lat="40.8055277" lon="-3.6167648"><ele>890.0</ele><time>2026-03-23T10:44:49.668Z</time></trkpt><trkpt lat="40.8055833" lon="-3.6166973"><ele>890.0</ele><time>2026-03-23T10:44:50.684Z</time></trkpt><trkpt lat="40.8056404" lon="-3.6166331"><ele>890.0</ele><time>2026-03-23T10:44:51.663Z</time></trkpt><trkpt lat="40.8056882" lon="-3.6165645"><ele>890.0</ele><time>2026-03-23T10:44:52.692Z</time></trkpt><trkpt lat="40.8057282" lon="-3.6164917"><ele>890.0</ele><time>2026-03-23T10:44:53.672Z</time></trkpt><trkpt lat="40.8057676" lon="-3.6164182"><ele>890.0</ele><time>2026-03-23T10:44:54.674Z</time></trkpt><trkpt lat="40.8058144" lon="-3.6163423"><ele>890.0</ele><time>2026-03-23T10:44:55.666Z</time></trkpt><trkpt lat="40.8058693" lon="-3.6162687"><ele>890.0000000000001</ele><time>2026-03-23T10:44:56.67Z</time></trkpt><trkpt lat="40.8059306" lon="-3.6161993"><ele>890.0</ele><time>2026-03-23T10:44:57.671Z</time></trkpt><trkpt lat="40.8059876" lon="-3.6161345"><ele>890.0</ele><time>2026-03-23T10:44:58.675Z</time></trkpt><trkpt lat="40.8060408" lon="-3.616069"><ele>890.0</ele><time>2026-03-23T10:44:59.681Z</time></trkpt><trkpt lat="40.8060966" lon="-3.6159993"><ele>890.0000000000001</ele><time>2026-03-23T10:45:00.675Z</time></trkpt><trkpt lat="40.8061617" lon="-3.6159258"><ele>890.0</ele><time>2026-03-23T10:45:01.694Z</time></trkpt><trkpt lat="40.8062305" lon="-3.6158559"><ele>890.8333333333334</ele><time>2026-03-23T10:45:02.688Z</time></trkpt><trkpt lat="40.8062951" lon="-3.6157927"><ele>891.6666666666667</ele><time>2026-03-23T10:45:03.691Z</time></trkpt><trkpt lat="40.806358" lon="-3.6157306"><ele>892.5</ele><time>2026-03-23T10:45:04.697Z</time></trkpt><trkpt lat="40.8064217" lon="-3.6156801"><ele>893.3333333333333</ele><time>2026-03-23T10:45:05.714Z</time></trkpt><trkpt lat="40.8064864" lon="-3.6156276"><ele>894.1666666666666</ele><time>2026-03-23T10:45:06.694Z</time></trkpt><trkpt lat="40.8065509" lon="-3.6155711"><ele>895.0</ele><time>2026-03-23T10:45:07.677Z</time></trkpt><trkpt lat="40.8066096" lon="-3.6155114"><ele>894.9999999999999</ele><time>2026-03-23T10:45:08.686Z</time></trkpt><trkpt lat="40.8066635" lon="-3.6154533"><ele>895.0</ele><time>2026-03-23T10:45:09.705Z</time></trkpt><trkpt lat="40.8067234" lon="-3.6153958"><ele>895.0</ele><time>2026-03-23T10:45:10.699Z</time></trkpt><trkpt lat="40.8067928" lon="-3.6153401"><ele>895.0</ele><time>2026-03-23T10:45:11.69Z</time></trkpt><trkpt lat="40.8068699" lon="-3.615292"><ele>894.9999999999999</ele><time>2026-03-23T10:45:12.713Z</time></trkpt><trkpt lat="40.8069498" lon="-3.6152527"><ele>895.0</ele><time>2026-03-23T10:45:13.696Z</time></trkpt><trkpt lat="40.8070355" lon="-3.6152134"><ele>895.4</ele><time>2026-03-23T10:45:14.673Z</time></trkpt><trkpt lat="40.8071233" lon="-3.6151642"><ele>895.8</ele><time>2026-03-23T10:45:15.687Z</time></trkpt><trkpt lat="40.8072089" lon="-3.6151122"><ele>896.2</ele><time>2026-03-23T10:45:16.686Z</time></trkpt><trkpt lat="40.8072883" lon="-3.615058"><ele>896.6</ele><time>2026-03-23T10:45:17.703Z</time></trkpt><trkpt lat="40.8073679" lon="-3.615005"><ele>897.0</ele><time>2026-03-23T10:45:18.694Z</time></trkpt><trkpt lat="40.8074557" lon="-3.6149527"><ele>897.0</ele><time>2026-03-23T10:45:19.717Z</time></trkpt><trkpt lat="40.807548" lon="-3.6148949"><ele>897.0</ele><time>2026-03-23T10:45:20.691Z</time></trkpt><trkpt lat="40.8076396" lon="-3.6148277"><ele>897.0</ele><time>2026-03-23T10:45:21.672Z</time></trkpt><trkpt lat="40.8077266" lon="-3.6147566"><ele>897.0</ele><time>2026-03-23T10:45:22.688Z</time></trkpt><trkpt lat="40.8078067" lon="-3.6146948"><ele>897.0</ele><time>2026-03-23T10:45:23.693Z</time></trkpt><trkpt lat="40.8078867" lon="-3.614638"><ele>897.0</ele><time>2026-03-23T10:45:24.689Z</time></trkpt><trkpt lat="40.8079709" lon="-3.6145785"><ele>897.0</ele><time>2026-03-23T10:45:25.704Z</time></trkpt><trkpt lat="40.8080535" lon="-3.6145197"><ele>897.0</ele><time>2026-03-23T10:45:26.699Z</time></trkpt><trkpt lat="40.8081366" lon="-3.6144584"><ele>897.0</ele><time>2026-03-23T10:45:27.676Z</time></trkpt><trkpt lat="40.8082145" lon="-3.6143977"><ele>897.0</ele><time>2026-03-23T10:45:28.686Z</time></trkpt><trkpt lat="40.8082838" lon="-3.6143466"><ele>897.1666666666666</ele><time>2026-03-23T10:45:29.69Z</time></trkpt><trkpt lat="40.8083417" lon="-3.6142981"><ele>897.3333333333333</ele><time>2026-03-23T10:45:30.678Z</time></trkpt><trkpt lat="40.8084368" lon="-3.6142174"><ele>897.5</ele><time>2026-03-23T10:45:32.702Z</time></trkpt><trkpt lat="40.8085093" lon="-3.61417"><ele>897.6666666666666</ele><time>2026-03-23T10:45:34.667Z</time></trkpt><trkpt lat="40.8085882" lon="-3.6141812"><ele>897.8333333333333</ele><time>2026-03-23T10:45:37.697Z</time></trkpt><trkpt lat="40.8086823" lon="-3.6141633"><ele>898.0</ele><time>2026-03-23T10:45:40.711Z</time></trkpt><trkpt lat="40.8087597" lon="-3.6141539"><ele>897.9999999999999</ele><time>2026-03-23T10:45:42.686Z</time></trkpt><trkpt lat="40.8088179" lon="-3.6140969"><ele>898.0</ele><time>2026-03-23T10:45:44.688Z</time></trkpt><trkpt lat="40.8088799" lon="-3.6140212"><ele>898.0</ele><time>2026-03-23T10:45:46.683Z</time></trkpt><trkpt lat="40.8089144" lon="-3.6139224"><ele>898.0</ele><time>2026-03-23T10:45:49.686Z</time></trkpt><trkpt lat="40.8089372" lon="-3.6138294"><ele>897.9999999999999</ele><time>2026-03-23T10:45:52.69Z</time></trkpt><trkpt lat="40.8088391" lon="-3.6138077"><ele>898.0</ele><time>2026-03-23T10:45:55.68Z</time></trkpt><trkpt lat="40.8087657" lon="-3.6138339"><ele>897.9999999999999</ele><time>2026-03-23T10:45:57.681Z</time></trkpt><trkpt lat="40.8086658" lon="-3.6138363"><ele>898.0</ele><time>2026-03-23T10:45:59.672Z</time></trkpt><trkpt lat="40.8085663" lon="-3.6138374"><ele>898.0</ele><time>2026-03-23T10:46:01.689Z</time></trkpt><trkpt lat="40.808496" lon="-3.6138278"><ele>898.0</ele><time>2026-03-23T10:46:03.666Z</time></trkpt><trkpt lat="40.808427" lon="-3.6138086"><ele>897.9999999999999</ele><time>2026-03-23T10:46:06.681Z</time></trkpt><trkpt lat="40.8083494" lon="-3.6137824"><ele>898.0</ele><time>2026-03-23T10:46:09.681Z</time></trkpt><trkpt lat="40.8082756" lon="-3.613749"><ele>897.4</ele><time>2026-03-23T10:46:12.681Z</time></trkpt><trkpt lat="40.8082016" lon="-3.6137052"><ele>896.8</ele><time>2026-03-23T10:46:14.703Z</time></trkpt><trkpt lat="40.8081324" lon="-3.6136491"><ele>896.2</ele><time>2026-03-23T10:46:16.68Z</time></trkpt><trkpt lat="40.8080414" lon="-3.6135374"><ele>895.6</ele><time>2026-03-23T10:46:18.676Z</time></trkpt><trkpt lat="40.8079502" lon="-3.61342"><ele>895.0</ele><time>2026-03-23T10:46:20.695Z</time></trkpt><trkpt lat="40.807905" lon="-3.6133562"><ele>895.0</ele><time>2026-03-23T10:46:21.703Z</time></trkpt><trkpt lat="40.8078269" lon="-3.6132297"><ele>895.0</ele><time>2026-03-23T10:46:23.678Z</time></trkpt><trkpt lat="40.8077608" lon="-3.6131065"><ele>895.0</ele><time>2026-03-23T10:46:25.685Z</time></trkpt><trkpt lat="40.8076906" lon="-3.6129702"><ele>895.0</ele><time>2026-03-23T10:46:27.67Z</time></trkpt><trkpt lat="40.8076462" lon="-3.6129092"><ele>895.0</ele><time>2026-03-23T10:46:28.676Z</time></trkpt><trkpt lat="40.8075667" lon="-3.6127934"><ele>891.6</ele><time>2026-03-23T10:46:30.674Z</time></trkpt><trkpt lat="40.8074785" lon="-3.6126907"><ele>888.2</ele><time>2026-03-23T10:46:32.673Z</time></trkpt><trkpt lat="40.8073892" lon="-3.6126026"><ele>884.8</ele><time>2026-03-23T10:46:34.67Z</time></trkpt><trkpt lat="40.8073121" lon="-3.6125441"><ele>881.4</ele><time>2026-03-23T10:46:36.681Z</time></trkpt><trkpt lat="40.8072372" lon="-3.6124947"><ele>878.0</ele><time>2026-03-23T10:46:38.67Z</time></trkpt><trkpt lat="40.8071846" lon="-3.6124211"><ele>878.0</ele><time>2026-03-23T10:46:40.672Z</time></trkpt><trkpt lat="40.8071039" lon="-3.6123504"><ele>878.0</ele><time>2026-03-23T10:46:42.702Z</time></trkpt><trkpt lat="40.807001" lon="-3.6122977"><ele>878.0</ele><time>2026-03-23T10:46:44.67Z</time></trkpt><trkpt lat="40.8068905" lon="-3.6122311"><ele>878.0</ele><time>2026-03-23T10:46:46.67Z</time></trkpt><trkpt lat="40.8067957" lon="-3.6121764"><ele>878.0</ele><time>2026-03-23T10:46:48.68Z</time></trkpt><trkpt lat="40.8067003" lon="-3.6121308"><ele>877.6666666666667</ele><time>2026-03-23T10:46:50.674Z</time></trkpt><trkpt lat="40.8065996" lon="-3.6120813"><ele>877.3333333333334</ele><time>2026-03-23T10:46:52.683Z</time></trkpt><trkpt lat="40.8065069" lon="-3.6120299"><ele>877.0</ele><time>2026-03-23T10:46:54.707Z</time></trkpt><trkpt lat="40.8064133" lon="-3.611995"><ele>876.6666666666667</ele><time>2026-03-23T10:46:56.682Z</time></trkpt><trkpt lat="40.8063502" lon="-3.6119852"><ele>876.3333333333334</ele><time>2026-03-23T10:46:57.679Z</time></trkpt><trkpt lat="40.8062816" lon="-3.6119847"><ele>876.0</ele><time>2026-03-23T10:46:58.677Z</time></trkpt><trkpt lat="40.806218" lon="-3.6119796"><ele>876.0</ele><time>2026-03-23T10:46:59.686Z</time></trkpt><trkpt lat="40.8061547" lon="-3.6119855"><ele>876.0</ele><time>2026-03-23T10:47:00.687Z</time></trkpt><trkpt lat="40.8060894" lon="-3.6119997"><ele>876.0</ele><time>2026-03-23T10:47:01.703Z</time></trkpt><trkpt lat="40.8060242" lon="-3.6120299"><ele>876.0</ele><time>2026-03-23T10:47:02.696Z</time></trkpt><trkpt lat="40.8059155" lon="-3.6120809"><ele>876.0</ele><time>2026-03-23T10:47:04.676Z</time></trkpt><trkpt lat="40.8057999" lon="-3.6121291"><ele>876.0</ele><time>2026-03-23T10:47:06.684Z</time></trkpt><trkpt lat="40.8057337" lon="-3.6121563"><ele>873.8</ele><time>2026-03-23T10:47:07.678Z</time></trkpt><trkpt lat="40.8056703" lon="-3.6121824"><ele>871.5999999999999</ele><time>2026-03-23T10:47:08.695Z</time></trkpt><trkpt lat="40.8055589" lon="-3.6122453"><ele>869.4</ele><time>2026-03-23T10:47:10.681Z</time></trkpt><trkpt lat="40.8054998" lon="-3.6122983"><ele>867.2</ele><time>2026-03-23T10:47:11.68Z</time></trkpt><trkpt lat="40.8054407" lon="-3.6123513"><ele>865.0</ele><time>2026-03-23T10:47:12.698Z</time></trkpt><trkpt lat="40.8053447" lon="-3.6124489"><ele>865.0</ele><time>2026-03-23T10:47:14.686Z</time></trkpt><trkpt lat="40.8052413" lon="-3.6125127"><ele>865.0</ele><time>2026-03-23T10:47:16.689Z</time></trkpt><trkpt lat="40.8051366" lon="-3.6125496"><ele>865.0</ele><time>2026-03-23T10:47:18.692Z</time></trkpt><trkpt lat="40.8050565" lon="-3.6125978"><ele>865.0</ele><time>2026-03-23T10:47:20.683Z</time></trkpt><trkpt lat="40.8050114" lon="-3.61266"><ele>865.0</ele><time>2026-03-23T10:47:21.679Z</time></trkpt><trkpt lat="40.8049585" lon="-3.6127288"><ele>863.8</ele><time>2026-03-23T10:47:22.693Z</time></trkpt><trkpt lat="40.8048927" lon="-3.6128038"><ele>862.6</ele><time>2026-03-23T10:47:23.707Z</time></trkpt><trkpt lat="40.8048291" lon="-3.6128732"><ele>861.4000000000001</ele><time>2026-03-23T10:47:24.705Z</time></trkpt><trkpt lat="40.8047739" lon="-3.6129302"><ele>860.2</ele><time>2026-03-23T10:47:25.691Z</time></trkpt><trkpt lat="40.8046729" lon="-3.6130094"><ele>859.0</ele><time>2026-03-23T10:47:27.692Z</time></trkpt><trkpt lat="40.8045757" lon="-3.6130799"><ele>858.9999999999999</ele><time>2026-03-23T10:47:29.678Z</time></trkpt><trkpt lat="40.8044731" lon="-3.6131494"><ele>859.0</ele><time>2026-03-23T10:47:31.687Z</time></trkpt><trkpt lat="40.8043651" lon="-3.6131926"><ele>859.0</ele><time>2026-03-23T10:47:33.708Z</time></trkpt><trkpt lat="40.804294" lon="-3.6132236"><ele>859.0</ele><time>2026-03-23T10:47:35.701Z</time></trkpt><trkpt lat="40.8042492" lon="-3.6132913"><ele>858.9999999999999</ele><time>2026-03-23T10:47:37.687Z</time></trkpt><trkpt lat="40.8041938" lon="-3.6133478"><ele>859.0</ele><time>2026-03-23T10:47:39.715Z</time></trkpt><trkpt lat="40.8041088" lon="-3.6134235"><ele>857.3333333333333</ele><time>2026-03-23T10:47:41.689Z</time></trkpt><trkpt lat="40.8040394" lon="-3.6135045"><ele>855.6666666666666</ele><time>2026-03-23T10:47:43.688Z</time></trkpt><trkpt lat="40.8039914" lon="-3.6135664"><ele>854.0</ele><time>2026-03-23T10:47:45.693Z</time></trkpt><trkpt lat="40.8039296" lon="-3.6136424"><ele>852.3333333333333</ele><time>2026-03-23T10:47:48.668Z</time></trkpt><trkpt lat="40.8039996" lon="-3.613654"><ele>850.6666666666666</ele><time>2026-03-23T10:47:52.685Z</time></trkpt><trkpt lat="40.8040874" lon="-3.6135845"><ele>849.0</ele><time>2026-03-23T10:47:54.669Z</time></trkpt><trkpt lat="40.8042052" lon="-3.6135474"><ele>849.0</ele><time>2026-03-23T10:47:56.694Z</time></trkpt><trkpt lat="40.8043055" lon="-3.6135275"><ele>849.0</ele><time>2026-03-23T10:47:58.667Z</time></trkpt><trkpt lat="40.8043834" lon="-3.6135623"><ele>849.0</ele><time>2026-03-23T10:48:00.707Z</time></trkpt><trkpt lat="40.8044292" lon="-3.6136571"><ele>849.0</ele><time>2026-03-23T10:48:02.686Z</time></trkpt><trkpt lat="40.8044362" lon="-3.6137586"><ele>849.0</ele><time>2026-03-23T10:48:04.682Z</time></trkpt><trkpt lat="40.8044128" lon="-3.6138415"><ele>849.0</ele><time>2026-03-23T10:48:06.691Z</time></trkpt><trkpt lat="40.8043577" lon="-3.6139456"><ele>849.2</ele><time>2026-03-23T10:48:09.684Z</time></trkpt><trkpt lat="40.8042972" lon="-3.6140265"><ele>849.4000000000001</ele><time>2026-03-23T10:48:11.696Z</time></trkpt><trkpt lat="40.804235" lon="-3.6141278"><ele>849.6</ele><time>2026-03-23T10:48:13.685Z</time></trkpt><trkpt lat="40.8041784" lon="-3.6142461"><ele>849.8</ele><time>2026-03-23T10:48:15.685Z</time></trkpt><trkpt lat="40.8041014" lon="-3.6143674"><ele>850.0</ele><time>2026-03-23T10:48:17.69Z</time></trkpt><trkpt lat="40.8040183" lon="-3.6144879"><ele>850.3333333333333</ele><time>2026-03-23T10:48:19.671Z</time></trkpt><trkpt lat="40.8039798" lon="-3.6145569"><ele>850.6666666666666</ele><time>2026-03-23T10:48:20.688Z</time></trkpt><trkpt lat="40.803935" lon="-3.6146225"><ele>851.0</ele><time>2026-03-23T10:48:21.668Z</time></trkpt><trkpt lat="40.8038912" lon="-3.6146848"><ele>851.3333333333333</ele><time>2026-03-23T10:48:22.688Z</time></trkpt><trkpt lat="40.80382" lon="-3.6148109"><ele>851.6666666666666</ele><time>2026-03-23T10:48:24.69Z</time></trkpt><trkpt lat="40.8037534" lon="-3.6149414"><ele>852.0</ele><time>2026-03-23T10:48:26.713Z</time></trkpt><trkpt lat="40.8036987" lon="-3.6150504"><ele>852.0</ele><time>2026-03-23T10:48:28.68Z</time></trkpt><trkpt lat="40.803663" lon="-3.615136"><ele>852.0</ele><time>2026-03-23T10:48:30.679Z</time></trkpt><trkpt lat="40.8036153" lon="-3.615212"><ele>852.0</ele><time>2026-03-23T10:48:33.689Z</time></trkpt><trkpt lat="40.8035499" lon="-3.6152831"><ele>852.0</ele><time>2026-03-23T10:48:36.687Z</time></trkpt><trkpt lat="40.8034685" lon="-3.6153992"><ele>852.0</ele><time>2026-03-23T10:48:38.703Z</time></trkpt><trkpt lat="40.8034231" lon="-3.6154699"><ele>852.0</ele><time>2026-03-23T10:48:39.698Z</time></trkpt><trkpt lat="40.8033803" lon="-3.6155397"><ele>850.2</ele><time>2026-03-23T10:48:40.699Z</time></trkpt><trkpt lat="40.8033201" lon="-3.6156731"><ele>848.4000000000001</ele><time>2026-03-23T10:48:42.692Z</time></trkpt><trkpt lat="40.8032705" lon="-3.6158165"><ele>846.5999999999999</ele><time>2026-03-23T10:48:44.701Z</time></trkpt><trkpt lat="40.8032356" lon="-3.6159506"><ele>844.8</ele><time>2026-03-23T10:48:46.684Z</time></trkpt><trkpt lat="40.8032007" lon="-3.6160666"><ele>843.0</ele><time>2026-03-23T10:48:48.692Z</time></trkpt><trkpt lat="40.8031485" lon="-3.6161963"><ele>842.8333333333334</ele><time>2026-03-23T10:48:50.697Z</time></trkpt><trkpt lat="40.8031165" lon="-3.6162986"><ele>842.6666666666667</ele><time>2026-03-23T10:48:52.68Z</time></trkpt><trkpt lat="40.8031136" lon="-3.6163927"><ele>842.5</ele><time>2026-03-23T10:48:54.686Z</time></trkpt><trkpt lat="40.8031343" lon="-3.6164951"><ele>842.3333333333334</ele><time>2026-03-23T10:48:58.682Z</time></trkpt><trkpt lat="40.8031687" lon="-3.6165988"><ele>842.1666666666667</ele><time>2026-03-23T10:49:01.687Z</time></trkpt><trkpt lat="40.8031995" lon="-3.6166916"><ele>842.0</ele><time>2026-03-23T10:49:04.667Z</time></trkpt><trkpt lat="40.8032572" lon="-3.6167511"><ele>842.0000000000001</ele><time>2026-03-23T10:49:06.672Z</time></trkpt><trkpt lat="40.8033251" lon="-3.6167879"><ele>842.0</ele><time>2026-03-23T10:49:09.689Z</time></trkpt><trkpt lat="40.8033895" lon="-3.6168274"><ele>842.0</ele><time>2026-03-23T10:49:12.686Z</time></trkpt><trkpt lat="40.8034786" lon="-3.6168848"><ele>842.0</ele><time>2026-03-23T10:49:15.674Z</time></trkpt><trkpt lat="40.8035258" lon="-3.6169662"><ele>842.0000000000001</ele><time>2026-03-23T10:49:17.655Z</time></trkpt><trkpt lat="40.8035442" lon="-3.6170967"><ele>842.0</ele><time>2026-03-23T10:49:19.669Z</time></trkpt><trkpt lat="40.8035474" lon="-3.6172511"><ele>840.4000000000001</ele><time>2026-03-23T10:49:21.666Z</time></trkpt><trkpt lat="40.8035411" lon="-3.6173448"><ele>838.8000000000001</ele><time>2026-03-23T10:49:22.675Z</time></trkpt><trkpt lat="40.8035345" lon="-3.6174405"><ele>837.2</ele><time>2026-03-23T10:49:23.674Z</time></trkpt><trkpt lat="40.8035271" lon="-3.6176048"><ele>835.6</ele><time>2026-03-23T10:49:25.673Z</time></trkpt><trkpt lat="40.8035246" lon="-3.6176919"><ele>834.0</ele><time>2026-03-23T10:49:26.671Z</time></trkpt><trkpt lat="40.8035316" lon="-3.6181141"><ele>834.0</ele><time>2026-03-23T10:49:31.694Z</time></trkpt><trkpt lat="40.8035839" lon="-3.6181757"><ele>834.0</ele><time>2026-03-23T10:49:32.696Z</time></trkpt><trkpt lat="40.8036887" lon="-3.618257"><ele>834.0</ele><time>2026-03-23T10:49:34.678Z</time></trkpt><trkpt lat="40.8037611" lon="-3.6183111"><ele>834.0</ele><time>2026-03-23T10:49:35.691Z</time></trkpt><trkpt lat="40.8038378" lon="-3.6183741"><ele>834.0</ele><time>2026-03-23T10:49:36.682Z</time></trkpt><trkpt lat="40.8039124" lon="-3.6184386"><ele>834.0</ele><time>2026-03-23T10:49:37.69Z</time></trkpt><trkpt lat="40.8039796" lon="-3.6185148"><ele>834.0</ele><time>2026-03-23T10:49:38.697Z</time></trkpt><trkpt lat="40.8040546" lon="-3.6185866"><ele>834.0</ele><time>2026-03-23T10:49:39.676Z</time></trkpt><trkpt lat="40.8041318" lon="-3.6186508"><ele>834.0</ele><time>2026-03-23T10:49:40.685Z</time></trkpt><trkpt lat="40.8042079" lon="-3.6187158"><ele>834.0</ele><time>2026-03-23T10:49:41.669Z</time></trkpt><trkpt lat="40.8042785" lon="-3.6187916"><ele>834.3333333333334</ele><time>2026-03-23T10:49:42.681Z</time></trkpt><trkpt lat="40.804345" lon="-3.6188712"><ele>834.6666666666667</ele><time>2026-03-23T10:49:43.682Z</time></trkpt><trkpt lat="40.8044119" lon="-3.6189566"><ele>835.0</ele><time>2026-03-23T10:49:44.692Z</time></trkpt><trkpt lat="40.8044693" lon="-3.6190434"><ele>835.3333333333334</ele><time>2026-03-23T10:49:45.695Z</time></trkpt><trkpt lat="40.8045216" lon="-3.619131"><ele>835.6666666666667</ele><time>2026-03-23T10:49:46.702Z</time></trkpt><trkpt lat="40.8045698" lon="-3.6192343"><ele>836.0</ele><time>2026-03-23T10:49:47.676Z</time></trkpt><trkpt lat="40.804622" lon="-3.6193436"><ele>836.0000000000001</ele><time>2026-03-23T10:49:48.679Z</time></trkpt><trkpt lat="40.8046758" lon="-3.6194521"><ele>836.0</ele><time>2026-03-23T10:49:49.689Z</time></trkpt><trkpt lat="40.804735" lon="-3.6195414"><ele>836.0</ele><time>2026-03-23T10:49:50.691Z</time></trkpt><trkpt lat="40.8048028" lon="-3.6195988"><ele>836.0</ele><time>2026-03-23T10:49:51.668Z</time></trkpt><trkpt lat="40.8048738" lon="-3.619652"><ele>836.0000000000001</ele><time>2026-03-23T10:49:52.68Z</time></trkpt><trkpt lat="40.8049569" lon="-3.6197026"><ele>836.0</ele><time>2026-03-23T10:49:53.679Z</time></trkpt><trkpt lat="40.8050438" lon="-3.6197584"><ele>835.6666666666667</ele><time>2026-03-23T10:49:54.667Z</time></trkpt><trkpt lat="40.8051214" lon="-3.6198178"><ele>835.3333333333334</ele><time>2026-03-23T10:49:55.685Z</time></trkpt><trkpt lat="40.8051925" lon="-3.6198815"><ele>835.0</ele><time>2026-03-23T10:49:56.68Z</time></trkpt><trkpt lat="40.8052567" lon="-3.6199372"><ele>834.6666666666667</ele><time>2026-03-23T10:49:57.685Z</time></trkpt><trkpt lat="40.8053314" lon="-3.6199936"><ele>834.3333333333334</ele><time>2026-03-23T10:49:58.676Z</time></trkpt><trkpt lat="40.8054105" lon="-3.6200624"><ele>834.0</ele><time>2026-03-23T10:49:59.701Z</time></trkpt><trkpt lat="40.8054851" lon="-3.6201352"><ele>834.0</ele><time>2026-03-23T10:50:00.691Z</time></trkpt><trkpt lat="40.8055517" lon="-3.6201992"><ele>834.0</ele><time>2026-03-23T10:50:01.683Z</time></trkpt><trkpt lat="40.8056045" lon="-3.6202714"><ele>834.0</ele><time>2026-03-23T10:50:02.7Z</time></trkpt><trkpt lat="40.8056345" lon="-3.6203469"><ele>834.0</ele><time>2026-03-23T10:50:03.682Z</time></trkpt><trkpt lat="40.8056312" lon="-3.6204342"><ele>834.0</ele><time>2026-03-23T10:50:04.691Z</time></trkpt><trkpt lat="40.805596" lon="-3.6205942"><ele>834.0</ele><time>2026-03-23T10:50:06.68Z</time></trkpt><trkpt lat="40.8055596" lon="-3.6206908"><ele>832.0</ele><time>2026-03-23T10:50:07.688Z</time></trkpt><trkpt lat="40.8055273" lon="-3.6207812"><ele>830.0</ele><time>2026-03-23T10:50:08.695Z</time></trkpt><trkpt lat="40.8054731" lon="-3.6208601"><ele>828.0</ele><time>2026-03-23T10:50:09.682Z</time></trkpt><trkpt lat="40.805418" lon="-3.6209347"><ele>826.0</ele><time>2026-03-23T10:50:10.692Z</time></trkpt><trkpt lat="40.8053499" lon="-3.6209523"><ele>824.0</ele><time>2026-03-23T10:50:11.674Z</time></trkpt><trkpt lat="40.8052665" lon="-3.6209604"><ele>822.0</ele><time>2026-03-23T10:50:12.7Z</time></trkpt><trkpt lat="40.8051808" lon="-3.6209606"><ele>822.1428571428571</ele><time>2026-03-23T10:50:13.673Z</time></trkpt><trkpt lat="40.8051086" lon="-3.6209651"><ele>822.2857142857142</ele><time>2026-03-23T10:50:14.663Z</time></trkpt><trkpt lat="40.8050409" lon="-3.6209661"><ele>822.4285714285714</ele><time>2026-03-23T10:50:15.667Z</time></trkpt><trkpt lat="40.8049746" lon="-3.6209662"><ele>822.5714285714286</ele><time>2026-03-23T10:50:16.677Z</time></trkpt><trkpt lat="40.8049022" lon="-3.6209642"><ele>822.7142857142858</ele><time>2026-03-23T10:50:17.678Z</time></trkpt><trkpt lat="40.8048329" lon="-3.6209559"><ele>822.8571428571429</ele><time>2026-03-23T10:50:18.673Z</time></trkpt><trkpt lat="40.8047632" lon="-3.6209458"><ele>823.0</ele><time>2026-03-23T10:50:19.679Z</time></trkpt><trkpt lat="40.8046579" lon="-3.6209598"><ele>823.0</ele><time>2026-03-23T10:50:21.694Z</time></trkpt><trkpt lat="40.8045816" lon="-3.6209562"><ele>823.0</ele><time>2026-03-23T10:50:24.688Z</time></trkpt><trkpt lat="40.8045041" lon="-3.6209676"><ele>823.0</ele><time>2026-03-23T10:51:02.678Z</time></trkpt><trkpt lat="40.804439" lon="-3.620932"><ele>823.0</ele><time>2026-03-23T10:51:04.676Z</time></trkpt><trkpt lat="40.8043245" lon="-3.6208947"><ele>823.0</ele><time>2026-03-23T10:51:06.683Z</time></trkpt><trkpt lat="40.8042149" lon="-3.6208289"><ele>823.8571428571429</ele><time>2026-03-23T10:51:08.675Z</time></trkpt><trkpt lat="40.8041507" lon="-3.6207797"><ele>824.7142857142858</ele><time>2026-03-23T10:51:09.684Z</time></trkpt><trkpt lat="40.8040822" lon="-3.6207138"><ele>825.5714285714286</ele><time>2026-03-23T10:51:10.674Z</time></trkpt><trkpt lat="40.8040211" lon="-3.6206447"><ele>826.4285714285714</ele><time>2026-03-23T10:51:11.703Z</time></trkpt><trkpt lat="40.8039756" lon="-3.6205798"><ele>827.2857142857142</ele><time>2026-03-23T10:51:12.684Z</time></trkpt><trkpt lat="40.8039327" lon="-3.6205134"><ele>828.1428571428571</ele><time>2026-03-23T10:51:13.693Z</time></trkpt><trkpt lat="40.8038952" lon="-3.6204384"><ele>829.0</ele><time>2026-03-23T10:51:14.673Z</time></trkpt><trkpt lat="40.8038647" lon="-3.6203512"><ele>827.1666666666666</ele><time>2026-03-23T10:51:15.688Z</time></trkpt><trkpt lat="40.8038179" lon="-3.6202689"><ele>825.3333333333333</ele><time>2026-03-23T10:51:16.681Z</time></trkpt><trkpt lat="40.8037771" lon="-3.6201887"><ele>823.5</ele><time>2026-03-23T10:51:17.692Z</time></trkpt><trkpt lat="40.8037221" lon="-3.6201029"><ele>821.6666666666667</ele><time>2026-03-23T10:51:18.677Z</time></trkpt><trkpt lat="40.8036665" lon="-3.6200254"><ele>819.8333333333334</ele><time>2026-03-23T10:51:19.674Z</time></trkpt><trkpt lat="40.8036114" lon="-3.6199433"><ele>818.0</ele><time>2026-03-23T10:51:20.667Z</time></trkpt><trkpt lat="40.8035602" lon="-3.6198594"><ele>818.0000000000001</ele><time>2026-03-23T10:51:21.658Z</time></trkpt><trkpt lat="40.8035087" lon="-3.6197836"><ele>818.0</ele><time>2026-03-23T10:51:22.666Z</time></trkpt><trkpt lat="40.8034462" lon="-3.6197179"><ele>818.0</ele><time>2026-03-23T10:51:23.688Z</time></trkpt><trkpt lat="40.8033818" lon="-3.619668"><ele>818.0</ele><time>2026-03-23T10:51:24.681Z</time></trkpt><trkpt lat="40.8033118" lon="-3.6196123"><ele>818.0000000000001</ele><time>2026-03-23T10:51:25.676Z</time></trkpt><trkpt lat="40.8032408" lon="-3.6195439"><ele>818.0</ele><time>2026-03-23T10:51:26.679Z</time></trkpt><trkpt lat="40.8031746" lon="-3.6194679"><ele>818.0000000000001</ele><time>2026-03-23T10:51:27.685Z</time></trkpt><trkpt lat="40.8031141" lon="-3.6193917"><ele>818.0</ele><time>2026-03-23T10:51:28.699Z</time></trkpt><trkpt lat="40.803047" lon="-3.6193189"><ele>818.0</ele><time>2026-03-23T10:51:29.68Z</time></trkpt><trkpt lat="40.8029678" lon="-3.6192493"><ele>818.0</ele><time>2026-03-23T10:51:30.679Z</time></trkpt><trkpt lat="40.8028953" lon="-3.6191699"><ele>818.0000000000001</ele><time>2026-03-23T10:51:31.679Z</time></trkpt><trkpt lat="40.80283" lon="-3.6190931"><ele>818.0</ele><time>2026-03-23T10:51:32.687Z</time></trkpt><trkpt lat="40.8027733" lon="-3.6190154"><ele>818.0</ele><time>2026-03-23T10:51:33.82Z</time></trkpt><trkpt lat="40.8026697" lon="-3.6188812"><ele>818.0</ele><time>2026-03-23T10:51:35.685Z</time></trkpt><trkpt lat="40.802605" lon="-3.6188178"><ele>818.0</ele><time>2026-03-23T10:51:36.787Z</time></trkpt><trkpt lat="40.8025334" lon="-3.6187667"><ele>818.0</ele><time>2026-03-23T10:51:37.834Z</time></trkpt><trkpt lat="40.8024566" lon="-3.6187276"><ele>818.0</ele><time>2026-03-23T10:51:38.802Z</time></trkpt><trkpt lat="40.8022927" lon="-3.6186782"><ele>817.6666666666667</ele><time>2026-03-23T10:51:40.667Z</time></trkpt><trkpt lat="40.8022172" lon="-3.6186501"><ele>817.3333333333334</ele><time>2026-03-23T10:51:41.683Z</time></trkpt><trkpt lat="40.8021424" lon="-3.6186186"><ele>817.0</ele><time>2026-03-23T10:51:42.672Z</time></trkpt><trkpt lat="40.8020724" lon="-3.6185771"><ele>816.6666666666667</ele><time>2026-03-23T10:51:43.672Z</time></trkpt><trkpt lat="40.8020136" lon="-3.6185165"><ele>816.3333333333334</ele><time>2026-03-23T10:51:44.662Z</time></trkpt><trkpt lat="40.801968" lon="-3.6184312"><ele>816.0</ele><time>2026-03-23T10:51:45.669Z</time></trkpt><trkpt lat="40.8019402" lon="-3.6183412"><ele>816.0</ele><time>2026-03-23T10:51:46.69Z</time></trkpt><trkpt lat="40.8019147" lon="-3.6182516"><ele>816.0</ele><time>2026-03-23T10:51:47.669Z</time></trkpt><trkpt lat="40.8018865" lon="-3.6181565"><ele>816.0</ele><time>2026-03-23T10:51:48.666Z</time></trkpt><trkpt lat="40.8018427" lon="-3.6180724"><ele>816.0</ele><time>2026-03-23T10:51:49.666Z</time></trkpt><trkpt lat="40.8017845" lon="-3.6179865"><ele>816.0</ele><time>2026-03-23T10:51:50.675Z</time></trkpt><trkpt lat="40.8017241" lon="-3.617905"><ele>816.0</ele><time>2026-03-23T10:51:51.765Z</time></trkpt><trkpt lat="40.8016598" lon="-3.6178276"><ele>816.0</ele><time>2026-03-23T10:51:52.674Z</time></trkpt><trkpt lat="40.8015974" lon="-3.6177685"><ele>816.0</ele><time>2026-03-23T10:51:53.693Z</time></trkpt><trkpt lat="40.8015435" lon="-3.6177013"><ele>816.0</ele><time>2026-03-23T10:51:54.689Z</time></trkpt><trkpt lat="40.8014919" lon="-3.6176492"><ele>816.0</ele><time>2026-03-23T10:51:55.684Z</time></trkpt><trkpt lat="40.8014102" lon="-3.6175872"><ele>816.0</ele><time>2026-03-23T10:51:57.748Z</time></trkpt><trkpt lat="40.8013161" lon="-3.6175889"><ele>816.0</ele><time>2026-03-23T10:51:59.672Z</time></trkpt><trkpt lat="40.8012196" lon="-3.6176283"><ele>816.0</ele><time>2026-03-23T10:52:01.685Z</time></trkpt><trkpt lat="40.8011677" lon="-3.6176773"><ele>816.0</ele><time>2026-03-23T10:52:02.692Z</time></trkpt><trkpt lat="40.8011201" lon="-3.6177482"><ele>816.0</ele><time>2026-03-23T10:52:03.69Z</time></trkpt><trkpt lat="40.8010745" lon="-3.6178239"><ele>816.0</ele><time>2026-03-23T10:52:04.691Z</time></trkpt><trkpt lat="40.8010279" lon="-3.6178867"><ele>816.0</ele><time>2026-03-23T10:52:05.693Z</time></trkpt><trkpt lat="40.8009355" lon="-3.6179968"><ele>816.0</ele><time>2026-03-23T10:52:07.711Z</time></trkpt><trkpt lat="40.8008792" lon="-3.6180531"><ele>819.3333333333334</ele><time>2026-03-23T10:52:08.698Z</time></trkpt><trkpt lat="40.8008248" lon="-3.6181126"><ele>822.6666666666667</ele><time>2026-03-23T10:52:09.752Z</time></trkpt><trkpt lat="40.8007776" lon="-3.6181768"><ele>826.0</ele><time>2026-03-23T10:52:10.699Z</time></trkpt><trkpt lat="40.8007299" lon="-3.618234"><ele>829.3333333333334</ele><time>2026-03-23T10:52:11.68Z</time></trkpt><trkpt lat="40.8006508" lon="-3.6183377"><ele>832.6666666666667</ele><time>2026-03-23T10:52:13.683Z</time></trkpt><trkpt lat="40.8005568" lon="-3.6183871"><ele>836.0</ele><time>2026-03-23T10:52:15.702Z</time></trkpt><trkpt lat="40.800455" lon="-3.6183456"><ele>836.0</ele><time>2026-03-23T10:52:17.699Z</time></trkpt><trkpt lat="40.8003984" lon="-3.618198"><ele>836.0</ele><time>2026-03-23T10:52:19.692Z</time></trkpt><trkpt lat="40.8004074" lon="-3.6180949"><ele>836.0</ele><time>2026-03-23T10:52:20.679Z</time></trkpt><trkpt lat="40.8004339" lon="-3.617983"><ele>836.0</ele><time>2026-03-23T10:52:21.679Z</time></trkpt><trkpt lat="40.8004725" lon="-3.6178726"><ele>836.0</ele><time>2026-03-23T10:52:22.689Z</time></trkpt><trkpt lat="40.8005153" lon="-3.6177839"><ele>834.3333333333334</ele><time>2026-03-23T10:52:23.692Z</time></trkpt><trkpt lat="40.8005589" lon="-3.6176903"><ele>832.6666666666667</ele><time>2026-03-23T10:52:24.695Z</time></trkpt><trkpt lat="40.800604" lon="-3.6175994"><ele>831.0</ele><time>2026-03-23T10:52:25.694Z</time></trkpt><trkpt lat="40.8006318" lon="-3.6175024"><ele>829.3333333333333</ele><time>2026-03-23T10:52:26.692Z</time></trkpt><trkpt lat="40.8006362" lon="-3.6174029"><ele>827.6666666666666</ele><time>2026-03-23T10:52:27.69Z</time></trkpt><trkpt lat="40.8006286" lon="-3.6172983"><ele>826.0</ele><time>2026-03-23T10:52:28.71Z</time></trkpt><trkpt lat="40.800614" lon="-3.6171915"><ele>825.9999999999999</ele><time>2026-03-23T10:52:29.692Z</time></trkpt><trkpt lat="40.8005868" lon="-3.6170789"><ele>826.0</ele><time>2026-03-23T10:52:30.689Z</time></trkpt><trkpt lat="40.8005571" lon="-3.6169592"><ele>826.0</ele><time>2026-03-23T10:52:31.693Z</time></trkpt><trkpt lat="40.8005169" lon="-3.6168646"><ele>826.0</ele><time>2026-03-23T10:52:32.702Z</time></trkpt><trkpt lat="40.800465" lon="-3.616775"><ele>825.9999999999999</ele><time>2026-03-23T10:52:33.665Z</time></trkpt><trkpt lat="40.8003988" lon="-3.616699"><ele>826.0</ele><time>2026-03-23T10:52:34.66Z</time></trkpt><trkpt lat="40.8003189" lon="-3.6166558"><ele>825.4</ele><time>2026-03-23T10:52:35.663Z</time></trkpt><trkpt lat="40.8002351" lon="-3.6166305"><ele>824.8</ele><time>2026-03-23T10:52:36.661Z</time></trkpt><trkpt lat="40.8001618" lon="-3.6166112"><ele>824.1999999999999</ele><time>2026-03-23T10:52:37.677Z</time></trkpt><trkpt lat="40.8000657" lon="-3.6165872"><ele>823.5999999999999</ele><time>2026-03-23T10:52:39.714Z</time></trkpt><trkpt lat="40.7999571" lon="-3.6165812"><ele>823.0</ele><time>2026-03-23T10:52:42.687Z</time></trkpt><trkpt lat="40.799839" lon="-3.6165797"><ele>826.5999999999999</ele><time>2026-03-23T10:52:44.696Z</time></trkpt><trkpt lat="40.7997747" lon="-3.616593"><ele>830.1999999999999</ele><time>2026-03-23T10:52:45.686Z</time></trkpt><trkpt lat="40.799711" lon="-3.6166271"><ele>833.8</ele><time>2026-03-23T10:52:46.691Z</time></trkpt><trkpt lat="40.7996503" lon="-3.6166645"><ele>837.4</ele><time>2026-03-23T10:52:47.689Z</time></trkpt><trkpt lat="40.7995492" lon="-3.6167699"><ele>841.0</ele><time>2026-03-23T10:52:49.69Z</time></trkpt><trkpt lat="40.7994648" lon="-3.6168827"><ele>841.0</ele><time>2026-03-23T10:52:51.674Z</time></trkpt><trkpt lat="40.7994239" lon="-3.616949"><ele>841.0</ele><time>2026-03-23T10:52:52.682Z</time></trkpt><trkpt lat="40.7993808" lon="-3.6170235"><ele>841.0</ele><time>2026-03-23T10:52:53.673Z</time></trkpt><trkpt lat="40.7993357" lon="-3.6170985"><ele>841.0</ele><time>2026-03-23T10:52:54.698Z</time></trkpt><trkpt lat="40.7992937" lon="-3.6171816"><ele>841.0</ele><time>2026-03-23T10:52:55.699Z</time></trkpt><trkpt lat="40.7992544" lon="-3.6172655"><ele>841.0</ele><time>2026-03-23T10:52:56.684Z</time></trkpt><trkpt lat="40.7992129" lon="-3.6173589"><ele>841.0</ele><time>2026-03-23T10:52:57.682Z</time></trkpt><trkpt lat="40.7991818" lon="-3.617465"><ele>841.9999999999999</ele><time>2026-03-23T10:52:58.686Z</time></trkpt><trkpt lat="40.7991528" lon="-3.6175856"><ele>843.0</ele><time>2026-03-23T10:52:59.675Z</time></trkpt><trkpt lat="40.7991325" lon="-3.6177076"><ele>844.0</ele><time>2026-03-23T10:53:00.696Z</time></trkpt><trkpt lat="40.799105" lon="-3.6178245"><ele>845.0</ele><time>2026-03-23T10:53:01.699Z</time></trkpt><trkpt lat="40.7990804" lon="-3.6179214"><ele>845.9999999999999</ele><time>2026-03-23T10:53:02.702Z</time></trkpt><trkpt lat="40.7990577" lon="-3.6180275"><ele>847.0</ele><time>2026-03-23T10:53:03.702Z</time></trkpt><trkpt lat="40.7990439" lon="-3.6181324"><ele>848.1666666666666</ele><time>2026-03-23T10:53:04.696Z</time></trkpt><trkpt lat="40.7990332" lon="-3.6182388"><ele>849.3333333333333</ele><time>2026-03-23T10:53:05.69Z</time></trkpt><trkpt lat="40.7990236" lon="-3.6183404"><ele>850.5</ele><time>2026-03-23T10:53:06.698Z</time></trkpt><trkpt lat="40.7990257" lon="-3.6184532"><ele>851.6666666666667</ele><time>2026-03-23T10:53:07.699Z</time></trkpt><trkpt lat="40.7990316" lon="-3.6185632"><ele>852.8333333333334</ele><time>2026-03-23T10:53:08.695Z</time></trkpt><trkpt lat="40.7990289" lon="-3.618682"><ele>854.0</ele><time>2026-03-23T10:53:09.671Z</time></trkpt><trkpt lat="40.7990182" lon="-3.6187869"><ele>855.1666666666667</ele><time>2026-03-23T10:53:10.668Z</time></trkpt><trkpt lat="40.7990007" lon="-3.6188922"><ele>856.3333333333334</ele><time>2026-03-23T10:53:11.676Z</time></trkpt><trkpt lat="40.798977" lon="-3.6189809"><ele>857.5</ele><time>2026-03-23T10:53:12.672Z</time></trkpt><trkpt lat="40.7989426" lon="-3.6190668"><ele>858.6666666666667</ele><time>2026-03-23T10:53:13.665Z</time></trkpt><trkpt lat="40.7989061" lon="-3.6191573"><ele>859.8333333333334</ele><time>2026-03-23T10:53:14.67Z</time></trkpt><trkpt lat="40.798861" lon="-3.6192536"><ele>861.0</ele><time>2026-03-23T10:53:15.673Z</time></trkpt><trkpt lat="40.7988076" lon="-3.6193506"><ele>861.0</ele><time>2026-03-23T10:53:16.669Z</time></trkpt><trkpt lat="40.7987566" lon="-3.6194565"><ele>860.9999999999999</ele><time>2026-03-23T10:53:17.674Z</time></trkpt><trkpt lat="40.7986955" lon="-3.619527"><ele>860.9999999999999</ele><time>2026-03-23T10:53:18.668Z</time></trkpt><trkpt lat="40.7985819" lon="-3.6195588"><ele>861.0</ele><time>2026-03-23T10:53:20.674Z</time></trkpt><trkpt lat="40.7984605" lon="-3.6194793"><ele>861.0</ele><time>2026-03-23T10:53:22.675Z</time></trkpt><trkpt lat="40.7984067" lon="-3.6193987"><ele>860.2857142857143</ele><time>2026-03-23T10:53:23.701Z</time></trkpt><trkpt lat="40.7983601" lon="-3.6193187"><ele>859.5714285714286</ele><time>2026-03-23T10:53:24.688Z</time></trkpt><trkpt lat="40.7983129" lon="-3.6192365"><ele>858.8571428571429</ele><time>2026-03-23T10:53:25.68Z</time></trkpt><trkpt lat="40.798256" lon="-3.6191755"><ele>858.1428571428571</ele><time>2026-03-23T10:53:26.665Z</time></trkpt><trkpt lat="40.7981961" lon="-3.6191441"><ele>857.4285714285714</ele><time>2026-03-23T10:53:27.692Z</time></trkpt><trkpt lat="40.7981255" lon="-3.6191324"><ele>856.7142857142858</ele><time>2026-03-23T10:53:28.699Z</time></trkpt><trkpt lat="40.7980418" lon="-3.6191252"><ele>856.0</ele><time>2026-03-23T10:53:29.668Z</time></trkpt><trkpt lat="40.7979503" lon="-3.6191284"><ele>856.0</ele><time>2026-03-23T10:53:30.694Z</time></trkpt><trkpt lat="40.797852" lon="-3.6191304"><ele>855.9999999999999</ele><time>2026-03-23T10:53:31.679Z</time></trkpt><trkpt lat="40.7977436" lon="-3.6191395"><ele>855.9999999999999</ele><time>2026-03-23T10:53:32.692Z</time></trkpt><trkpt lat="40.7976584" lon="-3.6191597"><ele>856.0</ele><time>2026-03-23T10:53:33.692Z</time></trkpt><trkpt lat="40.797579" lon="-3.6191781"><ele>856.0</ele><time>2026-03-23T10:53:34.7Z</time></trkpt><trkpt lat="40.7975031" lon="-3.6192117"><ele>855.4999999999999</ele><time>2026-03-23T10:53:35.691Z</time></trkpt><trkpt lat="40.7974352" lon="-3.6192514"><ele>855.0</ele><time>2026-03-23T10:53:36.677Z</time></trkpt><trkpt lat="40.7973666" lon="-3.6193135"><ele>854.5</ele><time>2026-03-23T10:53:37.684Z</time></trkpt><trkpt lat="40.7972974" lon="-3.6194001"><ele>854.0</ele><time>2026-03-23T10:53:38.687Z</time></trkpt><trkpt lat="40.7972383" lon="-3.6194926"><ele>853.4999999999999</ele><time>2026-03-23T10:53:39.688Z</time></trkpt><trkpt lat="40.7971935" lon="-3.6196012"><ele>853.0</ele><time>2026-03-23T10:53:40.684Z</time></trkpt><trkpt lat="40.7971545" lon="-3.6197029"><ele>854.9999999999999</ele><time>2026-03-23T10:53:41.676Z</time></trkpt><trkpt lat="40.7971198" lon="-3.6198066"><ele>857.0</ele><time>2026-03-23T10:53:42.71Z</time></trkpt><trkpt lat="40.797092" lon="-3.619894"><ele>859.0</ele><time>2026-03-23T10:53:43.67Z</time></trkpt><trkpt lat="40.7970612" lon="-3.6199921"><ele>861.0</ele><time>2026-03-23T10:53:44.68Z</time></trkpt><trkpt lat="40.7970227" lon="-3.6200888"><ele>862.9999999999999</ele><time>2026-03-23T10:53:45.704Z</time></trkpt><trkpt lat="40.796985" lon="-3.6201785"><ele>865.0</ele><time>2026-03-23T10:53:46.667Z</time></trkpt><trkpt lat="40.7969439" lon="-3.6202695"><ele>865.9999999999999</ele><time>2026-03-23T10:53:47.666Z</time></trkpt><trkpt lat="40.7969088" lon="-3.6203558"><ele>867.0</ele><time>2026-03-23T10:53:48.668Z</time></trkpt><trkpt lat="40.796866" lon="-3.6204306"><ele>868.0</ele><time>2026-03-23T10:53:49.667Z</time></trkpt><trkpt lat="40.7968199" lon="-3.6205059"><ele>869.0</ele><time>2026-03-23T10:53:50.666Z</time></trkpt><trkpt lat="40.7967764" lon="-3.6205792"><ele>869.9999999999999</ele><time>2026-03-23T10:53:51.676Z</time></trkpt><trkpt lat="40.7967233" lon="-3.6206645"><ele>871.0</ele><time>2026-03-23T10:53:52.667Z</time></trkpt><trkpt lat="40.7966691" lon="-3.6207519"><ele>868.8333333333333</ele><time>2026-03-23T10:53:53.677Z</time></trkpt><trkpt lat="40.7966234" lon="-3.6208289"><ele>866.6666666666666</ele><time>2026-03-23T10:53:54.674Z</time></trkpt><trkpt lat="40.7965636" lon="-3.6209308"><ele>864.5</ele><time>2026-03-23T10:53:56.674Z</time></trkpt><trkpt lat="40.7965277" lon="-3.6210073"><ele>862.3333333333333</ele><time>2026-03-23T10:53:58.667Z</time></trkpt><trkpt lat="40.7964574" lon="-3.6210613"><ele>860.1666666666666</ele><time>2026-03-23T10:54:03.662Z</time></trkpt><trkpt lat="40.7963701" lon="-3.6210104"><ele>858.0</ele><time>2026-03-23T10:54:06.668Z</time></trkpt><trkpt lat="40.79624" lon="-3.6209458"><ele>858.0</ele><time>2026-03-23T10:54:08.676Z</time></trkpt><trkpt lat="40.7961764" lon="-3.6208994"><ele>858.0</ele><time>2026-03-23T10:54:09.671Z</time></trkpt><trkpt lat="40.7961102" lon="-3.6208508"><ele>858.0</ele><time>2026-03-23T10:54:10.688Z</time></trkpt><trkpt lat="40.796035" lon="-3.6208063"><ele>858.0</ele><time>2026-03-23T10:54:11.693Z</time></trkpt><trkpt lat="40.7959606" lon="-3.620763"><ele>858.0</ele><time>2026-03-23T10:54:12.698Z</time></trkpt><trkpt lat="40.7958924" lon="-3.6207187"><ele>858.0</ele><time>2026-03-23T10:54:13.692Z</time></trkpt><trkpt lat="40.7958311" lon="-3.6206694"><ele>857.6666666666666</ele><time>2026-03-23T10:54:14.681Z</time></trkpt><trkpt lat="40.7957696" lon="-3.620625"><ele>857.3333333333333</ele><time>2026-03-23T10:54:15.692Z</time></trkpt><trkpt lat="40.7957079" lon="-3.6205827"><ele>857.0</ele><time>2026-03-23T10:54:16.673Z</time></trkpt><trkpt lat="40.7956461" lon="-3.6205471"><ele>856.6666666666666</ele><time>2026-03-23T10:54:17.676Z</time></trkpt><trkpt lat="40.7955489" lon="-3.6204865"><ele>856.3333333333333</ele><time>2026-03-23T10:54:19.684Z</time></trkpt><trkpt lat="40.7954627" lon="-3.6204295"><ele>856.0</ele><time>2026-03-23T10:54:21.683Z</time></trkpt><trkpt lat="40.7953786" lon="-3.6203704"><ele>855.9999999999999</ele><time>2026-03-23T10:54:23.682Z</time></trkpt><trkpt lat="40.7952953" lon="-3.6203137"><ele>856.0</ele><time>2026-03-23T10:54:25.667Z</time></trkpt><trkpt lat="40.7952153" lon="-3.6202493"><ele>856.0</ele><time>2026-03-23T10:54:27.679Z</time></trkpt><trkpt lat="40.7951509" lon="-3.6202114"><ele>856.0</ele><time>2026-03-23T10:54:30.681Z</time></trkpt><trkpt lat="40.7951516" lon="-3.6203114"><ele>855.9999999999999</ele><time>2026-03-23T10:55:04.682Z</time></trkpt><trkpt lat="40.7952394" lon="-3.6203793"><ele>856.0</ele><time>2026-03-23T10:55:06.676Z</time></trkpt><trkpt lat="40.7953412" lon="-3.6204447"><ele>856.0</ele><time>2026-03-23T10:55:08.675Z</time></trkpt><trkpt lat="40.7954016" lon="-3.6204928"><ele>855.9999999999999</ele><time>2026-03-23T10:55:09.683Z</time></trkpt><trkpt lat="40.7954771" lon="-3.6205477"><ele>855.9999999999999</ele><time>2026-03-23T10:55:10.675Z</time></trkpt><trkpt lat="40.7955643" lon="-3.6206098"><ele>856.0</ele><time>2026-03-23T10:55:11.702Z</time></trkpt><trkpt lat="40.7956579" lon="-3.6206766"><ele>856.0</ele><time>2026-03-23T10:55:12.674Z</time></trkpt><trkpt lat="40.7957519" lon="-3.6207358"><ele>856.0</ele><time>2026-03-23T10:55:13.683Z</time></trkpt><trkpt lat="40.7958442" lon="-3.6208024"><ele>855.9999999999999</ele><time>2026-03-23T10:55:14.687Z</time></trkpt><trkpt lat="40.7959412" lon="-3.62087"><ele>855.9999999999999</ele><time>2026-03-23T10:55:15.692Z</time></trkpt><trkpt lat="40.7960402" lon="-3.6209396"><ele>856.0</ele><time>2026-03-23T10:55:16.672Z</time></trkpt><trkpt lat="40.7961473" lon="-3.6210037"><ele>856.0</ele><time>2026-03-23T10:55:17.67Z</time></trkpt><trkpt lat="40.796258" lon="-3.6210828"><ele>858.0</ele><time>2026-03-23T10:55:18.67Z</time></trkpt><trkpt lat="40.7963673" lon="-3.6211553"><ele>859.9999999999999</ele><time>2026-03-23T10:55:19.677Z</time></trkpt><trkpt lat="40.796472" lon="-3.6212244"><ele>861.9999999999999</ele><time>2026-03-23T10:55:20.669Z</time></trkpt><trkpt lat="40.7965531" lon="-3.6212832"><ele>864.0</ele><time>2026-03-23T10:55:21.684Z</time></trkpt><trkpt lat="40.796626" lon="-3.6213386"><ele>866.0</ele><time>2026-03-23T10:55:22.692Z</time></trkpt><trkpt lat="40.7966925" lon="-3.6213817"><ele>866.0000000000001</ele><time>2026-03-23T10:55:23.706Z</time></trkpt><trkpt lat="40.7967592" lon="-3.6214271"><ele>866.0</ele><time>2026-03-23T10:55:24.697Z</time></trkpt><trkpt lat="40.7968236" lon="-3.6214743"><ele>866.0</ele><time>2026-03-23T10:55:25.68Z</time></trkpt><trkpt lat="40.7968831" lon="-3.6215167"><ele>866.0</ele><time>2026-03-23T10:55:26.69Z</time></trkpt><trkpt lat="40.7969481" lon="-3.6215487"><ele>866.0000000000001</ele><time>2026-03-23T10:55:27.673Z</time></trkpt><trkpt lat="40.797052" lon="-3.6215775"><ele>866.0</ele><time>2026-03-23T10:55:29.673Z</time></trkpt><trkpt lat="40.7971146" lon="-3.6215953"><ele>867.8</ele><time>2026-03-23T10:55:30.683Z</time></trkpt><trkpt lat="40.7971967" lon="-3.6217013"><ele>869.5999999999999</ele><time>2026-03-23T10:55:32.703Z</time></trkpt><trkpt lat="40.7971252" lon="-3.6218158"><ele>871.4</ele><time>2026-03-23T10:55:34.684Z</time></trkpt><trkpt lat="40.7970545" lon="-3.6218491"><ele>873.2</ele><time>2026-03-23T10:55:35.676Z</time></trkpt><trkpt lat="40.7969781" lon="-3.6218658"><ele>875.0</ele><time>2026-03-23T10:55:36.676Z</time></trkpt><trkpt lat="40.7968997" lon="-3.6218691"><ele>873.5000000000001</ele><time>2026-03-23T10:55:37.694Z</time></trkpt><trkpt lat="40.7968246" lon="-3.6218445"><ele>872.0</ele><time>2026-03-23T10:55:38.675Z</time></trkpt><trkpt lat="40.7967424" lon="-3.6218101"><ele>870.5</ele><time>2026-03-23T10:55:39.702Z</time></trkpt><trkpt lat="40.7966774" lon="-3.6217856"><ele>869.0</ele><time>2026-03-23T10:55:40.691Z</time></trkpt><trkpt lat="40.7965878" lon="-3.6217604"><ele>867.5000000000001</ele><time>2026-03-23T10:55:42.685Z</time></trkpt><trkpt lat="40.7965147" lon="-3.6217407"><ele>866.0</ele><time>2026-03-23T10:55:45.688Z</time></trkpt><trkpt lat="40.7964514" lon="-3.6217875"><ele>866.0</ele><time>2026-03-23T10:55:47.671Z</time></trkpt><trkpt lat="40.7963679" lon="-3.6219022"><ele>865.9999999999999</ele><time>2026-03-23T10:55:49.669Z</time></trkpt><trkpt lat="40.7963175" lon="-3.6219701"><ele>865.9999999999999</ele><time>2026-03-23T10:55:50.69Z</time></trkpt><trkpt lat="40.796265" lon="-3.6220515"><ele>866.0</ele><time>2026-03-23T10:55:51.689Z</time></trkpt><trkpt lat="40.7962055" lon="-3.6221537"><ele>866.0</ele><time>2026-03-23T10:55:52.685Z</time></trkpt><trkpt lat="40.7961445" lon="-3.6222654"><ele>866.75</ele><time>2026-03-23T10:55:53.697Z</time></trkpt><trkpt lat="40.7960735" lon="-3.6223899"><ele>867.5</ele><time>2026-03-23T10:55:54.676Z</time></trkpt><trkpt lat="40.7960106" lon="-3.6225215"><ele>868.25</ele><time>2026-03-23T10:55:55.685Z</time></trkpt><trkpt lat="40.795958" lon="-3.6226622"><ele>869.0</ele><time>2026-03-23T10:55:56.68Z</time></trkpt><trkpt lat="40.7959055" lon="-3.6228049"><ele>867.4000000000001</ele><time>2026-03-23T10:55:57.683Z</time></trkpt><trkpt lat="40.7958597" lon="-3.6229498"><ele>865.8000000000001</ele><time>2026-03-23T10:55:58.665Z</time></trkpt><trkpt lat="40.7958211" lon="-3.6230904"><ele>864.1999999999999</ele><time>2026-03-23T10:55:59.67Z</time></trkpt><trkpt lat="40.7957877" lon="-3.6232304"><ele>862.5999999999999</ele><time>2026-03-23T10:56:00.662Z</time></trkpt><trkpt lat="40.7957696" lon="-3.6233638"><ele>861.0</ele><time>2026-03-23T10:56:01.671Z</time></trkpt><trkpt lat="40.7957585" lon="-3.6234913"><ele>861.0</ele><time>2026-03-23T10:56:02.675Z</time></trkpt><trkpt lat="40.7957463" lon="-3.6236094"><ele>860.9999999999999</ele><time>2026-03-23T10:56:03.674Z</time></trkpt><trkpt lat="40.7957245" lon="-3.6237298"><ele>860.9999999999999</ele><time>2026-03-23T10:56:04.668Z</time></trkpt><trkpt lat="40.7956992" lon="-3.6238464"><ele>861.0</ele><time>2026-03-23T10:56:05.679Z</time></trkpt><trkpt lat="40.7956594" lon="-3.6239493"><ele>861.0</ele><time>2026-03-23T10:56:06.658Z</time></trkpt><trkpt lat="40.795605" lon="-3.6240435"><ele>860.5999999999999</ele><time>2026-03-23T10:56:07.66Z</time></trkpt><trkpt lat="40.7955403" lon="-3.6241343"><ele>860.1999999999999</ele><time>2026-03-23T10:56:08.693Z</time></trkpt><trkpt lat="40.7954698" lon="-3.6242307"><ele>859.8000000000001</ele><time>2026-03-23T10:56:09.698Z</time></trkpt><trkpt lat="40.7953982" lon="-3.6243147"><ele>859.4000000000001</ele><time>2026-03-23T10:56:10.668Z</time></trkpt><trkpt lat="40.7953307" lon="-3.6244079"><ele>859.0</ele><time>2026-03-23T10:56:11.703Z</time></trkpt><trkpt lat="40.7952703" lon="-3.6244913"><ele>858.8333333333333</ele><time>2026-03-23T10:56:12.669Z</time></trkpt><trkpt lat="40.7952127" lon="-3.6245719"><ele>858.6666666666666</ele><time>2026-03-23T10:56:13.698Z</time></trkpt><trkpt lat="40.7951585" lon="-3.624657"><ele>858.5</ele><time>2026-03-23T10:56:14.67Z</time></trkpt><trkpt lat="40.7951034" lon="-3.6247503"><ele>858.3333333333333</ele><time>2026-03-23T10:56:15.68Z</time></trkpt><trkpt lat="40.7950478" lon="-3.6248461"><ele>858.1666666666666</ele><time>2026-03-23T10:56:16.687Z</time></trkpt><trkpt lat="40.7949951" lon="-3.6249525"><ele>858.0</ele><time>2026-03-23T10:56:17.671Z</time></trkpt><trkpt lat="40.7949547" lon="-3.6250673"><ele>858.0</ele><time>2026-03-23T10:56:18.672Z</time></trkpt><trkpt lat="40.7949269" lon="-3.6251924"><ele>858.0</ele><time>2026-03-23T10:56:19.687Z</time></trkpt><trkpt lat="40.7949017" lon="-3.6253294"><ele>858.0</ele><time>2026-03-23T10:56:20.681Z</time></trkpt><trkpt lat="40.7948731" lon="-3.6254726"><ele>858.0</ele><time>2026-03-23T10:56:21.677Z</time></trkpt><trkpt lat="40.7948431" lon="-3.6256172"><ele>858.0</ele><time>2026-03-23T10:56:22.675Z</time></trkpt><trkpt lat="40.7948131" lon="-3.6257624"><ele>858.5</ele><time>2026-03-23T10:56:23.679Z</time></trkpt><trkpt lat="40.794786" lon="-3.6259119"><ele>859.0</ele><time>2026-03-23T10:56:24.696Z</time></trkpt><trkpt lat="40.7947505" lon="-3.6260682"><ele>859.5</ele><time>2026-03-23T10:56:25.711Z</time></trkpt><trkpt lat="40.7947087" lon="-3.6262142"><ele>860.0</ele><time>2026-03-23T10:56:26.69Z</time></trkpt><trkpt lat="40.7946509" lon="-3.6263445"><ele>860.1666666666667</ele><time>2026-03-23T10:56:27.677Z</time></trkpt><trkpt lat="40.7945935" lon="-3.6264587"><ele>860.3333333333334</ele><time>2026-03-23T10:56:28.69Z</time></trkpt><trkpt lat="40.7945351" lon="-3.6265708"><ele>860.5</ele><time>2026-03-23T10:56:29.695Z</time></trkpt><trkpt lat="40.7944809" lon="-3.6266665"><ele>860.6666666666667</ele><time>2026-03-23T10:56:30.696Z</time></trkpt><trkpt lat="40.7944314" lon="-3.6267473"><ele>860.8333333333334</ele><time>2026-03-23T10:56:31.699Z</time></trkpt><trkpt lat="40.7943837" lon="-3.626813"><ele>861.0</ele><time>2026-03-23T10:56:32.683Z</time></trkpt><trkpt lat="40.794335" lon="-3.6268719"><ele>861.0</ele><time>2026-03-23T10:56:33.69Z</time></trkpt><trkpt lat="40.7942886" lon="-3.6269315"><ele>861.0</ele><time>2026-03-23T10:56:34.668Z</time></trkpt><trkpt lat="40.7942033" lon="-3.627036"><ele>861.0</ele><time>2026-03-23T10:56:36.698Z</time></trkpt><trkpt lat="40.7941241" lon="-3.6271481"><ele>861.0</ele><time>2026-03-23T10:56:38.688Z</time></trkpt><trkpt lat="40.7940847" lon="-3.6272269"><ele>861.0</ele><time>2026-03-23T10:56:39.688Z</time></trkpt><trkpt lat="40.794044" lon="-3.6273187"><ele>861.0</ele><time>2026-03-23T10:56:40.699Z</time></trkpt><trkpt lat="40.7940096" lon="-3.6274108"><ele>861.0</ele><time>2026-03-23T10:56:41.692Z</time></trkpt><trkpt lat="40.7939792" lon="-3.6275085"><ele>861.0</ele><time>2026-03-23T10:56:42.687Z</time></trkpt><trkpt lat="40.7939451" lon="-3.6275914"><ele>861.0</ele><time>2026-03-23T10:56:43.669Z</time></trkpt><trkpt lat="40.7939074" lon="-3.6276702"><ele>861.0</ele><time>2026-03-23T10:56:44.674Z</time></trkpt><trkpt lat="40.793866" lon="-3.6277533"><ele>861.0</ele><time>2026-03-23T10:56:45.679Z</time></trkpt><trkpt lat="40.7938196" lon="-3.6278258"><ele>861.0</ele><time>2026-03-23T10:56:46.679Z</time></trkpt><trkpt lat="40.7937495" lon="-3.6278915"><ele>861.1999999999999</ele><time>2026-03-23T10:56:47.683Z</time></trkpt><trkpt lat="40.7936653" lon="-3.6279797"><ele>861.3999999999999</ele><time>2026-03-23T10:56:48.681Z</time></trkpt><trkpt lat="40.79359" lon="-3.6280678"><ele>861.6</ele><time>2026-03-23T10:56:49.674Z</time></trkpt><trkpt lat="40.7935058" lon="-3.6281497"><ele>861.8</ele><time>2026-03-23T10:56:50.69Z</time></trkpt><trkpt lat="40.7934232" lon="-3.6282267"><ele>862.0</ele><time>2026-03-23T10:56:51.693Z</time></trkpt><trkpt lat="40.7933493" lon="-3.6283012"><ele>860.6666666666666</ele><time>2026-03-23T10:56:52.688Z</time></trkpt><trkpt lat="40.7932817" lon="-3.6283692"><ele>859.3333333333333</ele><time>2026-03-23T10:56:53.687Z</time></trkpt><trkpt lat="40.7932029" lon="-3.6284381"><ele>858.0</ele><time>2026-03-23T10:56:54.667Z</time></trkpt><trkpt lat="40.7931361" lon="-3.6285137"><ele>856.6666666666667</ele><time>2026-03-23T10:56:55.69Z</time></trkpt><trkpt lat="40.7930776" lon="-3.6285835"><ele>855.3333333333334</ele><time>2026-03-23T10:56:56.685Z</time></trkpt><trkpt lat="40.7930123" lon="-3.6286503"><ele>854.0</ele><time>2026-03-23T10:56:57.681Z</time></trkpt><trkpt lat="40.7929386" lon="-3.6287167"><ele>854.0000000000001</ele><time>2026-03-23T10:56:58.685Z</time></trkpt><trkpt lat="40.7928722" lon="-3.6287969"><ele>854.0</ele><time>2026-03-23T10:56:59.678Z</time></trkpt><trkpt lat="40.7928114" lon="-3.6288865"><ele>854.0</ele><time>2026-03-23T10:57:00.697Z</time></trkpt><trkpt lat="40.7927563" lon="-3.6289889"><ele>854.0</ele><time>2026-03-23T10:57:01.689Z</time></trkpt><trkpt lat="40.7927174" lon="-3.6290845"><ele>854.0000000000001</ele><time>2026-03-23T10:57:02.689Z</time></trkpt><trkpt lat="40.7926751" lon="-3.6291738"><ele>854.0</ele><time>2026-03-23T10:57:03.681Z</time></trkpt><trkpt lat="40.7926372" lon="-3.6292706"><ele>852.8333333333334</ele><time>2026-03-23T10:57:04.684Z</time></trkpt><trkpt lat="40.7925954" lon="-3.6293561"><ele>851.6666666666667</ele><time>2026-03-23T10:57:05.701Z</time></trkpt><trkpt lat="40.7925403" lon="-3.6294378"><ele>850.5</ele><time>2026-03-23T10:57:06.687Z</time></trkpt><trkpt lat="40.7924797" lon="-3.6295067"><ele>849.3333333333333</ele><time>2026-03-23T10:57:07.682Z</time></trkpt><trkpt lat="40.792422" lon="-3.6295692"><ele>848.1666666666666</ele><time>2026-03-23T10:57:08.685Z</time></trkpt><trkpt lat="40.7923678" lon="-3.6296368"><ele>847.0</ele><time>2026-03-23T10:57:09.696Z</time></trkpt><trkpt lat="40.7923207" lon="-3.6296988"><ele>846.6666666666666</ele><time>2026-03-23T10:57:10.688Z</time></trkpt><trkpt lat="40.7922367" lon="-3.6298292"><ele>846.3333333333333</ele><time>2026-03-23T10:57:12.69Z</time></trkpt><trkpt lat="40.7922033" lon="-3.6299014"><ele>846.0</ele><time>2026-03-23T10:57:13.677Z</time></trkpt><trkpt lat="40.792169" lon="-3.6299739"><ele>845.6666666666667</ele><time>2026-03-23T10:57:14.68Z</time></trkpt><trkpt lat="40.7921405" lon="-3.6300529"><ele>845.3333333333334</ele><time>2026-03-23T10:57:15.675Z</time></trkpt><trkpt lat="40.7920774" lon="-3.6301798"><ele>845.0</ele><time>2026-03-23T10:57:17.656Z</time></trkpt><trkpt lat="40.7919953" lon="-3.630308"><ele>844.1666666666667</ele><time>2026-03-23T10:57:19.67Z</time></trkpt><trkpt lat="40.7919508" lon="-3.6303836"><ele>843.3333333333334</ele><time>2026-03-23T10:57:20.68Z</time></trkpt><trkpt lat="40.7919034" lon="-3.6304738"><ele>842.5</ele><time>2026-03-23T10:57:21.672Z</time></trkpt><trkpt lat="40.7918597" lon="-3.6305677"><ele>841.6666666666667</ele><time>2026-03-23T10:57:22.66Z</time></trkpt><trkpt lat="40.7918157" lon="-3.6306732"><ele>840.8333333333334</ele><time>2026-03-23T10:57:23.677Z</time></trkpt><trkpt lat="40.7917631" lon="-3.6307871"><ele>840.0</ele><time>2026-03-23T10:57:24.667Z</time></trkpt><trkpt lat="40.7917159" lon="-3.6309049"><ele>839.4</ele><time>2026-03-23T10:57:25.669Z</time></trkpt><trkpt lat="40.791666" lon="-3.6310181"><ele>838.8</ele><time>2026-03-23T10:57:26.692Z</time></trkpt><trkpt lat="40.7916169" lon="-3.6311305"><ele>838.2</ele><time>2026-03-23T10:57:27.686Z</time></trkpt><trkpt lat="40.7915659" lon="-3.6312376"><ele>837.6</ele><time>2026-03-23T10:57:28.69Z</time></trkpt><trkpt lat="40.7915159" lon="-3.6313436"><ele>837.0</ele><time>2026-03-23T10:57:29.683Z</time></trkpt><trkpt lat="40.7914715" lon="-3.6314368"><ele>837.0</ele><time>2026-03-23T10:57:30.671Z</time></trkpt><trkpt lat="40.7914364" lon="-3.6315071"><ele>837.0</ele><time>2026-03-23T10:57:31.68Z</time></trkpt><trkpt lat="40.7914084" lon="-3.6315844"><ele>837.0</ele><time>2026-03-23T10:57:33.681Z</time></trkpt><trkpt lat="40.7913491" lon="-3.631657"><ele>837.0</ele><time>2026-03-23T10:57:45.674Z</time></trkpt><trkpt lat="40.7912822" lon="-3.6317599"><ele>837.0</ele><time>2026-03-23T10:57:47.696Z</time></trkpt><trkpt lat="40.7912127" lon="-3.6318944"><ele>837.0</ele><time>2026-03-23T10:57:49.683Z</time></trkpt><trkpt lat="40.791188" lon="-3.6319826"><ele>837.2857142857143</ele><time>2026-03-23T10:57:50.689Z</time></trkpt><trkpt lat="40.7911778" lon="-3.632075"><ele>837.5714285714287</ele><time>2026-03-23T10:57:51.688Z</time></trkpt><trkpt lat="40.7911775" lon="-3.6321706"><ele>837.8571428571429</ele><time>2026-03-23T10:57:52.687Z</time></trkpt><trkpt lat="40.7911924" lon="-3.6322672"><ele>838.1428571428571</ele><time>2026-03-23T10:57:53.692Z</time></trkpt><trkpt lat="40.7912093" lon="-3.6323693"><ele>838.4285714285714</ele><time>2026-03-23T10:57:54.686Z</time></trkpt><trkpt lat="40.7912164" lon="-3.6324775"><ele>838.7142857142857</ele><time>2026-03-23T10:57:55.703Z</time></trkpt><trkpt lat="40.7912176" lon="-3.6325705"><ele>839.0</ele><time>2026-03-23T10:57:56.695Z</time></trkpt><trkpt lat="40.7912149" lon="-3.6326737"><ele>839.0</ele><time>2026-03-23T10:57:57.677Z</time></trkpt><trkpt lat="40.7912048" lon="-3.6327652"><ele>839.0</ele><time>2026-03-23T10:57:58.681Z</time></trkpt><trkpt lat="40.7911852" lon="-3.6328627"><ele>839.0</ele><time>2026-03-23T10:57:59.699Z</time></trkpt><trkpt lat="40.7911754" lon="-3.6329481"><ele>839.0</ele><time>2026-03-23T10:58:00.687Z</time></trkpt><trkpt lat="40.7911681" lon="-3.6330403"><ele>839.0</ele><time>2026-03-23T10:58:01.675Z</time></trkpt><trkpt lat="40.7911619" lon="-3.6331395"><ele>839.0</ele><time>2026-03-23T10:58:02.684Z</time></trkpt><trkpt lat="40.7911578" lon="-3.6332425"><ele>839.0</ele><time>2026-03-23T10:58:03.684Z</time></trkpt><trkpt lat="40.7911446" lon="-3.6333593"><ele>839.4000000000001</ele><time>2026-03-23T10:58:04.68Z</time></trkpt><trkpt lat="40.7911183" lon="-3.6334809"><ele>839.8</ele><time>2026-03-23T10:58:05.676Z</time></trkpt><trkpt lat="40.7910796" lon="-3.6336065"><ele>840.2</ele><time>2026-03-23T10:58:06.677Z</time></trkpt><trkpt lat="40.7910374" lon="-3.6337336"><ele>840.5999999999999</ele><time>2026-03-23T10:58:07.687Z</time></trkpt><trkpt lat="40.7909937" lon="-3.6338661"><ele>841.0</ele><time>2026-03-23T10:58:08.694Z</time></trkpt><trkpt lat="40.7909506" lon="-3.6339967"><ele>841.4</ele><time>2026-03-23T10:58:09.695Z</time></trkpt><trkpt lat="40.7909203" lon="-3.6341232"><ele>841.8</ele><time>2026-03-23T10:58:10.676Z</time></trkpt><trkpt lat="40.7908889" lon="-3.6342591"><ele>842.1999999999999</ele><time>2026-03-23T10:58:11.69Z</time></trkpt><trkpt lat="40.7908532" lon="-3.6343889"><ele>842.5999999999999</ele><time>2026-03-23T10:58:12.69Z</time></trkpt><trkpt lat="40.7908118" lon="-3.634516"><ele>843.0</ele><time>2026-03-23T10:58:13.679Z</time></trkpt><trkpt lat="40.7907713" lon="-3.6346432"><ele>844.0</ele><time>2026-03-23T10:58:14.71Z</time></trkpt><trkpt lat="40.7907278" lon="-3.6347663"><ele>845.0</ele><time>2026-03-23T10:58:15.705Z</time></trkpt><trkpt lat="40.7906895" lon="-3.6348946"><ele>846.0</ele><time>2026-03-23T10:58:16.677Z</time></trkpt><trkpt lat="40.7906478" lon="-3.6350213"><ele>847.0</ele><time>2026-03-23T10:58:17.682Z</time></trkpt><trkpt lat="40.7906123" lon="-3.6351487"><ele>848.0</ele><time>2026-03-23T10:58:18.686Z</time></trkpt><trkpt lat="40.7905751" lon="-3.6352674"><ele>848.5000000000001</ele><time>2026-03-23T10:58:19.699Z</time></trkpt><trkpt lat="40.7905443" lon="-3.6353753"><ele>849.0</ele><time>2026-03-23T10:58:20.689Z</time></trkpt><trkpt lat="40.7905203" lon="-3.6354635"><ele>849.5</ele><time>2026-03-23T10:58:21.679Z</time></trkpt><trkpt lat="40.7904952" lon="-3.6355448"><ele>850.0</ele><time>2026-03-23T10:58:22.693Z</time></trkpt><trkpt lat="40.7904573" lon="-3.6356792"><ele>850.5000000000001</ele><time>2026-03-23T10:58:24.693Z</time></trkpt><trkpt lat="40.7904294" lon="-3.6357878"><ele>851.0</ele><time>2026-03-23T10:58:26.69Z</time></trkpt><trkpt lat="40.7904023" lon="-3.635892"><ele>851.0000000000001</ele><time>2026-03-23T10:58:28.685Z</time></trkpt><trkpt lat="40.7903633" lon="-3.6360044"><ele>851.0</ele><time>2026-03-23T10:58:31.689Z</time></trkpt><trkpt lat="40.7903364" lon="-3.6360948"><ele>851.0</ele><time>2026-03-23T10:58:33.683Z</time></trkpt><trkpt lat="40.7902894" lon="-3.6362303"><ele>851.0</ele><time>2026-03-23T10:58:35.692Z</time></trkpt><trkpt lat="40.7902501" lon="-3.6363186"><ele>851.0000000000001</ele><time>2026-03-23T10:58:37.705Z</time></trkpt><trkpt lat="40.7902124" lon="-3.6364075"><ele>851.0</ele><time>2026-03-23T10:58:40.695Z</time></trkpt><trkpt lat="40.7901816" lon="-3.6365136"><ele>850.8333333333334</ele><time>2026-03-23T10:58:44.676Z</time></trkpt><trkpt lat="40.7901716" lon="-3.6366108"><ele>850.6666666666667</ele><time>2026-03-23T10:58:46.694Z</time></trkpt><trkpt lat="40.7901809" lon="-3.6367484"><ele>850.5</ele><time>2026-03-23T10:58:48.67Z</time></trkpt><trkpt lat="40.7902531" lon="-3.6368535"><ele>850.3333333333333</ele><time>2026-03-23T10:58:50.661Z</time></trkpt><trkpt lat="40.790315" lon="-3.6368785"><ele>850.1666666666666</ele><time>2026-03-23T10:58:51.657Z</time></trkpt><trkpt lat="40.7903768" lon="-3.6369031"><ele>850.0</ele><time>2026-03-23T10:58:52.672Z</time></trkpt><trkpt lat="40.7904428" lon="-3.6369256"><ele>850.3333333333333</ele><time>2026-03-23T10:58:53.672Z</time></trkpt><trkpt lat="40.7905034" lon="-3.6369559"><ele>850.6666666666666</ele><time>2026-03-23T10:58:54.683Z</time></trkpt><trkpt lat="40.7905778" lon="-3.6370078"><ele>851.0</ele><time>2026-03-23T10:58:55.675Z</time></trkpt><trkpt lat="40.7906488" lon="-3.6370743"><ele>851.3333333333333</ele><time>2026-03-23T10:58:56.673Z</time></trkpt><trkpt lat="40.7907089" lon="-3.6371277"><ele>851.6666666666666</ele><time>2026-03-23T10:58:57.683Z</time></trkpt><trkpt lat="40.7907639" lon="-3.6372275"><ele>852.0</ele><time>2026-03-23T10:58:59.68Z</time></trkpt><trkpt lat="40.7907703" lon="-3.6373364"><ele>852.2857142857142</ele><time>2026-03-23T10:59:01.7Z</time></trkpt><trkpt lat="40.7907289" lon="-3.6374098"><ele>852.5714285714286</ele><time>2026-03-23T10:59:03.684Z</time></trkpt><trkpt lat="40.7906588" lon="-3.6374171"><ele>852.8571428571429</ele><time>2026-03-23T10:59:05.693Z</time></trkpt><trkpt lat="40.7905924" lon="-3.6374043"><ele>853.1428571428571</ele><time>2026-03-23T10:59:06.678Z</time></trkpt><trkpt lat="40.7905169" lon="-3.6373807"><ele>853.4285714285714</ele><time>2026-03-23T10:59:07.687Z</time></trkpt><trkpt lat="40.7904408" lon="-3.6373353"><ele>853.7142857142857</ele><time>2026-03-23T10:59:08.685Z</time></trkpt><trkpt lat="40.790377" lon="-3.6372869"><ele>854.0</ele><time>2026-03-23T10:59:09.677Z</time></trkpt><trkpt lat="40.7903117" lon="-3.6372314"><ele>854.0000000000001</ele><time>2026-03-23T10:59:10.685Z</time></trkpt><trkpt lat="40.7902551" lon="-3.637166"><ele>854.0</ele><time>2026-03-23T10:59:11.699Z</time></trkpt><trkpt lat="40.7902118" lon="-3.6370988"><ele>854.0</ele><time>2026-03-23T10:59:12.685Z</time></trkpt><trkpt lat="40.7901411" lon="-3.6369954"><ele>854.0</ele><time>2026-03-23T10:59:14.673Z</time></trkpt><trkpt lat="40.7900897" lon="-3.636927"><ele>854.0000000000001</ele><time>2026-03-23T10:59:16.675Z</time></trkpt><trkpt lat="40.7900824" lon="-3.6368059"><ele>854.0</ele><time>2026-03-23T10:59:18.68Z</time></trkpt><trkpt lat="40.7901328" lon="-3.6366712"><ele>853.6666666666667</ele><time>2026-03-23T10:59:20.688Z</time></trkpt><trkpt lat="40.7901729" lon="-3.6365975"><ele>853.3333333333334</ele><time>2026-03-23T10:59:21.676Z</time></trkpt><trkpt lat="40.7902239" lon="-3.6365093"><ele>853.0</ele><time>2026-03-23T10:59:22.678Z</time></trkpt><trkpt lat="40.7902685" lon="-3.6364303"><ele>852.6666666666667</ele><time>2026-03-23T10:59:23.696Z</time></trkpt><trkpt lat="40.790307" lon="-3.6363487"><ele>852.3333333333334</ele><time>2026-03-23T10:59:24.687Z</time></trkpt><trkpt lat="40.7903528" lon="-3.6362412"><ele>852.0</ele><time>2026-03-23T10:59:25.689Z</time></trkpt><trkpt lat="40.7903919" lon="-3.6361196"><ele>851.8</ele><time>2026-03-23T10:59:26.691Z</time></trkpt><trkpt lat="40.7904295" lon="-3.6359983"><ele>851.6</ele><time>2026-03-23T10:59:27.667Z</time></trkpt><trkpt lat="40.7904639" lon="-3.6358601"><ele>851.4</ele><time>2026-03-23T10:59:28.699Z</time></trkpt><trkpt lat="40.790504" lon="-3.6357119"><ele>851.1999999999999</ele><time>2026-03-23T10:59:29.698Z</time></trkpt><trkpt lat="40.7905404" lon="-3.6355766"><ele>851.0</ele><time>2026-03-23T10:59:30.703Z</time></trkpt><trkpt lat="40.7905817" lon="-3.6354445"><ele>851.0</ele><time>2026-03-23T10:59:31.666Z</time></trkpt><trkpt lat="40.7906208" lon="-3.6353068"><ele>851.0</ele><time>2026-03-23T10:59:32.689Z</time></trkpt><trkpt lat="40.7906748" lon="-3.6351623"><ele>851.0</ele><time>2026-03-23T10:59:33.679Z</time></trkpt><trkpt lat="40.7907268" lon="-3.6350184"><ele>851.0</ele><time>2026-03-23T10:59:34.693Z</time></trkpt><trkpt lat="40.7907659" lon="-3.6348783"><ele>850.4</ele><time>2026-03-23T10:59:35.668Z</time></trkpt><trkpt lat="40.7907966" lon="-3.6347517"><ele>849.8</ele><time>2026-03-23T10:59:36.704Z</time></trkpt><trkpt lat="40.7908284" lon="-3.634623"><ele>849.1999999999999</ele><time>2026-03-23T10:59:37.688Z</time></trkpt><trkpt lat="40.790866" lon="-3.6344992"><ele>848.5999999999999</ele><time>2026-03-23T10:59:38.68Z</time></trkpt><trkpt lat="40.7909081" lon="-3.6343685"><ele>848.0</ele><time>2026-03-23T10:59:39.686Z</time></trkpt><trkpt lat="40.790949" lon="-3.6342265"><ele>846.75</ele><time>2026-03-23T10:59:40.686Z</time></trkpt><trkpt lat="40.7909846" lon="-3.634075"><ele>845.5</ele><time>2026-03-23T10:59:41.69Z</time></trkpt><trkpt lat="40.7910248" lon="-3.6339213"><ele>844.25</ele><time>2026-03-23T10:59:42.705Z</time></trkpt><trkpt lat="40.7910676" lon="-3.6337725"><ele>843.0</ele><time>2026-03-23T10:59:43.692Z</time></trkpt><trkpt lat="40.7911112" lon="-3.6336298"><ele>842.5999999999999</ele><time>2026-03-23T10:59:44.682Z</time></trkpt><trkpt lat="40.7911443" lon="-3.633496"><ele>842.1999999999999</ele><time>2026-03-23T10:59:45.687Z</time></trkpt><trkpt lat="40.7911711" lon="-3.6333666"><ele>841.8</ele><time>2026-03-23T10:59:46.664Z</time></trkpt><trkpt lat="40.7911867" lon="-3.6332432"><ele>841.4</ele><time>2026-03-23T10:59:47.66Z</time></trkpt><trkpt lat="40.7911923" lon="-3.6331184"><ele>841.0</ele><time>2026-03-23T10:59:48.676Z</time></trkpt><trkpt lat="40.7912047" lon="-3.6329961"><ele>841.0</ele><time>2026-03-23T10:59:49.665Z</time></trkpt><trkpt lat="40.791217" lon="-3.6328854"><ele>841.0</ele><time>2026-03-23T10:59:50.663Z</time></trkpt><trkpt lat="40.7912273" lon="-3.6327833"><ele>841.0</ele><time>2026-03-23T10:59:51.671Z</time></trkpt><trkpt lat="40.7912318" lon="-3.6326925"><ele>841.0</ele><time>2026-03-23T10:59:52.683Z</time></trkpt><trkpt lat="40.7912353" lon="-3.6325963"><ele>841.0</ele><time>2026-03-23T10:59:53.675Z</time></trkpt><trkpt lat="40.7912354" lon="-3.6325019"><ele>841.0</ele><time>2026-03-23T10:59:54.688Z</time></trkpt><trkpt lat="40.7912338" lon="-3.6324071"><ele>841.0</ele><time>2026-03-23T10:59:55.697Z</time></trkpt><trkpt lat="40.7912308" lon="-3.6323188"><ele>840.5999999999999</ele><time>2026-03-23T10:59:56.694Z</time></trkpt><trkpt lat="40.7912276" lon="-3.6322308"><ele>840.2</ele><time>2026-03-23T10:59:57.677Z</time></trkpt><trkpt lat="40.7912251" lon="-3.6320769"><ele>839.8</ele><time>2026-03-23T10:59:59.696Z</time></trkpt><trkpt lat="40.7912485" lon="-3.6319349"><ele>839.4000000000001</ele><time>2026-03-23T11:00:01.673Z</time></trkpt><trkpt lat="40.7912938" lon="-3.6318138"><ele>839.0</ele><time>2026-03-23T11:00:03.686Z</time></trkpt><trkpt lat="40.7913463" lon="-3.6317056"><ele>838.7142857142857</ele><time>2026-03-23T11:00:05.671Z</time></trkpt><trkpt lat="40.7913845" lon="-3.6316105"><ele>838.4285714285714</ele><time>2026-03-23T11:00:07.658Z</time></trkpt><trkpt lat="40.7914221" lon="-3.631528"><ele>838.1428571428571</ele><time>2026-03-23T11:00:09.672Z</time></trkpt><trkpt lat="40.7914449" lon="-3.6314474"><ele>837.8571428571429</ele><time>2026-03-23T11:00:11.679Z</time></trkpt><trkpt lat="40.7914737" lon="-3.6313676"><ele>837.5714285714287</ele><time>2026-03-23T11:00:14.681Z</time></trkpt><trkpt lat="40.7915097" lon="-3.6312964"><ele>837.2857142857143</ele><time>2026-03-23T11:00:41.682Z</time></trkpt><trkpt lat="40.7915676" lon="-3.6312015"><ele>837.0</ele><time>2026-03-23T11:00:43.694Z</time></trkpt><trkpt lat="40.7916195" lon="-3.6311187"><ele>836.4000000000001</ele><time>2026-03-23T11:00:45.665Z</time></trkpt><trkpt lat="40.7916439" lon="-3.6310283"><ele>835.8000000000001</ele><time>2026-03-23T11:00:48.669Z</time></trkpt><trkpt lat="40.7917152" lon="-3.6309205"><ele>835.2</ele><time>2026-03-23T11:02:09.686Z</time></trkpt><trkpt lat="40.7917844" lon="-3.6307877"><ele>834.6</ele><time>2026-03-23T11:02:11.688Z</time></trkpt><trkpt lat="40.7918243" lon="-3.6306966"><ele>834.0</ele><time>2026-03-23T11:02:12.691Z</time></trkpt><trkpt lat="40.7918708" lon="-3.6306011"><ele>835.2</ele><time>2026-03-23T11:02:13.689Z</time></trkpt><trkpt lat="40.7919217" lon="-3.6305048"><ele>836.4000000000001</ele><time>2026-03-23T11:02:14.688Z</time></trkpt><trkpt lat="40.7919739" lon="-3.6304023"><ele>837.6</ele><time>2026-03-23T11:02:15.704Z</time></trkpt><trkpt lat="40.7920262" lon="-3.6303016"><ele>838.8</ele><time>2026-03-23T11:02:16.68Z</time></trkpt><trkpt lat="40.7920831" lon="-3.6301878"><ele>840.0</ele><time>2026-03-23T11:02:17.701Z</time></trkpt><trkpt lat="40.7921419" lon="-3.6300674"><ele>841.0</ele><time>2026-03-23T11:02:18.67Z</time></trkpt><trkpt lat="40.7921958" lon="-3.6299478"><ele>842.0</ele><time>2026-03-23T11:02:19.667Z</time></trkpt><trkpt lat="40.7922455" lon="-3.629833"><ele>843.0</ele><time>2026-03-23T11:02:20.691Z</time></trkpt><trkpt lat="40.7923126" lon="-3.6297268"><ele>844.0</ele><time>2026-03-23T11:02:21.678Z</time></trkpt><trkpt lat="40.7923836" lon="-3.6296393"><ele>845.0</ele><time>2026-03-23T11:02:22.665Z</time></trkpt><trkpt lat="40.7924597" lon="-3.6295624"><ele>845.0000000000001</ele><time>2026-03-23T11:02:23.665Z</time></trkpt><trkpt lat="40.7925261" lon="-3.6294819"><ele>845.0</ele><time>2026-03-23T11:02:24.662Z</time></trkpt><trkpt lat="40.7925901" lon="-3.6293858"><ele>845.0</ele><time>2026-03-23T11:02:25.675Z</time></trkpt><trkpt lat="40.792648" lon="-3.6292965"><ele>845.0</ele><time>2026-03-23T11:02:26.686Z</time></trkpt><trkpt lat="40.7927" lon="-3.6292036"><ele>845.0000000000001</ele><time>2026-03-23T11:02:27.675Z</time></trkpt><trkpt lat="40.7927418" lon="-3.6291147"><ele>845.0</ele><time>2026-03-23T11:02:28.691Z</time></trkpt><trkpt lat="40.7927875" lon="-3.6290239"><ele>846.6</ele><time>2026-03-23T11:02:29.678Z</time></trkpt><trkpt lat="40.7928413" lon="-3.6289305"><ele>848.2</ele><time>2026-03-23T11:02:30.688Z</time></trkpt><trkpt lat="40.792906" lon="-3.6288402"><ele>849.8</ele><time>2026-03-23T11:02:31.691Z</time></trkpt><trkpt lat="40.7929726" lon="-3.6287625"><ele>851.4</ele><time>2026-03-23T11:02:32.667Z</time></trkpt><trkpt lat="40.793049" lon="-3.6286856"><ele>853.0</ele><time>2026-03-23T11:02:33.68Z</time></trkpt><trkpt lat="40.7931262" lon="-3.6286032"><ele>853.0</ele><time>2026-03-23T11:02:34.688Z</time></trkpt><trkpt lat="40.7932028" lon="-3.6285148"><ele>853.0</ele><time>2026-03-23T11:02:35.687Z</time></trkpt><trkpt lat="40.7932839" lon="-3.6284277"><ele>853.0</ele><time>2026-03-23T11:02:36.692Z</time></trkpt><trkpt lat="40.7933619" lon="-3.6283423"><ele>853.0</ele><time>2026-03-23T11:02:37.682Z</time></trkpt><trkpt lat="40.793443" lon="-3.6282562"><ele>853.0</ele><time>2026-03-23T11:02:38.689Z</time></trkpt><trkpt lat="40.7935197" lon="-3.6281695"><ele>854.5999999999999</ele><time>2026-03-23T11:02:39.688Z</time></trkpt><trkpt lat="40.7936013" lon="-3.6280845"><ele>856.1999999999999</ele><time>2026-03-23T11:02:40.683Z</time></trkpt><trkpt lat="40.7936771" lon="-3.6280039"><ele>857.8</ele><time>2026-03-23T11:02:41.69Z</time></trkpt><trkpt lat="40.793748" lon="-3.6279215"><ele>859.4</ele><time>2026-03-23T11:02:42.68Z</time></trkpt><trkpt lat="40.7938162" lon="-3.6278449"><ele>861.0</ele><time>2026-03-23T11:02:43.703Z</time></trkpt><trkpt lat="40.7938808" lon="-3.6277688"><ele>861.0</ele><time>2026-03-23T11:02:44.688Z</time></trkpt><trkpt lat="40.793937" lon="-3.6276941"><ele>861.0</ele><time>2026-03-23T11:02:45.674Z</time></trkpt><trkpt lat="40.7939852" lon="-3.627613"><ele>861.0</ele><time>2026-03-23T11:02:46.673Z</time></trkpt><trkpt lat="40.7940218" lon="-3.6275208"><ele>861.0</ele><time>2026-03-23T11:02:47.683Z</time></trkpt><trkpt lat="40.7940516" lon="-3.6274259"><ele>861.0</ele><time>2026-03-23T11:02:48.663Z</time></trkpt><trkpt lat="40.7940827" lon="-3.6273296"><ele>861.0</ele><time>2026-03-23T11:02:49.671Z</time></trkpt><trkpt lat="40.7941197" lon="-3.6272428"><ele>861.0</ele><time>2026-03-23T11:02:50.669Z</time></trkpt><trkpt lat="40.7941658" lon="-3.6271453"><ele>861.0</ele><time>2026-03-23T11:02:51.673Z</time></trkpt><trkpt lat="40.7942245" lon="-3.6270547"><ele>861.0</ele><time>2026-03-23T11:02:52.678Z</time></trkpt><trkpt lat="40.794285" lon="-3.6269744"><ele>861.0</ele><time>2026-03-23T11:02:53.675Z</time></trkpt><trkpt lat="40.7943499" lon="-3.6269051"><ele>861.0</ele><time>2026-03-23T11:02:54.675Z</time></trkpt><trkpt lat="40.7944085" lon="-3.6268431"><ele>861.0</ele><time>2026-03-23T11:02:55.662Z</time></trkpt><trkpt lat="40.7944571" lon="-3.6267669"><ele>861.0</ele><time>2026-03-23T11:02:56.67Z</time></trkpt><trkpt lat="40.7945072" lon="-3.6266848"><ele>860.9999999999999</ele><time>2026-03-23T11:02:57.676Z</time></trkpt><trkpt lat="40.7945583" lon="-3.6265975"><ele>860.9999999999999</ele><time>2026-03-23T11:02:58.664Z</time></trkpt><trkpt lat="40.7946157" lon="-3.6264961"><ele>861.0</ele><time>2026-03-23T11:02:59.66Z</time></trkpt><trkpt lat="40.7946769" lon="-3.6263782"><ele>861.0</ele><time>2026-03-23T11:03:00.675Z</time></trkpt><trkpt lat="40.7947238" lon="-3.6262488"><ele>860.8</ele><time>2026-03-23T11:03:01.666Z</time></trkpt><trkpt lat="40.7947624" lon="-3.6261169"><ele>860.5999999999999</ele><time>2026-03-23T11:03:02.677Z</time></trkpt><trkpt lat="40.7947967" lon="-3.6259835"><ele>860.4</ele><time>2026-03-23T11:03:03.671Z</time></trkpt><trkpt lat="40.7948254" lon="-3.6258449"><ele>860.2</ele><time>2026-03-23T11:03:04.661Z</time></trkpt><trkpt lat="40.7948565" lon="-3.6257081"><ele>860.0</ele><time>2026-03-23T11:03:05.661Z</time></trkpt><trkpt lat="40.7948868" lon="-3.6255581"><ele>860.0</ele><time>2026-03-23T11:03:06.673Z</time></trkpt><trkpt lat="40.7949165" lon="-3.6254125"><ele>860.0</ele><time>2026-03-23T11:03:07.669Z</time></trkpt><trkpt lat="40.7949477" lon="-3.625281"><ele>860.0</ele><time>2026-03-23T11:03:08.674Z</time></trkpt><trkpt lat="40.7949854" lon="-3.6251538"><ele>860.0</ele><time>2026-03-23T11:03:09.674Z</time></trkpt><trkpt lat="40.7950222" lon="-3.6250414"><ele>860.0</ele><time>2026-03-23T11:03:10.662Z</time></trkpt><trkpt lat="40.7950656" lon="-3.6249325"><ele>859.8</ele><time>2026-03-23T11:03:11.676Z</time></trkpt><trkpt lat="40.7951178" lon="-3.6248264"><ele>859.6</ele><time>2026-03-23T11:03:12.688Z</time></trkpt><trkpt lat="40.7951791" lon="-3.624719"><ele>859.4000000000001</ele><time>2026-03-23T11:03:13.697Z</time></trkpt><trkpt lat="40.7952427" lon="-3.6246105"><ele>859.2</ele><time>2026-03-23T11:03:14.676Z</time></trkpt><trkpt lat="40.795313" lon="-3.6245079"><ele>859.0</ele><time>2026-03-23T11:03:15.666Z</time></trkpt><trkpt lat="40.7953852" lon="-3.6244075"><ele>859.0</ele><time>2026-03-23T11:03:16.664Z</time></trkpt><trkpt lat="40.7954617" lon="-3.6243117"><ele>859.0000000000001</ele><time>2026-03-23T11:03:17.668Z</time></trkpt><trkpt lat="40.7955412" lon="-3.6242158"><ele>859.0000000000001</ele><time>2026-03-23T11:03:18.689Z</time></trkpt><trkpt lat="40.7956078" lon="-3.6241209"><ele>859.0</ele><time>2026-03-23T11:03:19.67Z</time></trkpt><trkpt lat="40.7956621" lon="-3.624011"><ele>859.0</ele><time>2026-03-23T11:03:20.669Z</time></trkpt><trkpt lat="40.7957064" lon="-3.6238883"><ele>859.0</ele><time>2026-03-23T11:03:21.669Z</time></trkpt><trkpt lat="40.7957363" lon="-3.6237581"><ele>859.0000000000001</ele><time>2026-03-23T11:03:22.671Z</time></trkpt><trkpt lat="40.7957542" lon="-3.623623"><ele>859.0000000000001</ele><time>2026-03-23T11:03:23.665Z</time></trkpt><trkpt lat="40.7957687" lon="-3.6234811"><ele>859.0</ele><time>2026-03-23T11:03:24.672Z</time></trkpt><trkpt lat="40.795784" lon="-3.6233339"><ele>859.0</ele><time>2026-03-23T11:03:25.664Z</time></trkpt><trkpt lat="40.7958151" lon="-3.6231839"><ele>859.0</ele><time>2026-03-23T11:03:26.669Z</time></trkpt><trkpt lat="40.7958546" lon="-3.6230315"><ele>859.0</ele><time>2026-03-23T11:03:27.67Z</time></trkpt><trkpt lat="40.7958975" lon="-3.6228883"><ele>859.0</ele><time>2026-03-23T11:03:28.679Z</time></trkpt><trkpt lat="40.7959486" lon="-3.6227429"><ele>859.0</ele><time>2026-03-23T11:03:29.69Z</time></trkpt><trkpt lat="40.7960044" lon="-3.6225986"><ele>861.5</ele><time>2026-03-23T11:03:30.669Z</time></trkpt><trkpt lat="40.7960709" lon="-3.6224624"><ele>864.0</ele><time>2026-03-23T11:03:31.666Z</time></trkpt><trkpt lat="40.7961426" lon="-3.6223329"><ele>866.5</ele><time>2026-03-23T11:03:32.66Z</time></trkpt><trkpt lat="40.7962122" lon="-3.6222098"><ele>869.0</ele><time>2026-03-23T11:03:33.667Z</time></trkpt><trkpt lat="40.7962803" lon="-3.6221012"><ele>869.0000000000001</ele><time>2026-03-23T11:03:34.686Z</time></trkpt><trkpt lat="40.796342" lon="-3.6220101"><ele>869.0</ele><time>2026-03-23T11:03:35.681Z</time></trkpt><trkpt lat="40.7964026" lon="-3.621936"><ele>869.0</ele><time>2026-03-23T11:03:36.678Z</time></trkpt><trkpt lat="40.7964527" lon="-3.6218787"><ele>869.0</ele><time>2026-03-23T11:03:37.691Z</time></trkpt><trkpt lat="40.7965084" lon="-3.6217674"><ele>869.0000000000001</ele><time>2026-03-23T11:03:39.684Z</time></trkpt><trkpt lat="40.7964825" lon="-3.6216525"><ele>869.0</ele><time>2026-03-23T11:03:41.67Z</time></trkpt><trkpt lat="40.796388" lon="-3.6215392"><ele>868.5000000000001</ele><time>2026-03-23T11:03:43.661Z</time></trkpt><trkpt lat="40.7963274" lon="-3.6214889"><ele>868.0</ele><time>2026-03-23T11:03:44.662Z</time></trkpt><trkpt lat="40.7962649" lon="-3.6214386"><ele>867.5</ele><time>2026-03-23T11:03:45.687Z</time></trkpt><trkpt lat="40.7961976" lon="-3.6213953"><ele>867.0</ele><time>2026-03-23T11:03:46.677Z</time></trkpt><trkpt lat="40.7961233" lon="-3.6213455"><ele>866.5000000000001</ele><time>2026-03-23T11:03:47.667Z</time></trkpt><trkpt lat="40.7960437" lon="-3.6212872"><ele>866.0</ele><time>2026-03-23T11:03:48.666Z</time></trkpt><trkpt lat="40.7959574" lon="-3.6212292"><ele>864.3333333333334</ele><time>2026-03-23T11:03:49.668Z</time></trkpt><trkpt lat="40.7958706" lon="-3.6211768"><ele>862.6666666666667</ele><time>2026-03-23T11:03:50.674Z</time></trkpt><trkpt lat="40.7957894" lon="-3.6211301"><ele>861.0</ele><time>2026-03-23T11:03:51.675Z</time></trkpt><trkpt lat="40.7957168" lon="-3.6211092"><ele>859.3333333333333</ele><time>2026-03-23T11:03:52.665Z</time></trkpt><trkpt lat="40.7956419" lon="-3.6211035"><ele>857.6666666666666</ele><time>2026-03-23T11:03:53.68Z</time></trkpt><trkpt lat="40.7955643" lon="-3.6211183"><ele>856.0</ele><time>2026-03-23T11:03:54.67Z</time></trkpt><trkpt lat="40.7954787" lon="-3.6211464"><ele>856.0</ele><time>2026-03-23T11:03:55.698Z</time></trkpt><trkpt lat="40.7953847" lon="-3.6211795"><ele>855.9999999999999</ele><time>2026-03-23T11:03:56.665Z</time></trkpt><trkpt lat="40.7952865" lon="-3.6212148"><ele>855.9999999999999</ele><time>2026-03-23T11:03:57.668Z</time></trkpt><trkpt lat="40.7951923" lon="-3.6212604"><ele>856.0</ele><time>2026-03-23T11:03:58.674Z</time></trkpt><trkpt lat="40.7951099" lon="-3.6213213"><ele>856.0</ele><time>2026-03-23T11:03:59.668Z</time></trkpt><trkpt lat="40.7950204" lon="-3.6213945"><ele>855.1999999999999</ele><time>2026-03-23T11:04:00.688Z</time></trkpt><trkpt lat="40.7949281" lon="-3.6214784"><ele>854.3999999999999</ele><time>2026-03-23T11:04:01.683Z</time></trkpt><trkpt lat="40.7948403" lon="-3.6215596"><ele>853.6</ele><time>2026-03-23T11:04:02.695Z</time></trkpt><trkpt lat="40.7947498" lon="-3.6216388"><ele>852.8</ele><time>2026-03-23T11:04:03.691Z</time></trkpt><trkpt lat="40.7946588" lon="-3.6217146"><ele>852.0</ele><time>2026-03-23T11:04:04.697Z</time></trkpt><trkpt lat="40.7945676" lon="-3.621785"><ele>852.0</ele><time>2026-03-23T11:04:05.666Z</time></trkpt><trkpt lat="40.7944743" lon="-3.6218633"><ele>852.0</ele><time>2026-03-23T11:04:06.667Z</time></trkpt><trkpt lat="40.7943837" lon="-3.6219411"><ele>852.0</ele><time>2026-03-23T11:04:07.669Z</time></trkpt><trkpt lat="40.7942961" lon="-3.622023"><ele>852.0</ele><time>2026-03-23T11:04:08.679Z</time></trkpt><trkpt lat="40.7942202" lon="-3.6221022"><ele>852.0</ele><time>2026-03-23T11:04:09.698Z</time></trkpt><trkpt lat="40.7941424" lon="-3.6221693"><ele>851.8333333333334</ele><time>2026-03-23T11:04:10.691Z</time></trkpt><trkpt lat="40.7940739" lon="-3.6222408"><ele>851.6666666666667</ele><time>2026-03-23T11:04:11.693Z</time></trkpt><trkpt lat="40.7940083" lon="-3.6223257"><ele>851.5</ele><time>2026-03-23T11:04:12.681Z</time></trkpt><trkpt lat="40.7939505" lon="-3.622399"><ele>851.3333333333334</ele><time>2026-03-23T11:04:13.69Z</time></trkpt><trkpt lat="40.7938975" lon="-3.622471"><ele>851.1666666666667</ele><time>2026-03-23T11:04:14.682Z</time></trkpt><trkpt lat="40.7938435" lon="-3.6225414"><ele>851.0</ele><time>2026-03-23T11:04:15.695Z</time></trkpt><trkpt lat="40.7937752" lon="-3.6226088"><ele>851.0000000000001</ele><time>2026-03-23T11:04:16.689Z</time></trkpt><trkpt lat="40.7937067" lon="-3.6226774"><ele>851.0</ele><time>2026-03-23T11:04:17.696Z</time></trkpt><trkpt lat="40.7936327" lon="-3.6227386"><ele>851.0</ele><time>2026-03-23T11:04:18.672Z</time></trkpt><trkpt lat="40.7935603" lon="-3.6227902"><ele>851.0</ele><time>2026-03-23T11:04:19.683Z</time></trkpt><trkpt lat="40.7934927" lon="-3.6228361"><ele>851.0000000000001</ele><time>2026-03-23T11:04:20.677Z</time></trkpt><trkpt lat="40.793426" lon="-3.6228778"><ele>851.0</ele><time>2026-03-23T11:04:21.689Z</time></trkpt><trkpt lat="40.7933651" lon="-3.6229262"><ele>851.0000000000001</ele><time>2026-03-23T11:04:22.691Z</time></trkpt><trkpt lat="40.7932981" lon="-3.622994"><ele>851.0</ele><time>2026-03-23T11:04:23.707Z</time></trkpt><trkpt lat="40.7932361" lon="-3.6230667"><ele>851.0</ele><time>2026-03-23T11:04:24.697Z</time></trkpt><trkpt lat="40.7931739" lon="-3.6231385"><ele>851.0</ele><time>2026-03-23T11:04:25.682Z</time></trkpt><trkpt lat="40.7931133" lon="-3.6232179"><ele>851.0000000000001</ele><time>2026-03-23T11:04:26.666Z</time></trkpt><trkpt lat="40.7930505" lon="-3.6233117"><ele>851.0</ele><time>2026-03-23T11:04:27.671Z</time></trkpt><trkpt lat="40.7929851" lon="-3.6234042"><ele>851.0</ele><time>2026-03-23T11:04:28.663Z</time></trkpt><trkpt lat="40.7929256" lon="-3.623491"><ele>851.0</ele><time>2026-03-23T11:04:29.673Z</time></trkpt><trkpt lat="40.7928626" lon="-3.623581"><ele>851.0</ele><time>2026-03-23T11:04:30.668Z</time></trkpt><trkpt lat="40.7927876" lon="-3.6236794"><ele>851.0</ele><time>2026-03-23T11:04:31.664Z</time></trkpt><trkpt lat="40.7927174" lon="-3.6237723"><ele>851.0</ele><time>2026-03-23T11:04:32.672Z</time></trkpt><trkpt lat="40.7926553" lon="-3.6238616"><ele>850.5999999999999</ele><time>2026-03-23T11:04:33.669Z</time></trkpt><trkpt lat="40.7925888" lon="-3.6239514"><ele>850.2</ele><time>2026-03-23T11:04:34.689Z</time></trkpt><trkpt lat="40.7925207" lon="-3.6240446"><ele>849.8</ele><time>2026-03-23T11:04:35.693Z</time></trkpt><trkpt lat="40.7924554" lon="-3.624125"><ele>849.4000000000001</ele><time>2026-03-23T11:04:36.682Z</time></trkpt><trkpt lat="40.7923965" lon="-3.62421"><ele>849.0</ele><time>2026-03-23T11:04:37.699Z</time></trkpt><trkpt lat="40.7923368" lon="-3.6242936"><ele>849.0</ele><time>2026-03-23T11:04:38.683Z</time></trkpt><trkpt lat="40.7922663" lon="-3.6243776"><ele>849.0</ele><time>2026-03-23T11:04:39.682Z</time></trkpt><trkpt lat="40.7921991" lon="-3.6244682"><ele>849.0</ele><time>2026-03-23T11:04:40.674Z</time></trkpt><trkpt lat="40.7921345" lon="-3.6245632"><ele>849.0</ele><time>2026-03-23T11:04:41.677Z</time></trkpt><trkpt lat="40.7920675" lon="-3.62466"><ele>849.0</ele><time>2026-03-23T11:04:42.688Z</time></trkpt><trkpt lat="40.7920047" lon="-3.6247518"><ele>848.6</ele><time>2026-03-23T11:04:43.676Z</time></trkpt><trkpt lat="40.7919288" lon="-3.6248522"><ele>848.2</ele><time>2026-03-23T11:04:44.663Z</time></trkpt><trkpt lat="40.7918474" lon="-3.6249536"><ele>847.8000000000001</ele><time>2026-03-23T11:04:45.654Z</time></trkpt><trkpt lat="40.7917637" lon="-3.6250474"><ele>847.4000000000001</ele><time>2026-03-23T11:04:46.658Z</time></trkpt><trkpt lat="40.7916731" lon="-3.6251438"><ele>847.0</ele><time>2026-03-23T11:04:47.661Z</time></trkpt><trkpt lat="40.7915795" lon="-3.6252419"><ele>846.25</ele><time>2026-03-23T11:04:48.654Z</time></trkpt><trkpt lat="40.7914881" lon="-3.6253462"><ele>845.5</ele><time>2026-03-23T11:04:49.675Z</time></trkpt><trkpt lat="40.7914083" lon="-3.6254439"><ele>844.75</ele><time>2026-03-23T11:04:50.668Z</time></trkpt><trkpt lat="40.7913333" lon="-3.6255495"><ele>844.0</ele><time>2026-03-23T11:04:51.68Z</time></trkpt><trkpt lat="40.7912551" lon="-3.6256656"><ele>844.0</ele><time>2026-03-23T11:04:52.678Z</time></trkpt><trkpt lat="40.7911781" lon="-3.6257853"><ele>844.0</ele><time>2026-03-23T11:04:53.682Z</time></trkpt><trkpt lat="40.7910966" lon="-3.6259054"><ele>844.0</ele><time>2026-03-23T11:04:54.672Z</time></trkpt><trkpt lat="40.7910271" lon="-3.6260306"><ele>844.0</ele><time>2026-03-23T11:04:55.674Z</time></trkpt><trkpt lat="40.7909627" lon="-3.6261556"><ele>842.75</ele><time>2026-03-23T11:04:56.676Z</time></trkpt><trkpt lat="40.7909013" lon="-3.6262797"><ele>841.5</ele><time>2026-03-23T11:04:57.684Z</time></trkpt><trkpt lat="40.7908375" lon="-3.626404"><ele>840.25</ele><time>2026-03-23T11:04:58.681Z</time></trkpt><trkpt lat="40.790771" lon="-3.6265433"><ele>839.0</ele><time>2026-03-23T11:04:59.679Z</time></trkpt><trkpt lat="40.790698" lon="-3.6266759"><ele>839.0</ele><time>2026-03-23T11:05:00.695Z</time></trkpt><trkpt lat="40.7906259" lon="-3.6268054"><ele>839.0</ele><time>2026-03-23T11:05:01.692Z</time></trkpt><trkpt lat="40.7905528" lon="-3.62694"><ele>839.0</ele><time>2026-03-23T11:05:02.698Z</time></trkpt><trkpt lat="40.7904811" lon="-3.6270725"><ele>839.0</ele><time>2026-03-23T11:05:03.682Z</time></trkpt><trkpt lat="40.7904137" lon="-3.6272063"><ele>838.4000000000001</ele><time>2026-03-23T11:05:04.684Z</time></trkpt><trkpt lat="40.7903394" lon="-3.6273292"><ele>837.8</ele><time>2026-03-23T11:05:05.679Z</time></trkpt><trkpt lat="40.7902717" lon="-3.6274468"><ele>837.2</ele><time>2026-03-23T11:05:06.684Z</time></trkpt><trkpt lat="40.7902032" lon="-3.6275564"><ele>836.5999999999999</ele><time>2026-03-23T11:05:07.697Z</time></trkpt><trkpt lat="40.790128" lon="-3.6276619"><ele>836.0</ele><time>2026-03-23T11:05:08.667Z</time></trkpt><trkpt lat="40.7900513" lon="-3.6277749"><ele>835.25</ele><time>2026-03-23T11:05:09.67Z</time></trkpt><trkpt lat="40.7899728" lon="-3.6278943"><ele>834.5</ele><time>2026-03-23T11:05:10.686Z</time></trkpt><trkpt lat="40.7898898" lon="-3.6280181"><ele>833.75</ele><time>2026-03-23T11:05:11.664Z</time></trkpt><trkpt lat="40.7898084" lon="-3.6281466"><ele>833.0</ele><time>2026-03-23T11:05:12.665Z</time></trkpt><trkpt lat="40.7897278" lon="-3.628278"><ele>833.0</ele><time>2026-03-23T11:05:13.693Z</time></trkpt><trkpt lat="40.7896454" lon="-3.6284101"><ele>833.0</ele><time>2026-03-23T11:05:14.69Z</time></trkpt><trkpt lat="40.7895587" lon="-3.6285488"><ele>833.0</ele><time>2026-03-23T11:05:15.674Z</time></trkpt><trkpt lat="40.7894717" lon="-3.6286861"><ele>833.0</ele><time>2026-03-23T11:05:16.67Z</time></trkpt><trkpt lat="40.7893771" lon="-3.6288228"><ele>833.25</ele><time>2026-03-23T11:05:17.677Z</time></trkpt><trkpt lat="40.7892792" lon="-3.6289527"><ele>833.5</ele><time>2026-03-23T11:05:18.677Z</time></trkpt><trkpt lat="40.7891923" lon="-3.6290774"><ele>833.75</ele><time>2026-03-23T11:05:19.683Z</time></trkpt><trkpt lat="40.7891084" lon="-3.6291927"><ele>834.0</ele><time>2026-03-23T11:05:20.7Z</time></trkpt><trkpt lat="40.789022" lon="-3.6293097"><ele>834.0</ele><time>2026-03-23T11:05:21.681Z</time></trkpt><trkpt lat="40.7889345" lon="-3.62943"><ele>834.0</ele><time>2026-03-23T11:05:22.673Z</time></trkpt><trkpt lat="40.7888608" lon="-3.6295426"><ele>834.0</ele><time>2026-03-23T11:05:23.685Z</time></trkpt><trkpt lat="40.7887876" lon="-3.6296461"><ele>834.0</ele><time>2026-03-23T11:05:24.682Z</time></trkpt><trkpt lat="40.7887203" lon="-3.6297208"><ele>834.0</ele><time>2026-03-23T11:05:25.673Z</time></trkpt><trkpt lat="40.7886544" lon="-3.6297976"><ele>834.0</ele><time>2026-03-23T11:05:26.676Z</time></trkpt><trkpt lat="40.7885918" lon="-3.6298628"><ele>834.0</ele><time>2026-03-23T11:05:27.67Z</time></trkpt><trkpt lat="40.788535" lon="-3.6299293"><ele>834.0</ele><time>2026-03-23T11:05:28.667Z</time></trkpt><trkpt lat="40.7884867" lon="-3.6299898"><ele>834.0</ele><time>2026-03-23T11:05:29.684Z</time></trkpt><trkpt lat="40.7884384" lon="-3.6300491"><ele>834.0</ele><time>2026-03-23T11:05:30.685Z</time></trkpt><trkpt lat="40.7883667" lon="-3.6301547"><ele>834.0</ele><time>2026-03-23T11:05:32.687Z</time></trkpt><trkpt lat="40.7883199" lon="-3.6302306"><ele>834.0</ele><time>2026-03-23T11:05:35.673Z</time></trkpt><trkpt lat="40.7882345" lon="-3.6302662"><ele>834.0</ele><time>2026-03-23T11:05:38.677Z</time></trkpt><trkpt lat="40.7881646" lon="-3.6302774"><ele>834.0</ele><time>2026-03-23T11:05:39.692Z</time></trkpt><trkpt lat="40.7880901" lon="-3.6302875"><ele>834.0</ele><time>2026-03-23T11:05:40.68Z</time></trkpt><trkpt lat="40.7880248" lon="-3.6303119"><ele>834.0</ele><time>2026-03-23T11:05:41.681Z</time></trkpt><trkpt lat="40.7879149" lon="-3.6303804"><ele>834.0</ele><time>2026-03-23T11:05:43.69Z</time></trkpt><trkpt lat="40.7878324" lon="-3.6304208"><ele>834.0</ele><time>2026-03-23T11:05:45.681Z</time></trkpt><trkpt lat="40.7877612" lon="-3.630459"><ele>834.0</ele><time>2026-03-23T11:05:48.67Z</time></trkpt><trkpt lat="40.7876989" lon="-3.6305074"><ele>834.0</ele><time>2026-03-23T11:06:34.666Z</time></trkpt><trkpt lat="40.7876539" lon="-3.6304144"><ele>834.0</ele><time>2026-03-23T11:06:37.666Z</time></trkpt><trkpt lat="40.787536" lon="-3.6303649"><ele>834.0</ele><time>2026-03-23T11:06:39.671Z</time></trkpt><trkpt lat="40.787474" lon="-3.6303199"><ele>834.0</ele><time>2026-03-23T11:06:40.674Z</time></trkpt><trkpt lat="40.7874249" lon="-3.6302664"><ele>833.6666666666666</ele><time>2026-03-23T11:06:41.687Z</time></trkpt><trkpt lat="40.7873656" lon="-3.6302038"><ele>833.3333333333333</ele><time>2026-03-23T11:06:42.693Z</time></trkpt><trkpt lat="40.7873098" lon="-3.6301595"><ele>833.0</ele><time>2026-03-23T11:06:43.678Z</time></trkpt><trkpt lat="40.7872457" lon="-3.6301293"><ele>832.6666666666666</ele><time>2026-03-23T11:06:44.681Z</time></trkpt><trkpt lat="40.7871693" lon="-3.6301143"><ele>832.3333333333333</ele><time>2026-03-23T11:06:45.696Z</time></trkpt><trkpt lat="40.7870798" lon="-3.630105"><ele>832.0</ele><time>2026-03-23T11:06:46.678Z</time></trkpt><trkpt lat="40.7869958" lon="-3.6300819"><ele>831.9999999999999</ele><time>2026-03-23T11:06:47.676Z</time></trkpt><trkpt lat="40.7869139" lon="-3.6300459"><ele>832.0</ele><time>2026-03-23T11:06:48.687Z</time></trkpt><trkpt lat="40.7868369" lon="-3.6299908"><ele>832.0</ele><time>2026-03-23T11:06:49.692Z</time></trkpt><trkpt lat="40.7867697" lon="-3.6299327"><ele>832.0</ele><time>2026-03-23T11:06:50.672Z</time></trkpt><trkpt lat="40.7867159" lon="-3.6298879"><ele>831.9999999999999</ele><time>2026-03-23T11:06:51.687Z</time></trkpt><trkpt lat="40.7866631" lon="-3.6298379"><ele>832.0</ele><time>2026-03-23T11:06:52.679Z</time></trkpt><trkpt lat="40.786606" lon="-3.6297802"><ele>832.1666666666666</ele><time>2026-03-23T11:06:53.672Z</time></trkpt><trkpt lat="40.7865565" lon="-3.629724"><ele>832.3333333333333</ele><time>2026-03-23T11:06:54.683Z</time></trkpt><trkpt lat="40.7864701" lon="-3.6296368"><ele>832.5</ele><time>2026-03-23T11:06:56.669Z</time></trkpt><trkpt lat="40.7864068" lon="-3.6295655"><ele>832.6666666666667</ele><time>2026-03-23T11:06:58.677Z</time></trkpt><trkpt lat="40.786349" lon="-3.6295199"><ele>832.8333333333334</ele><time>2026-03-23T11:07:00.679Z</time></trkpt><trkpt lat="40.7862604" lon="-3.6294816"><ele>833.0</ele><time>2026-03-23T11:07:03.675Z</time></trkpt><trkpt lat="40.7861607" lon="-3.6294708"><ele>832.5000000000001</ele><time>2026-03-23T11:07:05.67Z</time></trkpt><trkpt lat="40.7860694" lon="-3.6294612"><ele>832.0</ele><time>2026-03-23T11:07:07.673Z</time></trkpt><trkpt lat="40.7860141" lon="-3.6294091"><ele>831.5</ele><time>2026-03-23T11:07:09.701Z</time></trkpt><trkpt lat="40.7859745" lon="-3.6293311"><ele>831.0</ele><time>2026-03-23T11:07:11.677Z</time></trkpt><trkpt lat="40.7858754" lon="-3.6292845"><ele>830.5000000000001</ele><time>2026-03-23T11:07:13.668Z</time></trkpt><trkpt lat="40.7857667" lon="-3.6292513"><ele>830.0</ele><time>2026-03-23T11:07:15.66Z</time></trkpt><trkpt lat="40.7857024" lon="-3.6292347"><ele>831.0000000000001</ele><time>2026-03-23T11:07:16.664Z</time></trkpt><trkpt lat="40.7856392" lon="-3.6292228"><ele>832.0</ele><time>2026-03-23T11:07:17.671Z</time></trkpt><trkpt lat="40.785516" lon="-3.6292004"><ele>833.0</ele><time>2026-03-23T11:07:19.688Z</time></trkpt><trkpt lat="40.7854107" lon="-3.6292038"><ele>834.0</ele><time>2026-03-23T11:07:21.688Z</time></trkpt><trkpt lat="40.7853375" lon="-3.6292067"><ele>835.0000000000001</ele><time>2026-03-23T11:07:23.676Z</time></trkpt><trkpt lat="40.7852742" lon="-3.6292062"><ele>836.0</ele><time>2026-03-23T11:07:29.684Z</time></trkpt><trkpt lat="40.7852169" lon="-3.629164"><ele>835.0</ele><time>2026-03-23T11:07:31.674Z</time></trkpt><trkpt lat="40.7851612" lon="-3.6291136"><ele>834.0</ele><time>2026-03-23T11:07:34.67Z</time></trkpt><trkpt lat="40.7850879" lon="-3.6291236"><ele>833.0</ele><time>2026-03-23T11:07:37.681Z</time></trkpt><trkpt lat="40.7849944" lon="-3.6292741"><ele>832.0</ele><time>2026-03-23T11:07:39.686Z</time></trkpt><trkpt lat="40.7849314" lon="-3.6293839"><ele>831.0</ele><time>2026-03-23T11:07:40.677Z</time></trkpt><trkpt lat="40.7848452" lon="-3.6295"><ele>831.0</ele><time>2026-03-23T11:07:41.668Z</time></trkpt><trkpt lat="40.7847696" lon="-3.6296121"><ele>831.0</ele><time>2026-03-23T11:07:42.674Z</time></trkpt><trkpt lat="40.7846844" lon="-3.6297348"><ele>831.0</ele><time>2026-03-23T11:07:43.662Z</time></trkpt><trkpt lat="40.7845875" lon="-3.6298713"><ele>831.0</ele><time>2026-03-23T11:07:44.674Z</time></trkpt><trkpt lat="40.7844896" lon="-3.6300133"><ele>831.0</ele><time>2026-03-23T11:07:45.682Z</time></trkpt><trkpt lat="40.7843949" lon="-3.6301667"><ele>831.0</ele><time>2026-03-23T11:07:46.664Z</time></trkpt><trkpt lat="40.7842919" lon="-3.63033"><ele>831.0</ele><time>2026-03-23T11:07:47.664Z</time></trkpt><trkpt lat="40.7841775" lon="-3.6304934"><ele>831.0</ele><time>2026-03-23T11:07:48.67Z</time></trkpt><trkpt lat="40.784066" lon="-3.6306559"><ele>831.0</ele><time>2026-03-23T11:07:49.665Z</time></trkpt><trkpt lat="40.7839552" lon="-3.6308172"><ele>831.0</ele><time>2026-03-23T11:07:50.682Z</time></trkpt><trkpt lat="40.7838447" lon="-3.6309781"><ele>830.6666666666667</ele><time>2026-03-23T11:07:51.68Z</time></trkpt><trkpt lat="40.7837359" lon="-3.6311477"><ele>830.3333333333334</ele><time>2026-03-23T11:07:52.68Z</time></trkpt><trkpt lat="40.7836269" lon="-3.6313207"><ele>830.0</ele><time>2026-03-23T11:07:53.679Z</time></trkpt><trkpt lat="40.7835226" lon="-3.6314955"><ele>830.0</ele><time>2026-03-23T11:07:54.67Z</time></trkpt><trkpt lat="40.7834266" lon="-3.6316585"><ele>830.0</ele><time>2026-03-23T11:07:55.665Z</time></trkpt><trkpt lat="40.7833386" lon="-3.6318012"><ele>830.0</ele><time>2026-03-23T11:07:56.683Z</time></trkpt><trkpt lat="40.7832738" lon="-3.6319252"><ele>830.0</ele><time>2026-03-23T11:07:57.674Z</time></trkpt><trkpt lat="40.7832186" lon="-3.6320485"><ele>830.75</ele><time>2026-03-23T11:07:58.682Z</time></trkpt><trkpt lat="40.7831711" lon="-3.632177"><ele>831.5</ele><time>2026-03-23T11:07:59.677Z</time></trkpt><trkpt lat="40.7831205" lon="-3.632328"><ele>832.25</ele><time>2026-03-23T11:08:00.661Z</time></trkpt><trkpt lat="40.7830724" lon="-3.6324976"><ele>833.0</ele><time>2026-03-23T11:08:01.682Z</time></trkpt><trkpt lat="40.7830369" lon="-3.6326735"><ele>832.75</ele><time>2026-03-23T11:08:02.67Z</time></trkpt><trkpt lat="40.7830032" lon="-3.6328536"><ele>832.5</ele><time>2026-03-23T11:08:03.676Z</time></trkpt><trkpt lat="40.7829801" lon="-3.6330458"><ele>832.25</ele><time>2026-03-23T11:08:04.676Z</time></trkpt><trkpt lat="40.7829516" lon="-3.6332348"><ele>832.0</ele><time>2026-03-23T11:08:05.659Z</time></trkpt><trkpt lat="40.7829316" lon="-3.6334328"><ele>832.0</ele><time>2026-03-23T11:08:06.68Z</time></trkpt><trkpt lat="40.7829179" lon="-3.6336318"><ele>832.0</ele><time>2026-03-23T11:08:07.68Z</time></trkpt><trkpt lat="40.7829124" lon="-3.6338323"><ele>832.0</ele><time>2026-03-23T11:08:08.683Z</time></trkpt><trkpt lat="40.7828956" lon="-3.6340495"><ele>831.6666666666666</ele><time>2026-03-23T11:08:09.679Z</time></trkpt><trkpt lat="40.7828745" lon="-3.6342817"><ele>831.3333333333333</ele><time>2026-03-23T11:08:10.68Z</time></trkpt><trkpt lat="40.7828577" lon="-3.6345308"><ele>831.0</ele><time>2026-03-23T11:08:11.673Z</time></trkpt><trkpt lat="40.7828472" lon="-3.6347889"><ele>830.6666666666667</ele><time>2026-03-23T11:08:12.681Z</time></trkpt><trkpt lat="40.7828417" lon="-3.6350514"><ele>830.3333333333334</ele><time>2026-03-23T11:08:13.68Z</time></trkpt><trkpt lat="40.7828289" lon="-3.6353124"><ele>830.0</ele><time>2026-03-23T11:08:14.685Z</time></trkpt><trkpt lat="40.782815" lon="-3.6355665"><ele>830.0</ele><time>2026-03-23T11:08:15.658Z</time></trkpt><trkpt lat="40.7827991" lon="-3.6358212"><ele>830.0</ele><time>2026-03-23T11:08:16.659Z</time></trkpt><trkpt lat="40.7827831" lon="-3.6360807"><ele>830.0</ele><time>2026-03-23T11:08:17.657Z</time></trkpt><trkpt lat="40.7827711" lon="-3.6363411"><ele>830.0</ele><time>2026-03-23T11:08:18.668Z</time></trkpt><trkpt lat="40.7827546" lon="-3.6366075"><ele>830.0</ele><time>2026-03-23T11:08:19.664Z</time></trkpt><trkpt lat="40.7827403" lon="-3.6368666"><ele>830.0</ele><time>2026-03-23T11:08:20.677Z</time></trkpt><trkpt lat="40.7827177" lon="-3.6371152"><ele>830.0</ele><time>2026-03-23T11:08:21.666Z</time></trkpt><trkpt lat="40.7826887" lon="-3.6373657"><ele>830.0</ele><time>2026-03-23T11:08:22.665Z</time></trkpt><trkpt lat="40.7826559" lon="-3.6376132"><ele>830.0</ele><time>2026-03-23T11:08:23.666Z</time></trkpt><trkpt lat="40.7826142" lon="-3.637871"><ele>830.0</ele><time>2026-03-23T11:08:24.67Z</time></trkpt><trkpt lat="40.7825453" lon="-3.6381284"><ele>830.0</ele><time>2026-03-23T11:08:25.664Z</time></trkpt><trkpt lat="40.7824764" lon="-3.6383893"><ele>830.0</ele><time>2026-03-23T11:08:26.688Z</time></trkpt><trkpt lat="40.7823916" lon="-3.6386284"><ele>830.3333333333334</ele><time>2026-03-23T11:08:27.671Z</time></trkpt><trkpt lat="40.7823082" lon="-3.6388878"><ele>830.6666666666667</ele><time>2026-03-23T11:08:28.672Z</time></trkpt><trkpt lat="40.7822057" lon="-3.6391453"><ele>831.0</ele><time>2026-03-23T11:08:29.668Z</time></trkpt><trkpt lat="40.7820805" lon="-3.6393942"><ele>833.5</ele><time>2026-03-23T11:08:30.675Z</time></trkpt><trkpt lat="40.7819504" lon="-3.6396446"><ele>836.0</ele><time>2026-03-23T11:08:31.674Z</time></trkpt><trkpt lat="40.7818224" lon="-3.6398915"><ele>836.0</ele><time>2026-03-23T11:08:32.671Z</time></trkpt><trkpt lat="40.781702" lon="-3.6401253"><ele>836.0</ele><time>2026-03-23T11:08:33.661Z</time></trkpt><trkpt lat="40.781581" lon="-3.6403594"><ele>836.0</ele><time>2026-03-23T11:08:34.668Z</time></trkpt><trkpt lat="40.7814614" lon="-3.6405909"><ele>837.0</ele><time>2026-03-23T11:08:35.659Z</time></trkpt><trkpt lat="40.7813397" lon="-3.6408269"><ele>838.0</ele><time>2026-03-23T11:08:36.665Z</time></trkpt><trkpt lat="40.781216" lon="-3.641067"><ele>839.0</ele><time>2026-03-23T11:08:37.678Z</time></trkpt><trkpt lat="40.7810943" lon="-3.6413038"><ele>838.6666666666667</ele><time>2026-03-23T11:08:38.688Z</time></trkpt><trkpt lat="40.7809739" lon="-3.6415427"><ele>838.3333333333333</ele><time>2026-03-23T11:08:39.676Z</time></trkpt><trkpt lat="40.7808618" lon="-3.6417913"><ele>838.0</ele><time>2026-03-23T11:08:40.681Z</time></trkpt><trkpt lat="40.7807672" lon="-3.6420383"><ele>838.0</ele><time>2026-03-23T11:08:41.68Z</time></trkpt><trkpt lat="40.7806983" lon="-3.6422887"><ele>838.0</ele><time>2026-03-23T11:08:42.682Z</time></trkpt><trkpt lat="40.7806424" lon="-3.6425515"><ele>838.0</ele><time>2026-03-23T11:08:43.676Z</time></trkpt><trkpt lat="40.7806034" lon="-3.6428283"><ele>838.6666666666666</ele><time>2026-03-23T11:08:44.686Z</time></trkpt><trkpt lat="40.7805778" lon="-3.6431087"><ele>839.3333333333333</ele><time>2026-03-23T11:08:45.689Z</time></trkpt><trkpt lat="40.7805696" lon="-3.6433843"><ele>840.0</ele><time>2026-03-23T11:08:46.673Z</time></trkpt><trkpt lat="40.7805696" lon="-3.6436622"><ele>840.0</ele><time>2026-03-23T11:08:47.677Z</time></trkpt><trkpt lat="40.780582" lon="-3.643934"><ele>840.0</ele><time>2026-03-23T11:08:48.676Z</time></trkpt><trkpt lat="40.7805995" lon="-3.6442306"><ele>840.0</ele><time>2026-03-23T11:08:49.684Z</time></trkpt><trkpt lat="40.780627" lon="-3.6445201"><ele>839.6666666666667</ele><time>2026-03-23T11:08:50.685Z</time></trkpt><trkpt lat="40.7806524" lon="-3.6448016"><ele>839.3333333333334</ele><time>2026-03-23T11:08:51.66Z</time></trkpt><trkpt lat="40.7806793" lon="-3.6450865"><ele>839.0</ele><time>2026-03-23T11:08:52.679Z</time></trkpt><trkpt lat="40.7806987" lon="-3.6453785"><ele>839.0</ele><time>2026-03-23T11:08:53.68Z</time></trkpt><trkpt lat="40.7807223" lon="-3.6456741"><ele>839.0</ele><time>2026-03-23T11:08:54.677Z</time></trkpt><trkpt lat="40.7807395" lon="-3.6459649"><ele>839.0</ele><time>2026-03-23T11:08:55.681Z</time></trkpt><trkpt lat="40.7807557" lon="-3.6462679"><ele>839.0</ele><time>2026-03-23T11:08:56.673Z</time></trkpt><trkpt lat="40.7807661" lon="-3.6465748"><ele>839.0</ele><time>2026-03-23T11:08:57.674Z</time></trkpt><trkpt lat="40.7807706" lon="-3.6468967"><ele>839.5</ele><time>2026-03-23T11:08:58.686Z</time></trkpt><trkpt lat="40.7807598" lon="-3.6472443"><ele>840.0</ele><time>2026-03-23T11:08:59.679Z</time></trkpt><trkpt lat="40.7807491" lon="-3.6475782"><ele>840.0</ele><time>2026-03-23T11:09:00.665Z</time></trkpt><trkpt lat="40.780738" lon="-3.6479131"><ele>840.0</ele><time>2026-03-23T11:09:01.68Z</time></trkpt><trkpt lat="40.7807236" lon="-3.6482464"><ele>840.0</ele><time>2026-03-23T11:09:02.678Z</time></trkpt><trkpt lat="40.7807044" lon="-3.6485732"><ele>840.0</ele><time>2026-03-23T11:09:03.672Z</time></trkpt><trkpt lat="40.7806826" lon="-3.6489047"><ele>841.0</ele><time>2026-03-23T11:09:04.664Z</time></trkpt><trkpt lat="40.7806621" lon="-3.6492347"><ele>842.0</ele><time>2026-03-23T11:09:05.683Z</time></trkpt><trkpt lat="40.7806437" lon="-3.649566"><ele>842.5</ele><time>2026-03-23T11:09:06.685Z</time></trkpt><trkpt lat="40.7806245" lon="-3.6498925"><ele>843.0</ele><time>2026-03-23T11:09:07.661Z</time></trkpt><trkpt lat="40.7806136" lon="-3.6502156"><ele>842.5</ele><time>2026-03-23T11:09:08.675Z</time></trkpt><trkpt lat="40.7805991" lon="-3.6505394"><ele>842.0</ele><time>2026-03-23T11:09:09.663Z</time></trkpt><trkpt lat="40.7805922" lon="-3.650859"><ele>841.5</ele><time>2026-03-23T11:09:10.668Z</time></trkpt><trkpt lat="40.7805994" lon="-3.6511844"><ele>841.0</ele><time>2026-03-23T11:09:11.674Z</time></trkpt><trkpt lat="40.7806114" lon="-3.6515098"><ele>841.0</ele><time>2026-03-23T11:09:12.672Z</time></trkpt><trkpt lat="40.7806301" lon="-3.6518336"><ele>841.0</ele><time>2026-03-23T11:09:13.688Z</time></trkpt><trkpt lat="40.7806528" lon="-3.6521505"><ele>840.5</ele><time>2026-03-23T11:09:14.675Z</time></trkpt><trkpt lat="40.7806768" lon="-3.652471"><ele>840.0</ele><time>2026-03-23T11:09:15.67Z</time></trkpt><trkpt lat="40.7807012" lon="-3.6527933"><ele>839.0</ele><time>2026-03-23T11:09:16.682Z</time></trkpt><trkpt lat="40.7807286" lon="-3.6531188"><ele>838.0</ele><time>2026-03-23T11:09:17.675Z</time></trkpt><trkpt lat="40.7807539" lon="-3.653446"><ele>836.5</ele><time>2026-03-23T11:09:18.669Z</time></trkpt><trkpt lat="40.7807796" lon="-3.6537716"><ele>835.0</ele><time>2026-03-23T11:09:19.68Z</time></trkpt><trkpt lat="40.7808122" lon="-3.6541018"><ele>835.0</ele><time>2026-03-23T11:09:20.678Z</time></trkpt><trkpt lat="40.7808371" lon="-3.6544369"><ele>835.0</ele><time>2026-03-23T11:09:21.684Z</time></trkpt><trkpt lat="40.7808664" lon="-3.6547727"><ele>835.5</ele><time>2026-03-23T11:09:22.662Z</time></trkpt><trkpt lat="40.7808931" lon="-3.6551074"><ele>836.0</ele><time>2026-03-23T11:09:23.69Z</time></trkpt><trkpt lat="40.7809213" lon="-3.6554461"><ele>836.0</ele><time>2026-03-23T11:09:24.685Z</time></trkpt><trkpt lat="40.7809546" lon="-3.6557818"><ele>836.0</ele><time>2026-03-23T11:09:25.677Z</time></trkpt><trkpt lat="40.781006" lon="-3.6561062"><ele>841.0</ele><time>2026-03-23T11:09:26.68Z</time></trkpt><trkpt lat="40.7810762" lon="-3.6564203"><ele>846.0</ele><time>2026-03-23T11:09:27.673Z</time></trkpt><trkpt lat="40.781165" lon="-3.6567136"><ele>843.5</ele><time>2026-03-23T11:09:28.676Z</time></trkpt><trkpt lat="40.781272" lon="-3.6569887"><ele>841.0</ele><time>2026-03-23T11:09:29.684Z</time></trkpt><trkpt lat="40.7813955" lon="-3.6572584"><ele>841.0</ele><time>2026-03-23T11:09:30.678Z</time></trkpt><trkpt lat="40.7815325" lon="-3.6575161"><ele>841.0</ele><time>2026-03-23T11:09:31.67Z</time></trkpt><trkpt lat="40.7816792" lon="-3.6577704"><ele>839.0</ele><time>2026-03-23T11:09:32.681Z</time></trkpt><trkpt lat="40.7818323" lon="-3.6580203"><ele>837.0</ele><time>2026-03-23T11:09:33.684Z</time></trkpt><trkpt lat="40.7819833" lon="-3.6582707"><ele>838.0</ele><time>2026-03-23T11:09:34.673Z</time></trkpt><trkpt lat="40.7821325" lon="-3.6585104"><ele>839.0</ele><time>2026-03-23T11:09:35.671Z</time></trkpt><trkpt lat="40.7822749" lon="-3.6587482"><ele>839.0</ele><time>2026-03-23T11:09:36.667Z</time></trkpt><trkpt lat="40.7824059" lon="-3.6589989"><ele>839.0</ele><time>2026-03-23T11:09:37.684Z</time></trkpt><trkpt lat="40.78252" lon="-3.6592606"><ele>838.0</ele><time>2026-03-23T11:09:38.674Z</time></trkpt><trkpt lat="40.7826147" lon="-3.6595124"><ele>837.0</ele><time>2026-03-23T11:09:39.691Z</time></trkpt><trkpt lat="40.7826921" lon="-3.6597676"><ele>836.0</ele><time>2026-03-23T11:09:40.666Z</time></trkpt><trkpt lat="40.7827576" lon="-3.6600436"><ele>841.0</ele><time>2026-03-23T11:09:41.69Z</time></trkpt><trkpt lat="40.7828066" lon="-3.6603278"><ele>846.0</ele><time>2026-03-23T11:09:42.674Z</time></trkpt><trkpt lat="40.7828397" lon="-3.6606104"><ele>851.0</ele><time>2026-03-23T11:09:43.671Z</time></trkpt><trkpt lat="40.7828571" lon="-3.6608943"><ele>852.0</ele><time>2026-03-23T11:09:44.666Z</time></trkpt><trkpt lat="40.7828637" lon="-3.6611749"><ele>853.0</ele><time>2026-03-23T11:09:45.698Z</time></trkpt><trkpt lat="40.7828648" lon="-3.6614597"><ele>854.0</ele><time>2026-03-23T11:09:46.671Z</time></trkpt><trkpt lat="40.7828606" lon="-3.6617383"><ele>853.6666666666667</ele><time>2026-03-23T11:09:47.68Z</time></trkpt><trkpt lat="40.7828638" lon="-3.6620166"><ele>853.3333333333333</ele><time>2026-03-23T11:09:48.681Z</time></trkpt><trkpt lat="40.782868" lon="-3.6622894"><ele>853.0</ele><time>2026-03-23T11:09:49.684Z</time></trkpt><trkpt lat="40.7828766" lon="-3.6625562"><ele>850.3333333333333</ele><time>2026-03-23T11:09:50.689Z</time></trkpt><trkpt lat="40.7828887" lon="-3.6628126"><ele>847.6666666666667</ele><time>2026-03-23T11:09:51.679Z</time></trkpt><trkpt lat="40.7829093" lon="-3.6630543"><ele>845.0</ele><time>2026-03-23T11:09:52.678Z</time></trkpt><trkpt lat="40.7829428" lon="-3.6633007"><ele>845.0</ele><time>2026-03-23T11:09:53.68Z</time></trkpt><trkpt lat="40.7829893" lon="-3.6635357"><ele>845.0</ele><time>2026-03-23T11:09:54.686Z</time></trkpt><trkpt lat="40.7830439" lon="-3.6637491"><ele>845.0</ele><time>2026-03-23T11:09:55.685Z</time></trkpt><trkpt lat="40.7831067" lon="-3.6639501"><ele>842.3333333333334</ele><time>2026-03-23T11:09:56.685Z</time></trkpt><trkpt lat="40.7831754" lon="-3.6641427"><ele>839.6666666666667</ele><time>2026-03-23T11:09:57.665Z</time></trkpt><trkpt lat="40.7832544" lon="-3.6643182"><ele>837.0</ele><time>2026-03-23T11:09:58.669Z</time></trkpt><trkpt lat="40.7833335" lon="-3.6644859"><ele>835.75</ele><time>2026-03-23T11:09:59.664Z</time></trkpt><trkpt lat="40.7834211" lon="-3.6646381"><ele>834.5</ele><time>2026-03-23T11:10:00.67Z</time></trkpt><trkpt lat="40.7835139" lon="-3.6647787"><ele>833.25</ele><time>2026-03-23T11:10:01.67Z</time></trkpt><trkpt lat="40.783607" lon="-3.6649043"><ele>832.0</ele><time>2026-03-23T11:10:02.686Z</time></trkpt><trkpt lat="40.7836992" lon="-3.6650234"><ele>833.0</ele><time>2026-03-23T11:10:03.681Z</time></trkpt><trkpt lat="40.7837864" lon="-3.6651457"><ele>834.0</ele><time>2026-03-23T11:10:04.675Z</time></trkpt><trkpt lat="40.783875" lon="-3.6652633"><ele>835.0</ele><time>2026-03-23T11:10:05.681Z</time></trkpt><trkpt lat="40.7839672" lon="-3.6653809"><ele>836.0</ele><time>2026-03-23T11:10:06.677Z</time></trkpt><trkpt lat="40.7840579" lon="-3.6654969"><ele>836.0</ele><time>2026-03-23T11:10:07.677Z</time></trkpt><trkpt lat="40.7841537" lon="-3.6656079"><ele>836.0</ele><time>2026-03-23T11:10:08.678Z</time></trkpt><trkpt lat="40.7842498" lon="-3.6657285"><ele>836.0</ele><time>2026-03-23T11:10:09.68Z</time></trkpt><trkpt lat="40.7843483" lon="-3.6658493"><ele>836.0</ele><time>2026-03-23T11:10:10.68Z</time></trkpt><trkpt lat="40.7844482" lon="-3.6659676"><ele>836.75</ele><time>2026-03-23T11:10:11.68Z</time></trkpt><trkpt lat="40.7845422" lon="-3.6660905"><ele>837.5</ele><time>2026-03-23T11:10:12.675Z</time></trkpt><trkpt lat="40.7846435" lon="-3.6662136"><ele>838.25</ele><time>2026-03-23T11:10:13.686Z</time></trkpt><trkpt lat="40.7847456" lon="-3.6663373"><ele>839.0</ele><time>2026-03-23T11:10:14.664Z</time></trkpt><trkpt lat="40.7848425" lon="-3.6664613"><ele>839.0</ele><time>2026-03-23T11:10:15.683Z</time></trkpt><trkpt lat="40.78494" lon="-3.6665736"><ele>839.0</ele><time>2026-03-23T11:10:16.664Z</time></trkpt><trkpt lat="40.7850377" lon="-3.6666956"><ele>839.0</ele><time>2026-03-23T11:10:17.678Z</time></trkpt><trkpt lat="40.785137" lon="-3.6668092"><ele>839.0</ele><time>2026-03-23T11:10:18.672Z</time></trkpt><trkpt lat="40.7852314" lon="-3.6669314"><ele>838.0</ele><time>2026-03-23T11:10:19.681Z</time></trkpt><trkpt lat="40.7853259" lon="-3.6670517"><ele>837.0</ele><time>2026-03-23T11:10:20.689Z</time></trkpt><trkpt lat="40.7854148" lon="-3.66718"><ele>836.0</ele><time>2026-03-23T11:10:21.672Z</time></trkpt><trkpt lat="40.7855041" lon="-3.667306"><ele>835.0</ele><time>2026-03-23T11:10:22.677Z</time></trkpt><trkpt lat="40.785586" lon="-3.6674396"><ele>835.0</ele><time>2026-03-23T11:10:23.685Z</time></trkpt><trkpt lat="40.7856656" lon="-3.6675692"><ele>835.0</ele><time>2026-03-23T11:10:24.665Z</time></trkpt><trkpt lat="40.7857365" lon="-3.6677094"><ele>835.0</ele><time>2026-03-23T11:10:25.671Z</time></trkpt><trkpt lat="40.7858001" lon="-3.6678476"><ele>835.0</ele><time>2026-03-23T11:10:26.672Z</time></trkpt><trkpt lat="40.7858558" lon="-3.6679918"><ele>834.25</ele><time>2026-03-23T11:10:27.671Z</time></trkpt><trkpt lat="40.7859073" lon="-3.6681464"><ele>833.5</ele><time>2026-03-23T11:10:28.67Z</time></trkpt><trkpt lat="40.785954" lon="-3.6683045"><ele>832.75</ele><time>2026-03-23T11:10:29.66Z</time></trkpt><trkpt lat="40.7859939" lon="-3.6684703"><ele>832.0</ele><time>2026-03-23T11:10:30.668Z</time></trkpt><trkpt lat="40.7860284" lon="-3.6686431"><ele>832.0</ele><time>2026-03-23T11:10:31.663Z</time></trkpt><trkpt lat="40.7860515" lon="-3.6688189"><ele>832.0</ele><time>2026-03-23T11:10:32.667Z</time></trkpt><trkpt lat="40.7860687" lon="-3.6689919"><ele>832.0</ele><time>2026-03-23T11:10:33.675Z</time></trkpt><trkpt lat="40.7860782" lon="-3.6691645"><ele>832.0</ele><time>2026-03-23T11:10:34.664Z</time></trkpt><trkpt lat="40.7860776" lon="-3.669346"><ele>833.25</ele><time>2026-03-23T11:10:35.674Z</time></trkpt><trkpt lat="40.7860697" lon="-3.6695259"><ele>834.5</ele><time>2026-03-23T11:10:36.689Z</time></trkpt><trkpt lat="40.7860496" lon="-3.6697096"><ele>835.75</ele><time>2026-03-23T11:10:37.664Z</time></trkpt><trkpt lat="40.7860188" lon="-3.6698973"><ele>837.0</ele><time>2026-03-23T11:10:38.683Z</time></trkpt><trkpt lat="40.7859786" lon="-3.6700834"><ele>837.0</ele><time>2026-03-23T11:10:39.687Z</time></trkpt><trkpt lat="40.7859296" lon="-3.6702669"><ele>837.0</ele><time>2026-03-23T11:10:40.677Z</time></trkpt><trkpt lat="40.7858764" lon="-3.6704525"><ele>837.0</ele><time>2026-03-23T11:10:41.689Z</time></trkpt><trkpt lat="40.7858227" lon="-3.6706375"><ele>837.0</ele><time>2026-03-23T11:10:42.68Z</time></trkpt><trkpt lat="40.7857695" lon="-3.6708078"><ele>839.0</ele><time>2026-03-23T11:10:43.676Z</time></trkpt><trkpt lat="40.7857195" lon="-3.6709791"><ele>841.0</ele><time>2026-03-23T11:10:44.685Z</time></trkpt><trkpt lat="40.7856706" lon="-3.6711434"><ele>843.0</ele><time>2026-03-23T11:10:45.682Z</time></trkpt><trkpt lat="40.7856197" lon="-3.6713002"><ele>845.0</ele><time>2026-03-23T11:10:46.676Z</time></trkpt><trkpt lat="40.7855713" lon="-3.6714596"><ele>846.0</ele><time>2026-03-23T11:10:47.66Z</time></trkpt><trkpt lat="40.785528" lon="-3.671619"><ele>847.0</ele><time>2026-03-23T11:10:48.66Z</time></trkpt><trkpt lat="40.7854914" lon="-3.6717825"><ele>848.0</ele><time>2026-03-23T11:10:49.681Z</time></trkpt><trkpt lat="40.7854638" lon="-3.6719565"><ele>849.0</ele><time>2026-03-23T11:10:50.67Z</time></trkpt><trkpt lat="40.7854428" lon="-3.6721361"><ele>849.0</ele><time>2026-03-23T11:10:51.677Z</time></trkpt><trkpt lat="40.7854266" lon="-3.6723091"><ele>849.0</ele><time>2026-03-23T11:10:52.69Z</time></trkpt><trkpt lat="40.7854147" lon="-3.6724694"><ele>849.0</ele><time>2026-03-23T11:10:53.682Z</time></trkpt><trkpt lat="40.7854039" lon="-3.6726341"><ele>849.0</ele><time>2026-03-23T11:10:54.682Z</time></trkpt><trkpt lat="40.7854049" lon="-3.6727936"><ele>847.75</ele><time>2026-03-23T11:10:55.675Z</time></trkpt><trkpt lat="40.7854215" lon="-3.6729617"><ele>846.5</ele><time>2026-03-23T11:10:56.659Z</time></trkpt><trkpt lat="40.7854407" lon="-3.6731324"><ele>845.25</ele><time>2026-03-23T11:10:57.659Z</time></trkpt><trkpt lat="40.7854657" lon="-3.6732945"><ele>844.0</ele><time>2026-03-23T11:10:58.662Z</time></trkpt><trkpt lat="40.7855013" lon="-3.6734498"><ele>842.5</ele><time>2026-03-23T11:10:59.664Z</time></trkpt><trkpt lat="40.7855411" lon="-3.6736082"><ele>841.0</ele><time>2026-03-23T11:11:00.669Z</time></trkpt><trkpt lat="40.7855837" lon="-3.6737742"><ele>839.5</ele><time>2026-03-23T11:11:01.656Z</time></trkpt><trkpt lat="40.7856265" lon="-3.6739357"><ele>838.0</ele><time>2026-03-23T11:11:02.668Z</time></trkpt><trkpt lat="40.7856738" lon="-3.6741048"><ele>838.0</ele><time>2026-03-23T11:11:03.672Z</time></trkpt><trkpt lat="40.7857305" lon="-3.6742699"><ele>838.0</ele><time>2026-03-23T11:11:04.674Z</time></trkpt><trkpt lat="40.7857927" lon="-3.6744273"><ele>838.0</ele><time>2026-03-23T11:11:05.664Z</time></trkpt><trkpt lat="40.7858471" lon="-3.6745837"><ele>838.0</ele><time>2026-03-23T11:11:06.673Z</time></trkpt><trkpt lat="40.785903" lon="-3.6747361"><ele>837.25</ele><time>2026-03-23T11:11:07.658Z</time></trkpt><trkpt lat="40.7859568" lon="-3.6748853"><ele>836.5</ele><time>2026-03-23T11:11:08.674Z</time></trkpt><trkpt lat="40.786011" lon="-3.6750335"><ele>835.75</ele><time>2026-03-23T11:11:09.67Z</time></trkpt><trkpt lat="40.7860698" lon="-3.6751933"><ele>835.0</ele><time>2026-03-23T11:11:10.674Z</time></trkpt><trkpt lat="40.7861274" lon="-3.6753551"><ele>838.25</ele><time>2026-03-23T11:11:11.673Z</time></trkpt><trkpt lat="40.7861852" lon="-3.6755138"><ele>841.5</ele><time>2026-03-23T11:11:12.687Z</time></trkpt><trkpt lat="40.7862377" lon="-3.6756757"><ele>844.75</ele><time>2026-03-23T11:11:13.667Z</time></trkpt><trkpt lat="40.7862944" lon="-3.6758389"><ele>848.0</ele><time>2026-03-23T11:11:14.673Z</time></trkpt><trkpt lat="40.7863512" lon="-3.6760006"><ele>846.5</ele><time>2026-03-23T11:11:15.682Z</time></trkpt><trkpt lat="40.786409" lon="-3.6761591"><ele>845.0</ele><time>2026-03-23T11:11:16.681Z</time></trkpt><trkpt lat="40.7864631" lon="-3.6763121"><ele>843.5</ele><time>2026-03-23T11:11:17.685Z</time></trkpt><trkpt lat="40.7865177" lon="-3.676459"><ele>842.0</ele><time>2026-03-23T11:11:18.681Z</time></trkpt><trkpt lat="40.7865659" lon="-3.6766141"><ele>842.0</ele><time>2026-03-23T11:11:19.683Z</time></trkpt><trkpt lat="40.7866124" lon="-3.6767666"><ele>842.0</ele><time>2026-03-23T11:11:20.665Z</time></trkpt><trkpt lat="40.7866609" lon="-3.6769268"><ele>842.0</ele><time>2026-03-23T11:11:21.669Z</time></trkpt><trkpt lat="40.7867095" lon="-3.6770857"><ele>842.0</ele><time>2026-03-23T11:11:22.681Z</time></trkpt><trkpt lat="40.7867551" lon="-3.677243"><ele>841.0</ele><time>2026-03-23T11:11:23.68Z</time></trkpt><trkpt lat="40.7867992" lon="-3.6773992"><ele>840.0</ele><time>2026-03-23T11:11:24.67Z</time></trkpt><trkpt lat="40.786844" lon="-3.6775527"><ele>839.0</ele><time>2026-03-23T11:11:25.673Z</time></trkpt><trkpt lat="40.7868857" lon="-3.6777075"><ele>838.0</ele><time>2026-03-23T11:11:26.681Z</time></trkpt><trkpt lat="40.7869249" lon="-3.6778728"><ele>840.75</ele><time>2026-03-23T11:11:27.673Z</time></trkpt><trkpt lat="40.7869667" lon="-3.6780401"><ele>843.5</ele><time>2026-03-23T11:11:28.67Z</time></trkpt><trkpt lat="40.7870069" lon="-3.6782075"><ele>846.25</ele><time>2026-03-23T11:11:29.675Z</time></trkpt><trkpt lat="40.7870462" lon="-3.678384"><ele>849.0</ele><time>2026-03-23T11:11:30.68Z</time></trkpt><trkpt lat="40.7870833" lon="-3.6785573"><ele>848.0</ele><time>2026-03-23T11:11:31.675Z</time></trkpt><trkpt lat="40.7871208" lon="-3.6787312"><ele>847.0</ele><time>2026-03-23T11:11:32.675Z</time></trkpt><trkpt lat="40.7871565" lon="-3.6788955"><ele>846.0</ele><time>2026-03-23T11:11:33.679Z</time></trkpt><trkpt lat="40.7871859" lon="-3.6790595"><ele>845.0</ele><time>2026-03-23T11:11:34.676Z</time></trkpt><trkpt lat="40.7872121" lon="-3.6792338"><ele>845.0</ele><time>2026-03-23T11:11:35.675Z</time></trkpt><trkpt lat="40.7872467" lon="-3.6794013"><ele>845.0</ele><time>2026-03-23T11:11:36.677Z</time></trkpt><trkpt lat="40.7872758" lon="-3.6795714"><ele>845.0</ele><time>2026-03-23T11:11:37.678Z</time></trkpt><trkpt lat="40.787302" lon="-3.6797462"><ele>845.0</ele><time>2026-03-23T11:11:38.677Z</time></trkpt><trkpt lat="40.7873291" lon="-3.6799303"><ele>844.5</ele><time>2026-03-23T11:11:39.691Z</time></trkpt><trkpt lat="40.7873561" lon="-3.680113"><ele>844.0</ele><time>2026-03-23T11:11:40.685Z</time></trkpt><trkpt lat="40.7873838" lon="-3.6802947"><ele>843.5</ele><time>2026-03-23T11:11:41.68Z</time></trkpt><trkpt lat="40.7874096" lon="-3.6804724"><ele>843.0</ele><time>2026-03-23T11:11:42.673Z</time></trkpt><trkpt lat="40.7874383" lon="-3.6806456"><ele>842.0</ele><time>2026-03-23T11:11:43.682Z</time></trkpt><trkpt lat="40.7874687" lon="-3.6808158"><ele>841.0</ele><time>2026-03-23T11:11:44.679Z</time></trkpt><trkpt lat="40.787498" lon="-3.6809891"><ele>840.0</ele><time>2026-03-23T11:11:45.678Z</time></trkpt><trkpt lat="40.7875257" lon="-3.6811668"><ele>839.0</ele><time>2026-03-23T11:11:46.674Z</time></trkpt><trkpt lat="40.7875673" lon="-3.6813365"><ele>839.0</ele><time>2026-03-23T11:11:47.676Z</time></trkpt><trkpt lat="40.7876174" lon="-3.6815037"><ele>839.0</ele><time>2026-03-23T11:11:48.688Z</time></trkpt><trkpt lat="40.7876678" lon="-3.6816718"><ele>839.0</ele><time>2026-03-23T11:11:49.683Z</time></trkpt><trkpt lat="40.7877268" lon="-3.6818238"><ele>839.0</ele><time>2026-03-23T11:11:50.673Z</time></trkpt><trkpt lat="40.7877934" lon="-3.6819743"><ele>839.0</ele><time>2026-03-23T11:11:51.672Z</time></trkpt><trkpt lat="40.787858" lon="-3.6821221"><ele>839.0</ele><time>2026-03-23T11:11:52.669Z</time></trkpt><trkpt lat="40.7879275" lon="-3.6822693"><ele>839.0</ele><time>2026-03-23T11:11:53.676Z</time></trkpt><trkpt lat="40.7880063" lon="-3.6824022"><ele>839.0</ele><time>2026-03-23T11:11:54.663Z</time></trkpt><trkpt lat="40.7880828" lon="-3.6825301"><ele>839.0</ele><time>2026-03-23T11:11:55.68Z</time></trkpt><trkpt lat="40.7881631" lon="-3.6826646"><ele>839.0</ele><time>2026-03-23T11:11:56.68Z</time></trkpt><trkpt lat="40.7882513" lon="-3.6827998"><ele>839.0</ele><time>2026-03-23T11:11:57.674Z</time></trkpt><trkpt lat="40.7883463" lon="-3.6829254"><ele>839.0</ele><time>2026-03-23T11:11:58.684Z</time></trkpt><trkpt lat="40.7884501" lon="-3.6830492"><ele>839.0</ele><time>2026-03-23T11:11:59.688Z</time></trkpt><trkpt lat="40.7885565" lon="-3.6831666"><ele>839.0</ele><time>2026-03-23T11:12:00.675Z</time></trkpt><trkpt lat="40.7886594" lon="-3.6832837"><ele>839.0</ele><time>2026-03-23T11:12:01.665Z</time></trkpt><trkpt lat="40.7887631" lon="-3.6833851"><ele>839.0</ele><time>2026-03-23T11:12:02.672Z</time></trkpt><trkpt lat="40.788868" lon="-3.6834771"><ele>839.0</ele><time>2026-03-23T11:12:03.682Z</time></trkpt><trkpt lat="40.7889773" lon="-3.6835604"><ele>839.0</ele><time>2026-03-23T11:12:04.675Z</time></trkpt><trkpt lat="40.7890867" lon="-3.683643"><ele>839.0</ele><time>2026-03-23T11:12:05.678Z</time></trkpt><trkpt lat="40.7891986" lon="-3.6837229"><ele>839.0</ele><time>2026-03-23T11:12:06.679Z</time></trkpt><trkpt lat="40.7893117" lon="-3.6837987"><ele>839.0</ele><time>2026-03-23T11:12:07.659Z</time></trkpt><trkpt lat="40.7894268" lon="-3.6838798"><ele>839.0</ele><time>2026-03-23T11:12:08.675Z</time></trkpt><trkpt lat="40.7895402" lon="-3.6839562"><ele>839.0</ele><time>2026-03-23T11:12:09.659Z</time></trkpt><trkpt lat="40.789647" lon="-3.6840413"><ele>839.0</ele><time>2026-03-23T11:12:10.654Z</time></trkpt><trkpt lat="40.7897529" lon="-3.6841321"><ele>839.0</ele><time>2026-03-23T11:12:11.665Z</time></trkpt><trkpt lat="40.7898673" lon="-3.6842187"><ele>839.0</ele><time>2026-03-23T11:12:12.652Z</time></trkpt><trkpt lat="40.7899814" lon="-3.6843041"><ele>839.0</ele><time>2026-03-23T11:12:13.668Z</time></trkpt><trkpt lat="40.7900979" lon="-3.684388"><ele>839.0</ele><time>2026-03-23T11:12:14.664Z</time></trkpt><trkpt lat="40.7902145" lon="-3.6844762"><ele>838.5</ele><time>2026-03-23T11:12:15.664Z</time></trkpt><trkpt lat="40.7903264" lon="-3.6845622"><ele>838.0</ele><time>2026-03-23T11:12:16.659Z</time></trkpt><trkpt lat="40.7904375" lon="-3.6846445"><ele>837.5</ele><time>2026-03-23T11:12:17.675Z</time></trkpt><trkpt lat="40.7905514" lon="-3.6847222"><ele>837.0</ele><time>2026-03-23T11:12:18.662Z</time></trkpt><trkpt lat="40.7906647" lon="-3.6848151"><ele>837.0</ele><time>2026-03-23T11:12:19.669Z</time></trkpt><trkpt lat="40.7907715" lon="-3.6848983"><ele>837.0</ele><time>2026-03-23T11:12:20.678Z</time></trkpt><trkpt lat="40.7908764" lon="-3.6849813"><ele>837.0</ele><time>2026-03-23T11:12:21.671Z</time></trkpt><trkpt lat="40.7909798" lon="-3.6850662"><ele>837.0</ele><time>2026-03-23T11:12:22.684Z</time></trkpt><trkpt lat="40.7910845" lon="-3.6851591"><ele>837.0</ele><time>2026-03-23T11:12:23.683Z</time></trkpt><trkpt lat="40.7911881" lon="-3.6852615"><ele>837.0</ele><time>2026-03-23T11:12:24.681Z</time></trkpt><trkpt lat="40.7912964" lon="-3.6853638"><ele>837.0</ele><time>2026-03-23T11:12:25.67Z</time></trkpt><trkpt lat="40.7914021" lon="-3.6854714"><ele>837.0</ele><time>2026-03-23T11:12:26.674Z</time></trkpt><trkpt lat="40.7915085" lon="-3.6855758"><ele>836.75</ele><time>2026-03-23T11:12:27.671Z</time></trkpt><trkpt lat="40.791609" lon="-3.6856837"><ele>836.5</ele><time>2026-03-23T11:12:28.668Z</time></trkpt><trkpt lat="40.7917101" lon="-3.6858036"><ele>836.25</ele><time>2026-03-23T11:12:29.671Z</time></trkpt><trkpt lat="40.7917996" lon="-3.685921"><ele>836.0</ele><time>2026-03-23T11:12:30.667Z</time></trkpt><trkpt lat="40.7918879" lon="-3.6860467"><ele>836.5</ele><time>2026-03-23T11:12:31.667Z</time></trkpt><trkpt lat="40.7919768" lon="-3.6861666"><ele>837.0</ele><time>2026-03-23T11:12:32.679Z</time></trkpt><trkpt lat="40.792067" lon="-3.6862862"><ele>837.5</ele><time>2026-03-23T11:12:33.684Z</time></trkpt><trkpt lat="40.7921518" lon="-3.6864165"><ele>838.0</ele><time>2026-03-23T11:12:34.671Z</time></trkpt><trkpt lat="40.7922233" lon="-3.6865612"><ele>838.0</ele><time>2026-03-23T11:12:35.676Z</time></trkpt><trkpt lat="40.7923039" lon="-3.6867074"><ele>838.0</ele><time>2026-03-23T11:12:36.679Z</time></trkpt><trkpt lat="40.7923823" lon="-3.686855"><ele>838.0</ele><time>2026-03-23T11:12:37.678Z</time></trkpt><trkpt lat="40.7924606" lon="-3.6869938"><ele>838.0</ele><time>2026-03-23T11:12:38.664Z</time></trkpt><trkpt lat="40.7925337" lon="-3.6871435"><ele>838.0</ele><time>2026-03-23T11:12:39.684Z</time></trkpt><trkpt lat="40.7926058" lon="-3.6872933"><ele>838.0</ele><time>2026-03-23T11:12:40.684Z</time></trkpt><trkpt lat="40.7926774" lon="-3.6874457"><ele>838.0</ele><time>2026-03-23T11:12:41.679Z</time></trkpt><trkpt lat="40.7927423" lon="-3.6875928"><ele>838.0</ele><time>2026-03-23T11:12:42.661Z</time></trkpt><trkpt lat="40.7927992" lon="-3.687741"><ele>838.0</ele><time>2026-03-23T11:12:43.666Z</time></trkpt><trkpt lat="40.7928483" lon="-3.6878926"><ele>838.0</ele><time>2026-03-23T11:12:44.679Z</time></trkpt><trkpt lat="40.7928975" lon="-3.6880349"><ele>838.0</ele><time>2026-03-23T11:12:45.684Z</time></trkpt><trkpt lat="40.7929434" lon="-3.6881799"><ele>838.0</ele><time>2026-03-23T11:12:46.685Z</time></trkpt><trkpt lat="40.7929902" lon="-3.6883345"><ele>838.0</ele><time>2026-03-23T11:12:47.68Z</time></trkpt><trkpt lat="40.7930387" lon="-3.6885013"><ele>838.0</ele><time>2026-03-23T11:12:48.677Z</time></trkpt><trkpt lat="40.7930852" lon="-3.6886701"><ele>838.0</ele><time>2026-03-23T11:12:49.684Z</time></trkpt><trkpt lat="40.7931262" lon="-3.6888424"><ele>838.0</ele><time>2026-03-23T11:12:50.68Z</time></trkpt><trkpt lat="40.7931726" lon="-3.6890089"><ele>838.25</ele><time>2026-03-23T11:12:51.681Z</time></trkpt><trkpt lat="40.7932096" lon="-3.6891815"><ele>838.5</ele><time>2026-03-23T11:12:52.683Z</time></trkpt><trkpt lat="40.7932383" lon="-3.6893498"><ele>838.75</ele><time>2026-03-23T11:12:53.675Z</time></trkpt><trkpt lat="40.7932668" lon="-3.6895225"><ele>839.0</ele><time>2026-03-23T11:12:54.678Z</time></trkpt><trkpt lat="40.7932888" lon="-3.6896844"><ele>839.0</ele><time>2026-03-23T11:12:55.679Z</time></trkpt><trkpt lat="40.793312" lon="-3.6898516"><ele>839.0</ele><time>2026-03-23T11:12:56.669Z</time></trkpt><trkpt lat="40.7933298" lon="-3.6900164"><ele>839.0</ele><time>2026-03-23T11:12:57.658Z</time></trkpt><trkpt lat="40.7933473" lon="-3.6901796"><ele>839.0</ele><time>2026-03-23T11:12:58.67Z</time></trkpt><trkpt lat="40.7933591" lon="-3.6903399"><ele>839.0</ele><time>2026-03-23T11:12:59.68Z</time></trkpt><trkpt lat="40.7933645" lon="-3.6904941"><ele>839.0</ele><time>2026-03-23T11:13:00.678Z</time></trkpt><trkpt lat="40.7933697" lon="-3.6906439"><ele>839.0</ele><time>2026-03-23T11:13:01.686Z</time></trkpt><trkpt lat="40.7933743" lon="-3.6907908"><ele>839.0</ele><time>2026-03-23T11:13:02.687Z</time></trkpt><trkpt lat="40.7933766" lon="-3.6909419"><ele>839.0</ele><time>2026-03-23T11:13:03.683Z</time></trkpt><trkpt lat="40.7933778" lon="-3.6910864"><ele>839.0</ele><time>2026-03-23T11:13:04.656Z</time></trkpt><trkpt lat="40.7933739" lon="-3.6912204"><ele>839.0</ele><time>2026-03-23T11:13:05.675Z</time></trkpt><trkpt lat="40.7933683" lon="-3.6913401"><ele>839.0</ele><time>2026-03-23T11:13:06.679Z</time></trkpt><trkpt lat="40.7933626" lon="-3.6914732"><ele>839.0</ele><time>2026-03-23T11:13:07.682Z</time></trkpt><trkpt lat="40.7933572" lon="-3.6915953"><ele>839.0000000000001</ele><time>2026-03-23T11:13:08.679Z</time></trkpt><trkpt lat="40.7933603" lon="-3.6917136"><ele>839.0</ele><time>2026-03-23T11:13:09.677Z</time></trkpt><trkpt lat="40.7933662" lon="-3.6918376"><ele>839.0</ele><time>2026-03-23T11:13:10.673Z</time></trkpt><trkpt lat="40.7933837" lon="-3.6919469"><ele>839.0</ele><time>2026-03-23T11:13:11.682Z</time></trkpt><trkpt lat="40.7934199" lon="-3.6920296"><ele>839.0000000000001</ele><time>2026-03-23T11:13:12.654Z</time></trkpt><trkpt lat="40.7934674" lon="-3.6921056"><ele>839.0</ele><time>2026-03-23T11:13:13.668Z</time></trkpt><trkpt lat="40.7935324" lon="-3.6921693"><ele>839.25</ele><time>2026-03-23T11:13:14.673Z</time></trkpt><trkpt lat="40.7936118" lon="-3.6922272"><ele>839.5</ele><time>2026-03-23T11:13:15.667Z</time></trkpt><trkpt lat="40.793714" lon="-3.6922941"><ele>839.75</ele><time>2026-03-23T11:13:16.685Z</time></trkpt><trkpt lat="40.7938375" lon="-3.6923578"><ele>840.0</ele><time>2026-03-23T11:13:17.67Z</time></trkpt><trkpt lat="40.7939612" lon="-3.6924117"><ele>840.0</ele><time>2026-03-23T11:13:18.666Z</time></trkpt><trkpt lat="40.7940617" lon="-3.6924583"><ele>840.0</ele><time>2026-03-23T11:13:19.668Z</time></trkpt><trkpt lat="40.7941397" lon="-3.6924865"><ele>840.0</ele><time>2026-03-23T11:13:20.674Z</time></trkpt><trkpt lat="40.794216" lon="-3.6925111"><ele>840.0</ele><time>2026-03-23T11:13:21.679Z</time></trkpt><trkpt lat="40.7942848" lon="-3.6925465"><ele>840.0</ele><time>2026-03-23T11:13:22.678Z</time></trkpt><trkpt lat="40.7943747" lon="-3.6925827"><ele>840.0</ele><time>2026-03-23T11:13:24.679Z</time></trkpt><trkpt lat="40.7944621" lon="-3.692606"><ele>841.0</ele><time>2026-03-23T11:13:26.676Z</time></trkpt><trkpt lat="40.7945341" lon="-3.6926448"><ele>842.0</ele><time>2026-03-23T11:13:28.69Z</time></trkpt><trkpt lat="40.7946255" lon="-3.6926976"><ele>843.0</ele><time>2026-03-23T11:13:31.655Z</time></trkpt><trkpt lat="40.7947286" lon="-3.6927607"><ele>844.0</ele><time>2026-03-23T11:13:33.654Z</time></trkpt><trkpt lat="40.7948325" lon="-3.6928319"><ele>845.0</ele><time>2026-03-23T11:13:35.668Z</time></trkpt><trkpt lat="40.7949096" lon="-3.692878"><ele>845.2</ele><time>2026-03-23T11:13:37.655Z</time></trkpt><trkpt lat="40.7949935" lon="-3.692932"><ele>845.4</ele><time>2026-03-23T11:13:39.669Z</time></trkpt><trkpt lat="40.7950751" lon="-3.6929925"><ele>845.5999999999999</ele><time>2026-03-23T11:13:41.671Z</time></trkpt><trkpt lat="40.7951574" lon="-3.6930479"><ele>845.8</ele><time>2026-03-23T11:13:43.651Z</time></trkpt><trkpt lat="40.7952287" lon="-3.6930905"><ele>846.0</ele><time>2026-03-23T11:13:45.677Z</time></trkpt><trkpt lat="40.7953158" lon="-3.6931395"><ele>846.5999999999999</ele><time>2026-03-23T11:13:47.683Z</time></trkpt><trkpt lat="40.7954036" lon="-3.6931831"><ele>847.2</ele><time>2026-03-23T11:13:49.676Z</time></trkpt><trkpt lat="40.795504" lon="-3.6932315"><ele>847.8</ele><time>2026-03-23T11:13:51.661Z</time></trkpt><trkpt lat="40.7955828" lon="-3.6932763"><ele>848.4000000000001</ele><time>2026-03-23T11:13:53.672Z</time></trkpt><trkpt lat="40.7956558" lon="-3.6932949"><ele>849.0</ele><time>2026-03-23T11:13:55.664Z</time></trkpt><trkpt lat="40.7957455" lon="-3.6933054"><ele>849.0</ele><time>2026-03-23T11:13:57.668Z</time></trkpt><trkpt lat="40.795832" lon="-3.6932878"><ele>849.0</ele><time>2026-03-23T11:13:59.661Z</time></trkpt><trkpt lat="40.7958991" lon="-3.6932495"><ele>849.0</ele><time>2026-03-23T11:14:08.678Z</time></trkpt><trkpt lat="40.7959807" lon="-3.6931863"><ele>849.0</ele><time>2026-03-23T11:14:11.68Z</time></trkpt><trkpt lat="40.7960811" lon="-3.693094"><ele>849.0</ele><time>2026-03-23T11:14:13.667Z</time></trkpt><trkpt lat="40.7961586" lon="-3.6929517"><ele>849.0</ele><time>2026-03-23T11:14:15.677Z</time></trkpt><trkpt lat="40.7961994" lon="-3.6928697"><ele>849.0</ele><time>2026-03-23T11:14:16.672Z</time></trkpt><trkpt lat="40.7962367" lon="-3.6927851"><ele>849.0</ele><time>2026-03-23T11:14:17.682Z</time></trkpt><trkpt lat="40.7962703" lon="-3.6926983"><ele>849.0</ele><time>2026-03-23T11:14:18.675Z</time></trkpt><trkpt lat="40.7963103" lon="-3.6925976"><ele>849.0</ele><time>2026-03-23T11:14:19.677Z</time></trkpt><trkpt lat="40.7963416" lon="-3.692508"><ele>849.0</ele><time>2026-03-23T11:14:20.661Z</time></trkpt><trkpt lat="40.7963694" lon="-3.6924159"><ele>849.0</ele><time>2026-03-23T11:14:21.672Z</time></trkpt><trkpt lat="40.7963987" lon="-3.6923184"><ele>849.0</ele><time>2026-03-23T11:14:22.671Z</time></trkpt><trkpt lat="40.7964279" lon="-3.6922114"><ele>849.0</ele><time>2026-03-23T11:14:23.677Z</time></trkpt><trkpt lat="40.7964504" lon="-3.6920969"><ele>849.0</ele><time>2026-03-23T11:14:24.669Z</time></trkpt><trkpt lat="40.7964755" lon="-3.6919821"><ele>849.0</ele><time>2026-03-23T11:14:25.683Z</time></trkpt><trkpt lat="40.7964999" lon="-3.6918711"><ele>849.0</ele><time>2026-03-23T11:14:26.67Z</time></trkpt><trkpt lat="40.7965282" lon="-3.6917554"><ele>849.4000000000001</ele><time>2026-03-23T11:14:27.673Z</time></trkpt><trkpt lat="40.7965535" lon="-3.6916368"><ele>849.8</ele><time>2026-03-23T11:14:28.677Z</time></trkpt><trkpt lat="40.7965883" lon="-3.6915207"><ele>850.2</ele><time>2026-03-23T11:14:29.675Z</time></trkpt><trkpt lat="40.7966333" lon="-3.6914117"><ele>850.5999999999999</ele><time>2026-03-23T11:14:30.658Z</time></trkpt><trkpt lat="40.7966867" lon="-3.6913117"><ele>851.0</ele><time>2026-03-23T11:14:31.664Z</time></trkpt><trkpt lat="40.796751" lon="-3.6912142"><ele>851.0000000000001</ele><time>2026-03-23T11:14:32.658Z</time></trkpt><trkpt lat="40.7968163" lon="-3.6911238"><ele>851.0</ele><time>2026-03-23T11:14:33.661Z</time></trkpt><trkpt lat="40.7968785" lon="-3.6910382"><ele>851.0</ele><time>2026-03-23T11:14:34.672Z</time></trkpt><trkpt lat="40.7969424" lon="-3.6909543"><ele>851.0</ele><time>2026-03-23T11:14:35.662Z</time></trkpt><trkpt lat="40.7970105" lon="-3.6908906"><ele>851.0000000000001</ele><time>2026-03-23T11:14:36.675Z</time></trkpt><trkpt lat="40.7970861" lon="-3.6908371"><ele>851.0</ele><time>2026-03-23T11:14:37.674Z</time></trkpt><trkpt lat="40.7971425" lon="-3.6907944"><ele>851.25</ele><time>2026-03-23T11:14:38.678Z</time></trkpt><trkpt lat="40.7972535" lon="-3.6907068"><ele>851.5</ele><time>2026-03-23T11:14:40.661Z</time></trkpt><trkpt lat="40.7973664" lon="-3.6906474"><ele>851.75</ele><time>2026-03-23T11:14:42.676Z</time></trkpt><trkpt lat="40.7974891" lon="-3.6906199"><ele>852.0</ele><time>2026-03-23T11:14:44.692Z</time></trkpt><trkpt lat="40.7975761" lon="-3.6905868"><ele>852.6666666666666</ele><time>2026-03-23T11:14:46.668Z</time></trkpt><trkpt lat="40.7976739" lon="-3.6905655"><ele>853.3333333333333</ele><time>2026-03-23T11:14:49.681Z</time></trkpt><trkpt lat="40.7977629" lon="-3.6905495"><ele>854.0</ele><time>2026-03-23T11:14:51.678Z</time></trkpt><trkpt lat="40.7978289" lon="-3.6905446"><ele>854.6666666666666</ele><time>2026-03-23T11:14:53.658Z</time></trkpt><trkpt lat="40.79789" lon="-3.6905057"><ele>855.3333333333333</ele><time>2026-03-23T11:14:58.67Z</time></trkpt><trkpt lat="40.7977794" lon="-3.6905694"><ele>856.0</ele><time>2026-03-23T11:15:18.664Z</time></trkpt><trkpt lat="40.7976898" lon="-3.6905784"><ele>855.4285714285714</ele><time>2026-03-23T11:15:19.682Z</time></trkpt><trkpt lat="40.7976235" lon="-3.6905946"><ele>854.8571428571429</ele><time>2026-03-23T11:15:20.665Z</time></trkpt><trkpt lat="40.7975554" lon="-3.6905997"><ele>854.2857142857142</ele><time>2026-03-23T11:15:21.667Z</time></trkpt><trkpt lat="40.7974919" lon="-3.6905834"><ele>853.7142857142858</ele><time>2026-03-23T11:15:23.684Z</time></trkpt><trkpt lat="40.7974249" lon="-3.6905961"><ele>853.1428571428571</ele><time>2026-03-23T11:15:42.667Z</time></trkpt><trkpt lat="40.7973624" lon="-3.6906277"><ele>852.5714285714286</ele><time>2026-03-23T11:16:25.666Z</time></trkpt><trkpt lat="40.7974188" lon="-3.6905827"><ele>852.0</ele><time>2026-03-23T11:18:10.672Z</time></trkpt><trkpt lat="40.7973752" lon="-3.6906702"><ele>852.0</ele><time>2026-03-23T11:27:36.664Z</time></trkpt><trkpt lat="40.7973079" lon="-3.6907302"><ele>852.0</ele><time>2026-03-23T11:27:37.664Z</time></trkpt><trkpt lat="40.7972449" lon="-3.6907771"><ele>852.0</ele><time>2026-03-23T11:27:38.672Z</time></trkpt><trkpt lat="40.7971645" lon="-3.690838"><ele>852.0</ele><time>2026-03-23T11:27:39.676Z</time></trkpt><trkpt lat="40.7970706" lon="-3.6909145"><ele>852.0</ele><time>2026-03-23T11:27:40.742Z</time></trkpt><trkpt lat="40.7969842" lon="-3.6909932"><ele>852.0</ele><time>2026-03-23T11:27:41.677Z</time></trkpt><trkpt lat="40.7969044" lon="-3.6910807"><ele>852.0</ele><time>2026-03-23T11:27:42.679Z</time></trkpt><trkpt lat="40.7968193" lon="-3.691187"><ele>852.0</ele><time>2026-03-23T11:27:43.663Z</time></trkpt><trkpt lat="40.7967369" lon="-3.6913034"><ele>852.0</ele><time>2026-03-23T11:27:44.666Z</time></trkpt><trkpt lat="40.7966636" lon="-3.6914386"><ele>851.75</ele><time>2026-03-23T11:27:45.683Z</time></trkpt><trkpt lat="40.7966038" lon="-3.6915851"><ele>851.5</ele><time>2026-03-23T11:27:46.646Z</time></trkpt><trkpt lat="40.79656" lon="-3.691734"><ele>851.25</ele><time>2026-03-23T11:27:47.681Z</time></trkpt><trkpt lat="40.796526" lon="-3.6918816"><ele>851.0</ele><time>2026-03-23T11:27:48.654Z</time></trkpt><trkpt lat="40.7964997" lon="-3.692018"><ele>850.5</ele><time>2026-03-23T11:27:49.664Z</time></trkpt><trkpt lat="40.796472" lon="-3.6921623"><ele>850.0</ele><time>2026-03-23T11:27:50.654Z</time></trkpt><trkpt lat="40.7964337" lon="-3.6923177"><ele>849.5</ele><time>2026-03-23T11:27:51.656Z</time></trkpt><trkpt lat="40.796393" lon="-3.6924692"><ele>849.0</ele><time>2026-03-23T11:27:52.655Z</time></trkpt><trkpt lat="40.7963488" lon="-3.6926134"><ele>849.0</ele><time>2026-03-23T11:27:53.655Z</time></trkpt><trkpt lat="40.7963021" lon="-3.6927575"><ele>849.0</ele><time>2026-03-23T11:27:54.656Z</time></trkpt><trkpt lat="40.7962525" lon="-3.6929038"><ele>849.0</ele><time>2026-03-23T11:27:55.655Z</time></trkpt><trkpt lat="40.7961992" lon="-3.6930364"><ele>849.0</ele><time>2026-03-23T11:27:56.65Z</time></trkpt><trkpt lat="40.7961354" lon="-3.6931409"><ele>849.0</ele><time>2026-03-23T11:27:57.659Z</time></trkpt><trkpt lat="40.7960739" lon="-3.6932144"><ele>849.0</ele><time>2026-03-23T11:27:58.651Z</time></trkpt><trkpt lat="40.7960144" lon="-3.6932709"><ele>849.0</ele><time>2026-03-23T11:27:59.664Z</time></trkpt><trkpt lat="40.795957" lon="-3.6933083"><ele>849.0</ele><time>2026-03-23T11:28:00.67Z</time></trkpt><trkpt lat="40.7958644" lon="-3.6933742"><ele>849.0</ele><time>2026-03-23T11:28:02.681Z</time></trkpt><trkpt lat="40.7957833" lon="-3.6933913"><ele>849.0</ele><time>2026-03-23T11:28:04.666Z</time></trkpt><trkpt lat="40.7957188" lon="-3.6934009"><ele>849.0</ele><time>2026-03-23T11:28:22.679Z</time></trkpt><trkpt lat="40.7957975" lon="-3.6932946"><ele>849.0</ele><time>2026-03-23T11:28:28.681Z</time></trkpt><trkpt lat="40.7958617" lon="-3.6932703"><ele>849.0</ele><time>2026-03-23T11:28:29.686Z</time></trkpt><trkpt lat="40.7959261" lon="-3.6932281"><ele>849.0</ele><time>2026-03-23T11:28:30.684Z</time></trkpt><trkpt lat="40.7959894" lon="-3.6931764"><ele>849.0</ele><time>2026-03-23T11:28:31.684Z</time></trkpt><trkpt lat="40.7960468" lon="-3.6931017"><ele>849.0</ele><time>2026-03-23T11:28:32.677Z</time></trkpt><trkpt lat="40.7961073" lon="-3.6930078"><ele>849.0</ele><time>2026-03-23T11:28:33.667Z</time></trkpt><trkpt lat="40.7961595" lon="-3.6929069"><ele>849.0</ele><time>2026-03-23T11:28:34.652Z</time></trkpt><trkpt lat="40.7962076" lon="-3.6928232"><ele>849.0</ele><time>2026-03-23T11:28:35.666Z</time></trkpt><trkpt lat="40.7962521" lon="-3.6926763"><ele>849.0</ele><time>2026-03-23T11:28:37.668Z</time></trkpt><trkpt lat="40.7962981" lon="-3.692526"><ele>849.0</ele><time>2026-03-23T11:28:39.669Z</time></trkpt><trkpt lat="40.7963238" lon="-3.6924443"><ele>849.0000000000001</ele><time>2026-03-23T11:28:40.672Z</time></trkpt><trkpt lat="40.7963487" lon="-3.6923589"><ele>849.0</ele><time>2026-03-23T11:28:41.666Z</time></trkpt><trkpt lat="40.796375" lon="-3.6922777"><ele>849.0</ele><time>2026-03-23T11:28:42.665Z</time></trkpt><trkpt lat="40.7963995" lon="-3.6921949"><ele>849.0</ele><time>2026-03-23T11:28:43.669Z</time></trkpt><trkpt lat="40.7964269" lon="-3.6921019"><ele>849.0</ele><time>2026-03-23T11:28:44.679Z</time></trkpt><trkpt lat="40.7964543" lon="-3.6920122"><ele>849.0000000000001</ele><time>2026-03-23T11:28:45.673Z</time></trkpt><trkpt lat="40.7964776" lon="-3.6919172"><ele>849.0</ele><time>2026-03-23T11:28:46.664Z</time></trkpt><trkpt lat="40.7964981" lon="-3.6918187"><ele>849.4000000000001</ele><time>2026-03-23T11:28:47.684Z</time></trkpt><trkpt lat="40.7965265" lon="-3.6916994"><ele>849.8</ele><time>2026-03-23T11:28:48.675Z</time></trkpt><trkpt lat="40.7965563" lon="-3.6915756"><ele>850.2</ele><time>2026-03-23T11:28:49.662Z</time></trkpt><trkpt lat="40.7965865" lon="-3.691472"><ele>850.5999999999999</ele><time>2026-03-23T11:28:50.681Z</time></trkpt><trkpt lat="40.7966218" lon="-3.6913922"><ele>851.0</ele><time>2026-03-23T11:28:51.658Z</time></trkpt><trkpt lat="40.7966819" lon="-3.6912681"><ele>851.0000000000001</ele><time>2026-03-23T11:28:53.688Z</time></trkpt><trkpt lat="40.7967369" lon="-3.6911697"><ele>851.0</ele><time>2026-03-23T11:28:55.698Z</time></trkpt><trkpt lat="40.7967777" lon="-3.6911062"><ele>851.0</ele><time>2026-03-23T11:28:57.672Z</time></trkpt><trkpt lat="40.7968364" lon="-3.6910222"><ele>851.0</ele><time>2026-03-23T11:28:59.686Z</time></trkpt><trkpt lat="40.7969152" lon="-3.6909553"><ele>851.0000000000001</ele><time>2026-03-23T11:29:01.671Z</time></trkpt><trkpt lat="40.7969835" lon="-3.6908872"><ele>851.0</ele><time>2026-03-23T11:29:03.652Z</time></trkpt><trkpt lat="40.7970449" lon="-3.6908447"><ele>851.1666666666667</ele><time>2026-03-23T11:29:05.68Z</time></trkpt><trkpt lat="40.7971257" lon="-3.6907774"><ele>851.3333333333334</ele><time>2026-03-23T11:29:08.673Z</time></trkpt><trkpt lat="40.7971889" lon="-3.6907314"><ele>851.5</ele><time>2026-03-23T11:29:10.681Z</time></trkpt><trkpt lat="40.7972531" lon="-3.6906893"><ele>851.6666666666667</ele><time>2026-03-23T11:29:12.649Z</time></trkpt><trkpt lat="40.7973126" lon="-3.6906002"><ele>851.8333333333334</ele><time>2026-03-23T11:29:26.664Z</time></trkpt><trkpt lat="40.7973589" lon="-3.6905272"><ele>852.0</ele><time>2026-03-23T11:29:29.677Z</time></trkpt><trkpt lat="40.7974021" lon="-3.6904415"><ele>852.0</ele><time>2026-03-23T11:29:38.669Z</time></trkpt><trkpt lat="40.7974136" lon="-3.6903562"><ele>852.0</ele><time>2026-03-23T11:29:42.681Z</time></trkpt><trkpt lat="40.7974031" lon="-3.6904497"><ele>852.0</ele><time>2026-03-23T11:30:01.659Z</time></trkpt><trkpt lat="40.7973612" lon="-3.6905419"><ele>852.0</ele><time>2026-03-23T11:30:05.664Z</time></trkpt><trkpt lat="40.7973249" lon="-3.6906541"><ele>852.0</ele><time>2026-03-23T11:30:08.656Z</time></trkpt><trkpt lat="40.797257" lon="-3.6907658"><ele>852.0</ele><time>2026-03-23T11:30:10.668Z</time></trkpt><trkpt lat="40.7971946" lon="-3.6908182"><ele>852.0</ele><time>2026-03-23T11:30:11.663Z</time></trkpt><trkpt lat="40.797126" lon="-3.6908664"><ele>852.0</ele><time>2026-03-23T11:30:12.657Z</time></trkpt><trkpt lat="40.7970603" lon="-3.6909305"><ele>852.0</ele><time>2026-03-23T11:30:13.645Z</time></trkpt><trkpt lat="40.7969877" lon="-3.6909907"><ele>852.0</ele><time>2026-03-23T11:30:14.644Z</time></trkpt><trkpt lat="40.7969128" lon="-3.6910605"><ele>852.0</ele><time>2026-03-23T11:30:15.648Z</time></trkpt><trkpt lat="40.7968385" lon="-3.691154"><ele>852.0</ele><time>2026-03-23T11:30:16.658Z</time></trkpt><trkpt lat="40.7967701" lon="-3.6912548"><ele>851.8</ele><time>2026-03-23T11:30:17.657Z</time></trkpt><trkpt lat="40.7967046" lon="-3.6913573"><ele>851.6</ele><time>2026-03-23T11:30:18.668Z</time></trkpt><trkpt lat="40.7966438" lon="-3.6914797"><ele>851.4</ele><time>2026-03-23T11:30:19.677Z</time></trkpt><trkpt lat="40.7965935" lon="-3.6916099"><ele>851.1999999999999</ele><time>2026-03-23T11:30:20.661Z</time></trkpt><trkpt lat="40.796556" lon="-3.6917473"><ele>851.0</ele><time>2026-03-23T11:30:21.669Z</time></trkpt><trkpt lat="40.7965191" lon="-3.6918934"><ele>850.5</ele><time>2026-03-23T11:30:22.658Z</time></trkpt><trkpt lat="40.7964871" lon="-3.6920465"><ele>850.0</ele><time>2026-03-23T11:30:23.647Z</time></trkpt><trkpt lat="40.7964514" lon="-3.6922084"><ele>849.5</ele><time>2026-03-23T11:30:24.641Z</time></trkpt><trkpt lat="40.7964105" lon="-3.6923625"><ele>849.0</ele><time>2026-03-23T11:30:25.65Z</time></trkpt><trkpt lat="40.7963692" lon="-3.6925168"><ele>849.0</ele><time>2026-03-23T11:30:26.651Z</time></trkpt><trkpt lat="40.7963203" lon="-3.6926759"><ele>849.0</ele><time>2026-03-23T11:30:27.665Z</time></trkpt><trkpt lat="40.7962671" lon="-3.692832"><ele>849.0</ele><time>2026-03-23T11:30:28.649Z</time></trkpt><trkpt lat="40.7962093" lon="-3.6929788"><ele>849.0</ele><time>2026-03-23T11:30:29.649Z</time></trkpt><trkpt lat="40.7961428" lon="-3.6931061"><ele>849.0</ele><time>2026-03-23T11:30:30.654Z</time></trkpt><trkpt lat="40.7960633" lon="-3.6932022"><ele>849.0</ele><time>2026-03-23T11:30:31.653Z</time></trkpt><trkpt lat="40.7959857" lon="-3.6932666"><ele>849.0</ele><time>2026-03-23T11:30:32.662Z</time></trkpt><trkpt lat="40.7959035" lon="-3.693313"><ele>849.0</ele><time>2026-03-23T11:30:33.675Z</time></trkpt><trkpt lat="40.7958381" lon="-3.6933285"><ele>849.0</ele><time>2026-03-23T11:30:34.661Z</time></trkpt><trkpt lat="40.7957511" lon="-3.6934011"><ele>849.0</ele><time>2026-03-23T11:30:36.676Z</time></trkpt><trkpt lat="40.795787" lon="-3.6935129"><ele>849.0</ele><time>2026-03-23T11:30:39.677Z</time></trkpt><trkpt lat="40.7958709" lon="-3.693589"><ele>849.0</ele><time>2026-03-23T11:30:41.68Z</time></trkpt><trkpt lat="40.7959372" lon="-3.693598"><ele>849.0</ele><time>2026-03-23T11:30:42.675Z</time></trkpt><trkpt lat="40.7960146" lon="-3.6936038"><ele>849.0</ele><time>2026-03-23T11:30:43.668Z</time></trkpt><trkpt lat="40.7961069" lon="-3.6936015"><ele>849.0</ele><time>2026-03-23T11:30:44.68Z</time></trkpt><trkpt lat="40.7962138" lon="-3.6935964"><ele>849.0</ele><time>2026-03-23T11:30:45.67Z</time></trkpt><trkpt lat="40.7963288" lon="-3.6935745"><ele>849.0</ele><time>2026-03-23T11:30:46.675Z</time></trkpt><trkpt lat="40.7964465" lon="-3.6935562"><ele>849.0</ele><time>2026-03-23T11:30:47.669Z</time></trkpt><trkpt lat="40.7965609" lon="-3.6935467"><ele>849.0</ele><time>2026-03-23T11:30:48.673Z</time></trkpt><trkpt lat="40.7966579" lon="-3.6935524"><ele>849.0</ele><time>2026-03-23T11:30:49.672Z</time></trkpt><trkpt lat="40.7967358" lon="-3.6935702"><ele>849.0</ele><time>2026-03-23T11:30:50.675Z</time></trkpt><trkpt lat="40.7967991" lon="-3.6935858"><ele>849.0</ele><time>2026-03-23T11:30:51.662Z</time></trkpt><trkpt lat="40.7969007" lon="-3.6936203"><ele>849.0</ele><time>2026-03-23T11:30:53.655Z</time></trkpt><trkpt lat="40.7970237" lon="-3.6936567"><ele>849.0</ele><time>2026-03-23T11:30:55.666Z</time></trkpt><trkpt lat="40.7971066" lon="-3.6936805"><ele>849.0</ele><time>2026-03-23T11:30:56.666Z</time></trkpt><trkpt lat="40.7971927" lon="-3.6936995"><ele>850.4000000000001</ele><time>2026-03-23T11:30:57.651Z</time></trkpt><trkpt lat="40.7972886" lon="-3.6937249"><ele>851.8</ele><time>2026-03-23T11:30:58.659Z</time></trkpt><trkpt lat="40.7973852" lon="-3.6937532"><ele>853.1999999999999</ele><time>2026-03-23T11:30:59.653Z</time></trkpt><trkpt lat="40.7974816" lon="-3.6937757"><ele>854.5999999999999</ele><time>2026-03-23T11:31:00.657Z</time></trkpt><trkpt lat="40.7975799" lon="-3.6937959"><ele>856.0</ele><time>2026-03-23T11:31:01.673Z</time></trkpt><trkpt lat="40.7976762" lon="-3.6938124"><ele>856.6666666666666</ele><time>2026-03-23T11:31:02.668Z</time></trkpt><trkpt lat="40.7977545" lon="-3.6938434"><ele>857.3333333333333</ele><time>2026-03-23T11:31:03.663Z</time></trkpt><trkpt lat="40.797823" lon="-3.6938766"><ele>858.0</ele><time>2026-03-23T11:31:04.673Z</time></trkpt><trkpt lat="40.7979033" lon="-3.694012"><ele>858.6666666666667</ele><time>2026-03-23T11:31:06.672Z</time></trkpt><trkpt lat="40.7979202" lon="-3.6941101"><ele>859.3333333333334</ele><time>2026-03-23T11:31:07.667Z</time></trkpt><trkpt lat="40.7979237" lon="-3.6942267"><ele>860.0</ele><time>2026-03-23T11:31:08.651Z</time></trkpt><trkpt lat="40.7978929" lon="-3.6943366"><ele>860.25</ele><time>2026-03-23T11:31:09.666Z</time></trkpt><trkpt lat="40.7978584" lon="-3.6944751"><ele>860.5</ele><time>2026-03-23T11:31:10.68Z</time></trkpt><trkpt lat="40.7978224" lon="-3.6946153"><ele>860.75</ele><time>2026-03-23T11:31:11.657Z</time></trkpt><trkpt lat="40.7977812" lon="-3.6947626"><ele>861.0</ele><time>2026-03-23T11:31:12.666Z</time></trkpt><trkpt lat="40.7977378" lon="-3.6948953"><ele>861.0</ele><time>2026-03-23T11:31:13.665Z</time></trkpt><trkpt lat="40.7976945" lon="-3.6950304"><ele>860.9999999999999</ele><time>2026-03-23T11:31:14.675Z</time></trkpt><trkpt lat="40.7976503" lon="-3.6951655"><ele>860.9999999999999</ele><time>2026-03-23T11:31:15.67Z</time></trkpt><trkpt lat="40.7976074" lon="-3.6953012"><ele>861.0</ele><time>2026-03-23T11:31:16.675Z</time></trkpt><trkpt lat="40.7975643" lon="-3.695437"><ele>861.0</ele><time>2026-03-23T11:31:17.674Z</time></trkpt><trkpt lat="40.7975217" lon="-3.6955796"><ele>861.25</ele><time>2026-03-23T11:31:18.675Z</time></trkpt><trkpt lat="40.7974916" lon="-3.6957236"><ele>861.5</ele><time>2026-03-23T11:31:19.672Z</time></trkpt><trkpt lat="40.7974606" lon="-3.6958666"><ele>861.75</ele><time>2026-03-23T11:31:20.674Z</time></trkpt><trkpt lat="40.7974298" lon="-3.6960171"><ele>862.0</ele><time>2026-03-23T11:31:21.672Z</time></trkpt><trkpt lat="40.7973977" lon="-3.6961676"><ele>862.0</ele><time>2026-03-23T11:31:22.682Z</time></trkpt><trkpt lat="40.7973637" lon="-3.6963045"><ele>862.0</ele><time>2026-03-23T11:31:23.67Z</time></trkpt><trkpt lat="40.7973234" lon="-3.6964362"><ele>862.0</ele><time>2026-03-23T11:31:24.677Z</time></trkpt><trkpt lat="40.7972879" lon="-3.6965601"><ele>862.0</ele><time>2026-03-23T11:31:25.669Z</time></trkpt><trkpt lat="40.7972526" lon="-3.6966745"><ele>862.0</ele><time>2026-03-23T11:31:26.668Z</time></trkpt><trkpt lat="40.7972187" lon="-3.6967879"><ele>862.0</ele><time>2026-03-23T11:31:27.666Z</time></trkpt><trkpt lat="40.7971872" lon="-3.6969154"><ele>862.0</ele><time>2026-03-23T11:31:28.672Z</time></trkpt><trkpt lat="40.7971544" lon="-3.6970359"><ele>862.0</ele><time>2026-03-23T11:31:29.678Z</time></trkpt><trkpt lat="40.7971239" lon="-3.6971543"><ele>862.0</ele><time>2026-03-23T11:31:30.672Z</time></trkpt><trkpt lat="40.7971002" lon="-3.6972618"><ele>862.0</ele><time>2026-03-23T11:31:31.674Z</time></trkpt><trkpt lat="40.7970757" lon="-3.6973639"><ele>862.3333333333333</ele><time>2026-03-23T11:31:32.672Z</time></trkpt><trkpt lat="40.7970525" lon="-3.6974679"><ele>862.6666666666666</ele><time>2026-03-23T11:31:33.685Z</time></trkpt><trkpt lat="40.7970299" lon="-3.6975757"><ele>863.0</ele><time>2026-03-23T11:31:34.668Z</time></trkpt><trkpt lat="40.7970099" lon="-3.6976807"><ele>863.3333333333333</ele><time>2026-03-23T11:31:35.669Z</time></trkpt><trkpt lat="40.7969905" lon="-3.6977815"><ele>863.6666666666666</ele><time>2026-03-23T11:31:36.662Z</time></trkpt><trkpt lat="40.7969699" lon="-3.6978726"><ele>864.0</ele><time>2026-03-23T11:31:37.669Z</time></trkpt><trkpt lat="40.7969534" lon="-3.6979653"><ele>864.5</ele><time>2026-03-23T11:31:38.666Z</time></trkpt><trkpt lat="40.7969381" lon="-3.6980712"><ele>865.0</ele><time>2026-03-23T11:31:39.675Z</time></trkpt><trkpt lat="40.7969216" lon="-3.6981766"><ele>865.5</ele><time>2026-03-23T11:31:40.66Z</time></trkpt><trkpt lat="40.7968999" lon="-3.6982813"><ele>866.0</ele><time>2026-03-23T11:31:41.649Z</time></trkpt><trkpt lat="40.7968826" lon="-3.6983878"><ele>866.5</ele><time>2026-03-23T11:31:42.667Z</time></trkpt><trkpt lat="40.7968689" lon="-3.6984767"><ele>867.0</ele><time>2026-03-23T11:31:43.676Z</time></trkpt><trkpt lat="40.7968485" lon="-3.6985736"><ele>866.8333333333334</ele><time>2026-03-23T11:31:45.683Z</time></trkpt><trkpt lat="40.7968413" lon="-3.6986639"><ele>866.6666666666667</ele><time>2026-03-23T11:31:48.674Z</time></trkpt><trkpt lat="40.7968166" lon="-3.6988147"><ele>866.5</ele><time>2026-03-23T11:31:50.669Z</time></trkpt><trkpt lat="40.7968058" lon="-3.69892"><ele>866.3333333333334</ele><time>2026-03-23T11:31:51.675Z</time></trkpt><trkpt lat="40.7967914" lon="-3.6990314"><ele>866.1666666666667</ele><time>2026-03-23T11:31:52.675Z</time></trkpt><trkpt lat="40.7967834" lon="-3.6991493"><ele>866.0</ele><time>2026-03-23T11:31:53.673Z</time></trkpt><trkpt lat="40.7967706" lon="-3.699279"><ele>866.0</ele><time>2026-03-23T11:31:54.66Z</time></trkpt><trkpt lat="40.7967575" lon="-3.699409"><ele>865.9999999999999</ele><time>2026-03-23T11:31:55.675Z</time></trkpt><trkpt lat="40.7967429" lon="-3.6995377"><ele>865.9999999999999</ele><time>2026-03-23T11:31:56.671Z</time></trkpt><trkpt lat="40.7967266" lon="-3.6996652"><ele>866.0</ele><time>2026-03-23T11:31:57.674Z</time></trkpt><trkpt lat="40.7967104" lon="-3.699796"><ele>866.0</ele><time>2026-03-23T11:31:58.663Z</time></trkpt><trkpt lat="40.7966907" lon="-3.6999296"><ele>866.4</ele><time>2026-03-23T11:31:59.682Z</time></trkpt><trkpt lat="40.7966678" lon="-3.7000579"><ele>866.8</ele><time>2026-03-23T11:32:00.659Z</time></trkpt><trkpt lat="40.7966453" lon="-3.7001966"><ele>867.1999999999999</ele><time>2026-03-23T11:32:01.667Z</time></trkpt><trkpt lat="40.7966222" lon="-3.7003339"><ele>867.5999999999999</ele><time>2026-03-23T11:32:02.658Z</time></trkpt><trkpt lat="40.7965987" lon="-3.7004751"><ele>868.0</ele><time>2026-03-23T11:32:03.649Z</time></trkpt><trkpt lat="40.7965739" lon="-3.7006214"><ele>868.0</ele><time>2026-03-23T11:32:04.647Z</time></trkpt><trkpt lat="40.7965533" lon="-3.7007605"><ele>868.0</ele><time>2026-03-23T11:32:05.65Z</time></trkpt><trkpt lat="40.7965326" lon="-3.7008951"><ele>868.0</ele><time>2026-03-23T11:32:06.65Z</time></trkpt><trkpt lat="40.7965159" lon="-3.7010266"><ele>868.0</ele><time>2026-03-23T11:32:07.663Z</time></trkpt><trkpt lat="40.7964971" lon="-3.7011531"><ele>868.0</ele><time>2026-03-23T11:32:08.659Z</time></trkpt><trkpt lat="40.7964804" lon="-3.7012857"><ele>868.0</ele><time>2026-03-23T11:32:09.674Z</time></trkpt><trkpt lat="40.796461" lon="-3.7014254"><ele>868.0</ele><time>2026-03-23T11:32:10.661Z</time></trkpt><trkpt lat="40.7964424" lon="-3.7015648"><ele>868.0</ele><time>2026-03-23T11:32:11.663Z</time></trkpt><trkpt lat="40.7964206" lon="-3.701696"><ele>868.0</ele><time>2026-03-23T11:32:12.676Z</time></trkpt><trkpt lat="40.7964007" lon="-3.7018155"><ele>868.0</ele><time>2026-03-23T11:32:13.663Z</time></trkpt><trkpt lat="40.7963764" lon="-3.7019223"><ele>868.1666666666666</ele><time>2026-03-23T11:32:14.67Z</time></trkpt><trkpt lat="40.7963454" lon="-3.7020209"><ele>868.3333333333333</ele><time>2026-03-23T11:32:15.668Z</time></trkpt><trkpt lat="40.7963098" lon="-3.7021097"><ele>868.5</ele><time>2026-03-23T11:32:16.68Z</time></trkpt><trkpt lat="40.7962709" lon="-3.702182"><ele>868.6666666666667</ele><time>2026-03-23T11:32:17.664Z</time></trkpt><trkpt lat="40.7962105" lon="-3.7022446"><ele>868.8333333333334</ele><time>2026-03-23T11:32:18.67Z</time></trkpt><trkpt lat="40.796139" lon="-3.7023047"><ele>869.0</ele><time>2026-03-23T11:32:19.66Z</time></trkpt><trkpt lat="40.7960586" lon="-3.7023687"><ele>869.0000000000001</ele><time>2026-03-23T11:32:20.675Z</time></trkpt><trkpt lat="40.7959762" lon="-3.7024233"><ele>869.0</ele><time>2026-03-23T11:32:21.674Z</time></trkpt><trkpt lat="40.7959058" lon="-3.7024804"><ele>869.0</ele><time>2026-03-23T11:32:22.679Z</time></trkpt><trkpt lat="40.7958488" lon="-3.7025487"><ele>869.0</ele><time>2026-03-23T11:32:23.684Z</time></trkpt><trkpt lat="40.7958028" lon="-3.7026324"><ele>869.0000000000001</ele><time>2026-03-23T11:32:24.665Z</time></trkpt><trkpt lat="40.7957564" lon="-3.7027367"><ele>869.0</ele><time>2026-03-23T11:32:25.663Z</time></trkpt><trkpt lat="40.7957146" lon="-3.7028507"><ele>869.0</ele><time>2026-03-23T11:32:26.67Z</time></trkpt><trkpt lat="40.7956778" lon="-3.7029622"><ele>869.0000000000001</ele><time>2026-03-23T11:32:27.667Z</time></trkpt><trkpt lat="40.7956344" lon="-3.7030799"><ele>869.0000000000001</ele><time>2026-03-23T11:32:28.675Z</time></trkpt><trkpt lat="40.7955913" lon="-3.7032007"><ele>869.0</ele><time>2026-03-23T11:32:29.678Z</time></trkpt><trkpt lat="40.7955477" lon="-3.703321"><ele>869.0</ele><time>2026-03-23T11:32:30.67Z</time></trkpt><trkpt lat="40.7954985" lon="-3.703438"><ele>869.0</ele><time>2026-03-23T11:32:31.665Z</time></trkpt><trkpt lat="40.7954575" lon="-3.7035535"><ele>869.0000000000001</ele><time>2026-03-23T11:32:32.671Z</time></trkpt><trkpt lat="40.7954125" lon="-3.703675"><ele>869.0000000000001</ele><time>2026-03-23T11:32:33.682Z</time></trkpt><trkpt lat="40.7953761" lon="-3.7037967"><ele>869.0</ele><time>2026-03-23T11:32:34.672Z</time></trkpt><trkpt lat="40.795352" lon="-3.7039128"><ele>869.0</ele><time>2026-03-23T11:32:35.683Z</time></trkpt><trkpt lat="40.7953466" lon="-3.7040381"><ele>869.0</ele><time>2026-03-23T11:32:36.667Z</time></trkpt><trkpt lat="40.7953511" lon="-3.7041783"><ele>869.0000000000001</ele><time>2026-03-23T11:32:37.675Z</time></trkpt><trkpt lat="40.7953545" lon="-3.7043262"><ele>869.0000000000001</ele><time>2026-03-23T11:32:38.679Z</time></trkpt><trkpt lat="40.7953664" lon="-3.7044632"><ele>869.0</ele><time>2026-03-23T11:32:39.665Z</time></trkpt><trkpt lat="40.7953747" lon="-3.7046015"><ele>869.0</ele><time>2026-03-23T11:32:40.646Z</time></trkpt><trkpt lat="40.7953843" lon="-3.7047485"><ele>869.0</ele><time>2026-03-23T11:32:41.651Z</time></trkpt><trkpt lat="40.7953802" lon="-3.7049009"><ele>869.0</ele><time>2026-03-23T11:32:42.665Z</time></trkpt><trkpt lat="40.7953666" lon="-3.7050524"><ele>869.0</ele><time>2026-03-23T11:32:43.665Z</time></trkpt><trkpt lat="40.7953447" lon="-3.7052108"><ele>869.0</ele><time>2026-03-23T11:32:44.656Z</time></trkpt><trkpt lat="40.7953128" lon="-3.7053723"><ele>869.0</ele><time>2026-03-23T11:32:45.661Z</time></trkpt><trkpt lat="40.7952742" lon="-3.7055334"><ele>869.0</ele><time>2026-03-23T11:32:46.661Z</time></trkpt><trkpt lat="40.7952311" lon="-3.7056978"><ele>869.0</ele><time>2026-03-23T11:32:47.657Z</time></trkpt><trkpt lat="40.7951815" lon="-3.7058608"><ele>869.0</ele><time>2026-03-23T11:32:48.653Z</time></trkpt><trkpt lat="40.7951327" lon="-3.7060204"><ele>868.25</ele><time>2026-03-23T11:32:49.672Z</time></trkpt><trkpt lat="40.795088" lon="-3.7061817"><ele>867.5</ele><time>2026-03-23T11:32:50.667Z</time></trkpt><trkpt lat="40.7950493" lon="-3.7063328"><ele>866.75</ele><time>2026-03-23T11:32:51.672Z</time></trkpt><trkpt lat="40.7950033" lon="-3.7064706"><ele>866.0</ele><time>2026-03-23T11:32:52.676Z</time></trkpt><trkpt lat="40.7949528" lon="-3.7065898"><ele>866.0000000000001</ele><time>2026-03-23T11:32:53.677Z</time></trkpt><trkpt lat="40.7948901" lon="-3.7066757"><ele>866.0</ele><time>2026-03-23T11:32:54.68Z</time></trkpt><trkpt lat="40.794814" lon="-3.706716"><ele>866.0</ele><time>2026-03-23T11:32:55.675Z</time></trkpt><trkpt lat="40.7947262" lon="-3.7067228"><ele>866.0</ele><time>2026-03-23T11:32:56.679Z</time></trkpt><trkpt lat="40.7946421" lon="-3.7067064"><ele>866.0000000000001</ele><time>2026-03-23T11:32:57.668Z</time></trkpt><trkpt lat="40.7945471" lon="-3.7067016"><ele>866.0</ele><time>2026-03-23T11:32:58.664Z</time></trkpt><trkpt lat="40.7944458" lon="-3.7067035"><ele>865.5999999999999</ele><time>2026-03-23T11:32:59.672Z</time></trkpt><trkpt lat="40.7943368" lon="-3.7067183"><ele>865.1999999999999</ele><time>2026-03-23T11:33:00.672Z</time></trkpt><trkpt lat="40.79423" lon="-3.7067361"><ele>864.8000000000001</ele><time>2026-03-23T11:33:01.678Z</time></trkpt><trkpt lat="40.7941276" lon="-3.7067657"><ele>864.4000000000001</ele><time>2026-03-23T11:33:02.664Z</time></trkpt><trkpt lat="40.7940357" lon="-3.7068095"><ele>864.0</ele><time>2026-03-23T11:33:03.663Z</time></trkpt><trkpt lat="40.7939687" lon="-3.7068711"><ele>863.4285714285714</ele><time>2026-03-23T11:33:04.661Z</time></trkpt><trkpt lat="40.7939165" lon="-3.7069493"><ele>862.8571428571429</ele><time>2026-03-23T11:33:05.662Z</time></trkpt><trkpt lat="40.7938737" lon="-3.7070301"><ele>862.2857142857142</ele><time>2026-03-23T11:33:06.681Z</time></trkpt><trkpt lat="40.7938443" lon="-3.7071241"><ele>861.7142857142858</ele><time>2026-03-23T11:33:07.663Z</time></trkpt><trkpt lat="40.7938214" lon="-3.707219"><ele>861.1428571428572</ele><time>2026-03-23T11:33:08.66Z</time></trkpt><trkpt lat="40.7937908" lon="-3.7072926"><ele>860.5714285714286</ele><time>2026-03-23T11:33:09.655Z</time></trkpt><trkpt lat="40.7937425" lon="-3.7073533"><ele>860.0</ele><time>2026-03-23T11:33:10.657Z</time></trkpt><trkpt lat="40.7936764" lon="-3.7074038"><ele>860.0000000000001</ele><time>2026-03-23T11:33:11.674Z</time></trkpt><trkpt lat="40.7935918" lon="-3.7074353"><ele>860.0</ele><time>2026-03-23T11:33:12.669Z</time></trkpt><trkpt lat="40.7935064" lon="-3.7074734"><ele>860.0</ele><time>2026-03-23T11:33:13.663Z</time></trkpt><trkpt lat="40.793428" lon="-3.7075348"><ele>860.0</ele><time>2026-03-23T11:33:14.666Z</time></trkpt><trkpt lat="40.7933667" lon="-3.7076139"><ele>860.0000000000001</ele><time>2026-03-23T11:33:15.671Z</time></trkpt><trkpt lat="40.7933149" lon="-3.7077085"><ele>860.0</ele><time>2026-03-23T11:33:16.661Z</time></trkpt><trkpt lat="40.7932675" lon="-3.7078072"><ele>859.0000000000001</ele><time>2026-03-23T11:33:17.676Z</time></trkpt><trkpt lat="40.7932188" lon="-3.7079026"><ele>858.0</ele><time>2026-03-23T11:33:18.669Z</time></trkpt><trkpt lat="40.7931683" lon="-3.7080061"><ele>857.0</ele><time>2026-03-23T11:33:19.668Z</time></trkpt><trkpt lat="40.7931184" lon="-3.708106"><ele>856.0</ele><time>2026-03-23T11:33:20.671Z</time></trkpt><trkpt lat="40.793064" lon="-3.708195"><ele>855.0000000000001</ele><time>2026-03-23T11:33:21.679Z</time></trkpt><trkpt lat="40.7930114" lon="-3.7082741"><ele>854.0</ele><time>2026-03-23T11:33:22.668Z</time></trkpt><trkpt lat="40.7929587" lon="-3.7083444"><ele>854.0</ele><time>2026-03-23T11:33:23.664Z</time></trkpt><trkpt lat="40.792917" lon="-3.7084086"><ele>854.0000000000001</ele><time>2026-03-23T11:33:24.659Z</time></trkpt><trkpt lat="40.7928639" lon="-3.7085374"><ele>854.0000000000001</ele><time>2026-03-23T11:33:26.651Z</time></trkpt><trkpt lat="40.7928048" lon="-3.7086679"><ele>854.0</ele><time>2026-03-23T11:33:28.652Z</time></trkpt><trkpt lat="40.7927357" lon="-3.7087782"><ele>854.0</ele><time>2026-03-23T11:33:30.653Z</time></trkpt><trkpt lat="40.7926645" lon="-3.7088324"><ele>854.0000000000001</ele><time>2026-03-23T11:33:32.661Z</time></trkpt><trkpt lat="40.7925791" lon="-3.7087755"><ele>854.0</ele><time>2026-03-23T11:33:34.664Z</time></trkpt><trkpt lat="40.7925281" lon="-3.7087186"><ele>854.0</ele><time>2026-03-23T11:33:35.666Z</time></trkpt><trkpt lat="40.7924742" lon="-3.7086526"><ele>854.0</ele><time>2026-03-23T11:33:36.67Z</time></trkpt><trkpt lat="40.7924169" lon="-3.708584"><ele>854.0000000000001</ele><time>2026-03-23T11:33:37.674Z</time></trkpt><trkpt lat="40.7923544" lon="-3.7085223"><ele>854.0</ele><time>2026-03-23T11:33:38.661Z</time></trkpt><trkpt lat="40.7922942" lon="-3.7084756"><ele>854.0000000000001</ele><time>2026-03-23T11:33:39.678Z</time></trkpt><trkpt lat="40.7922339" lon="-3.7084187"><ele>854.0</ele><time>2026-03-23T11:33:40.675Z</time></trkpt><trkpt lat="40.7921761" lon="-3.70837"><ele>854.0</ele><time>2026-03-23T11:33:41.658Z</time></trkpt><trkpt lat="40.792108" lon="-3.7083298"><ele>854.0</ele><time>2026-03-23T11:33:42.674Z</time></trkpt><trkpt lat="40.7920223" lon="-3.7083204"><ele>854.0000000000001</ele><time>2026-03-23T11:33:43.658Z</time></trkpt><trkpt lat="40.7919329" lon="-3.7083057"><ele>854.0</ele><time>2026-03-23T11:33:44.662Z</time></trkpt><trkpt lat="40.7918524" lon="-3.7083026"><ele>854.3333333333334</ele><time>2026-03-23T11:33:45.67Z</time></trkpt><trkpt lat="40.7917669" lon="-3.7082918"><ele>854.6666666666667</ele><time>2026-03-23T11:33:46.67Z</time></trkpt><trkpt lat="40.7916844" lon="-3.7082798"><ele>855.0</ele><time>2026-03-23T11:33:47.674Z</time></trkpt><trkpt lat="40.7916087" lon="-3.7082668"><ele>855.3333333333333</ele><time>2026-03-23T11:33:48.66Z</time></trkpt><trkpt lat="40.7915373" lon="-3.7082577"><ele>855.6666666666666</ele><time>2026-03-23T11:33:49.663Z</time></trkpt><trkpt lat="40.791468" lon="-3.7082499"><ele>856.0</ele><time>2026-03-23T11:33:50.66Z</time></trkpt><trkpt lat="40.7913477" lon="-3.7082395"><ele>855.9999999999999</ele><time>2026-03-23T11:33:52.661Z</time></trkpt><trkpt lat="40.7912821" lon="-3.7082382"><ele>856.0</ele><time>2026-03-23T11:33:53.661Z</time></trkpt><trkpt lat="40.7912121" lon="-3.7082297"><ele>856.0</ele><time>2026-03-23T11:33:54.672Z</time></trkpt><trkpt lat="40.7911262" lon="-3.7082178"><ele>856.0</ele><time>2026-03-23T11:33:55.681Z</time></trkpt><trkpt lat="40.7910419" lon="-3.7081951"><ele>855.9999999999999</ele><time>2026-03-23T11:33:56.662Z</time></trkpt><trkpt lat="40.7909505" lon="-3.7081634"><ele>856.0</ele><time>2026-03-23T11:33:57.661Z</time></trkpt><trkpt lat="40.7908726" lon="-3.7081235"><ele>855.9999999999999</ele><time>2026-03-23T11:33:58.667Z</time></trkpt><trkpt lat="40.7908058" lon="-3.7080793"><ele>856.0</ele><time>2026-03-23T11:33:59.672Z</time></trkpt><trkpt lat="40.790749" lon="-3.7080328"><ele>856.0</ele><time>2026-03-23T11:34:00.668Z</time></trkpt><trkpt lat="40.7906712" lon="-3.7079531"><ele>856.0</ele><time>2026-03-23T11:34:02.659Z</time></trkpt><trkpt lat="40.7906245" lon="-3.7078914"><ele>855.9999999999999</ele><time>2026-03-23T11:34:10.679Z</time></trkpt><trkpt lat="40.7905632" lon="-3.7078046"><ele>856.0</ele><time>2026-03-23T11:34:12.677Z</time></trkpt><trkpt lat="40.7905232" lon="-3.7077344"><ele>856.0</ele><time>2026-03-23T11:34:13.683Z</time></trkpt><trkpt lat="40.7904914" lon="-3.7076524"><ele>855.9999999999999</ele><time>2026-03-23T11:34:14.658Z</time></trkpt><trkpt lat="40.7904551" lon="-3.7075485"><ele>855.9999999999999</ele><time>2026-03-23T11:34:15.648Z</time></trkpt><trkpt lat="40.7904081" lon="-3.7074298"><ele>856.0</ele><time>2026-03-23T11:34:16.66Z</time></trkpt><trkpt lat="40.7903545" lon="-3.7073086"><ele>856.0</ele><time>2026-03-23T11:34:17.671Z</time></trkpt><trkpt lat="40.7902907" lon="-3.7071868"><ele>856.0</ele><time>2026-03-23T11:34:18.668Z</time></trkpt><trkpt lat="40.7902006" lon="-3.7070772"><ele>856.0</ele><time>2026-03-23T11:34:19.666Z</time></trkpt><trkpt lat="40.7900982" lon="-3.7069895"><ele>856.0</ele><time>2026-03-23T11:34:20.666Z</time></trkpt><trkpt lat="40.7899761" lon="-3.7069178"><ele>856.0</ele><time>2026-03-23T11:34:21.67Z</time></trkpt><trkpt lat="40.7898508" lon="-3.706858"><ele>856.5</ele><time>2026-03-23T11:34:22.657Z</time></trkpt><trkpt lat="40.7897206" lon="-3.7068165"><ele>857.0</ele><time>2026-03-23T11:34:23.667Z</time></trkpt><trkpt lat="40.7895886" lon="-3.7067761"><ele>857.5</ele><time>2026-03-23T11:34:24.677Z</time></trkpt><trkpt lat="40.7894511" lon="-3.7067445"><ele>858.0</ele><time>2026-03-23T11:34:25.678Z</time></trkpt><trkpt lat="40.7893122" lon="-3.7067102"><ele>858.75</ele><time>2026-03-23T11:34:26.667Z</time></trkpt><trkpt lat="40.7891721" lon="-3.7066736"><ele>859.5</ele><time>2026-03-23T11:34:27.668Z</time></trkpt><trkpt lat="40.7890295" lon="-3.7066394"><ele>860.25</ele><time>2026-03-23T11:34:28.669Z</time></trkpt><trkpt lat="40.7888927" lon="-3.7066135"><ele>861.0</ele><time>2026-03-23T11:34:29.673Z</time></trkpt><trkpt lat="40.7887497" lon="-3.7065848"><ele>861.0</ele><time>2026-03-23T11:34:30.671Z</time></trkpt><trkpt lat="40.7885997" lon="-3.706567"><ele>861.0</ele><time>2026-03-23T11:34:31.681Z</time></trkpt><trkpt lat="40.7884481" lon="-3.7065518"><ele>861.0</ele><time>2026-03-23T11:34:32.671Z</time></trkpt><trkpt lat="40.7882982" lon="-3.7065375"><ele>860.5</ele><time>2026-03-23T11:34:33.677Z</time></trkpt><trkpt lat="40.7881514" lon="-3.7065266"><ele>860.0</ele><time>2026-03-23T11:34:34.669Z</time></trkpt><trkpt lat="40.788011" lon="-3.7065192"><ele>859.5</ele><time>2026-03-23T11:34:35.659Z</time></trkpt><trkpt lat="40.7878738" lon="-3.7065128"><ele>859.0</ele><time>2026-03-23T11:34:36.662Z</time></trkpt><trkpt lat="40.7877447" lon="-3.7065223"><ele>858.0</ele><time>2026-03-23T11:34:37.673Z</time></trkpt><trkpt lat="40.7876137" lon="-3.7065423"><ele>857.0</ele><time>2026-03-23T11:34:38.672Z</time></trkpt><trkpt lat="40.7874799" lon="-3.7065841"><ele>856.0</ele><time>2026-03-23T11:34:39.671Z</time></trkpt><trkpt lat="40.7873461" lon="-3.7066479"><ele>855.0</ele><time>2026-03-23T11:34:40.666Z</time></trkpt><trkpt lat="40.7872028" lon="-3.7067144"><ele>855.0</ele><time>2026-03-23T11:34:41.676Z</time></trkpt><trkpt lat="40.7870561" lon="-3.7067843"><ele>855.0</ele><time>2026-03-23T11:34:42.675Z</time></trkpt><trkpt lat="40.7869087" lon="-3.7068619"><ele>855.0</ele><time>2026-03-23T11:34:43.671Z</time></trkpt><trkpt lat="40.7867658" lon="-3.7069611"><ele>854.3333333333333</ele><time>2026-03-23T11:34:44.671Z</time></trkpt><trkpt lat="40.7866205" lon="-3.7070548"><ele>853.6666666666666</ele><time>2026-03-23T11:34:45.678Z</time></trkpt><trkpt lat="40.7864749" lon="-3.7071418"><ele>853.0</ele><time>2026-03-23T11:34:46.672Z</time></trkpt><trkpt lat="40.7863299" lon="-3.7072168"><ele>853.0</ele><time>2026-03-23T11:34:47.671Z</time></trkpt><trkpt lat="40.7861956" lon="-3.7072793"><ele>853.0</ele><time>2026-03-23T11:34:48.66Z</time></trkpt><trkpt lat="40.7860731" lon="-3.7073351"><ele>853.0</ele><time>2026-03-23T11:34:49.668Z</time></trkpt><trkpt lat="40.7859606" lon="-3.7074029"><ele>853.0</ele><time>2026-03-23T11:34:50.682Z</time></trkpt><trkpt lat="40.7858567" lon="-3.7074644"><ele>854.5999999999999</ele><time>2026-03-23T11:34:51.677Z</time></trkpt><trkpt lat="40.7857804" lon="-3.7075286"><ele>856.1999999999999</ele><time>2026-03-23T11:34:52.675Z</time></trkpt><trkpt lat="40.7857415" lon="-3.7076271"><ele>857.8</ele><time>2026-03-23T11:34:53.674Z</time></trkpt><trkpt lat="40.7857158" lon="-3.7077509"><ele>859.4</ele><time>2026-03-23T11:34:54.67Z</time></trkpt><trkpt lat="40.785693" lon="-3.7078757"><ele>861.0</ele><time>2026-03-23T11:34:55.672Z</time></trkpt><trkpt lat="40.7856685" lon="-3.7080195"><ele>861.4</ele><time>2026-03-23T11:34:56.671Z</time></trkpt><trkpt lat="40.7856373" lon="-3.7081558"><ele>861.8</ele><time>2026-03-23T11:34:57.662Z</time></trkpt><trkpt lat="40.7856052" lon="-3.7082941"><ele>862.1999999999999</ele><time>2026-03-23T11:34:58.672Z</time></trkpt><trkpt lat="40.7855779" lon="-3.70844"><ele>862.5999999999999</ele><time>2026-03-23T11:34:59.67Z</time></trkpt><trkpt lat="40.7855389" lon="-3.7085791"><ele>863.0</ele><time>2026-03-23T11:35:00.68Z</time></trkpt><trkpt lat="40.785498" lon="-3.7087206"><ele>865.2</ele><time>2026-03-23T11:35:01.674Z</time></trkpt><trkpt lat="40.7854611" lon="-3.7088583"><ele>867.4</ele><time>2026-03-23T11:35:02.676Z</time></trkpt><trkpt lat="40.7854224" lon="-3.7089984"><ele>869.6000000000001</ele><time>2026-03-23T11:35:03.662Z</time></trkpt><trkpt lat="40.7853812" lon="-3.7091405"><ele>871.8000000000001</ele><time>2026-03-23T11:35:04.671Z</time></trkpt><trkpt lat="40.7853394" lon="-3.7092729"><ele>874.0</ele><time>2026-03-23T11:35:05.668Z</time></trkpt><trkpt lat="40.7852968" lon="-3.7094108"><ele>876.2</ele><time>2026-03-23T11:35:06.673Z</time></trkpt><trkpt lat="40.7852537" lon="-3.709544"><ele>878.4000000000001</ele><time>2026-03-23T11:35:07.673Z</time></trkpt><trkpt lat="40.7852103" lon="-3.7096815"><ele>880.6</ele><time>2026-03-23T11:35:08.664Z</time></trkpt><trkpt lat="40.7851625" lon="-3.7098015"><ele>882.8</ele><time>2026-03-23T11:35:09.668Z</time></trkpt><trkpt lat="40.7851082" lon="-3.7099194"><ele>885.0</ele><time>2026-03-23T11:35:10.674Z</time></trkpt><trkpt lat="40.7850615" lon="-3.7100442"><ele>885.4</ele><time>2026-03-23T11:35:11.676Z</time></trkpt><trkpt lat="40.7850155" lon="-3.7101736"><ele>885.8</ele><time>2026-03-23T11:35:12.676Z</time></trkpt><trkpt lat="40.7849729" lon="-3.710299"><ele>886.2</ele><time>2026-03-23T11:35:13.676Z</time></trkpt><trkpt lat="40.7849383" lon="-3.7104094"><ele>886.6</ele><time>2026-03-23T11:35:14.668Z</time></trkpt><trkpt lat="40.7849071" lon="-3.7104924"><ele>887.0</ele><time>2026-03-23T11:35:15.668Z</time></trkpt><trkpt lat="40.7848517" lon="-3.710612"><ele>888.0000000000001</ele><time>2026-03-23T11:35:17.666Z</time></trkpt><trkpt lat="40.784809" lon="-3.710751"><ele>889.0</ele><time>2026-03-23T11:35:19.67Z</time></trkpt><trkpt lat="40.7847846" lon="-3.7108389"><ele>890.0</ele><time>2026-03-23T11:35:20.677Z</time></trkpt><trkpt lat="40.784758" lon="-3.7109409"><ele>891.0</ele><time>2026-03-23T11:35:21.679Z</time></trkpt><trkpt lat="40.7847344" lon="-3.7110527"><ele>892.0000000000001</ele><time>2026-03-23T11:35:22.674Z</time></trkpt><trkpt lat="40.7847125" lon="-3.7111706"><ele>893.0</ele><time>2026-03-23T11:35:23.675Z</time></trkpt><trkpt lat="40.7846939" lon="-3.7112958"><ele>894.0</ele><time>2026-03-23T11:35:24.674Z</time></trkpt><trkpt lat="40.7846695" lon="-3.7114201"><ele>895.0</ele><time>2026-03-23T11:35:25.678Z</time></trkpt><trkpt lat="40.7846466" lon="-3.7115532"><ele>896.0</ele><time>2026-03-23T11:35:26.669Z</time></trkpt><trkpt lat="40.784622" lon="-3.7116948"><ele>897.0</ele><time>2026-03-23T11:35:27.663Z</time></trkpt><trkpt lat="40.7845945" lon="-3.711846"><ele>898.0</ele><time>2026-03-23T11:35:28.668Z</time></trkpt><trkpt lat="40.7845714" lon="-3.7120003"><ele>899.5</ele><time>2026-03-23T11:35:29.673Z</time></trkpt><trkpt lat="40.7845483" lon="-3.7121531"><ele>901.0</ele><time>2026-03-23T11:35:30.679Z</time></trkpt><trkpt lat="40.7845163" lon="-3.7123015"><ele>902.5</ele><time>2026-03-23T11:35:31.677Z</time></trkpt><trkpt lat="40.7844862" lon="-3.7124427"><ele>904.0</ele><time>2026-03-23T11:35:32.663Z</time></trkpt><trkpt lat="40.7844548" lon="-3.7125898"><ele>905.75</ele><time>2026-03-23T11:35:33.665Z</time></trkpt><trkpt lat="40.784424" lon="-3.7127418"><ele>907.5</ele><time>2026-03-23T11:35:34.674Z</time></trkpt><trkpt lat="40.7843919" lon="-3.7129021"><ele>909.25</ele><time>2026-03-23T11:35:35.663Z</time></trkpt><trkpt lat="40.7843699" lon="-3.7130623"><ele>911.0</ele><time>2026-03-23T11:35:36.677Z</time></trkpt><trkpt lat="40.7843562" lon="-3.7132253"><ele>908.5</ele><time>2026-03-23T11:35:37.689Z</time></trkpt><trkpt lat="40.7843449" lon="-3.7133885"><ele>906.0</ele><time>2026-03-23T11:35:38.674Z</time></trkpt><trkpt lat="40.7843336" lon="-3.7135511"><ele>903.5</ele><time>2026-03-23T11:35:39.668Z</time></trkpt><trkpt lat="40.7843201" lon="-3.7137116"><ele>901.0</ele><time>2026-03-23T11:35:40.673Z</time></trkpt><trkpt lat="40.7843099" lon="-3.7138657"><ele>901.0</ele><time>2026-03-23T11:35:41.687Z</time></trkpt><trkpt lat="40.7843088" lon="-3.7140241"><ele>901.0</ele><time>2026-03-23T11:35:42.665Z</time></trkpt><trkpt lat="40.7843086" lon="-3.7141795"><ele>901.0</ele><time>2026-03-23T11:35:43.674Z</time></trkpt><trkpt lat="40.7843088" lon="-3.7143313"><ele>901.0</ele><time>2026-03-23T11:35:44.678Z</time></trkpt><trkpt lat="40.7843076" lon="-3.7144848"><ele>902.0</ele><time>2026-03-23T11:35:45.669Z</time></trkpt><trkpt lat="40.7843058" lon="-3.7146358"><ele>903.0</ele><time>2026-03-23T11:35:46.675Z</time></trkpt><trkpt lat="40.7842956" lon="-3.7147896"><ele>904.0</ele><time>2026-03-23T11:35:47.675Z</time></trkpt><trkpt lat="40.7842795" lon="-3.7149432"><ele>905.0</ele><time>2026-03-23T11:35:48.675Z</time></trkpt><trkpt lat="40.7842675" lon="-3.7150918"><ele>906.2</ele><time>2026-03-23T11:35:49.675Z</time></trkpt><trkpt lat="40.7842542" lon="-3.7152403"><ele>907.4</ele><time>2026-03-23T11:35:50.665Z</time></trkpt><trkpt lat="40.7842387" lon="-3.7153844"><ele>908.5999999999999</ele><time>2026-03-23T11:35:51.671Z</time></trkpt><trkpt lat="40.7842283" lon="-3.7155128"><ele>909.8</ele><time>2026-03-23T11:35:52.668Z</time></trkpt><trkpt lat="40.7842292" lon="-3.7156367"><ele>911.0</ele><time>2026-03-23T11:35:53.666Z</time></trkpt><trkpt lat="40.7842288" lon="-3.7157524"><ele>911.0</ele><time>2026-03-23T11:35:54.667Z</time></trkpt><trkpt lat="40.7842317" lon="-3.7158653"><ele>910.9999999999999</ele><time>2026-03-23T11:35:55.659Z</time></trkpt><trkpt lat="40.7842491" lon="-3.7159795"><ele>910.9999999999999</ele><time>2026-03-23T11:35:56.661Z</time></trkpt><trkpt lat="40.7842762" lon="-3.7161108"><ele>911.0</ele><time>2026-03-23T11:35:57.661Z</time></trkpt><trkpt lat="40.7843026" lon="-3.7162432"><ele>911.0</ele><time>2026-03-23T11:35:58.654Z</time></trkpt><trkpt lat="40.7843327" lon="-3.7163877"><ele>910.4</ele><time>2026-03-23T11:35:59.665Z</time></trkpt><trkpt lat="40.7843637" lon="-3.7165311"><ele>909.8</ele><time>2026-03-23T11:36:00.655Z</time></trkpt><trkpt lat="40.7843919" lon="-3.7166576"><ele>909.1999999999999</ele><time>2026-03-23T11:36:01.67Z</time></trkpt><trkpt lat="40.7844136" lon="-3.7167749"><ele>908.5999999999999</ele><time>2026-03-23T11:36:02.644Z</time></trkpt><trkpt lat="40.7844218" lon="-3.7168846"><ele>908.0</ele><time>2026-03-23T11:36:03.656Z</time></trkpt><trkpt lat="40.78442" lon="-3.7170078"><ele>908.0</ele><time>2026-03-23T11:36:04.663Z</time></trkpt><trkpt lat="40.7844087" lon="-3.7171245"><ele>908.0</ele><time>2026-03-23T11:36:05.658Z</time></trkpt><trkpt lat="40.7844004" lon="-3.7172597"><ele>908.0</ele><time>2026-03-23T11:36:06.656Z</time></trkpt><trkpt lat="40.7843878" lon="-3.717399"><ele>908.0</ele><time>2026-03-23T11:36:07.657Z</time></trkpt><trkpt lat="40.7843722" lon="-3.7175403"><ele>908.0</ele><time>2026-03-23T11:36:08.655Z</time></trkpt><trkpt lat="40.7843581" lon="-3.7176833"><ele>909.5</ele><time>2026-03-23T11:36:09.668Z</time></trkpt><trkpt lat="40.784347" lon="-3.7178282"><ele>911.0</ele><time>2026-03-23T11:36:10.654Z</time></trkpt><trkpt lat="40.784334" lon="-3.7179777"><ele>912.5</ele><time>2026-03-23T11:36:11.667Z</time></trkpt><trkpt lat="40.7843143" lon="-3.7181272"><ele>914.0</ele><time>2026-03-23T11:36:12.656Z</time></trkpt><trkpt lat="40.7843011" lon="-3.7182734"><ele>914.4000000000001</ele><time>2026-03-23T11:36:13.669Z</time></trkpt><trkpt lat="40.7842726" lon="-3.718409"><ele>914.8000000000001</ele><time>2026-03-23T11:36:14.654Z</time></trkpt><trkpt lat="40.7842622" lon="-3.7185396"><ele>915.1999999999999</ele><time>2026-03-23T11:36:15.659Z</time></trkpt><trkpt lat="40.7842449" lon="-3.7186505"><ele>915.5999999999999</ele><time>2026-03-23T11:36:16.67Z</time></trkpt><trkpt lat="40.7842221" lon="-3.7187616"><ele>916.0</ele><time>2026-03-23T11:36:17.675Z</time></trkpt><trkpt lat="40.7842121" lon="-3.7188762"><ele>917.3333333333333</ele><time>2026-03-23T11:36:18.66Z</time></trkpt><trkpt lat="40.7841997" lon="-3.7189903"><ele>918.6666666666666</ele><time>2026-03-23T11:36:19.665Z</time></trkpt><trkpt lat="40.7841959" lon="-3.7191085"><ele>920.0</ele><time>2026-03-23T11:36:20.658Z</time></trkpt><trkpt lat="40.7841852" lon="-3.7192262"><ele>921.3333333333333</ele><time>2026-03-23T11:36:21.651Z</time></trkpt><trkpt lat="40.7841778" lon="-3.7193427"><ele>922.6666666666666</ele><time>2026-03-23T11:36:22.681Z</time></trkpt><trkpt lat="40.7841717" lon="-3.7194587"><ele>924.0</ele><time>2026-03-23T11:36:23.673Z</time></trkpt><trkpt lat="40.7841664" lon="-3.7195748"><ele>924.6</ele><time>2026-03-23T11:36:24.672Z</time></trkpt><trkpt lat="40.7841611" lon="-3.7196974"><ele>925.2</ele><time>2026-03-23T11:36:25.677Z</time></trkpt><trkpt lat="40.7841603" lon="-3.7198197"><ele>925.8000000000001</ele><time>2026-03-23T11:36:26.672Z</time></trkpt><trkpt lat="40.7841547" lon="-3.7199394"><ele>926.4000000000001</ele><time>2026-03-23T11:36:27.668Z</time></trkpt><trkpt lat="40.7841536" lon="-3.7200719"><ele>927.0</ele><time>2026-03-23T11:36:28.669Z</time></trkpt><trkpt lat="40.7841507" lon="-3.7202061"><ele>927.4000000000001</ele><time>2026-03-23T11:36:29.673Z</time></trkpt><trkpt lat="40.7841447" lon="-3.7203409"><ele>927.8000000000001</ele><time>2026-03-23T11:36:30.671Z</time></trkpt><trkpt lat="40.7841433" lon="-3.7204761"><ele>928.2</ele><time>2026-03-23T11:36:31.67Z</time></trkpt><trkpt lat="40.7841462" lon="-3.7206086"><ele>928.6</ele><time>2026-03-23T11:36:32.667Z</time></trkpt><trkpt lat="40.7841397" lon="-3.7207287"><ele>929.0</ele><time>2026-03-23T11:36:33.67Z</time></trkpt><trkpt lat="40.7841383" lon="-3.7208346"><ele>929.0000000000001</ele><time>2026-03-23T11:36:34.654Z</time></trkpt><trkpt lat="40.784132" lon="-3.7209337"><ele>929.0</ele><time>2026-03-23T11:36:35.652Z</time></trkpt><trkpt lat="40.7841033" lon="-3.7210346"><ele>929.0</ele><time>2026-03-23T11:36:36.654Z</time></trkpt><trkpt lat="40.7840738" lon="-3.7211498"><ele>929.0</ele><time>2026-03-23T11:36:37.677Z</time></trkpt><trkpt lat="40.7840364" lon="-3.7212587"><ele>929.0000000000001</ele><time>2026-03-23T11:36:38.669Z</time></trkpt><trkpt lat="40.7840014" lon="-3.721372"><ele>929.0</ele><time>2026-03-23T11:36:39.671Z</time></trkpt><trkpt lat="40.7839728" lon="-3.72148"><ele>929.1666666666667</ele><time>2026-03-23T11:36:40.668Z</time></trkpt><trkpt lat="40.7839361" lon="-3.7215768"><ele>929.3333333333334</ele><time>2026-03-23T11:36:41.679Z</time></trkpt><trkpt lat="40.7839004" lon="-3.7216631"><ele>929.5</ele><time>2026-03-23T11:36:42.673Z</time></trkpt><trkpt lat="40.7838411" lon="-3.7217487"><ele>929.6666666666667</ele><time>2026-03-23T11:36:43.67Z</time></trkpt><trkpt lat="40.7837843" lon="-3.7218308"><ele>929.8333333333334</ele><time>2026-03-23T11:36:44.669Z</time></trkpt><trkpt lat="40.7837227" lon="-3.7219175"><ele>930.0</ele><time>2026-03-23T11:36:45.673Z</time></trkpt><trkpt lat="40.7836638" lon="-3.722008"><ele>929.5</ele><time>2026-03-23T11:36:46.677Z</time></trkpt><trkpt lat="40.7836045" lon="-3.7220894"><ele>929.0</ele><time>2026-03-23T11:36:47.663Z</time></trkpt><trkpt lat="40.7835442" lon="-3.7221576"><ele>928.5</ele><time>2026-03-23T11:36:48.679Z</time></trkpt><trkpt lat="40.7834883" lon="-3.7222263"><ele>928.0</ele><time>2026-03-23T11:36:49.676Z</time></trkpt><trkpt lat="40.7834285" lon="-3.7222763"><ele>927.5</ele><time>2026-03-23T11:36:50.668Z</time></trkpt><trkpt lat="40.7833699" lon="-3.7223076"><ele>927.0</ele><time>2026-03-23T11:36:51.652Z</time></trkpt><trkpt lat="40.7832506" lon="-3.7223525"><ele>927.0</ele><time>2026-03-23T11:36:53.671Z</time></trkpt><trkpt lat="40.7831376" lon="-3.7223864"><ele>927.0</ele><time>2026-03-23T11:36:55.675Z</time></trkpt><trkpt lat="40.7830273" lon="-3.7224224"><ele>927.0</ele><time>2026-03-23T11:36:57.661Z</time></trkpt><trkpt lat="40.7829239" lon="-3.7224467"><ele>927.0</ele><time>2026-03-23T11:36:59.67Z</time></trkpt><trkpt lat="40.7828331" lon="-3.7224847"><ele>927.0</ele><time>2026-03-23T11:37:01.663Z</time></trkpt><trkpt lat="40.7827342" lon="-3.7225563"><ele>926.9999999999999</ele><time>2026-03-23T11:37:03.668Z</time></trkpt><trkpt lat="40.7826869" lon="-3.7226271"><ele>927.0</ele><time>2026-03-23T11:37:04.67Z</time></trkpt><trkpt lat="40.7826359" lon="-3.7227021"><ele>926.9999999999999</ele><time>2026-03-23T11:37:05.666Z</time></trkpt><trkpt lat="40.7825824" lon="-3.7227683"><ele>926.9999999999999</ele><time>2026-03-23T11:37:06.667Z</time></trkpt><trkpt lat="40.7825281" lon="-3.722836"><ele>927.0</ele><time>2026-03-23T11:37:07.667Z</time></trkpt><trkpt lat="40.7824722" lon="-3.7228997"><ele>926.9999999999999</ele><time>2026-03-23T11:37:08.668Z</time></trkpt><trkpt lat="40.7824207" lon="-3.7229672"><ele>926.9999999999999</ele><time>2026-03-23T11:37:09.658Z</time></trkpt><trkpt lat="40.7823771" lon="-3.7230354"><ele>925.8</ele><time>2026-03-23T11:37:10.662Z</time></trkpt><trkpt lat="40.7823245" lon="-3.7231001"><ele>924.6</ele><time>2026-03-23T11:37:11.656Z</time></trkpt><trkpt lat="40.782259" lon="-3.7232053"><ele>923.3999999999999</ele><time>2026-03-23T11:37:13.665Z</time></trkpt><trkpt lat="40.7822122" lon="-3.7233194"><ele>922.1999999999999</ele><time>2026-03-23T11:37:15.658Z</time></trkpt><trkpt lat="40.7821477" lon="-3.7234571"><ele>921.0</ele><time>2026-03-23T11:37:17.666Z</time></trkpt><trkpt lat="40.7821153" lon="-3.7235467"><ele>921.4</ele><time>2026-03-23T11:37:18.664Z</time></trkpt><trkpt lat="40.7820763" lon="-3.723636"><ele>921.8</ele><time>2026-03-23T11:37:19.664Z</time></trkpt><trkpt lat="40.7820319" lon="-3.7237464"><ele>922.1999999999999</ele><time>2026-03-23T11:37:20.675Z</time></trkpt><trkpt lat="40.7819827" lon="-3.7238521"><ele>922.5999999999999</ele><time>2026-03-23T11:37:21.651Z</time></trkpt><trkpt lat="40.7819403" lon="-3.7239632"><ele>923.0</ele><time>2026-03-23T11:37:22.665Z</time></trkpt><trkpt lat="40.781901" lon="-3.7240774"><ele>923.0000000000001</ele><time>2026-03-23T11:37:23.665Z</time></trkpt><trkpt lat="40.7818511" lon="-3.7241858"><ele>923.0</ele><time>2026-03-23T11:37:24.673Z</time></trkpt><trkpt lat="40.7818026" lon="-3.7242856"><ele>923.0</ele><time>2026-03-23T11:37:25.668Z</time></trkpt><trkpt lat="40.7817617" lon="-3.7243709"><ele>923.0</ele><time>2026-03-23T11:37:26.644Z</time></trkpt><trkpt lat="40.7817253" lon="-3.724457"><ele>923.0000000000001</ele><time>2026-03-23T11:37:27.654Z</time></trkpt><trkpt lat="40.7816854" lon="-3.7245499"><ele>923.0</ele><time>2026-03-23T11:37:28.662Z</time></trkpt><trkpt lat="40.7816435" lon="-3.7246423"><ele>924.8333333333334</ele><time>2026-03-23T11:37:29.661Z</time></trkpt><trkpt lat="40.7816064" lon="-3.7247405"><ele>926.6666666666667</ele><time>2026-03-23T11:37:30.661Z</time></trkpt><trkpt lat="40.7815652" lon="-3.7248355"><ele>928.5</ele><time>2026-03-23T11:37:31.666Z</time></trkpt><trkpt lat="40.7815113" lon="-3.7249272"><ele>930.3333333333333</ele><time>2026-03-23T11:37:32.654Z</time></trkpt><trkpt lat="40.7814541" lon="-3.7250092"><ele>932.1666666666666</ele><time>2026-03-23T11:37:33.656Z</time></trkpt><trkpt lat="40.7814182" lon="-3.7250873"><ele>934.0</ele><time>2026-03-23T11:37:34.661Z</time></trkpt><trkpt lat="40.7813898" lon="-3.7251664"><ele>934.9999999999999</ele><time>2026-03-23T11:37:35.68Z</time></trkpt><trkpt lat="40.781356" lon="-3.725245"><ele>936.0</ele><time>2026-03-23T11:37:36.669Z</time></trkpt><trkpt lat="40.781319" lon="-3.7253284"><ele>937.0</ele><time>2026-03-23T11:37:37.683Z</time></trkpt><trkpt lat="40.7812778" lon="-3.7254198"><ele>938.0</ele><time>2026-03-23T11:37:38.672Z</time></trkpt><trkpt lat="40.781244" lon="-3.7255152"><ele>938.9999999999999</ele><time>2026-03-23T11:37:39.672Z</time></trkpt><trkpt lat="40.7812103" lon="-3.7256125"><ele>940.0</ele><time>2026-03-23T11:37:40.674Z</time></trkpt><trkpt lat="40.7811774" lon="-3.7257017"><ele>939.9999999999999</ele><time>2026-03-23T11:37:41.666Z</time></trkpt><trkpt lat="40.7811376" lon="-3.7257882"><ele>940.0</ele><time>2026-03-23T11:37:42.678Z</time></trkpt><trkpt lat="40.7810952" lon="-3.7258804"><ele>940.0</ele><time>2026-03-23T11:37:43.667Z</time></trkpt><trkpt lat="40.7810569" lon="-3.7259795"><ele>940.0</ele><time>2026-03-23T11:37:44.666Z</time></trkpt><trkpt lat="40.7810222" lon="-3.7260665"><ele>939.9999999999999</ele><time>2026-03-23T11:37:45.666Z</time></trkpt><trkpt lat="40.7809877" lon="-3.7261497"><ele>940.0</ele><time>2026-03-23T11:37:46.669Z</time></trkpt><trkpt lat="40.7809521" lon="-3.7262254"><ele>940.4999999999999</ele><time>2026-03-23T11:37:47.665Z</time></trkpt><trkpt lat="40.78091" lon="-3.726335"><ele>941.0</ele><time>2026-03-23T11:37:49.655Z</time></trkpt><trkpt lat="40.7808682" lon="-3.7263984"><ele>941.5</ele><time>2026-03-23T11:37:51.663Z</time></trkpt><trkpt lat="40.78082" lon="-3.7265131"><ele>942.0</ele><time>2026-03-23T11:37:53.664Z</time></trkpt><trkpt lat="40.7807897" lon="-3.7265952"><ele>942.4999999999999</ele><time>2026-03-23T11:37:54.674Z</time></trkpt><trkpt lat="40.7807509" lon="-3.7266859"><ele>943.0</ele><time>2026-03-23T11:37:55.67Z</time></trkpt><trkpt lat="40.7807153" lon="-3.726773"><ele>942.9999999999999</ele><time>2026-03-23T11:37:56.676Z</time></trkpt><trkpt lat="40.7806812" lon="-3.7268521"><ele>943.0</ele><time>2026-03-23T11:37:57.654Z</time></trkpt><trkpt lat="40.7806104" lon="-3.7270008"><ele>943.0</ele><time>2026-03-23T11:37:59.674Z</time></trkpt><trkpt lat="40.7805702" lon="-3.727089"><ele>943.0</ele><time>2026-03-23T11:38:00.673Z</time></trkpt><trkpt lat="40.7805209" lon="-3.7271655"><ele>942.9999999999999</ele><time>2026-03-23T11:38:01.663Z</time></trkpt><trkpt lat="40.7804697" lon="-3.7272333"><ele>943.0</ele><time>2026-03-23T11:38:02.677Z</time></trkpt><trkpt lat="40.7804222" lon="-3.7272977"><ele>943.2857142857143</ele><time>2026-03-23T11:38:03.659Z</time></trkpt><trkpt lat="40.7803721" lon="-3.7273613"><ele>943.5714285714287</ele><time>2026-03-23T11:38:04.652Z</time></trkpt><trkpt lat="40.7803164" lon="-3.7274172"><ele>943.8571428571429</ele><time>2026-03-23T11:38:05.682Z</time></trkpt><trkpt lat="40.7802571" lon="-3.72747"><ele>944.1428571428571</ele><time>2026-03-23T11:38:06.655Z</time></trkpt><trkpt lat="40.7801911" lon="-3.7275279"><ele>944.4285714285714</ele><time>2026-03-23T11:38:07.66Z</time></trkpt><trkpt lat="40.7801259" lon="-3.7275862"><ele>944.7142857142858</ele><time>2026-03-23T11:38:08.647Z</time></trkpt><trkpt lat="40.7800563" lon="-3.7276357"><ele>945.0</ele><time>2026-03-23T11:38:09.675Z</time></trkpt><trkpt lat="40.7799801" lon="-3.7276832"><ele>946.0</ele><time>2026-03-23T11:38:10.674Z</time></trkpt><trkpt lat="40.7799099" lon="-3.7277332"><ele>947.0</ele><time>2026-03-23T11:38:11.67Z</time></trkpt><trkpt lat="40.7798382" lon="-3.7277859"><ele>948.0</ele><time>2026-03-23T11:38:12.666Z</time></trkpt><trkpt lat="40.7797667" lon="-3.7278412"><ele>949.0</ele><time>2026-03-23T11:38:13.665Z</time></trkpt><trkpt lat="40.7796972" lon="-3.7279003"><ele>950.0</ele><time>2026-03-23T11:38:14.675Z</time></trkpt><trkpt lat="40.7796322" lon="-3.7279757"><ele>951.0</ele><time>2026-03-23T11:38:15.672Z</time></trkpt><trkpt lat="40.7795694" lon="-3.7280657"><ele>951.0</ele><time>2026-03-23T11:38:16.669Z</time></trkpt><trkpt lat="40.779503" lon="-3.7281652"><ele>950.9999999999999</ele><time>2026-03-23T11:38:17.676Z</time></trkpt><trkpt lat="40.7794494" lon="-3.7282686"><ele>950.9999999999999</ele><time>2026-03-23T11:38:18.672Z</time></trkpt><trkpt lat="40.7794045" lon="-3.7283842"><ele>951.0</ele><time>2026-03-23T11:38:19.671Z</time></trkpt><trkpt lat="40.7793553" lon="-3.7284922"><ele>951.0</ele><time>2026-03-23T11:38:20.672Z</time></trkpt><trkpt lat="40.7793099" lon="-3.7286042"><ele>952.1666666666666</ele><time>2026-03-23T11:38:21.665Z</time></trkpt><trkpt lat="40.7792647" lon="-3.7287111"><ele>953.3333333333333</ele><time>2026-03-23T11:38:22.67Z</time></trkpt><trkpt lat="40.7792156" lon="-3.7288216"><ele>954.5</ele><time>2026-03-23T11:38:23.666Z</time></trkpt><trkpt lat="40.7791591" lon="-3.728913"><ele>955.6666666666666</ele><time>2026-03-23T11:38:24.669Z</time></trkpt><trkpt lat="40.7791061" lon="-3.728996"><ele>956.8333333333333</ele><time>2026-03-23T11:38:25.665Z</time></trkpt><trkpt lat="40.7790658" lon="-3.7290797"><ele>958.0</ele><time>2026-03-23T11:38:26.675Z</time></trkpt><trkpt lat="40.779031" lon="-3.7291782"><ele>957.9999999999999</ele><time>2026-03-23T11:38:27.674Z</time></trkpt><trkpt lat="40.7790031" lon="-3.7292951"><ele>958.0</ele><time>2026-03-23T11:38:28.679Z</time></trkpt><trkpt lat="40.7789638" lon="-3.7293957"><ele>958.0</ele><time>2026-03-23T11:38:29.674Z</time></trkpt><trkpt lat="40.7789206" lon="-3.7294882"><ele>958.0</ele><time>2026-03-23T11:38:30.663Z</time></trkpt><trkpt lat="40.7788757" lon="-3.7295807"><ele>957.9999999999999</ele><time>2026-03-23T11:38:31.666Z</time></trkpt><trkpt lat="40.7788309" lon="-3.7296756"><ele>958.0</ele><time>2026-03-23T11:38:32.684Z</time></trkpt><trkpt lat="40.7787868" lon="-3.7297751"><ele>957.8333333333333</ele><time>2026-03-23T11:38:33.663Z</time></trkpt><trkpt lat="40.7787516" lon="-3.7298701"><ele>957.6666666666666</ele><time>2026-03-23T11:38:34.67Z</time></trkpt><trkpt lat="40.7787161" lon="-3.7299767"><ele>957.5</ele><time>2026-03-23T11:38:35.668Z</time></trkpt><trkpt lat="40.7786819" lon="-3.7300809"><ele>957.3333333333333</ele><time>2026-03-23T11:38:36.674Z</time></trkpt><trkpt lat="40.7786489" lon="-3.7301936"><ele>957.1666666666666</ele><time>2026-03-23T11:38:37.679Z</time></trkpt><trkpt lat="40.778614" lon="-3.7303086"><ele>957.0</ele><time>2026-03-23T11:38:38.665Z</time></trkpt><trkpt lat="40.7785851" lon="-3.7304233"><ele>957.4000000000001</ele><time>2026-03-23T11:38:39.671Z</time></trkpt><trkpt lat="40.7785538" lon="-3.7305257"><ele>957.8000000000001</ele><time>2026-03-23T11:38:40.669Z</time></trkpt><trkpt lat="40.7784966" lon="-3.7306189"><ele>958.2</ele><time>2026-03-23T11:38:41.662Z</time></trkpt><trkpt lat="40.7784219" lon="-3.7307059"><ele>958.6</ele><time>2026-03-23T11:38:42.641Z</time></trkpt><trkpt lat="40.7783401" lon="-3.7307967"><ele>959.0</ele><time>2026-03-23T11:38:43.642Z</time></trkpt><trkpt lat="40.778254" lon="-3.7308959"><ele>959.0</ele><time>2026-03-23T11:38:44.642Z</time></trkpt><trkpt lat="40.7781577" lon="-3.7310019"><ele>959.0</ele><time>2026-03-23T11:38:45.64Z</time></trkpt><trkpt lat="40.7780562" lon="-3.7311117"><ele>959.0</ele><time>2026-03-23T11:38:46.652Z</time></trkpt><trkpt lat="40.777955" lon="-3.7312255"><ele>959.0</ele><time>2026-03-23T11:38:47.656Z</time></trkpt><trkpt lat="40.7778646" lon="-3.7313251"><ele>958.6</ele><time>2026-03-23T11:38:48.656Z</time></trkpt><trkpt lat="40.7777865" lon="-3.7314217"><ele>958.2</ele><time>2026-03-23T11:38:49.659Z</time></trkpt><trkpt lat="40.7777235" lon="-3.7315108"><ele>957.8000000000001</ele><time>2026-03-23T11:38:50.652Z</time></trkpt><trkpt lat="40.777679" lon="-3.7316208"><ele>957.4000000000001</ele><time>2026-03-23T11:38:51.652Z</time></trkpt><trkpt lat="40.7776307" lon="-3.7317307"><ele>957.0</ele><time>2026-03-23T11:38:52.661Z</time></trkpt><trkpt lat="40.7775809" lon="-3.731854"><ele>958.0</ele><time>2026-03-23T11:38:53.672Z</time></trkpt><trkpt lat="40.7775289" lon="-3.731985"><ele>959.0</ele><time>2026-03-23T11:38:54.67Z</time></trkpt><trkpt lat="40.7774724" lon="-3.7321211"><ele>960.0</ele><time>2026-03-23T11:38:55.666Z</time></trkpt><trkpt lat="40.7774123" lon="-3.7322638"><ele>961.0</ele><time>2026-03-23T11:38:56.663Z</time></trkpt><trkpt lat="40.7773548" lon="-3.7323985"><ele>961.0</ele><time>2026-03-23T11:38:57.664Z</time></trkpt><trkpt lat="40.7772955" lon="-3.7325277"><ele>961.0</ele><time>2026-03-23T11:38:58.656Z</time></trkpt><trkpt lat="40.777233" lon="-3.7326661"><ele>961.0</ele><time>2026-03-23T11:38:59.663Z</time></trkpt><trkpt lat="40.7771693" lon="-3.7327989"><ele>961.0</ele><time>2026-03-23T11:39:00.671Z</time></trkpt><trkpt lat="40.7771106" lon="-3.732923"><ele>961.5999999999999</ele><time>2026-03-23T11:39:01.679Z</time></trkpt><trkpt lat="40.7770582" lon="-3.7330374"><ele>962.1999999999999</ele><time>2026-03-23T11:39:02.678Z</time></trkpt><trkpt lat="40.7770054" lon="-3.7331601"><ele>962.8000000000001</ele><time>2026-03-23T11:39:03.682Z</time></trkpt><trkpt lat="40.7769589" lon="-3.7332667"><ele>963.4000000000001</ele><time>2026-03-23T11:39:04.676Z</time></trkpt><trkpt lat="40.7769027" lon="-3.7333518"><ele>964.0</ele><time>2026-03-23T11:39:05.67Z</time></trkpt><trkpt lat="40.7768407" lon="-3.733428"><ele>964.0</ele><time>2026-03-23T11:39:06.669Z</time></trkpt><trkpt lat="40.7767781" lon="-3.7334894"><ele>964.0000000000001</ele><time>2026-03-23T11:39:07.674Z</time></trkpt><trkpt lat="40.7767028" lon="-3.7335551"><ele>964.0000000000001</ele><time>2026-03-23T11:39:08.687Z</time></trkpt><trkpt lat="40.7766121" lon="-3.7336182"><ele>964.0</ele><time>2026-03-23T11:39:09.683Z</time></trkpt><trkpt lat="40.7765111" lon="-3.7336751"><ele>964.0</ele><time>2026-03-23T11:39:10.67Z</time></trkpt><trkpt lat="40.7764083" lon="-3.7337271"><ele>963.5</ele><time>2026-03-23T11:39:11.67Z</time></trkpt><trkpt lat="40.7762994" lon="-3.7337749"><ele>963.0</ele><time>2026-03-23T11:39:12.674Z</time></trkpt><trkpt lat="40.7761875" lon="-3.7338134"><ele>962.5</ele><time>2026-03-23T11:39:13.678Z</time></trkpt><trkpt lat="40.7760739" lon="-3.7338494"><ele>962.0</ele><time>2026-03-23T11:39:14.663Z</time></trkpt><trkpt lat="40.7759635" lon="-3.7338989"><ele>963.2</ele><time>2026-03-23T11:39:15.66Z</time></trkpt><trkpt lat="40.7758589" lon="-3.73397"><ele>964.4000000000001</ele><time>2026-03-23T11:39:16.674Z</time></trkpt><trkpt lat="40.7757629" lon="-3.734053"><ele>965.5999999999999</ele><time>2026-03-23T11:39:17.679Z</time></trkpt><trkpt lat="40.7756703" lon="-3.7341229"><ele>966.8</ele><time>2026-03-23T11:39:18.672Z</time></trkpt><trkpt lat="40.7755759" lon="-3.7341916"><ele>968.0</ele><time>2026-03-23T11:39:19.673Z</time></trkpt><trkpt lat="40.7754863" lon="-3.7342482"><ele>968.0</ele><time>2026-03-23T11:39:20.651Z</time></trkpt><trkpt lat="40.775396" lon="-3.7343094"><ele>968.0</ele><time>2026-03-23T11:39:21.675Z</time></trkpt><trkpt lat="40.7753132" lon="-3.7343826"><ele>968.0</ele><time>2026-03-23T11:39:22.664Z</time></trkpt><trkpt lat="40.7752281" lon="-3.7344738"><ele>968.0</ele><time>2026-03-23T11:39:23.671Z</time></trkpt><trkpt lat="40.7751467" lon="-3.7345795"><ele>968.0</ele><time>2026-03-23T11:39:24.669Z</time></trkpt><trkpt lat="40.7750746" lon="-3.7346878"><ele>967.75</ele><time>2026-03-23T11:39:25.67Z</time></trkpt><trkpt lat="40.775004" lon="-3.7348098"><ele>967.5</ele><time>2026-03-23T11:39:26.669Z</time></trkpt><trkpt lat="40.7749488" lon="-3.7349406"><ele>967.25</ele><time>2026-03-23T11:39:27.663Z</time></trkpt><trkpt lat="40.774908" lon="-3.7350885"><ele>967.0</ele><time>2026-03-23T11:39:28.677Z</time></trkpt><trkpt lat="40.7748781" lon="-3.7352449"><ele>967.8</ele><time>2026-03-23T11:39:29.679Z</time></trkpt><trkpt lat="40.774849" lon="-3.7354"><ele>968.6</ele><time>2026-03-23T11:39:30.676Z</time></trkpt><trkpt lat="40.7748132" lon="-3.7355355"><ele>969.3999999999999</ele><time>2026-03-23T11:39:31.668Z</time></trkpt><trkpt lat="40.7747697" lon="-3.7356583"><ele>970.1999999999999</ele><time>2026-03-23T11:39:32.681Z</time></trkpt><trkpt lat="40.7747213" lon="-3.7357761"><ele>971.0</ele><time>2026-03-23T11:39:33.661Z</time></trkpt><trkpt lat="40.774668" lon="-3.7358826"><ele>971.0</ele><time>2026-03-23T11:39:34.676Z</time></trkpt><trkpt lat="40.7746162" lon="-3.7360016"><ele>970.9999999999999</ele><time>2026-03-23T11:39:35.684Z</time></trkpt><trkpt lat="40.7745716" lon="-3.7361284"><ele>970.9999999999999</ele><time>2026-03-23T11:39:36.67Z</time></trkpt><trkpt lat="40.7745317" lon="-3.7362492"><ele>971.0</ele><time>2026-03-23T11:39:37.677Z</time></trkpt><trkpt lat="40.7745002" lon="-3.7363653"><ele>971.0</ele><time>2026-03-23T11:39:38.673Z</time></trkpt><trkpt lat="40.7744687" lon="-3.7364806"><ele>972.0</ele><time>2026-03-23T11:39:39.665Z</time></trkpt><trkpt lat="40.7744472" lon="-3.7366074"><ele>972.9999999999999</ele><time>2026-03-23T11:39:40.672Z</time></trkpt><trkpt lat="40.7744348" lon="-3.7367434"><ele>973.9999999999999</ele><time>2026-03-23T11:39:41.677Z</time></trkpt><trkpt lat="40.7744212" lon="-3.7368717"><ele>975.0</ele><time>2026-03-23T11:39:42.676Z</time></trkpt><trkpt lat="40.7744035" lon="-3.7369771"><ele>976.0</ele><time>2026-03-23T11:39:43.65Z</time></trkpt><trkpt lat="40.7743737" lon="-3.7370585"><ele>977.5999999999999</ele><time>2026-03-23T11:39:44.66Z</time></trkpt><trkpt lat="40.7743268" lon="-3.7371372"><ele>979.1999999999999</ele><time>2026-03-23T11:39:45.655Z</time></trkpt><trkpt lat="40.7742744" lon="-3.7372179"><ele>980.8000000000001</ele><time>2026-03-23T11:39:46.659Z</time></trkpt><trkpt lat="40.7742186" lon="-3.7373156"><ele>982.4000000000001</ele><time>2026-03-23T11:39:47.669Z</time></trkpt><trkpt lat="40.774163" lon="-3.7374291"><ele>984.0</ele><time>2026-03-23T11:39:48.663Z</time></trkpt><trkpt lat="40.774108" lon="-3.7375569"><ele>984.0</ele><time>2026-03-23T11:39:49.661Z</time></trkpt><trkpt lat="40.7740564" lon="-3.737684"><ele>984.0000000000001</ele><time>2026-03-23T11:39:50.652Z</time></trkpt><trkpt lat="40.7740045" lon="-3.7378062"><ele>984.0000000000001</ele><time>2026-03-23T11:39:51.67Z</time></trkpt><trkpt lat="40.7739538" lon="-3.7379397"><ele>984.0</ele><time>2026-03-23T11:39:52.675Z</time></trkpt><trkpt lat="40.7738954" lon="-3.7380725"><ele>984.0</ele><time>2026-03-23T11:39:53.668Z</time></trkpt><trkpt lat="40.773842" lon="-3.7381991"><ele>984.3333333333334</ele><time>2026-03-23T11:39:54.654Z</time></trkpt><trkpt lat="40.7737927" lon="-3.7383206"><ele>984.6666666666667</ele><time>2026-03-23T11:39:55.666Z</time></trkpt><trkpt lat="40.7737474" lon="-3.738432"><ele>985.0</ele><time>2026-03-23T11:39:56.658Z</time></trkpt><trkpt lat="40.7737086" lon="-3.7385317"><ele>985.3333333333334</ele><time>2026-03-23T11:39:57.663Z</time></trkpt><trkpt lat="40.773676" lon="-3.7386283"><ele>985.6666666666667</ele><time>2026-03-23T11:39:58.659Z</time></trkpt><trkpt lat="40.7736491" lon="-3.7387152"><ele>986.0</ele><time>2026-03-23T11:39:59.675Z</time></trkpt><trkpt lat="40.7736547" lon="-3.7388751"><ele>986.1666666666667</ele><time>2026-03-23T11:40:01.673Z</time></trkpt><trkpt lat="40.7736811" lon="-3.7389596"><ele>986.3333333333334</ele><time>2026-03-23T11:40:02.676Z</time></trkpt><trkpt lat="40.7737249" lon="-3.7390491"><ele>986.5</ele><time>2026-03-23T11:40:03.669Z</time></trkpt><trkpt lat="40.7737685" lon="-3.7391225"><ele>986.6666666666667</ele><time>2026-03-23T11:40:04.664Z</time></trkpt><trkpt lat="40.7738202" lon="-3.7392077"><ele>986.8333333333334</ele><time>2026-03-23T11:40:05.674Z</time></trkpt><trkpt lat="40.7738729" lon="-3.7393025"><ele>987.0</ele><time>2026-03-23T11:40:06.669Z</time></trkpt><trkpt lat="40.7739205" lon="-3.7393986"><ele>987.8</ele><time>2026-03-23T11:40:07.668Z</time></trkpt><trkpt lat="40.7739622" lon="-3.7394863"><ele>988.6</ele><time>2026-03-23T11:40:08.678Z</time></trkpt><trkpt lat="40.7740165" lon="-3.7395602"><ele>989.3999999999999</ele><time>2026-03-23T11:40:09.685Z</time></trkpt><trkpt lat="40.774073" lon="-3.7396073"><ele>990.1999999999999</ele><time>2026-03-23T11:40:10.677Z</time></trkpt><trkpt lat="40.7741876" lon="-3.7396566"><ele>991.0</ele><time>2026-03-23T11:40:12.68Z</time></trkpt><trkpt lat="40.7742766" lon="-3.7397587"><ele>990.9999999999999</ele><time>2026-03-23T11:40:14.668Z</time></trkpt><trkpt lat="40.7743097" lon="-3.739906"><ele>991.0</ele><time>2026-03-23T11:40:16.674Z</time></trkpt><trkpt lat="40.7743557" lon="-3.7400407"><ele>991.0</ele><time>2026-03-23T11:40:18.674Z</time></trkpt><trkpt lat="40.7744072" lon="-3.7401046"><ele>991.0</ele><time>2026-03-23T11:40:19.683Z</time></trkpt><trkpt lat="40.7744547" lon="-3.7401741"><ele>990.9999999999999</ele><time>2026-03-23T11:40:20.674Z</time></trkpt><trkpt lat="40.774503" lon="-3.7402532"><ele>991.0</ele><time>2026-03-23T11:40:21.681Z</time></trkpt><trkpt lat="40.774537" lon="-3.7403303"><ele>991.8</ele><time>2026-03-23T11:40:22.674Z</time></trkpt><trkpt lat="40.7745755" lon="-3.7404154"><ele>992.5999999999999</ele><time>2026-03-23T11:40:23.684Z</time></trkpt><trkpt lat="40.7746162" lon="-3.7404819"><ele>993.4</ele><time>2026-03-23T11:40:24.672Z</time></trkpt><trkpt lat="40.7746915" lon="-3.7405829"><ele>994.2</ele><time>2026-03-23T11:40:26.674Z</time></trkpt><trkpt lat="40.774766" lon="-3.7407046"><ele>995.0</ele><time>2026-03-23T11:40:28.686Z</time></trkpt><trkpt lat="40.7748254" lon="-3.7408445"><ele>995.0000000000001</ele><time>2026-03-23T11:40:30.683Z</time></trkpt><trkpt lat="40.7748542" lon="-3.7409279"><ele>995.0</ele><time>2026-03-23T11:40:31.658Z</time></trkpt><trkpt lat="40.7748875" lon="-3.7410022"><ele>995.0</ele><time>2026-03-23T11:40:32.678Z</time></trkpt><trkpt lat="40.7749544" lon="-3.7411079"><ele>995.0</ele><time>2026-03-23T11:40:34.675Z</time></trkpt><trkpt lat="40.7750324" lon="-3.7412225"><ele>995.0000000000001</ele><time>2026-03-23T11:40:36.671Z</time></trkpt><trkpt lat="40.775089" lon="-3.7412942"><ele>995.0</ele><time>2026-03-23T11:40:37.672Z</time></trkpt><trkpt lat="40.7751465" lon="-3.7413722"><ele>994.2857142857143</ele><time>2026-03-23T11:40:38.67Z</time></trkpt><trkpt lat="40.775206" lon="-3.7414533"><ele>993.5714285714284</ele><time>2026-03-23T11:40:39.654Z</time></trkpt><trkpt lat="40.7752608" lon="-3.7415222"><ele>992.8571428571428</ele><time>2026-03-23T11:40:40.667Z</time></trkpt><trkpt lat="40.7753191" lon="-3.7415812"><ele>992.1428571428571</ele><time>2026-03-23T11:40:41.657Z</time></trkpt><trkpt lat="40.775369" lon="-3.7416392"><ele>991.4285714285713</ele><time>2026-03-23T11:40:42.665Z</time></trkpt><trkpt lat="40.7754271" lon="-3.7416956"><ele>990.7142857142856</ele><time>2026-03-23T11:40:43.674Z</time></trkpt><trkpt lat="40.7754807" lon="-3.7417529"><ele>989.9999999999999</ele><time>2026-03-23T11:40:44.662Z</time></trkpt><trkpt lat="40.7755394" lon="-3.7418199"><ele>990.5</ele><time>2026-03-23T11:40:45.666Z</time></trkpt><trkpt lat="40.7755928" lon="-3.7418912"><ele>991.0</ele><time>2026-03-23T11:40:46.661Z</time></trkpt><trkpt lat="40.7756431" lon="-3.7419575"><ele>991.5</ele><time>2026-03-23T11:40:47.672Z</time></trkpt><trkpt lat="40.7756976" lon="-3.7420117"><ele>992.0</ele><time>2026-03-23T11:40:48.654Z</time></trkpt><trkpt lat="40.7757494" lon="-3.7420699"><ele>992.5</ele><time>2026-03-23T11:40:49.663Z</time></trkpt><trkpt lat="40.7758415" lon="-3.7421477"><ele>993.0</ele><time>2026-03-23T11:40:51.666Z</time></trkpt><trkpt lat="40.7759405" lon="-3.7421563"><ele>992.4</ele><time>2026-03-23T11:40:53.662Z</time></trkpt><trkpt lat="40.7760674" lon="-3.742208"><ele>991.8</ele><time>2026-03-23T11:40:55.666Z</time></trkpt><trkpt lat="40.7761408" lon="-3.742232"><ele>991.2</ele><time>2026-03-23T11:40:56.669Z</time></trkpt><trkpt lat="40.7762149" lon="-3.7422585"><ele>990.6</ele><time>2026-03-23T11:40:57.663Z</time></trkpt><trkpt lat="40.7763239" lon="-3.7422813"><ele>990.0</ele><time>2026-03-23T11:40:59.667Z</time></trkpt><trkpt lat="40.7764238" lon="-3.7423133"><ele>990.0</ele><time>2026-03-23T11:41:01.659Z</time></trkpt><trkpt lat="40.7765293" lon="-3.7423809"><ele>990.0</ele><time>2026-03-23T11:41:03.659Z</time></trkpt><trkpt lat="40.776629" lon="-3.7424945"><ele>990.0</ele><time>2026-03-23T11:41:05.663Z</time></trkpt><trkpt lat="40.7766891" lon="-3.7425423"><ele>990.0</ele><time>2026-03-23T11:41:06.671Z</time></trkpt><trkpt lat="40.7768028" lon="-3.7426012"><ele>990.0</ele><time>2026-03-23T11:41:08.668Z</time></trkpt><trkpt lat="40.7768668" lon="-3.7426229"><ele>989.1666666666666</ele><time>2026-03-23T11:41:09.67Z</time></trkpt><trkpt lat="40.776936" lon="-3.7426398"><ele>988.3333333333333</ele><time>2026-03-23T11:41:10.678Z</time></trkpt><trkpt lat="40.7769982" lon="-3.7426623"><ele>987.5</ele><time>2026-03-23T11:41:11.668Z</time></trkpt><trkpt lat="40.777066" lon="-3.7426871"><ele>986.6666666666666</ele><time>2026-03-23T11:41:12.666Z</time></trkpt><trkpt lat="40.7771285" lon="-3.742707"><ele>985.8333333333333</ele><time>2026-03-23T11:41:13.671Z</time></trkpt><trkpt lat="40.777221" lon="-3.742748"><ele>985.0</ele><time>2026-03-23T11:41:15.669Z</time></trkpt><trkpt lat="40.7772884" lon="-3.7428579"><ele>984.8</ele><time>2026-03-23T11:41:17.673Z</time></trkpt><trkpt lat="40.7773823" lon="-3.7429747"><ele>984.6</ele><time>2026-03-23T11:41:19.663Z</time></trkpt><trkpt lat="40.7774447" lon="-3.7430218"><ele>984.4000000000001</ele><time>2026-03-23T11:41:20.672Z</time></trkpt><trkpt lat="40.7775072" lon="-3.7430752"><ele>984.2</ele><time>2026-03-23T11:41:21.668Z</time></trkpt><trkpt lat="40.7775791" lon="-3.7431886"><ele>984.0</ele><time>2026-03-23T11:41:23.654Z</time></trkpt><trkpt lat="40.777633" lon="-3.7432884"><ele>982.6</ele><time>2026-03-23T11:41:25.64Z</time></trkpt><trkpt lat="40.7777125" lon="-3.7434155"><ele>981.2</ele><time>2026-03-23T11:41:27.642Z</time></trkpt><trkpt lat="40.7777633" lon="-3.7434687"><ele>979.8000000000001</ele><time>2026-03-23T11:41:28.65Z</time></trkpt><trkpt lat="40.7778439" lon="-3.743577"><ele>978.4000000000001</ele><time>2026-03-23T11:41:30.658Z</time></trkpt><trkpt lat="40.7779428" lon="-3.7436906"><ele>977.0</ele><time>2026-03-23T11:41:32.669Z</time></trkpt><trkpt lat="40.7779898" lon="-3.7437526"><ele>977.0</ele><time>2026-03-23T11:41:33.651Z</time></trkpt><trkpt lat="40.7780274" lon="-3.7438211"><ele>977.0</ele><time>2026-03-23T11:41:34.663Z</time></trkpt><trkpt lat="40.7780492" lon="-3.7439346"><ele>977.0</ele><time>2026-03-23T11:41:36.663Z</time></trkpt><trkpt lat="40.7780168" lon="-3.7440552"><ele>977.0</ele><time>2026-03-23T11:41:38.674Z</time></trkpt><trkpt lat="40.77793" lon="-3.7441483"><ele>977.0</ele><time>2026-03-23T11:41:40.667Z</time></trkpt><trkpt lat="40.7778477" lon="-3.7442382"><ele>977.0</ele><time>2026-03-23T11:41:42.657Z</time></trkpt><trkpt lat="40.7777872" lon="-3.7443564"><ele>977.0</ele><time>2026-03-23T11:41:44.669Z</time></trkpt><trkpt lat="40.7777253" lon="-3.7444939"><ele>977.0</ele><time>2026-03-23T11:41:46.663Z</time></trkpt><trkpt lat="40.7776334" lon="-3.7445855"><ele>977.0</ele><time>2026-03-23T11:41:48.662Z</time></trkpt><trkpt lat="40.7775666" lon="-3.7446342"><ele>977.0</ele><time>2026-03-23T11:41:49.653Z</time></trkpt><trkpt lat="40.7774981" lon="-3.744746"><ele>978.5000000000001</ele><time>2026-03-23T11:41:51.653Z</time></trkpt><trkpt lat="40.7774491" lon="-3.744863"><ele>980.0</ele><time>2026-03-23T11:41:53.651Z</time></trkpt><trkpt lat="40.7773616" lon="-3.7449671"><ele>981.5</ele><time>2026-03-23T11:41:55.66Z</time></trkpt><trkpt lat="40.7773067" lon="-3.7450147"><ele>983.0</ele><time>2026-03-23T11:41:56.674Z</time></trkpt><trkpt lat="40.7772432" lon="-3.7450623"><ele>984.5000000000001</ele><time>2026-03-23T11:41:57.668Z</time></trkpt><trkpt lat="40.7771825" lon="-3.7451117"><ele>986.0</ele><time>2026-03-23T11:41:58.665Z</time></trkpt><trkpt lat="40.7771238" lon="-3.7451601"><ele>986.0000000000001</ele><time>2026-03-23T11:41:59.654Z</time></trkpt><trkpt lat="40.7770114" lon="-3.7452056"><ele>986.0</ele><time>2026-03-23T11:42:01.659Z</time></trkpt><trkpt lat="40.7769449" lon="-3.7452045"><ele>986.0</ele><time>2026-03-23T11:42:02.647Z</time></trkpt><trkpt lat="40.7768746" lon="-3.7452146"><ele>986.0</ele><time>2026-03-23T11:42:03.664Z</time></trkpt><trkpt lat="40.7768111" lon="-3.7452332"><ele>986.0000000000001</ele><time>2026-03-23T11:42:04.665Z</time></trkpt><trkpt lat="40.7767511" lon="-3.7452693"><ele>986.0</ele><time>2026-03-23T11:42:05.68Z</time></trkpt><trkpt lat="40.7766439" lon="-3.7453277"><ele>987.6666666666667</ele><time>2026-03-23T11:42:07.671Z</time></trkpt><trkpt lat="40.7765333" lon="-3.7453842"><ele>989.3333333333334</ele><time>2026-03-23T11:42:09.674Z</time></trkpt><trkpt lat="40.7764768" lon="-3.745424"><ele>991.0</ele><time>2026-03-23T11:42:10.66Z</time></trkpt><trkpt lat="40.7764119" lon="-3.7454672"><ele>992.6666666666667</ele><time>2026-03-23T11:42:11.683Z</time></trkpt><trkpt lat="40.7763469" lon="-3.7454947"><ele>994.3333333333334</ele><time>2026-03-23T11:42:12.663Z</time></trkpt><trkpt lat="40.7762825" lon="-3.7455161"><ele>996.0</ele><time>2026-03-23T11:42:13.67Z</time></trkpt><trkpt lat="40.7762159" lon="-3.7455405"><ele>996.0</ele><time>2026-03-23T11:42:14.674Z</time></trkpt><trkpt lat="40.776151" lon="-3.7455581"><ele>995.9999999999999</ele><time>2026-03-23T11:42:15.677Z</time></trkpt><trkpt lat="40.7760855" lon="-3.7455579"><ele>996.0</ele><time>2026-03-23T11:42:16.681Z</time></trkpt><trkpt lat="40.7760135" lon="-3.7455595"><ele>996.0</ele><time>2026-03-23T11:42:17.677Z</time></trkpt><trkpt lat="40.775945" lon="-3.7455783"><ele>995.9999999999999</ele><time>2026-03-23T11:42:18.663Z</time></trkpt><trkpt lat="40.7758821" lon="-3.7456253"><ele>996.0</ele><time>2026-03-23T11:42:19.667Z</time></trkpt><trkpt lat="40.7758228" lon="-3.7456953"><ele>996.0</ele><time>2026-03-23T11:42:20.675Z</time></trkpt><trkpt lat="40.775763" lon="-3.7457568"><ele>996.5</ele><time>2026-03-23T11:42:21.676Z</time></trkpt><trkpt lat="40.7756963" lon="-3.745799"><ele>997.0</ele><time>2026-03-23T11:42:22.657Z</time></trkpt><trkpt lat="40.7756224" lon="-3.7458251"><ele>997.5</ele><time>2026-03-23T11:42:23.652Z</time></trkpt><trkpt lat="40.7755442" lon="-3.7458489"><ele>998.0</ele><time>2026-03-23T11:42:24.672Z</time></trkpt><trkpt lat="40.775477" lon="-3.745858"><ele>998.5</ele><time>2026-03-23T11:42:25.695Z</time></trkpt><trkpt lat="40.7753677" lon="-3.7459346"><ele>999.0</ele><time>2026-03-23T11:42:27.658Z</time></trkpt><trkpt lat="40.7752934" lon="-3.7460104"><ele>999.6666666666666</ele><time>2026-03-23T11:42:29.669Z</time></trkpt><trkpt lat="40.7751976" lon="-3.7460961"><ele>1000.3333333333333</ele><time>2026-03-23T11:42:31.676Z</time></trkpt><trkpt lat="40.7751423" lon="-3.746159"><ele>1001.0</ele><time>2026-03-23T11:42:32.662Z</time></trkpt><trkpt lat="40.7750915" lon="-3.746219"><ele>1001.6666666666666</ele><time>2026-03-23T11:42:33.669Z</time></trkpt><trkpt lat="40.7750064" lon="-3.7463217"><ele>1002.3333333333333</ele><time>2026-03-23T11:42:35.665Z</time></trkpt><trkpt lat="40.7749564" lon="-3.746379"><ele>1003.0</ele><time>2026-03-23T11:42:36.684Z</time></trkpt><trkpt lat="40.7749006" lon="-3.746423"><ele>1003.8333333333333</ele><time>2026-03-23T11:42:37.674Z</time></trkpt><trkpt lat="40.77484" lon="-3.7464598"><ele>1004.6666666666666</ele><time>2026-03-23T11:42:38.676Z</time></trkpt><trkpt lat="40.7747837" lon="-3.7465018"><ele>1005.5</ele><time>2026-03-23T11:42:39.655Z</time></trkpt><trkpt lat="40.7747259" lon="-3.7466392"><ele>1006.3333333333333</ele><time>2026-03-23T11:42:41.67Z</time></trkpt><trkpt lat="40.7747132" lon="-3.7467276"><ele>1007.1666666666666</ele><time>2026-03-23T11:42:42.682Z</time></trkpt><trkpt lat="40.7746923" lon="-3.7468251"><ele>1008.0</ele><time>2026-03-23T11:42:43.671Z</time></trkpt><trkpt lat="40.7746465" lon="-3.7469265"><ele>1008.1666666666666</ele><time>2026-03-23T11:42:44.649Z</time></trkpt><trkpt lat="40.7745975" lon="-3.7469974"><ele>1008.3333333333333</ele><time>2026-03-23T11:42:45.677Z</time></trkpt><trkpt lat="40.7745078" lon="-3.7470996"><ele>1008.5</ele><time>2026-03-23T11:42:47.675Z</time></trkpt><trkpt lat="40.7744397" lon="-3.7471034"><ele>1008.6666666666666</ele><time>2026-03-23T11:42:48.662Z</time></trkpt><trkpt lat="40.7743692" lon="-3.7470768"><ele>1008.8333333333333</ele><time>2026-03-23T11:42:49.665Z</time></trkpt><trkpt lat="40.7743014" lon="-3.7470249"><ele>1009.0</ele><time>2026-03-23T11:42:50.674Z</time></trkpt><trkpt lat="40.7742386" lon="-3.7469741"><ele>1010.1666666666666</ele><time>2026-03-23T11:42:51.67Z</time></trkpt><trkpt lat="40.7741628" lon="-3.7469798"><ele>1011.3333333333333</ele><time>2026-03-23T11:42:52.662Z</time></trkpt><trkpt lat="40.7741046" lon="-3.7470174"><ele>1012.5</ele><time>2026-03-23T11:42:53.658Z</time></trkpt><trkpt lat="40.7740331" lon="-3.7471153"><ele>1013.6666666666667</ele><time>2026-03-23T11:42:55.655Z</time></trkpt><trkpt lat="40.7739891" lon="-3.7471854"><ele>1014.8333333333334</ele><time>2026-03-23T11:42:56.65Z</time></trkpt><trkpt lat="40.7739376" lon="-3.7472472"><ele>1016.0</ele><time>2026-03-23T11:42:57.657Z</time></trkpt><trkpt lat="40.7738765" lon="-3.7472937"><ele>1016.0000000000001</ele><time>2026-03-23T11:42:58.666Z</time></trkpt><trkpt lat="40.7738031" lon="-3.7473143"><ele>1016.0</ele><time>2026-03-23T11:42:59.651Z</time></trkpt><trkpt lat="40.7737223" lon="-3.7473361"><ele>1016.0</ele><time>2026-03-23T11:43:00.657Z</time></trkpt><trkpt lat="40.7736433" lon="-3.7473518"><ele>1016.0</ele><time>2026-03-23T11:43:01.656Z</time></trkpt><trkpt lat="40.7735751" lon="-3.7473738"><ele>1016.0000000000001</ele><time>2026-03-23T11:43:02.663Z</time></trkpt><trkpt lat="40.7735217" lon="-3.7474264"><ele>1016.0</ele><time>2026-03-23T11:43:03.653Z</time></trkpt><trkpt lat="40.7734215" lon="-3.7475355"><ele>1016.5000000000001</ele><time>2026-03-23T11:43:05.659Z</time></trkpt><trkpt lat="40.7733544" lon="-3.7475482"><ele>1017.0</ele><time>2026-03-23T11:43:06.662Z</time></trkpt><trkpt lat="40.7732804" lon="-3.7475767"><ele>1017.5</ele><time>2026-03-23T11:43:07.68Z</time></trkpt><trkpt lat="40.7732066" lon="-3.7476026"><ele>1018.0</ele><time>2026-03-23T11:43:08.678Z</time></trkpt><trkpt lat="40.7731231" lon="-3.7476214"><ele>1018.5000000000001</ele><time>2026-03-23T11:43:09.68Z</time></trkpt><trkpt lat="40.7730415" lon="-3.7476603"><ele>1019.0</ele><time>2026-03-23T11:43:10.679Z</time></trkpt><trkpt lat="40.7729681" lon="-3.747693"><ele>1019.7142857142858</ele><time>2026-03-23T11:43:11.669Z</time></trkpt><trkpt lat="40.7729108" lon="-3.7477342"><ele>1020.4285714285714</ele><time>2026-03-23T11:43:12.671Z</time></trkpt><trkpt lat="40.7728594" lon="-3.7477915"><ele>1021.1428571428571</ele><time>2026-03-23T11:43:13.679Z</time></trkpt><trkpt lat="40.7728088" lon="-3.7478625"><ele>1021.8571428571429</ele><time>2026-03-23T11:43:14.644Z</time></trkpt><trkpt lat="40.7727545" lon="-3.7479263"><ele>1022.5714285714284</ele><time>2026-03-23T11:43:15.649Z</time></trkpt><trkpt lat="40.7726862" lon="-3.7479534"><ele>1023.2857142857142</ele><time>2026-03-23T11:43:16.659Z</time></trkpt><trkpt lat="40.7725992" lon="-3.7479513"><ele>1024.0</ele><time>2026-03-23T11:43:17.653Z</time></trkpt><trkpt lat="40.7725109" lon="-3.7479575"><ele>1024.6000000000001</ele><time>2026-03-23T11:43:18.675Z</time></trkpt><trkpt lat="40.7724148" lon="-3.7479724"><ele>1025.2</ele><time>2026-03-23T11:43:19.67Z</time></trkpt><trkpt lat="40.7723151" lon="-3.7479999"><ele>1025.8000000000002</ele><time>2026-03-23T11:43:20.668Z</time></trkpt><trkpt lat="40.7722271" lon="-3.748049"><ele>1026.4</ele><time>2026-03-23T11:43:21.666Z</time></trkpt><trkpt lat="40.7721544" lon="-3.7481014"><ele>1027.0</ele><time>2026-03-23T11:43:22.657Z</time></trkpt><trkpt lat="40.7720763" lon="-3.7482149"><ele>1027.0</ele><time>2026-03-23T11:43:24.679Z</time></trkpt><trkpt lat="40.7720113" lon="-3.74822"><ele>1027.0</ele><time>2026-03-23T11:43:25.666Z</time></trkpt><trkpt lat="40.7719343" lon="-3.7482669"><ele>1027.0</ele><time>2026-03-23T11:43:26.675Z</time></trkpt><trkpt lat="40.7718546" lon="-3.7483253"><ele>1027.0</ele><time>2026-03-23T11:43:27.665Z</time></trkpt><trkpt lat="40.7717786" lon="-3.7483978"><ele>1027.0</ele><time>2026-03-23T11:43:28.671Z</time></trkpt><trkpt lat="40.7717" lon="-3.7484845"><ele>1027.0</ele><time>2026-03-23T11:43:29.673Z</time></trkpt><trkpt lat="40.7716261" lon="-3.7485937"><ele>1027.2</ele><time>2026-03-23T11:43:30.678Z</time></trkpt><trkpt lat="40.7715527" lon="-3.7486967"><ele>1027.4</ele><time>2026-03-23T11:43:31.675Z</time></trkpt><trkpt lat="40.7714867" lon="-3.7487955"><ele>1027.6</ele><time>2026-03-23T11:43:32.665Z</time></trkpt><trkpt lat="40.7713963" lon="-3.7488653"><ele>1027.8</ele><time>2026-03-23T11:43:33.664Z</time></trkpt><trkpt lat="40.7713003" lon="-3.7489233"><ele>1028.0</ele><time>2026-03-23T11:43:34.666Z</time></trkpt><trkpt lat="40.7712225" lon="-3.7489858"><ele>1028.0</ele><time>2026-03-23T11:43:35.671Z</time></trkpt><trkpt lat="40.7711646" lon="-3.7490587"><ele>1028.0</ele><time>2026-03-23T11:43:36.67Z</time></trkpt><trkpt lat="40.7711207" lon="-3.749157"><ele>1028.0</ele><time>2026-03-23T11:43:37.669Z</time></trkpt><trkpt lat="40.7710886" lon="-3.7492697"><ele>1028.0</ele><time>2026-03-23T11:43:38.678Z</time></trkpt><trkpt lat="40.7710463" lon="-3.7493666"><ele>1028.0</ele><time>2026-03-23T11:43:39.668Z</time></trkpt><trkpt lat="40.7709839" lon="-3.7494323"><ele>1028.0</ele><time>2026-03-23T11:43:40.663Z</time></trkpt><trkpt lat="40.7709212" lon="-3.7494835"><ele>1028.1666666666667</ele><time>2026-03-23T11:43:41.678Z</time></trkpt><trkpt lat="40.7708643" lon="-3.7495346"><ele>1028.3333333333335</ele><time>2026-03-23T11:43:42.668Z</time></trkpt><trkpt lat="40.770803" lon="-3.749555"><ele>1028.5</ele><time>2026-03-23T11:43:43.665Z</time></trkpt><trkpt lat="40.7706838" lon="-3.7495796"><ele>1028.6666666666667</ele><time>2026-03-23T11:43:45.661Z</time></trkpt><trkpt lat="40.7706072" lon="-3.7496948"><ele>1028.8333333333333</ele><time>2026-03-23T11:43:47.671Z</time></trkpt><trkpt lat="40.7705738" lon="-3.7497888"><ele>1029.0</ele><time>2026-03-23T11:43:48.666Z</time></trkpt><trkpt lat="40.7705165" lon="-3.7498882"><ele>1029.0</ele><time>2026-03-23T11:43:49.677Z</time></trkpt><trkpt lat="40.7704562" lon="-3.7499903"><ele>1029.0</ele><time>2026-03-23T11:43:50.671Z</time></trkpt><trkpt lat="40.7704083" lon="-3.7501075"><ele>1029.0</ele><time>2026-03-23T11:43:51.681Z</time></trkpt><trkpt lat="40.7703593" lon="-3.7502037"><ele>1029.0</ele><time>2026-03-23T11:43:52.667Z</time></trkpt><trkpt lat="40.7703262" lon="-3.7502854"><ele>1029.0</ele><time>2026-03-23T11:43:53.665Z</time></trkpt><trkpt lat="40.7702832" lon="-3.7503464"><ele>1029.0</ele><time>2026-03-23T11:43:54.668Z</time></trkpt><trkpt lat="40.7702224" lon="-3.7504004"><ele>1028.8</ele><time>2026-03-23T11:43:55.678Z</time></trkpt><trkpt lat="40.7701558" lon="-3.7504778"><ele>1028.6000000000001</ele><time>2026-03-23T11:43:56.669Z</time></trkpt><trkpt lat="40.7700814" lon="-3.7505659"><ele>1028.4</ele><time>2026-03-23T11:43:57.656Z</time></trkpt><trkpt lat="40.7700128" lon="-3.7506571"><ele>1028.2</ele><time>2026-03-23T11:43:58.652Z</time></trkpt><trkpt lat="40.7699451" lon="-3.7507468"><ele>1028.0</ele><time>2026-03-23T11:43:59.644Z</time></trkpt><trkpt lat="40.769873" lon="-3.7508235"><ele>1028.0</ele><time>2026-03-23T11:44:00.664Z</time></trkpt><trkpt lat="40.7698052" lon="-3.7509001"><ele>1028.0</ele><time>2026-03-23T11:44:01.658Z</time></trkpt><trkpt lat="40.7697372" lon="-3.7509818"><ele>1028.0</ele><time>2026-03-23T11:44:02.661Z</time></trkpt><trkpt lat="40.7696829" lon="-3.7510779"><ele>1028.0</ele><time>2026-03-23T11:44:03.662Z</time></trkpt><trkpt lat="40.7696369" lon="-3.7511845"><ele>1028.0</ele><time>2026-03-23T11:44:04.657Z</time></trkpt><trkpt lat="40.769579" lon="-3.7512762"><ele>1028.3333333333335</ele><time>2026-03-23T11:44:05.662Z</time></trkpt><trkpt lat="40.7695111" lon="-3.7513377"><ele>1028.6666666666667</ele><time>2026-03-23T11:44:06.653Z</time></trkpt><trkpt lat="40.7694418" lon="-3.7513881"><ele>1029.0</ele><time>2026-03-23T11:44:07.655Z</time></trkpt><trkpt lat="40.7693651" lon="-3.7513983"><ele>1029.3333333333333</ele><time>2026-03-23T11:44:08.652Z</time></trkpt><trkpt lat="40.7692935" lon="-3.7513999"><ele>1029.6666666666665</ele><time>2026-03-23T11:44:09.671Z</time></trkpt><trkpt lat="40.769211" lon="-3.7513988"><ele>1030.0</ele><time>2026-03-23T11:44:10.666Z</time></trkpt><trkpt lat="40.7691214" lon="-3.7513611"><ele>1029.2</ele><time>2026-03-23T11:44:11.666Z</time></trkpt><trkpt lat="40.769029" lon="-3.7513071"><ele>1028.4</ele><time>2026-03-23T11:44:12.669Z</time></trkpt><trkpt lat="40.7689435" lon="-3.7512596"><ele>1027.6</ele><time>2026-03-23T11:44:13.675Z</time></trkpt><trkpt lat="40.7688481" lon="-3.7512232"><ele>1026.8</ele><time>2026-03-23T11:44:14.664Z</time></trkpt><trkpt lat="40.7687338" lon="-3.7512031"><ele>1026.0</ele><time>2026-03-23T11:44:15.669Z</time></trkpt><trkpt lat="40.7686138" lon="-3.7511887"><ele>1025.6</ele><time>2026-03-23T11:44:16.667Z</time></trkpt><trkpt lat="40.7684958" lon="-3.7512043"><ele>1025.1999999999998</ele><time>2026-03-23T11:44:17.658Z</time></trkpt><trkpt lat="40.7683974" lon="-3.7512413"><ele>1024.8000000000002</ele><time>2026-03-23T11:44:18.666Z</time></trkpt><trkpt lat="40.7683031" lon="-3.7512835"><ele>1024.4</ele><time>2026-03-23T11:44:19.667Z</time></trkpt><trkpt lat="40.7682123" lon="-3.7513132"><ele>1024.0</ele><time>2026-03-23T11:44:20.681Z</time></trkpt><trkpt lat="40.7681283" lon="-3.7513015"><ele>1023.9999999999999</ele><time>2026-03-23T11:44:21.663Z</time></trkpt><trkpt lat="40.7680407" lon="-3.7512742"><ele>1024.0</ele><time>2026-03-23T11:44:22.671Z</time></trkpt><trkpt lat="40.7679613" lon="-3.7512634"><ele>1024.0</ele><time>2026-03-23T11:44:23.668Z</time></trkpt><trkpt lat="40.7678962" lon="-3.7512551"><ele>1024.0</ele><time>2026-03-23T11:44:24.666Z</time></trkpt><trkpt lat="40.7678265" lon="-3.7512152"><ele>1023.9999999999999</ele><time>2026-03-23T11:44:25.675Z</time></trkpt><trkpt lat="40.7677618" lon="-3.7511639"><ele>1024.0</ele><time>2026-03-23T11:44:26.671Z</time></trkpt><trkpt lat="40.7676874" lon="-3.7511413"><ele>1023.1666666666666</ele><time>2026-03-23T11:44:27.664Z</time></trkpt><trkpt lat="40.7676093" lon="-3.7511639"><ele>1022.3333333333333</ele><time>2026-03-23T11:44:28.664Z</time></trkpt><trkpt lat="40.7675373" lon="-3.751186"><ele>1021.5</ele><time>2026-03-23T11:44:29.672Z</time></trkpt><trkpt lat="40.7674584" lon="-3.7512146"><ele>1020.6666666666667</ele><time>2026-03-23T11:44:30.665Z</time></trkpt><trkpt lat="40.7673779" lon="-3.7512281"><ele>1019.8333333333334</ele><time>2026-03-23T11:44:31.666Z</time></trkpt><trkpt lat="40.7672827" lon="-3.7511965"><ele>1019.0</ele><time>2026-03-23T11:44:32.671Z</time></trkpt><trkpt lat="40.7671772" lon="-3.7511626"><ele>1019.0</ele><time>2026-03-23T11:44:33.666Z</time></trkpt><trkpt lat="40.7670696" lon="-3.7511335"><ele>1019.0000000000001</ele><time>2026-03-23T11:44:34.661Z</time></trkpt><trkpt lat="40.7669722" lon="-3.7511474"><ele>1019.0000000000001</ele><time>2026-03-23T11:44:35.68Z</time></trkpt><trkpt lat="40.7668803" lon="-3.7511887"><ele>1019.0</ele><time>2026-03-23T11:44:36.669Z</time></trkpt><trkpt lat="40.7667848" lon="-3.7512367"><ele>1019.0</ele><time>2026-03-23T11:44:37.674Z</time></trkpt><trkpt lat="40.7666878" lon="-3.7512777"><ele>1018.4000000000001</ele><time>2026-03-23T11:44:38.669Z</time></trkpt><trkpt lat="40.7665919" lon="-3.7513187"><ele>1017.8000000000001</ele><time>2026-03-23T11:44:39.673Z</time></trkpt><trkpt lat="40.766497" lon="-3.751365"><ele>1017.1999999999999</ele><time>2026-03-23T11:44:40.667Z</time></trkpt><trkpt lat="40.7664065" lon="-3.7514104"><ele>1016.5999999999999</ele><time>2026-03-23T11:44:41.675Z</time></trkpt><trkpt lat="40.7663257" lon="-3.7514678"><ele>1016.0</ele><time>2026-03-23T11:44:42.686Z</time></trkpt><trkpt lat="40.7662487" lon="-3.7515255"><ele>1016.0</ele><time>2026-03-23T11:44:43.67Z</time></trkpt><trkpt lat="40.7661616" lon="-3.7515836"><ele>1015.9999999999999</ele><time>2026-03-23T11:44:44.665Z</time></trkpt><trkpt lat="40.7660588" lon="-3.7516342"><ele>1015.9999999999999</ele><time>2026-03-23T11:44:45.674Z</time></trkpt><trkpt lat="40.7659567" lon="-3.7516729"><ele>1016.0</ele><time>2026-03-23T11:44:46.658Z</time></trkpt><trkpt lat="40.7658657" lon="-3.7517105"><ele>1016.0</ele><time>2026-03-23T11:44:47.665Z</time></trkpt><trkpt lat="40.7657846" lon="-3.7517648"><ele>1015.3333333333334</ele><time>2026-03-23T11:44:48.686Z</time></trkpt><trkpt lat="40.7657215" lon="-3.7518414"><ele>1014.6666666666667</ele><time>2026-03-23T11:44:49.674Z</time></trkpt><trkpt lat="40.7656802" lon="-3.7519338"><ele>1014.0</ele><time>2026-03-23T11:44:50.666Z</time></trkpt><trkpt lat="40.7656909" lon="-3.7520828"><ele>1013.3333333333333</ele><time>2026-03-23T11:44:52.653Z</time></trkpt><trkpt lat="40.7657432" lon="-3.7521314"><ele>1012.6666666666666</ele><time>2026-03-23T11:44:53.664Z</time></trkpt><trkpt lat="40.7658124" lon="-3.7521861"><ele>1012.0</ele><time>2026-03-23T11:44:54.66Z</time></trkpt><trkpt lat="40.7658832" lon="-3.7522433"><ele>1012.0</ele><time>2026-03-23T11:44:55.66Z</time></trkpt><trkpt lat="40.765976" lon="-3.7523014"><ele>1012.0</ele><time>2026-03-23T11:44:56.657Z</time></trkpt><trkpt lat="40.7660799" lon="-3.7523577"><ele>1012.0</ele><time>2026-03-23T11:44:57.656Z</time></trkpt><trkpt lat="40.7662086" lon="-3.7524323"><ele>1012.0</ele><time>2026-03-23T11:44:58.678Z</time></trkpt><trkpt lat="40.7663472" lon="-3.7525114"><ele>1013.6666666666666</ele><time>2026-03-23T11:44:59.665Z</time></trkpt><trkpt lat="40.7664893" lon="-3.7525961"><ele>1015.3333333333333</ele><time>2026-03-23T11:45:00.664Z</time></trkpt><trkpt lat="40.7666338" lon="-3.752687"><ele>1017.0</ele><time>2026-03-23T11:45:01.668Z</time></trkpt><trkpt lat="40.7667908" lon="-3.7527827"><ele>1018.3333333333333</ele><time>2026-03-23T11:45:02.671Z</time></trkpt><trkpt lat="40.7669496" lon="-3.7528781"><ele>1019.6666666666666</ele><time>2026-03-23T11:45:03.67Z</time></trkpt><trkpt lat="40.7671023" lon="-3.7529811"><ele>1021.0</ele><time>2026-03-23T11:45:04.683Z</time></trkpt><trkpt lat="40.7672696" lon="-3.7530958"><ele>1021.0</ele><time>2026-03-23T11:45:05.662Z</time></trkpt><trkpt lat="40.7674404" lon="-3.7532095"><ele>1021.0</ele><time>2026-03-23T11:45:06.676Z</time></trkpt><trkpt lat="40.7676105" lon="-3.7533176"><ele>1021.0</ele><time>2026-03-23T11:45:07.666Z</time></trkpt><trkpt lat="40.7677763" lon="-3.7534136"><ele>1022.6666666666666</ele><time>2026-03-23T11:45:08.673Z</time></trkpt><trkpt lat="40.7679271" lon="-3.7534776"><ele>1024.3333333333333</ele><time>2026-03-23T11:45:09.664Z</time></trkpt><trkpt lat="40.7680852" lon="-3.7535229"><ele>1026.0</ele><time>2026-03-23T11:45:10.649Z</time></trkpt><trkpt lat="40.7682472" lon="-3.7535704"><ele>1027.0</ele><time>2026-03-23T11:45:11.672Z</time></trkpt><trkpt lat="40.7684049" lon="-3.7536052"><ele>1028.0</ele><time>2026-03-23T11:45:12.662Z</time></trkpt><trkpt lat="40.768557" lon="-3.7536625"><ele>1029.0</ele><time>2026-03-23T11:45:13.644Z</time></trkpt><trkpt lat="40.7687025" lon="-3.7537414"><ele>1030.0</ele><time>2026-03-23T11:45:14.657Z</time></trkpt><trkpt lat="40.7688457" lon="-3.7538409"><ele>1031.0</ele><time>2026-03-23T11:45:15.657Z</time></trkpt><trkpt lat="40.7689933" lon="-3.7539421"><ele>1032.0</ele><time>2026-03-23T11:45:16.667Z</time></trkpt><trkpt lat="40.7691428" lon="-3.7540579"><ele>1032.0</ele><time>2026-03-23T11:45:17.647Z</time></trkpt><trkpt lat="40.7692814" lon="-3.7541835"><ele>1032.0</ele><time>2026-03-23T11:45:18.654Z</time></trkpt><trkpt lat="40.7694214" lon="-3.7543044"><ele>1032.0</ele><time>2026-03-23T11:45:19.656Z</time></trkpt><trkpt lat="40.7695646" lon="-3.7544416"><ele>1032.6666666666667</ele><time>2026-03-23T11:45:20.668Z</time></trkpt><trkpt lat="40.7697013" lon="-3.7545812"><ele>1033.3333333333335</ele><time>2026-03-23T11:45:21.677Z</time></trkpt><trkpt lat="40.7698413" lon="-3.7547112"><ele>1034.0</ele><time>2026-03-23T11:45:22.666Z</time></trkpt><trkpt lat="40.7699841" lon="-3.7548479"><ele>1034.0</ele><time>2026-03-23T11:45:23.655Z</time></trkpt><trkpt lat="40.770126" lon="-3.7549802"><ele>1034.0</ele><time>2026-03-23T11:45:24.66Z</time></trkpt><trkpt lat="40.770262" lon="-3.7551021"><ele>1034.0</ele><time>2026-03-23T11:45:25.653Z</time></trkpt><trkpt lat="40.7704068" lon="-3.7552259"><ele>1035.0</ele><time>2026-03-23T11:45:26.658Z</time></trkpt><trkpt lat="40.7705523" lon="-3.7553509"><ele>1036.0</ele><time>2026-03-23T11:45:27.659Z</time></trkpt><trkpt lat="40.7707012" lon="-3.7554573"><ele>1037.0</ele><time>2026-03-23T11:45:28.664Z</time></trkpt><trkpt lat="40.7708319" lon="-3.7555562"><ele>1037.0</ele><time>2026-03-23T11:45:29.66Z</time></trkpt><trkpt lat="40.7709587" lon="-3.7556567"><ele>1037.0</ele><time>2026-03-23T11:45:30.671Z</time></trkpt><trkpt lat="40.771085" lon="-3.7557462"><ele>1037.0</ele><time>2026-03-23T11:45:31.657Z</time></trkpt><trkpt lat="40.7712028" lon="-3.7558346"><ele>1037.0</ele><time>2026-03-23T11:45:32.676Z</time></trkpt><trkpt lat="40.7713109" lon="-3.7559146"><ele>1036.0</ele><time>2026-03-23T11:45:33.662Z</time></trkpt><trkpt lat="40.7714107" lon="-3.756002"><ele>1035.0</ele><time>2026-03-23T11:45:34.673Z</time></trkpt><trkpt lat="40.7715096" lon="-3.7560987"><ele>1034.0</ele><time>2026-03-23T11:45:35.666Z</time></trkpt><trkpt lat="40.7716136" lon="-3.756189"><ele>1033.0</ele><time>2026-03-23T11:45:36.668Z</time></trkpt><trkpt lat="40.7717157" lon="-3.7562843"><ele>1032.0</ele><time>2026-03-23T11:45:37.657Z</time></trkpt><trkpt lat="40.771824" lon="-3.7563765"><ele>1031.0</ele><time>2026-03-23T11:45:38.661Z</time></trkpt><trkpt lat="40.771945" lon="-3.7564635"><ele>1030.0</ele><time>2026-03-23T11:45:39.65Z</time></trkpt><trkpt lat="40.7720714" lon="-3.7565453"><ele>1029.0</ele><time>2026-03-23T11:45:40.647Z</time></trkpt><trkpt lat="40.7721941" lon="-3.7566248"><ele>1028.25</ele><time>2026-03-23T11:45:41.652Z</time></trkpt><trkpt lat="40.7723122" lon="-3.7566963"><ele>1027.5</ele><time>2026-03-23T11:45:42.651Z</time></trkpt><trkpt lat="40.7724266" lon="-3.7567645"><ele>1026.75</ele><time>2026-03-23T11:45:43.66Z</time></trkpt><trkpt lat="40.7725314" lon="-3.7568361"><ele>1026.0</ele><time>2026-03-23T11:45:44.666Z</time></trkpt><trkpt lat="40.7726301" lon="-3.7569161"><ele>1023.0</ele><time>2026-03-23T11:45:45.667Z</time></trkpt><trkpt lat="40.7727133" lon="-3.7570267"><ele>1020.0</ele><time>2026-03-23T11:45:46.666Z</time></trkpt><trkpt lat="40.7727861" lon="-3.7571583"><ele>1017.0</ele><time>2026-03-23T11:45:47.669Z</time></trkpt><trkpt lat="40.7728521" lon="-3.7573025"><ele>1014.0</ele><time>2026-03-23T11:45:48.655Z</time></trkpt><trkpt lat="40.7729168" lon="-3.7574459"><ele>1014.0</ele><time>2026-03-23T11:45:49.66Z</time></trkpt><trkpt lat="40.772963" lon="-3.7576042"><ele>1014.0</ele><time>2026-03-23T11:45:50.659Z</time></trkpt><trkpt lat="40.7730141" lon="-3.7577702"><ele>1014.0</ele><time>2026-03-23T11:45:51.674Z</time></trkpt><trkpt lat="40.7730551" lon="-3.7579371"><ele>1014.0</ele><time>2026-03-23T11:45:52.661Z</time></trkpt><trkpt lat="40.7730846" lon="-3.7581061"><ele>1014.0</ele><time>2026-03-23T11:45:53.67Z</time></trkpt><trkpt lat="40.773118" lon="-3.7582647"><ele>1014.0</ele><time>2026-03-23T11:45:54.673Z</time></trkpt><trkpt lat="40.7731649" lon="-3.7584115"><ele>1014.0</ele><time>2026-03-23T11:45:55.666Z</time></trkpt><trkpt lat="40.7732251" lon="-3.7585602"><ele>1014.0</ele><time>2026-03-23T11:45:56.651Z</time></trkpt><trkpt lat="40.7732993" lon="-3.7587004"><ele>1014.0</ele><time>2026-03-23T11:45:57.663Z</time></trkpt><trkpt lat="40.7733797" lon="-3.7588427"><ele>1014.0</ele><time>2026-03-23T11:45:58.651Z</time></trkpt><trkpt lat="40.7734641" lon="-3.7589763"><ele>1014.0</ele><time>2026-03-23T11:45:59.66Z</time></trkpt><trkpt lat="40.7735498" lon="-3.7591238"><ele>1014.0</ele><time>2026-03-23T11:46:00.663Z</time></trkpt><trkpt lat="40.7736325" lon="-3.759278"><ele>1012.6666666666667</ele><time>2026-03-23T11:46:01.647Z</time></trkpt><trkpt lat="40.7737193" lon="-3.7594337"><ele>1011.3333333333334</ele><time>2026-03-23T11:46:02.647Z</time></trkpt><trkpt lat="40.7738095" lon="-3.7595981"><ele>1010.0</ele><time>2026-03-23T11:46:03.65Z</time></trkpt><trkpt lat="40.7739" lon="-3.7597604"><ele>1010.0</ele><time>2026-03-23T11:46:04.648Z</time></trkpt><trkpt lat="40.7739836" lon="-3.7599322"><ele>1010.0</ele><time>2026-03-23T11:46:05.664Z</time></trkpt><trkpt lat="40.7740637" lon="-3.7601089"><ele>1010.0</ele><time>2026-03-23T11:46:06.654Z</time></trkpt><trkpt lat="40.774142" lon="-3.7602917"><ele>1009.0</ele><time>2026-03-23T11:46:07.669Z</time></trkpt><trkpt lat="40.7742038" lon="-3.7604787"><ele>1008.0</ele><time>2026-03-23T11:46:08.657Z</time></trkpt><trkpt lat="40.7742633" lon="-3.7606564"><ele>1007.0</ele><time>2026-03-23T11:46:09.661Z</time></trkpt><trkpt lat="40.7743257" lon="-3.7608352"><ele>1007.0</ele><time>2026-03-23T11:46:10.657Z</time></trkpt><trkpt lat="40.7743875" lon="-3.7610175"><ele>1007.0</ele><time>2026-03-23T11:46:11.668Z</time></trkpt><trkpt lat="40.774447" lon="-3.7611945"><ele>1007.0</ele><time>2026-03-23T11:46:12.668Z</time></trkpt><trkpt lat="40.7745039" lon="-3.7613742"><ele>1007.0</ele><time>2026-03-23T11:46:13.674Z</time></trkpt><trkpt lat="40.7745649" lon="-3.7615496"><ele>1007.0</ele><time>2026-03-23T11:46:14.665Z</time></trkpt><trkpt lat="40.7746306" lon="-3.7617207"><ele>1007.0</ele><time>2026-03-23T11:46:15.679Z</time></trkpt><trkpt lat="40.7747065" lon="-3.7618879"><ele>1007.0</ele><time>2026-03-23T11:46:16.659Z</time></trkpt><trkpt lat="40.7747914" lon="-3.76204"><ele>1007.0</ele><time>2026-03-23T11:46:17.676Z</time></trkpt><trkpt lat="40.7748722" lon="-3.7621932"><ele>1006.0</ele><time>2026-03-23T11:46:18.661Z</time></trkpt><trkpt lat="40.7749491" lon="-3.7623364"><ele>1005.0</ele><time>2026-03-23T11:46:19.65Z</time></trkpt><trkpt lat="40.7750189" lon="-3.7624719"><ele>1004.0</ele><time>2026-03-23T11:46:20.655Z</time></trkpt><trkpt lat="40.7750736" lon="-3.762611"><ele>1003.0</ele><time>2026-03-23T11:46:21.659Z</time></trkpt><trkpt lat="40.7751286" lon="-3.7627628"><ele>1002.0</ele><time>2026-03-23T11:46:22.665Z</time></trkpt><trkpt lat="40.7751843" lon="-3.7629191"><ele>1001.0</ele><time>2026-03-23T11:46:23.661Z</time></trkpt><trkpt lat="40.7752471" lon="-3.7630843"><ele>1000.0</ele><time>2026-03-23T11:46:24.659Z</time></trkpt><trkpt lat="40.7753115" lon="-3.7632489"><ele>999.0</ele><time>2026-03-23T11:46:25.672Z</time></trkpt><trkpt lat="40.775381" lon="-3.7634183"><ele>997.75</ele><time>2026-03-23T11:46:26.672Z</time></trkpt><trkpt lat="40.775454" lon="-3.7635961"><ele>996.5</ele><time>2026-03-23T11:46:27.665Z</time></trkpt><trkpt lat="40.7755249" lon="-3.7637661"><ele>995.25</ele><time>2026-03-23T11:46:28.666Z</time></trkpt><trkpt lat="40.7755906" lon="-3.7639292"><ele>994.0</ele><time>2026-03-23T11:46:29.649Z</time></trkpt><trkpt lat="40.7756519" lon="-3.7640834"><ele>994.0</ele><time>2026-03-23T11:46:30.665Z</time></trkpt><trkpt lat="40.7757083" lon="-3.7642333"><ele>994.0</ele><time>2026-03-23T11:46:31.674Z</time></trkpt><trkpt lat="40.775761" lon="-3.7643734"><ele>994.0</ele><time>2026-03-23T11:46:32.671Z</time></trkpt><trkpt lat="40.7758046" lon="-3.7645134"><ele>994.0</ele><time>2026-03-23T11:46:33.673Z</time></trkpt><trkpt lat="40.7758426" lon="-3.764644"><ele>992.6</ele><time>2026-03-23T11:46:34.673Z</time></trkpt><trkpt lat="40.7758799" lon="-3.7647737"><ele>991.2</ele><time>2026-03-23T11:46:35.651Z</time></trkpt><trkpt lat="40.7759201" lon="-3.7648895"><ele>989.8000000000001</ele><time>2026-03-23T11:46:36.669Z</time></trkpt><trkpt lat="40.7759701" lon="-3.7650063"><ele>988.4000000000001</ele><time>2026-03-23T11:46:37.661Z</time></trkpt><trkpt lat="40.7760302" lon="-3.7651185"><ele>987.0</ele><time>2026-03-23T11:46:38.667Z</time></trkpt><trkpt lat="40.7761073" lon="-3.7652104"><ele>986.5</ele><time>2026-03-23T11:46:39.675Z</time></trkpt><trkpt lat="40.7762156" lon="-3.7652776"><ele>986.0</ele><time>2026-03-23T11:46:40.667Z</time></trkpt><trkpt lat="40.7763292" lon="-3.7653511"><ele>985.5</ele><time>2026-03-23T11:46:41.657Z</time></trkpt><trkpt lat="40.7764495" lon="-3.7654322"><ele>985.0</ele><time>2026-03-23T11:46:42.674Z</time></trkpt><trkpt lat="40.7765753" lon="-3.7655148"><ele>985.0</ele><time>2026-03-23T11:46:43.677Z</time></trkpt><trkpt lat="40.7767143" lon="-3.7655978"><ele>985.0</ele><time>2026-03-23T11:46:44.672Z</time></trkpt><trkpt lat="40.7768627" lon="-3.7656684"><ele>985.0</ele><time>2026-03-23T11:46:45.666Z</time></trkpt><trkpt lat="40.7770136" lon="-3.7657412"><ele>984.6666666666666</ele><time>2026-03-23T11:46:46.662Z</time></trkpt><trkpt lat="40.7771662" lon="-3.7658163"><ele>984.3333333333333</ele><time>2026-03-23T11:46:47.666Z</time></trkpt><trkpt lat="40.7773186" lon="-3.765904"><ele>984.0</ele><time>2026-03-23T11:46:48.67Z</time></trkpt><trkpt lat="40.7774665" lon="-3.7659914"><ele>985.5</ele><time>2026-03-23T11:46:49.658Z</time></trkpt><trkpt lat="40.7776002" lon="-3.7660768"><ele>987.0</ele><time>2026-03-23T11:46:50.666Z</time></trkpt><trkpt lat="40.7777295" lon="-3.7661708"><ele>988.5</ele><time>2026-03-23T11:46:51.666Z</time></trkpt><trkpt lat="40.777858" lon="-3.766254"><ele>990.0</ele><time>2026-03-23T11:46:52.67Z</time></trkpt><trkpt lat="40.7779914" lon="-3.7663295"><ele>991.5</ele><time>2026-03-23T11:46:53.668Z</time></trkpt><trkpt lat="40.7781245" lon="-3.7663995"><ele>993.0</ele><time>2026-03-23T11:46:54.676Z</time></trkpt><trkpt lat="40.7782557" lon="-3.7664675"><ele>994.5</ele><time>2026-03-23T11:46:55.666Z</time></trkpt><trkpt lat="40.7783901" lon="-3.7665355"><ele>996.0</ele><time>2026-03-23T11:46:56.668Z</time></trkpt><trkpt lat="40.7785232" lon="-3.7666099"><ele>996.25</ele><time>2026-03-23T11:46:57.666Z</time></trkpt><trkpt lat="40.7786544" lon="-3.766675"><ele>996.5</ele><time>2026-03-23T11:46:58.677Z</time></trkpt><trkpt lat="40.7787875" lon="-3.7667205"><ele>996.75</ele><time>2026-03-23T11:46:59.669Z</time></trkpt><trkpt lat="40.7789129" lon="-3.7667365"><ele>997.0</ele><time>2026-03-23T11:47:00.66Z</time></trkpt><trkpt lat="40.7790331" lon="-3.7667416"><ele>997.0</ele><time>2026-03-23T11:47:01.677Z</time></trkpt><trkpt lat="40.7791466" lon="-3.7667689"><ele>997.0</ele><time>2026-03-23T11:47:02.64Z</time></trkpt><trkpt lat="40.779234" lon="-3.7668254"><ele>997.0</ele><time>2026-03-23T11:47:03.653Z</time></trkpt><trkpt lat="40.7792933" lon="-3.766905"><ele>997.0</ele><time>2026-03-23T11:47:04.654Z</time></trkpt><trkpt lat="40.7793389" lon="-3.7670001"><ele>997.0</ele><time>2026-03-23T11:47:05.643Z</time></trkpt><trkpt lat="40.7793495" lon="-3.7671212"><ele>998.6</ele><time>2026-03-23T11:47:06.65Z</time></trkpt><trkpt lat="40.7793295" lon="-3.767246"><ele>1000.2</ele><time>2026-03-23T11:47:07.651Z</time></trkpt><trkpt lat="40.7793052" lon="-3.7673755"><ele>1001.8</ele><time>2026-03-23T11:47:08.645Z</time></trkpt><trkpt lat="40.7792717" lon="-3.7675016"><ele>1003.4</ele><time>2026-03-23T11:47:09.661Z</time></trkpt><trkpt lat="40.7792341" lon="-3.7676242"><ele>1005.0</ele><time>2026-03-23T11:47:10.658Z</time></trkpt><trkpt lat="40.7791904" lon="-3.7677424"><ele>1006.4</ele><time>2026-03-23T11:47:11.651Z</time></trkpt><trkpt lat="40.7791301" lon="-3.7678453"><ele>1007.8</ele><time>2026-03-23T11:47:12.661Z</time></trkpt><trkpt lat="40.7790593" lon="-3.7679198"><ele>1009.2</ele><time>2026-03-23T11:47:13.675Z</time></trkpt><trkpt lat="40.7789658" lon="-3.7679758"><ele>1010.6</ele><time>2026-03-23T11:47:14.661Z</time></trkpt><trkpt lat="40.7788568" lon="-3.7680104"><ele>1012.0</ele><time>2026-03-23T11:47:15.665Z</time></trkpt><trkpt lat="40.7787475" lon="-3.7680375"><ele>1012.0</ele><time>2026-03-23T11:47:16.666Z</time></trkpt><trkpt lat="40.7786307" lon="-3.7680786"><ele>1012.0</ele><time>2026-03-23T11:47:17.674Z</time></trkpt><trkpt lat="40.7785276" lon="-3.7681501"><ele>1012.0</ele><time>2026-03-23T11:47:18.669Z</time></trkpt><trkpt lat="40.7784494" lon="-3.7682282"><ele>1012.0</ele><time>2026-03-23T11:47:19.669Z</time></trkpt><trkpt lat="40.7783889" lon="-3.768325"><ele>1012.0</ele><time>2026-03-23T11:47:20.658Z</time></trkpt><trkpt lat="40.7783441" lon="-3.768454"><ele>1011.5</ele><time>2026-03-23T11:47:21.66Z</time></trkpt><trkpt lat="40.7783087" lon="-3.768598"><ele>1011.0</ele><time>2026-03-23T11:47:22.666Z</time></trkpt><trkpt lat="40.7782919" lon="-3.7687595"><ele>1010.5</ele><time>2026-03-23T11:47:23.667Z</time></trkpt><trkpt lat="40.7782974" lon="-3.7689353"><ele>1010.0</ele><time>2026-03-23T11:47:24.674Z</time></trkpt><trkpt lat="40.7783192" lon="-3.7691201"><ele>1010.0</ele><time>2026-03-23T11:47:25.675Z</time></trkpt><trkpt lat="40.778354" lon="-3.7692853"><ele>1010.0</ele><time>2026-03-23T11:47:26.666Z</time></trkpt><trkpt lat="40.778402" lon="-3.7694278"><ele>1010.0</ele><time>2026-03-23T11:47:27.654Z</time></trkpt><trkpt lat="40.7784571" lon="-3.7695623"><ele>1010.0</ele><time>2026-03-23T11:47:28.672Z</time></trkpt><trkpt lat="40.7785073" lon="-3.76969"><ele>1010.6</ele><time>2026-03-23T11:47:29.672Z</time></trkpt><trkpt lat="40.7785486" lon="-3.7698182"><ele>1011.2</ele><time>2026-03-23T11:47:30.664Z</time></trkpt><trkpt lat="40.7785746" lon="-3.7699355"><ele>1011.8</ele><time>2026-03-23T11:47:31.671Z</time></trkpt><trkpt lat="40.7785918" lon="-3.7700553"><ele>1012.4</ele><time>2026-03-23T11:47:32.656Z</time></trkpt><trkpt lat="40.7785952" lon="-3.77017"><ele>1013.0</ele><time>2026-03-23T11:47:33.668Z</time></trkpt><trkpt lat="40.7785698" lon="-3.770285"><ele>1013.0</ele><time>2026-03-23T11:47:34.667Z</time></trkpt><trkpt lat="40.7785267" lon="-3.7703987"><ele>1013.0</ele><time>2026-03-23T11:47:35.666Z</time></trkpt><trkpt lat="40.7784703" lon="-3.7705105"><ele>1013.0</ele><time>2026-03-23T11:47:36.662Z</time></trkpt><trkpt lat="40.7784074" lon="-3.7706126"><ele>1013.0</ele><time>2026-03-23T11:47:37.667Z</time></trkpt><trkpt lat="40.7783517" lon="-3.7707"><ele>1013.0</ele><time>2026-03-23T11:47:38.663Z</time></trkpt><trkpt lat="40.7783153" lon="-3.7707872"><ele>1012.8</ele><time>2026-03-23T11:47:39.676Z</time></trkpt><trkpt lat="40.7783193" lon="-3.7709217"><ele>1012.5999999999999</ele><time>2026-03-23T11:47:41.666Z</time></trkpt><trkpt lat="40.7783753" lon="-3.7709897"><ele>1012.4000000000001</ele><time>2026-03-23T11:47:42.664Z</time></trkpt><trkpt lat="40.7784514" lon="-3.7710529"><ele>1012.2</ele><time>2026-03-23T11:47:43.676Z</time></trkpt><trkpt lat="40.778539" lon="-3.7711176"><ele>1012.0</ele><time>2026-03-23T11:47:44.667Z</time></trkpt><trkpt lat="40.7786272" lon="-3.7712038"><ele>1012.0</ele><time>2026-03-23T11:47:45.672Z</time></trkpt><trkpt lat="40.778723" lon="-3.7712918"><ele>1012.0</ele><time>2026-03-23T11:47:46.684Z</time></trkpt><trkpt lat="40.7788201" lon="-3.7713926"><ele>1012.0</ele><time>2026-03-23T11:47:47.671Z</time></trkpt><trkpt lat="40.7788995" lon="-3.7714901"><ele>1012.0</ele><time>2026-03-23T11:47:48.678Z</time></trkpt><trkpt lat="40.7789694" lon="-3.7715929"><ele>1012.0</ele><time>2026-03-23T11:47:49.655Z</time></trkpt><trkpt lat="40.7790251" lon="-3.7717056"><ele>1012.0</ele><time>2026-03-23T11:47:50.664Z</time></trkpt><trkpt lat="40.7790729" lon="-3.7718322"><ele>1012.0</ele><time>2026-03-23T11:47:51.663Z</time></trkpt><trkpt lat="40.7791017" lon="-3.7719732"><ele>1012.0</ele><time>2026-03-23T11:47:52.674Z</time></trkpt><trkpt lat="40.7791136" lon="-3.772128"><ele>1012.0</ele><time>2026-03-23T11:47:53.676Z</time></trkpt><trkpt lat="40.7791285" lon="-3.7722895"><ele>1012.2</ele><time>2026-03-23T11:47:54.671Z</time></trkpt><trkpt lat="40.7791395" lon="-3.772441"><ele>1012.4000000000001</ele><time>2026-03-23T11:47:55.667Z</time></trkpt><trkpt lat="40.7791499" lon="-3.7725853"><ele>1012.5999999999999</ele><time>2026-03-23T11:47:56.672Z</time></trkpt><trkpt lat="40.7791379" lon="-3.7727155"><ele>1012.8</ele><time>2026-03-23T11:47:57.66Z</time></trkpt><trkpt lat="40.7791029" lon="-3.7728142"><ele>1013.0</ele><time>2026-03-23T11:47:58.675Z</time></trkpt><trkpt lat="40.779049" lon="-3.772909"><ele>1013.5999999999999</ele><time>2026-03-23T11:47:59.662Z</time></trkpt><trkpt lat="40.7789968" lon="-3.7730051"><ele>1014.1999999999999</ele><time>2026-03-23T11:48:00.663Z</time></trkpt><trkpt lat="40.7789491" lon="-3.7731234"><ele>1014.8</ele><time>2026-03-23T11:48:01.673Z</time></trkpt><trkpt lat="40.7789133" lon="-3.7732498"><ele>1015.4</ele><time>2026-03-23T11:48:02.677Z</time></trkpt><trkpt lat="40.778887" lon="-3.7733902"><ele>1016.0</ele><time>2026-03-23T11:48:03.657Z</time></trkpt><trkpt lat="40.7788628" lon="-3.7735333"><ele>1016.75</ele><time>2026-03-23T11:48:04.675Z</time></trkpt><trkpt lat="40.7788283" lon="-3.7736771"><ele>1017.5</ele><time>2026-03-23T11:48:05.671Z</time></trkpt><trkpt lat="40.7787901" lon="-3.773822"><ele>1018.25</ele><time>2026-03-23T11:48:06.662Z</time></trkpt><trkpt lat="40.7787491" lon="-3.7739686"><ele>1019.0</ele><time>2026-03-23T11:48:07.661Z</time></trkpt><trkpt lat="40.7787102" lon="-3.7740985"><ele>1019.0000000000001</ele><time>2026-03-23T11:48:08.658Z</time></trkpt><trkpt lat="40.7786868" lon="-3.7742146"><ele>1019.0</ele><time>2026-03-23T11:48:09.655Z</time></trkpt><trkpt lat="40.7786826" lon="-3.7743165"><ele>1019.0000000000001</ele><time>2026-03-23T11:48:10.658Z</time></trkpt><trkpt lat="40.7786903" lon="-3.7744164"><ele>1019.0000000000001</ele><time>2026-03-23T11:48:11.648Z</time></trkpt><trkpt lat="40.7786995" lon="-3.774504"><ele>1019.0</ele><time>2026-03-23T11:48:12.663Z</time></trkpt><trkpt lat="40.7787077" lon="-3.7745961"><ele>1019.0000000000001</ele><time>2026-03-23T11:48:13.67Z</time></trkpt><trkpt lat="40.7787186" lon="-3.7746835"><ele>1019.0000000000001</ele><time>2026-03-23T11:48:14.668Z</time></trkpt><trkpt lat="40.7787624" lon="-3.7748131"><ele>1019.6666666666667</ele><time>2026-03-23T11:48:16.674Z</time></trkpt><trkpt lat="40.7788337" lon="-3.7749082"><ele>1020.3333333333334</ele><time>2026-03-23T11:48:18.658Z</time></trkpt><trkpt lat="40.7788921" lon="-3.7749423"><ele>1021.0</ele><time>2026-03-23T11:48:19.67Z</time></trkpt><trkpt lat="40.7789603" lon="-3.7749786"><ele>1021.6666666666667</ele><time>2026-03-23T11:48:20.663Z</time></trkpt><trkpt lat="40.7790262" lon="-3.775011"><ele>1022.3333333333334</ele><time>2026-03-23T11:48:21.676Z</time></trkpt><trkpt lat="40.7791045" lon="-3.7750226"><ele>1023.0</ele><time>2026-03-23T11:48:23.655Z</time></trkpt><trkpt lat="40.7791883" lon="-3.7750273"><ele>1023.0</ele><time>2026-03-23T11:48:26.658Z</time></trkpt><trkpt lat="40.779258" lon="-3.7750031"><ele>1023.0</ele><time>2026-03-23T11:48:27.669Z</time></trkpt><trkpt lat="40.7793339" lon="-3.7749727"><ele>1023.0</ele><time>2026-03-23T11:48:28.667Z</time></trkpt><trkpt lat="40.7794103" lon="-3.774944"><ele>1023.0</ele><time>2026-03-23T11:48:29.673Z</time></trkpt><trkpt lat="40.7794966" lon="-3.774921"><ele>1023.0</ele><time>2026-03-23T11:48:30.672Z</time></trkpt><trkpt lat="40.7795778" lon="-3.7748933"><ele>1023.0</ele><time>2026-03-23T11:48:31.672Z</time></trkpt><trkpt lat="40.7796579" lon="-3.7748587"><ele>1023.2</ele><time>2026-03-23T11:48:32.658Z</time></trkpt><trkpt lat="40.7797516" lon="-3.7748276"><ele>1023.4</ele><time>2026-03-23T11:48:33.664Z</time></trkpt><trkpt lat="40.7798447" lon="-3.7748009"><ele>1023.6000000000001</ele><time>2026-03-23T11:48:34.676Z</time></trkpt><trkpt lat="40.7799414" lon="-3.7747609"><ele>1023.8000000000001</ele><time>2026-03-23T11:48:35.66Z</time></trkpt><trkpt lat="40.7800404" lon="-3.7747259"><ele>1024.0</ele><time>2026-03-23T11:48:36.674Z</time></trkpt><trkpt lat="40.7801339" lon="-3.7746885"><ele>1024.3333333333333</ele><time>2026-03-23T11:48:37.672Z</time></trkpt><trkpt lat="40.7802133" lon="-3.7746436"><ele>1024.6666666666665</ele><time>2026-03-23T11:48:38.66Z</time></trkpt><trkpt lat="40.7802783" lon="-3.7746107"><ele>1025.0</ele><time>2026-03-23T11:48:39.656Z</time></trkpt><trkpt lat="40.7803471" lon="-3.774573"><ele>1025.3333333333333</ele><time>2026-03-23T11:48:40.665Z</time></trkpt><trkpt lat="40.7804173" lon="-3.7745329"><ele>1025.6666666666667</ele><time>2026-03-23T11:48:41.656Z</time></trkpt><trkpt lat="40.780479" lon="-3.7744899"><ele>1026.0</ele><time>2026-03-23T11:48:42.671Z</time></trkpt><trkpt lat="40.7805695" lon="-3.7744314"><ele>1026.0000000000002</ele><time>2026-03-23T11:48:44.672Z</time></trkpt><trkpt lat="40.7806328" lon="-3.7744229"><ele>1026.0</ele><time>2026-03-23T11:48:53.665Z</time></trkpt><trkpt lat="40.780691" lon="-3.7743818"><ele>1026.0</ele><time>2026-03-23T11:50:10.665Z</time></trkpt><trkpt lat="40.78072" lon="-3.7743027"><ele>1026.0</ele><time>2026-03-23T11:50:14.666Z</time></trkpt><trkpt lat="40.7806751" lon="-3.7742433"><ele>1026.0</ele><time>2026-03-23T11:50:35.661Z</time></trkpt><trkpt lat="40.7806123" lon="-3.7742309"><ele>1026.0000000000002</ele><time>2026-03-23T11:51:03.663Z</time></trkpt><trkpt lat="40.780544" lon="-3.7742215"><ele>1026.0</ele><time>2026-03-23T11:51:50.663Z</time></trkpt><trkpt lat="40.7805786" lon="-3.7742951"><ele>1026.0</ele><time>2026-03-23T11:52:04.661Z</time></trkpt><trkpt lat="40.7807091" lon="-3.7742785"><ele>1026.0</ele><time>2026-03-23T11:52:34.657Z</time></trkpt><trkpt lat="40.7807637" lon="-3.7743376"><ele>1026.0</ele><time>2026-03-23T11:52:53.647Z</time></trkpt><trkpt lat="40.7807865" lon="-3.7744676"><ele>1026.0</ele><time>2026-03-23T11:52:55.642Z</time></trkpt><trkpt lat="40.7807195" lon="-3.7745717"><ele>1026.0</ele><time>2026-03-23T11:53:11.658Z</time></trkpt><trkpt lat="40.7805948" lon="-3.7746261"><ele>1026.0</ele><time>2026-03-23T11:53:13.671Z</time></trkpt><trkpt lat="40.7805117" lon="-3.7746581"><ele>1026.0</ele><time>2026-03-23T11:53:14.67Z</time></trkpt><trkpt lat="40.7804143" lon="-3.7746852"><ele>1026.0</ele><time>2026-03-23T11:53:15.666Z</time></trkpt><trkpt lat="40.7803153" lon="-3.7747178"><ele>1026.0</ele><time>2026-03-23T11:53:16.659Z</time></trkpt><trkpt lat="40.7802043" lon="-3.7747577"><ele>1026.0</ele><time>2026-03-23T11:53:17.666Z</time></trkpt><trkpt lat="40.7800788" lon="-3.7747999"><ele>1025.5</ele><time>2026-03-23T11:53:18.677Z</time></trkpt><trkpt lat="40.7799446" lon="-3.7748438"><ele>1025.0</ele><time>2026-03-23T11:53:19.669Z</time></trkpt><trkpt lat="40.7798068" lon="-3.7748911"><ele>1024.5</ele><time>2026-03-23T11:53:20.659Z</time></trkpt><trkpt lat="40.7796708" lon="-3.7749338"><ele>1024.0</ele><time>2026-03-23T11:53:21.673Z</time></trkpt><trkpt lat="40.77954" lon="-3.7749852"><ele>1024.0</ele><time>2026-03-23T11:53:22.662Z</time></trkpt><trkpt lat="40.7794094" lon="-3.7750376"><ele>1024.0</ele><time>2026-03-23T11:53:23.663Z</time></trkpt><trkpt lat="40.7792821" lon="-3.7750939"><ele>1024.0</ele><time>2026-03-23T11:53:24.642Z</time></trkpt><trkpt lat="40.7791723" lon="-3.7751556"><ele>1024.0</ele><time>2026-03-23T11:53:25.647Z</time></trkpt><trkpt lat="40.7790767" lon="-3.7752192"><ele>1024.2</ele><time>2026-03-23T11:53:26.654Z</time></trkpt><trkpt lat="40.7789889" lon="-3.7753068"><ele>1024.4</ele><time>2026-03-23T11:53:27.637Z</time></trkpt><trkpt lat="40.7789171" lon="-3.7754077"><ele>1024.6</ele><time>2026-03-23T11:53:28.64Z</time></trkpt><trkpt lat="40.7788429" lon="-3.7754964"><ele>1024.8</ele><time>2026-03-23T11:53:29.634Z</time></trkpt><trkpt lat="40.7787526" lon="-3.7755422"><ele>1025.0</ele><time>2026-03-23T11:53:30.643Z</time></trkpt><trkpt lat="40.7786636" lon="-3.7755599"><ele>1025.0</ele><time>2026-03-23T11:53:31.645Z</time></trkpt><trkpt lat="40.778559" lon="-3.7755394"><ele>1025.0</ele><time>2026-03-23T11:53:32.651Z</time></trkpt><trkpt lat="40.7784301" lon="-3.7755219"><ele>1025.0</ele><time>2026-03-23T11:53:33.672Z</time></trkpt><trkpt lat="40.7783179" lon="-3.7755849"><ele>1025.0</ele><time>2026-03-23T11:53:34.664Z</time></trkpt><trkpt lat="40.7781973" lon="-3.7756556"><ele>1023.5</ele><time>2026-03-23T11:53:35.655Z</time></trkpt><trkpt lat="40.778055" lon="-3.7757183"><ele>1022.0</ele><time>2026-03-23T11:53:36.665Z</time></trkpt><trkpt lat="40.7779195" lon="-3.7757903"><ele>1020.5</ele><time>2026-03-23T11:53:37.652Z</time></trkpt><trkpt lat="40.777788" lon="-3.7758899"><ele>1019.0</ele><time>2026-03-23T11:53:38.666Z</time></trkpt><trkpt lat="40.7776449" lon="-3.7759937"><ele>1017.0</ele><time>2026-03-23T11:53:39.668Z</time></trkpt><trkpt lat="40.7774962" lon="-3.7761006"><ele>1015.0</ele><time>2026-03-23T11:53:40.671Z</time></trkpt><trkpt lat="40.777338" lon="-3.7762169"><ele>1013.0</ele><time>2026-03-23T11:53:41.665Z</time></trkpt><trkpt lat="40.7771871" lon="-3.7763302"><ele>1013.0</ele><time>2026-03-23T11:53:42.664Z</time></trkpt><trkpt lat="40.7770415" lon="-3.7764544"><ele>1013.0</ele><time>2026-03-23T11:53:43.669Z</time></trkpt><trkpt lat="40.7768998" lon="-3.7765838"><ele>1013.0</ele><time>2026-03-23T11:53:44.672Z</time></trkpt><trkpt lat="40.7767547" lon="-3.7767198"><ele>1011.3333333333334</ele><time>2026-03-23T11:53:45.666Z</time></trkpt><trkpt lat="40.7766089" lon="-3.7768511"><ele>1009.6666666666667</ele><time>2026-03-23T11:53:46.647Z</time></trkpt><trkpt lat="40.7764663" lon="-3.776983"><ele>1008.0</ele><time>2026-03-23T11:53:47.666Z</time></trkpt><trkpt lat="40.7763284" lon="-3.7771167"><ele>1008.0</ele><time>2026-03-23T11:53:48.663Z</time></trkpt><trkpt lat="40.7761875" lon="-3.7772535"><ele>1008.0</ele><time>2026-03-23T11:53:49.657Z</time></trkpt><trkpt lat="40.7760437" lon="-3.777384"><ele>1008.0</ele><time>2026-03-23T11:53:50.677Z</time></trkpt><trkpt lat="40.7759022" lon="-3.7775093"><ele>1006.0</ele><time>2026-03-23T11:53:51.657Z</time></trkpt><trkpt lat="40.7757606" lon="-3.7776394"><ele>1004.0</ele><time>2026-03-23T11:53:52.68Z</time></trkpt><trkpt lat="40.7756239" lon="-3.7777706"><ele>1002.0</ele><time>2026-03-23T11:53:53.654Z</time></trkpt><trkpt lat="40.7754928" lon="-3.777891"><ele>1002.0</ele><time>2026-03-23T11:53:54.672Z</time></trkpt><trkpt lat="40.7753695" lon="-3.7780125"><ele>1002.0</ele><time>2026-03-23T11:53:55.656Z</time></trkpt><trkpt lat="40.7752448" lon="-3.7781242"><ele>1002.0</ele><time>2026-03-23T11:53:56.655Z</time></trkpt><trkpt lat="40.7751229" lon="-3.7782276"><ele>1002.0</ele><time>2026-03-23T11:53:57.656Z</time></trkpt><trkpt lat="40.7750069" lon="-3.7783266"><ele>1000.0</ele><time>2026-03-23T11:53:58.665Z</time></trkpt><trkpt lat="40.7748989" lon="-3.778427"><ele>998.0</ele><time>2026-03-23T11:53:59.665Z</time></trkpt><trkpt lat="40.7747845" lon="-3.7785324"><ele>996.0</ele><time>2026-03-23T11:54:00.663Z</time></trkpt><trkpt lat="40.7746767" lon="-3.7786319"><ele>994.0</ele><time>2026-03-23T11:54:01.657Z</time></trkpt><trkpt lat="40.7745751" lon="-3.7787272"><ele>994.0</ele><time>2026-03-23T11:54:02.667Z</time></trkpt><trkpt lat="40.7744746" lon="-3.7788244"><ele>994.0</ele><time>2026-03-23T11:54:03.664Z</time></trkpt><trkpt lat="40.7743775" lon="-3.7789154"><ele>994.0</ele><time>2026-03-23T11:54:04.667Z</time></trkpt><trkpt lat="40.7742752" lon="-3.778996"><ele>994.0</ele><time>2026-03-23T11:54:05.651Z</time></trkpt><trkpt lat="40.7741667" lon="-3.779053"><ele>992.2</ele><time>2026-03-23T11:54:06.637Z</time></trkpt><trkpt lat="40.7740533" lon="-3.7790794"><ele>990.4000000000001</ele><time>2026-03-23T11:54:07.658Z</time></trkpt><trkpt lat="40.7739435" lon="-3.7790847"><ele>988.6</ele><time>2026-03-23T11:54:08.657Z</time></trkpt><trkpt lat="40.7738383" lon="-3.7790793"><ele>986.8</ele><time>2026-03-23T11:54:09.67Z</time></trkpt><trkpt lat="40.7737421" lon="-3.7790717"><ele>985.0</ele><time>2026-03-23T11:54:10.646Z</time></trkpt><trkpt lat="40.7736545" lon="-3.7790744"><ele>984.9999999999999</ele><time>2026-03-23T11:54:11.668Z</time></trkpt><trkpt lat="40.7735842" lon="-3.779107"><ele>985.0</ele><time>2026-03-23T11:54:12.667Z</time></trkpt><trkpt lat="40.7735324" lon="-3.7791644"><ele>985.0</ele><time>2026-03-23T11:54:13.664Z</time></trkpt><trkpt lat="40.7734654" lon="-3.7792137"><ele>985.0</ele><time>2026-03-23T11:54:14.672Z</time></trkpt><trkpt lat="40.7733946" lon="-3.7792784"><ele>984.9999999999999</ele><time>2026-03-23T11:54:15.669Z</time></trkpt><trkpt lat="40.7733258" lon="-3.7793405"><ele>985.0</ele><time>2026-03-23T11:54:16.666Z</time></trkpt><trkpt lat="40.7732643" lon="-3.7793905"><ele>985.9999999999999</ele><time>2026-03-23T11:54:17.67Z</time></trkpt><trkpt lat="40.7732035" lon="-3.7794255"><ele>987.0</ele><time>2026-03-23T11:54:18.669Z</time></trkpt><trkpt lat="40.7731399" lon="-3.7794566"><ele>988.0</ele><time>2026-03-23T11:54:19.666Z</time></trkpt><trkpt lat="40.7730653" lon="-3.7794746"><ele>989.0</ele><time>2026-03-23T11:54:20.679Z</time></trkpt><trkpt lat="40.7729778" lon="-3.7794931"><ele>989.9999999999999</ele><time>2026-03-23T11:54:21.662Z</time></trkpt><trkpt lat="40.7728923" lon="-3.7795093"><ele>991.0</ele><time>2026-03-23T11:54:22.665Z</time></trkpt><trkpt lat="40.772802" lon="-3.779532"><ele>990.9999999999999</ele><time>2026-03-23T11:54:23.666Z</time></trkpt><trkpt lat="40.7727233" lon="-3.7795478"><ele>991.0</ele><time>2026-03-23T11:54:24.673Z</time></trkpt><trkpt lat="40.7726526" lon="-3.7795545"><ele>991.0</ele><time>2026-03-23T11:54:25.667Z</time></trkpt><trkpt lat="40.772586" lon="-3.7795701"><ele>991.0</ele><time>2026-03-23T11:54:26.672Z</time></trkpt><trkpt lat="40.7725218" lon="-3.7795796"><ele>990.9999999999999</ele><time>2026-03-23T11:54:27.663Z</time></trkpt><trkpt lat="40.7724034" lon="-3.7796218"><ele>991.0</ele><time>2026-03-23T11:54:29.667Z</time></trkpt><trkpt lat="40.7723104" lon="-3.7796821"><ele>990.3333333333333</ele><time>2026-03-23T11:54:31.667Z</time></trkpt><trkpt lat="40.7722561" lon="-3.7797278"><ele>989.6666666666666</ele><time>2026-03-23T11:54:32.673Z</time></trkpt><trkpt lat="40.7722115" lon="-3.7797977"><ele>989.0</ele><time>2026-03-23T11:54:33.681Z</time></trkpt><trkpt lat="40.772167" lon="-3.7798663"><ele>988.3333333333333</ele><time>2026-03-23T11:54:34.664Z</time></trkpt><trkpt lat="40.7721137" lon="-3.7799798"><ele>987.6666666666666</ele><time>2026-03-23T11:54:36.664Z</time></trkpt><trkpt lat="40.7720877" lon="-3.7800678"><ele>987.0</ele><time>2026-03-23T11:54:38.665Z</time></trkpt><trkpt lat="40.772121" lon="-3.7801619"><ele>987.6666666666666</ele><time>2026-03-23T11:54:48.659Z</time></trkpt><trkpt lat="40.7722013" lon="-3.7802056"><ele>988.3333333333333</ele><time>2026-03-23T11:54:50.655Z</time></trkpt><trkpt lat="40.7722841" lon="-3.7802396"><ele>989.0</ele><time>2026-03-23T11:54:52.65Z</time></trkpt><trkpt lat="40.772389" lon="-3.7802548"><ele>989.6666666666666</ele><time>2026-03-23T11:54:56.662Z</time></trkpt><trkpt lat="40.7724546" lon="-3.7802864"><ele>990.3333333333333</ele><time>2026-03-23T11:54:57.648Z</time></trkpt><trkpt lat="40.7725317" lon="-3.7803654"><ele>991.0</ele><time>2026-03-23T11:54:59.651Z</time></trkpt><trkpt lat="40.7726106" lon="-3.7804584"><ele>991.0</ele><time>2026-03-23T11:55:01.657Z</time></trkpt><trkpt lat="40.7726442" lon="-3.7805445"><ele>990.9999999999999</ele><time>2026-03-23T11:55:03.639Z</time></trkpt><trkpt lat="40.7726864" lon="-3.7806433"><ele>990.9999999999999</ele><time>2026-03-23T11:55:05.646Z</time></trkpt><trkpt lat="40.7727186" lon="-3.780774"><ele>991.0</ele><time>2026-03-23T11:55:07.657Z</time></trkpt><trkpt lat="40.7727194" lon="-3.7809128"><ele>991.0</ele><time>2026-03-23T11:55:09.653Z</time></trkpt><trkpt lat="40.7727266" lon="-3.7810679"><ele>994.4</ele><time>2026-03-23T11:55:11.65Z</time></trkpt><trkpt lat="40.7727351" lon="-3.781222"><ele>997.8</ele><time>2026-03-23T11:55:13.664Z</time></trkpt><trkpt lat="40.7727437" lon="-3.7813682"><ele>1001.1999999999999</ele><time>2026-03-23T11:55:15.661Z</time></trkpt><trkpt lat="40.772758" lon="-3.7815017"><ele>1004.5999999999999</ele><time>2026-03-23T11:55:17.661Z</time></trkpt><trkpt lat="40.7727762" lon="-3.781626"><ele>1008.0</ele><time>2026-03-23T11:55:19.67Z</time></trkpt><trkpt lat="40.7728158" lon="-3.7817678"><ele>1007.1666666666666</ele><time>2026-03-23T11:55:21.664Z</time></trkpt><trkpt lat="40.7728528" lon="-3.7818485"><ele>1006.3333333333333</ele><time>2026-03-23T11:55:22.661Z</time></trkpt><trkpt lat="40.7729153" lon="-3.7819719"><ele>1005.5</ele><time>2026-03-23T11:55:24.655Z</time></trkpt><trkpt lat="40.7729595" lon="-3.7820399"><ele>1004.6666666666666</ele><time>2026-03-23T11:55:25.68Z</time></trkpt><trkpt lat="40.7729961" lon="-3.7821127"><ele>1003.8333333333333</ele><time>2026-03-23T11:55:26.654Z</time></trkpt><trkpt lat="40.7730551" lon="-3.7822367"><ele>1003.0</ele><time>2026-03-23T11:55:28.658Z</time></trkpt><trkpt lat="40.7731052" lon="-3.7823439"><ele>1002.9999999999999</ele><time>2026-03-23T11:55:30.67Z</time></trkpt><trkpt lat="40.7731865" lon="-3.7824208"><ele>1003.0</ele><time>2026-03-23T11:55:32.67Z</time></trkpt><trkpt lat="40.7732522" lon="-3.7824969"><ele>1003.0</ele><time>2026-03-23T11:55:34.656Z</time></trkpt><trkpt lat="40.7732648" lon="-3.7825972"><ele>1003.0</ele><time>2026-03-23T11:55:36.665Z</time></trkpt><trkpt lat="40.7732853" lon="-3.7827175"><ele>1002.9999999999999</ele><time>2026-03-23T11:55:38.663Z</time></trkpt><trkpt lat="40.7733048" lon="-3.7828028"><ele>1003.0</ele><time>2026-03-23T11:55:39.679Z</time></trkpt><trkpt lat="40.7733364" lon="-3.7828992"><ele>1002.5714285714286</ele><time>2026-03-23T11:55:40.672Z</time></trkpt><trkpt lat="40.7733774" lon="-3.7829925"><ele>1002.1428571428571</ele><time>2026-03-23T11:55:41.665Z</time></trkpt><trkpt lat="40.773411" lon="-3.7830853"><ele>1001.7142857142857</ele><time>2026-03-23T11:55:42.671Z</time></trkpt><trkpt lat="40.7734392" lon="-3.7831733"><ele>1001.2857142857142</ele><time>2026-03-23T11:55:43.655Z</time></trkpt><trkpt lat="40.7734664" lon="-3.7832515"><ele>1000.8571428571429</ele><time>2026-03-23T11:55:44.663Z</time></trkpt><trkpt lat="40.7734991" lon="-3.7833323"><ele>1000.4285714285713</ele><time>2026-03-23T11:55:45.665Z</time></trkpt><trkpt lat="40.7735339" lon="-3.783418"><ele>1000.0</ele><time>2026-03-23T11:55:46.672Z</time></trkpt><trkpt lat="40.7735993" lon="-3.7835244"><ele>999.9999999999999</ele><time>2026-03-23T11:55:48.659Z</time></trkpt><trkpt lat="40.7736571" lon="-3.7835669"><ele>1000.0</ele><time>2026-03-23T11:55:49.675Z</time></trkpt><trkpt lat="40.7736997" lon="-3.7836287"><ele>1000.0</ele><time>2026-03-23T11:55:50.667Z</time></trkpt><trkpt lat="40.7737487" lon="-3.7836984"><ele>1000.0</ele><time>2026-03-23T11:55:51.665Z</time></trkpt><trkpt lat="40.7738063" lon="-3.7837688"><ele>999.9999999999999</ele><time>2026-03-23T11:55:52.671Z</time></trkpt><trkpt lat="40.7738753" lon="-3.7838364"><ele>1000.0</ele><time>2026-03-23T11:55:53.666Z</time></trkpt><trkpt lat="40.773948" lon="-3.7838921"><ele>1000.0</ele><time>2026-03-23T11:55:54.657Z</time></trkpt><trkpt lat="40.774009" lon="-3.7839518"><ele>1000.0</ele><time>2026-03-23T11:55:55.663Z</time></trkpt><trkpt lat="40.7740683" lon="-3.7840124"><ele>1000.0</ele><time>2026-03-23T11:55:56.671Z</time></trkpt><trkpt lat="40.7741308" lon="-3.7840695"><ele>1000.0</ele><time>2026-03-23T11:55:57.654Z</time></trkpt><trkpt lat="40.7741988" lon="-3.7841284"><ele>1000.0</ele><time>2026-03-23T11:55:58.646Z</time></trkpt><trkpt lat="40.7742608" lon="-3.7841858"><ele>1000.0</ele><time>2026-03-23T11:55:59.665Z</time></trkpt><trkpt lat="40.7743167" lon="-3.7842246"><ele>1000.0</ele><time>2026-03-23T11:56:00.667Z</time></trkpt><trkpt lat="40.7744395" lon="-3.7842481"><ele>1000.1666666666666</ele><time>2026-03-23T11:56:02.645Z</time></trkpt><trkpt lat="40.7745052" lon="-3.7842952"><ele>1000.3333333333333</ele><time>2026-03-23T11:56:03.66Z</time></trkpt><trkpt lat="40.7745729" lon="-3.7843692"><ele>1000.5</ele><time>2026-03-23T11:56:04.666Z</time></trkpt><trkpt lat="40.774637" lon="-3.7844352"><ele>1000.6666666666667</ele><time>2026-03-23T11:56:05.644Z</time></trkpt><trkpt lat="40.7747132" lon="-3.7844955"><ele>1000.8333333333334</ele><time>2026-03-23T11:56:06.655Z</time></trkpt><trkpt lat="40.7747901" lon="-3.7845496"><ele>1001.0</ele><time>2026-03-23T11:56:07.651Z</time></trkpt><trkpt lat="40.7748667" lon="-3.7846063"><ele>1000.6666666666667</ele><time>2026-03-23T11:56:08.643Z</time></trkpt><trkpt lat="40.7749527" lon="-3.7846502"><ele>1000.3333333333334</ele><time>2026-03-23T11:56:09.661Z</time></trkpt><trkpt lat="40.7750266" lon="-3.784702"><ele>1000.0</ele><time>2026-03-23T11:56:10.647Z</time></trkpt><trkpt lat="40.7751126" lon="-3.784747"><ele>999.6666666666667</ele><time>2026-03-23T11:56:11.654Z</time></trkpt><trkpt lat="40.7751977" lon="-3.7847986"><ele>999.3333333333334</ele><time>2026-03-23T11:56:12.661Z</time></trkpt><trkpt lat="40.7752572" lon="-3.7848377"><ele>999.0</ele><time>2026-03-23T11:56:13.655Z</time></trkpt><trkpt lat="40.7753255" lon="-3.7848935"><ele>999.0</ele><time>2026-03-23T11:56:15.667Z</time></trkpt><trkpt lat="40.7754047" lon="-3.7849053"><ele>999.0000000000001</ele><time>2026-03-23T11:57:07.662Z</time></trkpt><trkpt lat="40.7753096" lon="-3.7848905"><ele>999.0000000000001</ele><time>2026-03-23T11:57:48.662Z</time></trkpt><trkpt lat="40.7752137" lon="-3.7848168"><ele>999.0</ele><time>2026-03-23T11:57:50.642Z</time></trkpt><trkpt lat="40.7751038" lon="-3.7847427"><ele>999.0</ele><time>2026-03-23T11:57:52.644Z</time></trkpt><trkpt lat="40.7749929" lon="-3.7846601"><ele>999.3333333333334</ele><time>2026-03-23T11:57:54.655Z</time></trkpt><trkpt lat="40.7749283" lon="-3.7846278"><ele>999.6666666666667</ele><time>2026-03-23T11:57:55.662Z</time></trkpt><trkpt lat="40.7748678" lon="-3.7845825"><ele>1000.0</ele><time>2026-03-23T11:57:56.66Z</time></trkpt><trkpt lat="40.7747995" lon="-3.7845352"><ele>1000.3333333333334</ele><time>2026-03-23T11:57:57.659Z</time></trkpt><trkpt lat="40.774719" lon="-3.7844744"><ele>1000.6666666666667</ele><time>2026-03-23T11:57:58.661Z</time></trkpt><trkpt lat="40.7746418" lon="-3.7844084"><ele>1001.0</ele><time>2026-03-23T11:57:59.66Z</time></trkpt><trkpt lat="40.7745666" lon="-3.7843455"><ele>1001.0000000000001</ele><time>2026-03-23T11:58:00.668Z</time></trkpt><trkpt lat="40.7745052" lon="-3.7842873"><ele>1001.0</ele><time>2026-03-23T11:58:01.646Z</time></trkpt><trkpt lat="40.77445" lon="-3.7842392"><ele>1001.0</ele><time>2026-03-23T11:58:02.661Z</time></trkpt><trkpt lat="40.7743356" lon="-3.7842026"><ele>1001.0</ele><time>2026-03-23T11:58:04.655Z</time></trkpt><trkpt lat="40.7742704" lon="-3.7841721"><ele>1001.0000000000001</ele><time>2026-03-23T11:58:05.656Z</time></trkpt><trkpt lat="40.7742082" lon="-3.784119"><ele>1001.0</ele><time>2026-03-23T11:58:06.655Z</time></trkpt><trkpt lat="40.7741391" lon="-3.7840514"><ele>1000.8333333333334</ele><time>2026-03-23T11:58:07.657Z</time></trkpt><trkpt lat="40.7740729" lon="-3.7839831"><ele>1000.6666666666667</ele><time>2026-03-23T11:58:08.664Z</time></trkpt><trkpt lat="40.7740113" lon="-3.7839261"><ele>1000.5</ele><time>2026-03-23T11:58:09.66Z</time></trkpt><trkpt lat="40.7739475" lon="-3.783869"><ele>1000.3333333333333</ele><time>2026-03-23T11:58:10.652Z</time></trkpt><trkpt lat="40.7738817" lon="-3.783815"><ele>1000.1666666666666</ele><time>2026-03-23T11:58:11.671Z</time></trkpt><trkpt lat="40.7738194" lon="-3.7837607"><ele>1000.0</ele><time>2026-03-23T11:58:12.671Z</time></trkpt><trkpt lat="40.7737563" lon="-3.7837049"><ele>1000.0</ele><time>2026-03-23T11:58:13.659Z</time></trkpt><trkpt lat="40.7737063" lon="-3.7836377"><ele>1000.0</ele><time>2026-03-23T11:58:14.662Z</time></trkpt><trkpt lat="40.7736367" lon="-3.7835341"><ele>1000.0</ele><time>2026-03-23T11:58:16.66Z</time></trkpt><trkpt lat="40.7735614" lon="-3.7834222"><ele>1000.0</ele><time>2026-03-23T11:58:18.66Z</time></trkpt><trkpt lat="40.7735251" lon="-3.783339"><ele>1000.0</ele><time>2026-03-23T11:58:19.645Z</time></trkpt><trkpt lat="40.7734642" lon="-3.7831829"><ele>999.9999999999999</ele><time>2026-03-23T11:58:21.66Z</time></trkpt><trkpt lat="40.7734327" lon="-3.7830906"><ele>1000.0</ele><time>2026-03-23T11:58:22.643Z</time></trkpt><trkpt lat="40.7733949" lon="-3.7829965"><ele>1000.0</ele><time>2026-03-23T11:58:23.65Z</time></trkpt><trkpt lat="40.7733594" lon="-3.7828941"><ele>1000.0</ele><time>2026-03-23T11:58:24.654Z</time></trkpt><trkpt lat="40.7733276" lon="-3.782802"><ele>999.9999999999999</ele><time>2026-03-23T11:58:25.659Z</time></trkpt><trkpt lat="40.7732974" lon="-3.7827184"><ele>1000.0</ele><time>2026-03-23T11:58:26.658Z</time></trkpt><trkpt lat="40.7732791" lon="-3.7825841"><ele>1000.4999999999999</ele><time>2026-03-23T11:58:28.641Z</time></trkpt><trkpt lat="40.7732719" lon="-3.7824966"><ele>1001.0</ele><time>2026-03-23T11:58:30.656Z</time></trkpt><trkpt lat="40.7731951" lon="-3.7824208"><ele>1001.5</ele><time>2026-03-23T11:58:32.645Z</time></trkpt><trkpt lat="40.7731111" lon="-3.7823289"><ele>1002.0</ele><time>2026-03-23T11:58:34.652Z</time></trkpt><trkpt lat="40.7730697" lon="-3.7822538"><ele>1002.4999999999999</ele><time>2026-03-23T11:58:35.656Z</time></trkpt><trkpt lat="40.7730369" lon="-3.7821788"><ele>1003.0</ele><time>2026-03-23T11:58:36.656Z</time></trkpt><trkpt lat="40.7729981" lon="-3.7821069"><ele>1002.9999999999999</ele><time>2026-03-23T11:58:37.659Z</time></trkpt><trkpt lat="40.772959" lon="-3.7820351"><ele>1003.0</ele><time>2026-03-23T11:58:38.653Z</time></trkpt><trkpt lat="40.7729155" lon="-3.781954"><ele>1003.0</ele><time>2026-03-23T11:58:39.658Z</time></trkpt><trkpt lat="40.7728759" lon="-3.7818781"><ele>1003.0</ele><time>2026-03-23T11:58:40.652Z</time></trkpt><trkpt lat="40.7728411" lon="-3.7817969"><ele>1002.9999999999999</ele><time>2026-03-23T11:58:41.651Z</time></trkpt><trkpt lat="40.7728023" lon="-3.7816702"><ele>1003.0</ele><time>2026-03-23T11:58:43.645Z</time></trkpt><trkpt lat="40.772765" lon="-3.7815715"><ele>1002.5999999999999</ele><time>2026-03-23T11:58:45.655Z</time></trkpt><trkpt lat="40.7727593" lon="-3.7814575"><ele>1002.1999999999999</ele><time>2026-03-23T11:58:47.654Z</time></trkpt><trkpt lat="40.7727489" lon="-3.7813275"><ele>1001.8</ele><time>2026-03-23T11:58:49.656Z</time></trkpt><trkpt lat="40.7727441" lon="-3.7811888"><ele>1001.4</ele><time>2026-03-23T11:58:51.661Z</time></trkpt><trkpt lat="40.7727371" lon="-3.7810351"><ele>1001.0</ele><time>2026-03-23T11:58:53.653Z</time></trkpt><trkpt lat="40.7727434" lon="-3.7809178"><ele>1001.0</ele><time>2026-03-23T11:58:55.654Z</time></trkpt><trkpt lat="40.7727585" lon="-3.7807906"><ele>1000.9999999999999</ele><time>2026-03-23T11:58:57.647Z</time></trkpt><trkpt lat="40.7727611" lon="-3.7806749"><ele>1000.9999999999999</ele><time>2026-03-23T11:58:59.65Z</time></trkpt><trkpt lat="40.7727181" lon="-3.7805485"><ele>1001.0</ele><time>2026-03-23T11:59:01.643Z</time></trkpt><trkpt lat="40.7726484" lon="-3.7804506"><ele>1001.0</ele><time>2026-03-23T11:59:03.639Z</time></trkpt><trkpt lat="40.7725682" lon="-3.780376"><ele>999.0</ele><time>2026-03-23T11:59:05.641Z</time></trkpt><trkpt lat="40.7724594" lon="-3.7803096"><ele>996.9999999999999</ele><time>2026-03-23T11:59:07.635Z</time></trkpt><trkpt lat="40.7723427" lon="-3.7802533"><ele>994.9999999999999</ele><time>2026-03-23T11:59:09.658Z</time></trkpt><trkpt lat="40.7722389" lon="-3.7801994"><ele>993.0</ele><time>2026-03-23T11:59:11.654Z</time></trkpt><trkpt lat="40.7721541" lon="-3.7801485"><ele>991.0</ele><time>2026-03-23T11:59:13.657Z</time></trkpt><trkpt lat="40.7721109" lon="-3.7800759"><ele>990.3333333333333</ele><time>2026-03-23T11:59:15.644Z</time></trkpt><trkpt lat="40.7720514" lon="-3.7800261"><ele>989.6666666666666</ele><time>2026-03-23T11:59:17.65Z</time></trkpt><trkpt lat="40.7719775" lon="-3.7799938"><ele>989.0</ele><time>2026-03-23T11:59:19.646Z</time></trkpt><trkpt lat="40.771908" lon="-3.7800069"><ele>988.3333333333333</ele><time>2026-03-23T11:59:21.657Z</time></trkpt><trkpt lat="40.7718233" lon="-3.7800481"><ele>987.6666666666666</ele><time>2026-03-23T11:59:23.659Z</time></trkpt><trkpt lat="40.7717326" lon="-3.7800531"><ele>987.0</ele><time>2026-03-23T11:59:25.652Z</time></trkpt><trkpt lat="40.7716574" lon="-3.7800222"><ele>985.0</ele><time>2026-03-23T11:59:27.655Z</time></trkpt><trkpt lat="40.7716033" lon="-3.7799748"><ele>983.0</ele><time>2026-03-23T11:59:29.656Z</time></trkpt><trkpt lat="40.7715264" lon="-3.7799748"><ele>981.0</ele><time>2026-03-23T11:59:31.656Z</time></trkpt><trkpt lat="40.7714324" lon="-3.779997"><ele>979.0</ele><time>2026-03-23T11:59:33.652Z</time></trkpt><trkpt lat="40.7712658" lon="-3.7800076"><ele>977.0</ele><time>2026-03-23T11:59:36.664Z</time></trkpt><trkpt lat="40.7711496" lon="-3.7800278"><ele>977.0</ele><time>2026-03-23T11:59:38.667Z</time></trkpt><trkpt lat="40.7710403" lon="-3.7800402"><ele>977.0</ele><time>2026-03-23T11:59:40.665Z</time></trkpt><trkpt lat="40.7709381" lon="-3.7800482"><ele>977.0</ele><time>2026-03-23T11:59:42.806Z</time></trkpt><trkpt lat="40.7708168" lon="-3.7800566"><ele>977.0</ele><time>2026-03-23T11:59:44.804Z</time></trkpt><trkpt lat="40.7706936" lon="-3.7800715"><ele>975.2</ele><time>2026-03-23T11:59:46.648Z</time></trkpt><trkpt lat="40.7706244" lon="-3.7800827"><ele>973.4000000000001</ele><time>2026-03-23T11:59:47.683Z</time></trkpt><trkpt lat="40.7705559" lon="-3.7800994"><ele>971.5999999999999</ele><time>2026-03-23T11:59:48.855Z</time></trkpt><trkpt lat="40.7704367" lon="-3.7801437"><ele>969.8</ele><time>2026-03-23T11:59:50.65Z</time></trkpt><trkpt lat="40.7703474" lon="-3.7802469"><ele>968.0</ele><time>2026-03-23T11:59:52.748Z</time></trkpt><trkpt lat="40.7703132" lon="-3.7803408"><ele>968.0000000000001</ele><time>2026-03-23T11:59:53.76Z</time></trkpt><trkpt lat="40.7702749" lon="-3.7804212"><ele>968.0</ele><time>2026-03-23T11:59:54.675Z</time></trkpt><trkpt lat="40.7702028" lon="-3.7805249"><ele>968.0</ele><time>2026-03-23T11:59:56.676Z</time></trkpt><trkpt lat="40.7701152" lon="-3.7805706"><ele>968.0</ele><time>2026-03-23T11:59:58.665Z</time></trkpt><trkpt lat="40.7700173" lon="-3.7805868"><ele>968.0000000000001</ele><time>2026-03-23T12:00:00.668Z</time></trkpt><trkpt lat="40.7699545" lon="-3.780571"><ele>968.0</ele><time>2026-03-23T12:00:01.652Z</time></trkpt><trkpt lat="40.7698811" lon="-3.7805479"><ele>967.0000000000001</ele><time>2026-03-23T12:00:02.664Z</time></trkpt><trkpt lat="40.7698038" lon="-3.7805194"><ele>966.0</ele><time>2026-03-23T12:00:03.68Z</time></trkpt><trkpt lat="40.7697332" lon="-3.7804939"><ele>965.0</ele><time>2026-03-23T12:00:04.664Z</time></trkpt><trkpt lat="40.7696671" lon="-3.7804796"><ele>964.0</ele><time>2026-03-23T12:00:05.667Z</time></trkpt><trkpt lat="40.769602" lon="-3.7804671"><ele>963.0000000000001</ele><time>2026-03-23T12:00:06.663Z</time></trkpt><trkpt lat="40.7694798" lon="-3.7804824"><ele>962.0</ele><time>2026-03-23T12:00:08.675Z</time></trkpt><trkpt lat="40.7694161" lon="-3.7805134"><ele>960.5000000000001</ele><time>2026-03-23T12:00:09.654Z</time></trkpt><trkpt lat="40.7693454" lon="-3.7805512"><ele>959.0</ele><time>2026-03-23T12:00:10.661Z</time></trkpt><trkpt lat="40.7692736" lon="-3.7805956"><ele>957.5</ele><time>2026-03-23T12:00:11.652Z</time></trkpt><trkpt lat="40.7691988" lon="-3.7806404"><ele>956.0</ele><time>2026-03-23T12:00:12.663Z</time></trkpt><trkpt lat="40.7691262" lon="-3.7806863"><ele>954.5000000000001</ele><time>2026-03-23T12:00:13.673Z</time></trkpt><trkpt lat="40.7690572" lon="-3.7807305"><ele>953.0</ele><time>2026-03-23T12:00:14.646Z</time></trkpt><trkpt lat="40.7689861" lon="-3.7807629"><ele>953.0000000000001</ele><time>2026-03-23T12:00:15.655Z</time></trkpt><trkpt lat="40.7689188" lon="-3.7807742"><ele>953.0</ele><time>2026-03-23T12:00:16.637Z</time></trkpt><trkpt lat="40.7688427" lon="-3.7807682"><ele>953.0</ele><time>2026-03-23T12:00:17.656Z</time></trkpt><trkpt lat="40.7687713" lon="-3.7807403"><ele>953.0</ele><time>2026-03-23T12:00:18.643Z</time></trkpt><trkpt lat="40.7687045" lon="-3.7807134"><ele>953.0000000000001</ele><time>2026-03-23T12:00:19.635Z</time></trkpt><trkpt lat="40.7686261" lon="-3.7807067"><ele>953.0</ele><time>2026-03-23T12:00:20.666Z</time></trkpt><trkpt lat="40.768532" lon="-3.7807371"><ele>951.75</ele><time>2026-03-23T12:00:21.649Z</time></trkpt><trkpt lat="40.7684301" lon="-3.7807972"><ele>950.5</ele><time>2026-03-23T12:00:22.666Z</time></trkpt><trkpt lat="40.7683145" lon="-3.7808557"><ele>949.25</ele><time>2026-03-23T12:00:23.658Z</time></trkpt><trkpt lat="40.7681937" lon="-3.7809054"><ele>948.0</ele><time>2026-03-23T12:00:24.653Z</time></trkpt><trkpt lat="40.7680577" lon="-3.7809611"><ele>948.0</ele><time>2026-03-23T12:00:25.667Z</time></trkpt><trkpt lat="40.7679229" lon="-3.7810143"><ele>948.0</ele><time>2026-03-23T12:00:26.652Z</time></trkpt><trkpt lat="40.7677913" lon="-3.7810694"><ele>948.0</ele><time>2026-03-23T12:00:27.648Z</time></trkpt><trkpt lat="40.7676591" lon="-3.7811256"><ele>948.0</ele><time>2026-03-23T12:00:28.665Z</time></trkpt><trkpt lat="40.7675187" lon="-3.7811829"><ele>948.3333333333333</ele><time>2026-03-23T12:00:29.654Z</time></trkpt><trkpt lat="40.767378" lon="-3.781235"><ele>948.6666666666666</ele><time>2026-03-23T12:00:30.661Z</time></trkpt><trkpt lat="40.7672272" lon="-3.7812794"><ele>949.0</ele><time>2026-03-23T12:00:31.658Z</time></trkpt><trkpt lat="40.7670708" lon="-3.78131"><ele>949.0</ele><time>2026-03-23T12:00:32.654Z</time></trkpt><trkpt lat="40.7669118" lon="-3.7813369"><ele>949.0</ele><time>2026-03-23T12:00:33.794Z</time></trkpt><trkpt lat="40.7665923" lon="-3.7813872"><ele>948.3333333333333</ele><time>2026-03-23T12:00:35.68Z</time></trkpt><trkpt lat="40.7664363" lon="-3.7814127"><ele>947.6666666666667</ele><time>2026-03-23T12:00:36.762Z</time></trkpt><trkpt lat="40.7662807" lon="-3.7814368"><ele>947.0</ele><time>2026-03-23T12:00:37.67Z</time></trkpt><trkpt lat="40.7661402" lon="-3.7814576"><ele>945.75</ele><time>2026-03-23T12:00:38.659Z</time></trkpt><trkpt lat="40.7659932" lon="-3.7814837"><ele>944.5</ele><time>2026-03-23T12:00:39.645Z</time></trkpt><trkpt lat="40.7658527" lon="-3.7815118"><ele>943.25</ele><time>2026-03-23T12:00:40.655Z</time></trkpt><trkpt lat="40.7657151" lon="-3.7815322"><ele>942.0</ele><time>2026-03-23T12:00:41.645Z</time></trkpt><trkpt lat="40.7655791" lon="-3.7815522"><ele>942.0</ele><time>2026-03-23T12:00:42.639Z</time></trkpt><trkpt lat="40.7654512" lon="-3.7815731"><ele>942.0</ele><time>2026-03-23T12:00:43.662Z</time></trkpt><trkpt lat="40.765341" lon="-3.7815996"><ele>942.0</ele><time>2026-03-23T12:00:44.648Z</time></trkpt><trkpt lat="40.7652516" lon="-3.7816358"><ele>942.0</ele><time>2026-03-23T12:00:45.727Z</time></trkpt><trkpt lat="40.7651798" lon="-3.7817014"><ele>942.0</ele><time>2026-03-23T12:00:46.677Z</time></trkpt><trkpt lat="40.7651084" lon="-3.7817576"><ele>941.6666666666666</ele><time>2026-03-23T12:00:47.666Z</time></trkpt><trkpt lat="40.7650353" lon="-3.7817825"><ele>941.3333333333333</ele><time>2026-03-23T12:00:48.649Z</time></trkpt><trkpt lat="40.7649702" lon="-3.7817587"><ele>941.0</ele><time>2026-03-23T12:00:49.65Z</time></trkpt><trkpt lat="40.7649003" lon="-3.7817297"><ele>940.6666666666666</ele><time>2026-03-23T12:00:50.649Z</time></trkpt><trkpt lat="40.7648143" lon="-3.7817141"><ele>940.3333333333333</ele><time>2026-03-23T12:00:51.635Z</time></trkpt><trkpt lat="40.7647115" lon="-3.7817103"><ele>940.0</ele><time>2026-03-23T12:00:52.741Z</time></trkpt><trkpt lat="40.7645953" lon="-3.7817168"><ele>940.0</ele><time>2026-03-23T12:00:53.646Z</time></trkpt><trkpt lat="40.7644741" lon="-3.7817277"><ele>940.0</ele><time>2026-03-23T12:00:54.656Z</time></trkpt><trkpt lat="40.7643446" lon="-3.7817473"><ele>940.0</ele><time>2026-03-23T12:00:55.651Z</time></trkpt><trkpt lat="40.7642121" lon="-3.7817772"><ele>940.0</ele><time>2026-03-23T12:00:56.655Z</time></trkpt><trkpt lat="40.7640631" lon="-3.7818096"><ele>940.0</ele><time>2026-03-23T12:00:57.668Z</time></trkpt><trkpt lat="40.7639129" lon="-3.781837"><ele>940.0</ele><time>2026-03-23T12:00:58.643Z</time></trkpt><trkpt lat="40.7637614" lon="-3.7818606"><ele>940.0</ele><time>2026-03-23T12:00:59.657Z</time></trkpt><trkpt lat="40.7635978" lon="-3.7818802"><ele>938.6666666666666</ele><time>2026-03-23T12:01:00.647Z</time></trkpt><trkpt lat="40.7634395" lon="-3.7819042"><ele>937.3333333333333</ele><time>2026-03-23T12:01:01.737Z</time></trkpt><trkpt lat="40.76328" lon="-3.7819303"><ele>936.0</ele><time>2026-03-23T12:01:02.646Z</time></trkpt><trkpt lat="40.7631282" lon="-3.7819612"><ele>936.0</ele><time>2026-03-23T12:01:03.675Z</time></trkpt><trkpt lat="40.7629783" lon="-3.7819864"><ele>936.0</ele><time>2026-03-23T12:01:04.636Z</time></trkpt><trkpt lat="40.7628362" lon="-3.782001"><ele>936.0</ele><time>2026-03-23T12:01:05.65Z</time></trkpt><trkpt lat="40.7626904" lon="-3.7820208"><ele>936.0</ele><time>2026-03-23T12:01:06.649Z</time></trkpt><trkpt lat="40.7625506" lon="-3.7820448"><ele>936.0</ele><time>2026-03-23T12:01:07.647Z</time></trkpt><trkpt lat="40.7624141" lon="-3.7820736"><ele>936.0</ele><time>2026-03-23T12:01:08.66Z</time></trkpt><trkpt lat="40.7622805" lon="-3.7820963"><ele>936.0</ele><time>2026-03-23T12:01:09.668Z</time></trkpt><trkpt lat="40.7621522" lon="-3.7821166"><ele>936.0</ele><time>2026-03-23T12:01:10.653Z</time></trkpt><trkpt lat="40.7620264" lon="-3.7821331"><ele>936.0</ele><time>2026-03-23T12:01:11.662Z</time></trkpt><trkpt lat="40.7618996" lon="-3.7821531"><ele>936.0</ele><time>2026-03-23T12:01:12.654Z</time></trkpt><trkpt lat="40.7617762" lon="-3.782165"><ele>936.0</ele><time>2026-03-23T12:01:13.657Z</time></trkpt><trkpt lat="40.7616597" lon="-3.7821843"><ele>936.0</ele><time>2026-03-23T12:01:14.649Z</time></trkpt><trkpt lat="40.761548" lon="-3.7822087"><ele>935.5999999999999</ele><time>2026-03-23T12:01:15.66Z</time></trkpt><trkpt lat="40.7614368" lon="-3.7822259"><ele>935.1999999999999</ele><time>2026-03-23T12:01:16.656Z</time></trkpt><trkpt lat="40.7613258" lon="-3.7822435"><ele>934.8000000000001</ele><time>2026-03-23T12:01:17.663Z</time></trkpt><trkpt lat="40.7612207" lon="-3.7822581"><ele>934.4000000000001</ele><time>2026-03-23T12:01:18.662Z</time></trkpt><trkpt lat="40.7611162" lon="-3.782273"><ele>934.0</ele><time>2026-03-23T12:01:19.66Z</time></trkpt><trkpt lat="40.7610097" lon="-3.7822856"><ele>933.8000000000001</ele><time>2026-03-23T12:01:20.661Z</time></trkpt><trkpt lat="40.7609073" lon="-3.7822999"><ele>933.6000000000001</ele><time>2026-03-23T12:01:21.654Z</time></trkpt><trkpt lat="40.7608111" lon="-3.7823165"><ele>933.4</ele><time>2026-03-23T12:01:22.656Z</time></trkpt><trkpt lat="40.7607132" lon="-3.7823376"><ele>933.2</ele><time>2026-03-23T12:01:23.666Z</time></trkpt><trkpt lat="40.7606104" lon="-3.78236"><ele>933.0</ele><time>2026-03-23T12:01:24.663Z</time></trkpt><trkpt lat="40.7605112" lon="-3.7823815"><ele>933.0</ele><time>2026-03-23T12:01:25.655Z</time></trkpt><trkpt lat="40.7604175" lon="-3.7823971"><ele>933.0</ele><time>2026-03-23T12:01:26.651Z</time></trkpt><trkpt lat="40.7603268" lon="-3.7824118"><ele>933.0</ele><time>2026-03-23T12:01:27.657Z</time></trkpt><trkpt lat="40.7602396" lon="-3.7824277"><ele>933.0</ele><time>2026-03-23T12:01:28.659Z</time></trkpt><trkpt lat="40.7601581" lon="-3.7824377"><ele>933.0</ele><time>2026-03-23T12:01:29.664Z</time></trkpt><trkpt lat="40.7600796" lon="-3.7824494"><ele>933.0</ele><time>2026-03-23T12:01:30.658Z</time></trkpt><trkpt lat="40.7600048" lon="-3.7824613"><ele>932.6666666666666</ele><time>2026-03-23T12:01:31.657Z</time></trkpt><trkpt lat="40.7599344" lon="-3.7824729"><ele>932.3333333333333</ele><time>2026-03-23T12:01:32.65Z</time></trkpt><trkpt lat="40.759866" lon="-3.7824885"><ele>932.0</ele><time>2026-03-23T12:01:33.654Z</time></trkpt><trkpt lat="40.7597897" lon="-3.7825018"><ele>931.6666666666666</ele><time>2026-03-23T12:01:34.648Z</time></trkpt><trkpt lat="40.7597056" lon="-3.7825154"><ele>931.3333333333333</ele><time>2026-03-23T12:01:35.644Z</time></trkpt><trkpt lat="40.7596065" lon="-3.7825346"><ele>931.0</ele><time>2026-03-23T12:01:36.663Z</time></trkpt><trkpt lat="40.7594951" lon="-3.7825557"><ele>931.0</ele><time>2026-03-23T12:01:37.665Z</time></trkpt><trkpt lat="40.7593816" lon="-3.7825769"><ele>931.0</ele><time>2026-03-23T12:01:38.668Z</time></trkpt><trkpt lat="40.759262" lon="-3.7825915"><ele>931.0</ele><time>2026-03-23T12:01:39.664Z</time></trkpt><trkpt lat="40.7591382" lon="-3.7826079"><ele>931.0</ele><time>2026-03-23T12:01:40.659Z</time></trkpt><trkpt lat="40.7590031" lon="-3.782633"><ele>930.75</ele><time>2026-03-23T12:01:41.67Z</time></trkpt><trkpt lat="40.7588647" lon="-3.7826551"><ele>930.5</ele><time>2026-03-23T12:01:42.665Z</time></trkpt><trkpt lat="40.7587199" lon="-3.7826843"><ele>930.25</ele><time>2026-03-23T12:01:43.655Z</time></trkpt><trkpt lat="40.7585758" lon="-3.7827102"><ele>930.0</ele><time>2026-03-23T12:01:44.672Z</time></trkpt><trkpt lat="40.7584235" lon="-3.7827345"><ele>929.75</ele><time>2026-03-23T12:01:45.661Z</time></trkpt><trkpt lat="40.75828" lon="-3.7827592"><ele>929.5</ele><time>2026-03-23T12:01:46.678Z</time></trkpt><trkpt lat="40.7581402" lon="-3.7827823"><ele>929.25</ele><time>2026-03-23T12:01:47.663Z</time></trkpt><trkpt lat="40.7580035" lon="-3.7828019"><ele>929.0</ele><time>2026-03-23T12:01:48.667Z</time></trkpt><trkpt lat="40.7578678" lon="-3.7828227"><ele>929.0</ele><time>2026-03-23T12:01:49.662Z</time></trkpt><trkpt lat="40.7577432" lon="-3.7828446"><ele>929.0</ele><time>2026-03-23T12:01:50.663Z</time></trkpt><trkpt lat="40.7576154" lon="-3.7828625"><ele>929.0</ele><time>2026-03-23T12:01:51.662Z</time></trkpt><trkpt lat="40.7574809" lon="-3.782882"><ele>929.0</ele><time>2026-03-23T12:01:52.654Z</time></trkpt><trkpt lat="40.7573501" lon="-3.782907"><ele>928.25</ele><time>2026-03-23T12:01:53.656Z</time></trkpt><trkpt lat="40.7572245" lon="-3.7829338"><ele>927.5</ele><time>2026-03-23T12:01:54.651Z</time></trkpt><trkpt lat="40.7571053" lon="-3.7829549"><ele>926.75</ele><time>2026-03-23T12:01:55.653Z</time></trkpt><trkpt lat="40.7569924" lon="-3.7829816"><ele>926.0</ele><time>2026-03-23T12:01:56.653Z</time></trkpt><trkpt lat="40.7568893" lon="-3.7830272"><ele>925.5999999999999</ele><time>2026-03-23T12:01:57.654Z</time></trkpt><trkpt lat="40.7567924" lon="-3.7830912"><ele>925.1999999999999</ele><time>2026-03-23T12:01:58.662Z</time></trkpt><trkpt lat="40.7566948" lon="-3.783154"><ele>924.8000000000001</ele><time>2026-03-23T12:01:59.66Z</time></trkpt><trkpt lat="40.7565949" lon="-3.783184"><ele>924.4000000000001</ele><time>2026-03-23T12:02:00.663Z</time></trkpt><trkpt lat="40.7564946" lon="-3.783159"><ele>924.0</ele><time>2026-03-23T12:02:01.667Z</time></trkpt><trkpt lat="40.7563858" lon="-3.7831076"><ele>924.0</ele><time>2026-03-23T12:02:02.667Z</time></trkpt><trkpt lat="40.7562706" lon="-3.7830899"><ele>924.0</ele><time>2026-03-23T12:02:03.653Z</time></trkpt><trkpt lat="40.7561541" lon="-3.7831029"><ele>924.0</ele><time>2026-03-23T12:02:04.663Z</time></trkpt><trkpt lat="40.7560374" lon="-3.7831235"><ele>924.0</ele><time>2026-03-23T12:02:05.66Z</time></trkpt><trkpt lat="40.7559139" lon="-3.7831483"><ele>924.0</ele><time>2026-03-23T12:02:06.666Z</time></trkpt><trkpt lat="40.7557905" lon="-3.7831631"><ele>924.0</ele><time>2026-03-23T12:02:07.67Z</time></trkpt><trkpt lat="40.7556665" lon="-3.7831831"><ele>924.0</ele><time>2026-03-23T12:02:08.661Z</time></trkpt><trkpt lat="40.7555493" lon="-3.7832049"><ele>924.0</ele><time>2026-03-23T12:02:09.667Z</time></trkpt><trkpt lat="40.7554365" lon="-3.7832257"><ele>924.0</ele><time>2026-03-23T12:02:10.669Z</time></trkpt><trkpt lat="40.755327" lon="-3.78324"><ele>924.0000000000001</ele><time>2026-03-23T12:02:11.644Z</time></trkpt><trkpt lat="40.7552278" lon="-3.7832495"><ele>924.0000000000001</ele><time>2026-03-23T12:02:12.659Z</time></trkpt><trkpt lat="40.7551348" lon="-3.7832554"><ele>924.0</ele><time>2026-03-23T12:02:13.674Z</time></trkpt><trkpt lat="40.7550454" lon="-3.7832608"><ele>924.0</ele><time>2026-03-23T12:02:14.655Z</time></trkpt><trkpt lat="40.7549645" lon="-3.7832681"><ele>925.0</ele><time>2026-03-23T12:02:15.659Z</time></trkpt><trkpt lat="40.7548784" lon="-3.7832959"><ele>925.0</ele><time>2026-03-23T12:02:17.655Z</time></trkpt></trkseg></trk></gpx>